<?xml version="1.0" encoding="UTF-8" standalone="no" ?>
<gpx xmlns="http://www.topografix.com/GPX/1/1" xmlns:xsi="http://www.w3.org/2001/XMLSchema-instance" xsi:schemaLocation="http://www.topografix.com/GPX/1/1 http://www.topografix.com/GPX/1/1/gpx.xsd" version="1.1" creator="VisuGPX - https://www.visugpx.com">
  <metadata>
    <name>SENS-ST MARTIN-NAILLY</name>
    <desc><![CDATA[Parcours VTT varié de Sens à Nailly en passant par St MArtin du tertre et Courtois.]]></desc>
  </metadata>
  <trk>
    <name><![CDATA[2011-05-15 10:06]]></name>
    <desc><![CDATA[]]></desc>
    <trkseg>
      <trkpt lat="48.20286" lon="3.28066">
        <ele>75</ele>
        <time>2011-05-15T08:05:01Z</time>
      </trkpt>
      <trkpt lat="48.20286" lon="3.28066">
        <ele>75</ele>
        <time>2011-05-15T08:05:01Z</time>
      </trkpt>
      <trkpt lat="48.20286" lon="3.28066">
        <ele>75</ele>
        <time>2011-05-15T08:05:03Z</time>
      </trkpt>
      <trkpt lat="48.2028" lon="3.28053">
        <ele>92</ele>
        <time>2011-05-15T08:05:04Z</time>
      </trkpt>
      <trkpt lat="48.2028" lon="3.28053">
        <ele>92</ele>
        <time>2011-05-15T08:05:04Z</time>
      </trkpt>
      <trkpt lat="48.2028" lon="3.28053">
        <ele>92</ele>
        <time>2011-05-15T08:05:19Z</time>
      </trkpt>
      <trkpt lat="48.20274" lon="3.28043">
        <ele>122</ele>
        <time>2011-05-15T08:05:20Z</time>
      </trkpt>
      <trkpt lat="48.20274" lon="3.28043">
        <ele>122</ele>
        <time>2011-05-15T08:05:20Z</time>
      </trkpt>
      <trkpt lat="48.20274" lon="3.28043">
        <ele>122</ele>
        <time>2011-05-15T08:05:24Z</time>
      </trkpt>
      <trkpt lat="48.20276" lon="3.28049">
        <ele>117</ele>
        <time>2011-05-15T08:05:29Z</time>
      </trkpt>
      <trkpt lat="48.2028" lon="3.28051">
        <ele>117</ele>
        <time>2011-05-15T08:05:42Z</time>
      </trkpt>
      <trkpt lat="48.2028" lon="3.28051">
        <ele>117</ele>
        <time>2011-05-15T08:05:42Z</time>
      </trkpt>
      <trkpt lat="48.2028" lon="3.28051">
        <ele>117</ele>
        <time>2011-05-15T08:06:27Z</time>
      </trkpt>
      <trkpt lat="48.20276" lon="3.28056">
        <ele>117</ele>
        <time>2011-05-15T08:06:32Z</time>
      </trkpt>
      <trkpt lat="48.20271" lon="3.2806">
        <ele>117</ele>
        <time>2011-05-15T08:06:37Z</time>
      </trkpt>
      <trkpt lat="48.20265" lon="3.28058">
        <ele>117</ele>
        <time>2011-05-15T08:06:50Z</time>
      </trkpt>
      <trkpt lat="48.20265" lon="3.28058">
        <ele>117</ele>
        <time>2011-05-15T08:06:50Z</time>
      </trkpt>
      <trkpt lat="48.20265" lon="3.28058">
        <ele>117</ele>
        <time>2011-05-15T08:06:51Z</time>
      </trkpt>
      <trkpt lat="48.20269" lon="3.28051">
        <ele>116</ele>
        <time>2011-05-15T08:06:58Z</time>
      </trkpt>
      <trkpt lat="48.2027" lon="3.28043">
        <ele>116</ele>
        <time>2011-05-15T08:07:04Z</time>
      </trkpt>
      <trkpt lat="48.2027" lon="3.28034">
        <ele>117</ele>
        <time>2011-05-15T08:08:02Z</time>
      </trkpt>
      <trkpt lat="48.2027" lon="3.28034">
        <ele>117</ele>
        <time>2011-05-15T08:08:02Z</time>
      </trkpt>
      <trkpt lat="48.2027" lon="3.28034">
        <ele>117</ele>
        <time>2011-05-15T08:08:15Z</time>
      </trkpt>
      <trkpt lat="48.20274" lon="3.28038">
        <ele>117</ele>
        <time>2011-05-15T08:09:53Z</time>
      </trkpt>
      <trkpt lat="48.20274" lon="3.28038">
        <ele>117</ele>
        <time>2011-05-15T08:09:53Z</time>
      </trkpt>
      <trkpt lat="48.20274" lon="3.28038">
        <ele>117</ele>
        <time>2011-05-15T08:09:57Z</time>
      </trkpt>
      <trkpt lat="48.20269" lon="3.28036">
        <ele>117</ele>
        <time>2011-05-15T08:10:44Z</time>
      </trkpt>
      <trkpt lat="48.20269" lon="3.28036">
        <ele>117</ele>
        <time>2011-05-15T08:10:44Z</time>
      </trkpt>
      <trkpt lat="48.20269" lon="3.28036">
        <ele>117</ele>
        <time>2011-05-15T08:10:45Z</time>
      </trkpt>
      <trkpt lat="48.20271" lon="3.28043">
        <ele>116</ele>
        <time>2011-05-15T08:11:33Z</time>
      </trkpt>
      <trkpt lat="48.20271" lon="3.28043">
        <ele>116</ele>
        <time>2011-05-15T08:11:33Z</time>
      </trkpt>
      <trkpt lat="48.20271" lon="3.28043">
        <ele>116</ele>
        <time>2011-05-15T08:11:36Z</time>
      </trkpt>
      <trkpt lat="48.20275" lon="3.28047">
        <ele>116</ele>
        <time>2011-05-15T08:12:00Z</time>
      </trkpt>
      <trkpt lat="48.20275" lon="3.28047">
        <ele>116</ele>
        <time>2011-05-15T08:12:00Z</time>
      </trkpt>
      <trkpt lat="48.20275" lon="3.28047">
        <ele>116</ele>
        <time>2011-05-15T08:12:19Z</time>
      </trkpt>
      <trkpt lat="48.20274" lon="3.28038">
        <ele>116</ele>
        <time>2011-05-15T08:12:30Z</time>
      </trkpt>
      <trkpt lat="48.20274" lon="3.28038">
        <ele>116</ele>
        <time>2011-05-15T08:12:30Z</time>
      </trkpt>
      <trkpt lat="48.20274" lon="3.28038">
        <ele>116</ele>
        <time>2011-05-15T08:13:07Z</time>
      </trkpt>
      <trkpt lat="48.20273" lon="3.2803">
        <ele>116</ele>
        <time>2011-05-15T08:14:28Z</time>
      </trkpt>
      <trkpt lat="48.20273" lon="3.2803">
        <ele>116</ele>
        <time>2011-05-15T08:14:28Z</time>
      </trkpt>
      <trkpt lat="48.20273" lon="3.2803">
        <ele>116</ele>
        <time>2011-05-15T08:14:32Z</time>
      </trkpt>
      <trkpt lat="48.20274" lon="3.28038">
        <ele>116</ele>
        <time>2011-05-15T08:14:59Z</time>
      </trkpt>
      <trkpt lat="48.20274" lon="3.28038">
        <ele>116</ele>
        <time>2011-05-15T08:14:59Z</time>
      </trkpt>
      <trkpt lat="48.20274" lon="3.28038">
        <ele>116</ele>
        <time>2011-05-15T08:15:04Z</time>
      </trkpt>
      <trkpt lat="48.20278" lon="3.2804">
        <ele>115</ele>
        <time>2011-05-15T08:15:15Z</time>
      </trkpt>
      <trkpt lat="48.20278" lon="3.2804">
        <ele>115</ele>
        <time>2011-05-15T08:15:15Z</time>
      </trkpt>
      <trkpt lat="48.20278" lon="3.2804">
        <ele>115</ele>
        <time>2011-05-15T08:15:16Z</time>
      </trkpt>
      <trkpt lat="48.20282" lon="3.28038">
        <ele>115</ele>
        <time>2011-05-15T08:15:20Z</time>
      </trkpt>
      <trkpt lat="48.20287" lon="3.28034">
        <ele>115</ele>
        <time>2011-05-15T08:15:23Z</time>
      </trkpt>
      <trkpt lat="48.20291" lon="3.28032">
        <ele>115</ele>
        <time>2011-05-15T08:15:26Z</time>
      </trkpt>
      <trkpt lat="48.20295" lon="3.28028">
        <ele>115</ele>
        <time>2011-05-15T08:15:28Z</time>
      </trkpt>
      <trkpt lat="48.203" lon="3.28023">
        <ele>115</ele>
        <time>2011-05-15T08:15:31Z</time>
      </trkpt>
      <trkpt lat="48.20304" lon="3.28019">
        <ele>115</ele>
        <time>2011-05-15T08:15:33Z</time>
      </trkpt>
      <trkpt lat="48.20309" lon="3.28015">
        <ele>115</ele>
        <time>2011-05-15T08:15:36Z</time>
      </trkpt>
      <trkpt lat="48.20315" lon="3.28008">
        <ele>116</ele>
        <time>2011-05-15T08:15:39Z</time>
      </trkpt>
      <trkpt lat="48.2032" lon="3.28004">
        <ele>116</ele>
        <time>2011-05-15T08:15:42Z</time>
      </trkpt>
      <trkpt lat="48.20325" lon="3.27998">
        <ele>116</ele>
        <time>2011-05-15T08:15:45Z</time>
      </trkpt>
      <trkpt lat="48.2033" lon="3.27993">
        <ele>117</ele>
        <time>2011-05-15T08:15:47Z</time>
      </trkpt>
      <trkpt lat="48.20336" lon="3.27989">
        <ele>117</ele>
        <time>2011-05-15T08:15:50Z</time>
      </trkpt>
      <trkpt lat="48.2034" lon="3.27987">
        <ele>118</ele>
        <time>2011-05-15T08:15:52Z</time>
      </trkpt>
      <trkpt lat="48.20346" lon="3.27983">
        <ele>118</ele>
        <time>2011-05-15T08:15:54Z</time>
      </trkpt>
      <trkpt lat="48.20352" lon="3.27976">
        <ele>119</ele>
        <time>2011-05-15T08:15:56Z</time>
      </trkpt>
      <trkpt lat="48.2036" lon="3.27968">
        <ele>122</ele>
        <time>2011-05-15T08:15:58Z</time>
      </trkpt>
      <trkpt lat="48.20363" lon="3.27961">
        <ele>125</ele>
        <time>2011-05-15T08:15:59Z</time>
      </trkpt>
      <trkpt lat="48.20367" lon="3.27957">
        <ele>127</ele>
        <time>2011-05-15T08:16:00Z</time>
      </trkpt>
      <trkpt lat="48.2037" lon="3.2795">
        <ele>129</ele>
        <time>2011-05-15T08:16:01Z</time>
      </trkpt>
      <trkpt lat="48.20375" lon="3.27946">
        <ele>131</ele>
        <time>2011-05-15T08:16:02Z</time>
      </trkpt>
      <trkpt lat="48.20382" lon="3.27938">
        <ele>133</ele>
        <time>2011-05-15T08:16:04Z</time>
      </trkpt>
      <trkpt lat="48.20387" lon="3.27933">
        <ele>134</ele>
        <time>2011-05-15T08:16:05Z</time>
      </trkpt>
      <trkpt lat="48.20394" lon="3.27927">
        <ele>136</ele>
        <time>2011-05-15T08:16:07Z</time>
      </trkpt>
      <trkpt lat="48.20402" lon="3.27918">
        <ele>136</ele>
        <time>2011-05-15T08:16:09Z</time>
      </trkpt>
      <trkpt lat="48.20408" lon="3.27912">
        <ele>137</ele>
        <time>2011-05-15T08:16:11Z</time>
      </trkpt>
      <trkpt lat="48.20412" lon="3.27908">
        <ele>137</ele>
        <time>2011-05-15T08:16:12Z</time>
      </trkpt>
      <trkpt lat="48.20419" lon="3.27901">
        <ele>137</ele>
        <time>2011-05-15T08:16:14Z</time>
      </trkpt>
      <trkpt lat="48.20425" lon="3.27895">
        <ele>137</ele>
        <time>2011-05-15T08:16:16Z</time>
      </trkpt>
      <trkpt lat="48.20438" lon="3.27888">
        <ele>137</ele>
        <time>2011-05-15T08:16:24Z</time>
      </trkpt>
      <trkpt lat="48.20438" lon="3.27888">
        <ele>137</ele>
        <time>2011-05-15T08:16:24Z</time>
      </trkpt>
      <trkpt lat="48.20438" lon="3.27888">
        <ele>137</ele>
        <time>2011-05-15T08:17:20Z</time>
      </trkpt>
      <trkpt lat="48.20448" lon="3.27875">
        <ele>134</ele>
        <time>2011-05-15T08:17:21Z</time>
      </trkpt>
      <trkpt lat="48.20448" lon="3.27875">
        <ele>134</ele>
        <time>2011-05-15T08:17:21Z</time>
      </trkpt>
      <trkpt lat="48.20448" lon="3.27875">
        <ele>134</ele>
        <time>2011-05-15T08:17:22Z</time>
      </trkpt>
      <trkpt lat="48.20457" lon="3.27862">
        <ele>134</ele>
        <time>2011-05-15T08:17:23Z</time>
      </trkpt>
      <trkpt lat="48.20457" lon="3.27862">
        <ele>134</ele>
        <time>2011-05-15T08:17:23Z</time>
      </trkpt>
      <trkpt lat="48.20457" lon="3.27862">
        <ele>134</ele>
        <time>2011-05-15T08:17:25Z</time>
      </trkpt>
      <trkpt lat="48.20467" lon="3.27852">
        <ele>133</ele>
        <time>2011-05-15T08:17:26Z</time>
      </trkpt>
      <trkpt lat="48.20472" lon="3.27845">
        <ele>133</ele>
        <time>2011-05-15T08:17:28Z</time>
      </trkpt>
      <trkpt lat="48.20478" lon="3.27839">
        <ele>132</ele>
        <time>2011-05-15T08:17:30Z</time>
      </trkpt>
      <trkpt lat="48.20484" lon="3.27832">
        <ele>132</ele>
        <time>2011-05-15T08:17:32Z</time>
      </trkpt>
      <trkpt lat="48.20491" lon="3.27826">
        <ele>132</ele>
        <time>2011-05-15T08:17:34Z</time>
      </trkpt>
      <trkpt lat="48.20496" lon="3.2782">
        <ele>132</ele>
        <time>2011-05-15T08:17:36Z</time>
      </trkpt>
      <trkpt lat="48.20502" lon="3.27815">
        <ele>131</ele>
        <time>2011-05-15T08:17:38Z</time>
      </trkpt>
      <trkpt lat="48.20509" lon="3.27817">
        <ele>131</ele>
        <time>2011-05-15T08:17:40Z</time>
      </trkpt>
      <trkpt lat="48.20514" lon="3.27822">
        <ele>131</ele>
        <time>2011-05-15T08:17:42Z</time>
      </trkpt>
      <trkpt lat="48.20522" lon="3.27822">
        <ele>131</ele>
        <time>2011-05-15T08:17:44Z</time>
      </trkpt>
      <trkpt lat="48.20528" lon="3.2782">
        <ele>131</ele>
        <time>2011-05-15T08:17:46Z</time>
      </trkpt>
      <trkpt lat="48.20532" lon="3.27811">
        <ele>131</ele>
        <time>2011-05-15T08:17:48Z</time>
      </trkpt>
      <trkpt lat="48.20536" lon="3.27802">
        <ele>131</ele>
        <time>2011-05-15T08:17:50Z</time>
      </trkpt>
      <trkpt lat="48.20538" lon="3.27794">
        <ele>131</ele>
        <time>2011-05-15T08:17:52Z</time>
      </trkpt>
      <trkpt lat="48.20537" lon="3.27781">
        <ele>131</ele>
        <time>2011-05-15T08:17:54Z</time>
      </trkpt>
      <trkpt lat="48.20535" lon="3.27774">
        <ele>130</ele>
        <time>2011-05-15T08:17:55Z</time>
      </trkpt>
      <trkpt lat="48.20532" lon="3.27768">
        <ele>128</ele>
        <time>2011-05-15T08:17:56Z</time>
      </trkpt>
      <trkpt lat="48.20529" lon="3.27762">
        <ele>127</ele>
        <time>2011-05-15T08:17:57Z</time>
      </trkpt>
      <trkpt lat="48.20526" lon="3.27753">
        <ele>126</ele>
        <time>2011-05-15T08:17:58Z</time>
      </trkpt>
      <trkpt lat="48.20522" lon="3.27747">
        <ele>125</ele>
        <time>2011-05-15T08:17:59Z</time>
      </trkpt>
      <trkpt lat="48.20521" lon="3.27738">
        <ele>124</ele>
        <time>2011-05-15T08:18:00Z</time>
      </trkpt>
      <trkpt lat="48.20519" lon="3.27725">
        <ele>122</ele>
        <time>2011-05-15T08:18:02Z</time>
      </trkpt>
      <trkpt lat="48.20519" lon="3.27716">
        <ele>121</ele>
        <time>2011-05-15T08:18:03Z</time>
      </trkpt>
      <trkpt lat="48.20516" lon="3.27704">
        <ele>119</ele>
        <time>2011-05-15T08:18:05Z</time>
      </trkpt>
      <trkpt lat="48.20515" lon="3.27695">
        <ele>119</ele>
        <time>2011-05-15T08:18:06Z</time>
      </trkpt>
      <trkpt lat="48.20513" lon="3.2768">
        <ele>117</ele>
        <time>2011-05-15T08:18:08Z</time>
      </trkpt>
      <trkpt lat="48.20512" lon="3.27667">
        <ele>116</ele>
        <time>2011-05-15T08:18:10Z</time>
      </trkpt>
      <trkpt lat="48.20511" lon="3.27652">
        <ele>116</ele>
        <time>2011-05-15T08:18:12Z</time>
      </trkpt>
      <trkpt lat="48.2051" lon="3.27639">
        <ele>116</ele>
        <time>2011-05-15T08:18:14Z</time>
      </trkpt>
      <trkpt lat="48.20509" lon="3.27626">
        <ele>116</ele>
        <time>2011-05-15T08:18:16Z</time>
      </trkpt>
      <trkpt lat="48.20508" lon="3.27616">
        <ele>117</ele>
        <time>2011-05-15T08:18:18Z</time>
      </trkpt>
      <trkpt lat="48.20506" lon="3.27603">
        <ele>118</ele>
        <time>2011-05-15T08:18:20Z</time>
      </trkpt>
      <trkpt lat="48.20505" lon="3.27592">
        <ele>118</ele>
        <time>2011-05-15T08:18:22Z</time>
      </trkpt>
      <trkpt lat="48.20504" lon="3.27579">
        <ele>118</ele>
        <time>2011-05-15T08:18:24Z</time>
      </trkpt>
      <trkpt lat="48.20501" lon="3.27566">
        <ele>118</ele>
        <time>2011-05-15T08:18:26Z</time>
      </trkpt>
      <trkpt lat="48.205" lon="3.27556">
        <ele>118</ele>
        <time>2011-05-15T08:18:28Z</time>
      </trkpt>
      <trkpt lat="48.20498" lon="3.27543">
        <ele>118</ele>
        <time>2011-05-15T08:18:30Z</time>
      </trkpt>
      <trkpt lat="48.20496" lon="3.2753">
        <ele>118</ele>
        <time>2011-05-15T08:18:32Z</time>
      </trkpt>
      <trkpt lat="48.20494" lon="3.27517">
        <ele>118</ele>
        <time>2011-05-15T08:18:34Z</time>
      </trkpt>
      <trkpt lat="48.20492" lon="3.27504">
        <ele>118</ele>
        <time>2011-05-15T08:18:36Z</time>
      </trkpt>
      <trkpt lat="48.2049" lon="3.27491">
        <ele>118</ele>
        <time>2011-05-15T08:18:38Z</time>
      </trkpt>
      <trkpt lat="48.20487" lon="3.27476">
        <ele>118</ele>
        <time>2011-05-15T08:18:40Z</time>
      </trkpt>
      <trkpt lat="48.20485" lon="3.27463">
        <ele>119</ele>
        <time>2011-05-15T08:18:42Z</time>
      </trkpt>
      <trkpt lat="48.20484" lon="3.27455">
        <ele>119</ele>
        <time>2011-05-15T08:18:43Z</time>
      </trkpt>
      <trkpt lat="48.20482" lon="3.27442">
        <ele>119</ele>
        <time>2011-05-15T08:18:45Z</time>
      </trkpt>
      <trkpt lat="48.2048" lon="3.27433">
        <ele>119</ele>
        <time>2011-05-15T08:18:46Z</time>
      </trkpt>
      <trkpt lat="48.20477" lon="3.2742">
        <ele>120</ele>
        <time>2011-05-15T08:18:48Z</time>
      </trkpt>
      <trkpt lat="48.20476" lon="3.27412">
        <ele>120</ele>
        <time>2011-05-15T08:18:49Z</time>
      </trkpt>
      <trkpt lat="48.20474" lon="3.27405">
        <ele>120</ele>
        <time>2011-05-15T08:18:50Z</time>
      </trkpt>
      <trkpt lat="48.20471" lon="3.2739">
        <ele>121</ele>
        <time>2011-05-15T08:18:52Z</time>
      </trkpt>
      <trkpt lat="48.20468" lon="3.27378">
        <ele>121</ele>
        <time>2011-05-15T08:18:54Z</time>
      </trkpt>
      <trkpt lat="48.20467" lon="3.27369">
        <ele>121</ele>
        <time>2011-05-15T08:18:55Z</time>
      </trkpt>
      <trkpt lat="48.20465" lon="3.27354">
        <ele>121</ele>
        <time>2011-05-15T08:18:57Z</time>
      </trkpt>
      <trkpt lat="48.20463" lon="3.27339">
        <ele>121</ele>
        <time>2011-05-15T08:18:59Z</time>
      </trkpt>
      <trkpt lat="48.20462" lon="3.2733">
        <ele>121</ele>
        <time>2011-05-15T08:19:00Z</time>
      </trkpt>
      <trkpt lat="48.2046" lon="3.27322">
        <ele>121</ele>
        <time>2011-05-15T08:19:01Z</time>
      </trkpt>
      <trkpt lat="48.20457" lon="3.27307">
        <ele>121</ele>
        <time>2011-05-15T08:19:03Z</time>
      </trkpt>
      <trkpt lat="48.20456" lon="3.27298">
        <ele>121</ele>
        <time>2011-05-15T08:19:04Z</time>
      </trkpt>
      <trkpt lat="48.20454" lon="3.2729">
        <ele>121</ele>
        <time>2011-05-15T08:19:05Z</time>
      </trkpt>
      <trkpt lat="48.20453" lon="3.27281">
        <ele>121</ele>
        <time>2011-05-15T08:19:06Z</time>
      </trkpt>
      <trkpt lat="48.20452" lon="3.27272">
        <ele>121</ele>
        <time>2011-05-15T08:19:07Z</time>
      </trkpt>
      <trkpt lat="48.20451" lon="3.27264">
        <ele>121</ele>
        <time>2011-05-15T08:19:08Z</time>
      </trkpt>
      <trkpt lat="48.2045" lon="3.27255">
        <ele>121</ele>
        <time>2011-05-15T08:19:09Z</time>
      </trkpt>
      <trkpt lat="48.20448" lon="3.27244">
        <ele>121</ele>
        <time>2011-05-15T08:19:10Z</time>
      </trkpt>
      <trkpt lat="48.20447" lon="3.27236">
        <ele>121</ele>
        <time>2011-05-15T08:19:11Z</time>
      </trkpt>
      <trkpt lat="48.20446" lon="3.27225">
        <ele>121</ele>
        <time>2011-05-15T08:19:12Z</time>
      </trkpt>
      <trkpt lat="48.20447" lon="3.27217">
        <ele>121</ele>
        <time>2011-05-15T08:19:13Z</time>
      </trkpt>
      <trkpt lat="48.20449" lon="3.27206">
        <ele>121</ele>
        <time>2011-05-15T08:19:14Z</time>
      </trkpt>
      <trkpt lat="48.20451" lon="3.27197">
        <ele>121</ele>
        <time>2011-05-15T08:19:15Z</time>
      </trkpt>
      <trkpt lat="48.20455" lon="3.27189">
        <ele>121</ele>
        <time>2011-05-15T08:19:16Z</time>
      </trkpt>
      <trkpt lat="48.2046" lon="3.27182">
        <ele>121</ele>
        <time>2011-05-15T08:19:17Z</time>
      </trkpt>
      <trkpt lat="48.20465" lon="3.27176">
        <ele>121</ele>
        <time>2011-05-15T08:19:18Z</time>
      </trkpt>
      <trkpt lat="48.20469" lon="3.27172">
        <ele>121</ele>
        <time>2011-05-15T08:19:19Z</time>
      </trkpt>
      <trkpt lat="48.20475" lon="3.27167">
        <ele>121</ele>
        <time>2011-05-15T08:19:20Z</time>
      </trkpt>
      <trkpt lat="48.2048" lon="3.27165">
        <ele>122</ele>
        <time>2011-05-15T08:19:21Z</time>
      </trkpt>
      <trkpt lat="48.20485" lon="3.27161">
        <ele>122</ele>
        <time>2011-05-15T08:19:22Z</time>
      </trkpt>
      <trkpt lat="48.20491" lon="3.27159">
        <ele>122</ele>
        <time>2011-05-15T08:19:23Z</time>
      </trkpt>
      <trkpt lat="48.20495" lon="3.27156">
        <ele>122</ele>
        <time>2011-05-15T08:19:24Z</time>
      </trkpt>
      <trkpt lat="48.205" lon="3.27154">
        <ele>122</ele>
        <time>2011-05-15T08:19:25Z</time>
      </trkpt>
      <trkpt lat="48.20506" lon="3.27152">
        <ele>122</ele>
        <time>2011-05-15T08:19:26Z</time>
      </trkpt>
      <trkpt lat="48.2051" lon="3.27148">
        <ele>123</ele>
        <time>2011-05-15T08:19:27Z</time>
      </trkpt>
      <trkpt lat="48.20515" lon="3.27146">
        <ele>123</ele>
        <time>2011-05-15T08:19:28Z</time>
      </trkpt>
      <trkpt lat="48.2052" lon="3.27144">
        <ele>123</ele>
        <time>2011-05-15T08:19:29Z</time>
      </trkpt>
      <trkpt lat="48.20524" lon="3.27142">
        <ele>123</ele>
        <time>2011-05-15T08:19:30Z</time>
      </trkpt>
      <trkpt lat="48.20529" lon="3.27139">
        <ele>123</ele>
        <time>2011-05-15T08:19:31Z</time>
      </trkpt>
      <trkpt lat="48.20534" lon="3.27137">
        <ele>123</ele>
        <time>2011-05-15T08:19:32Z</time>
      </trkpt>
      <trkpt lat="48.20538" lon="3.27135">
        <ele>122</ele>
        <time>2011-05-15T08:19:33Z</time>
      </trkpt>
      <trkpt lat="48.20543" lon="3.27133">
        <ele>122</ele>
        <time>2011-05-15T08:19:34Z</time>
      </trkpt>
      <trkpt lat="48.20549" lon="3.27129">
        <ele>122</ele>
        <time>2011-05-15T08:19:35Z</time>
      </trkpt>
      <trkpt lat="48.20553" lon="3.27126">
        <ele>122</ele>
        <time>2011-05-15T08:19:36Z</time>
      </trkpt>
      <trkpt lat="48.20558" lon="3.27124">
        <ele>123</ele>
        <time>2011-05-15T08:19:37Z</time>
      </trkpt>
      <trkpt lat="48.20563" lon="3.27122">
        <ele>123</ele>
        <time>2011-05-15T08:19:38Z</time>
      </trkpt>
      <trkpt lat="48.20568" lon="3.2712">
        <ele>123</ele>
        <time>2011-05-15T08:19:39Z</time>
      </trkpt>
      <trkpt lat="48.20572" lon="3.27118">
        <ele>123</ele>
        <time>2011-05-15T08:19:40Z</time>
      </trkpt>
      <trkpt lat="48.20578" lon="3.27114">
        <ele>123</ele>
        <time>2011-05-15T08:19:41Z</time>
      </trkpt>
      <trkpt lat="48.20583" lon="3.27111">
        <ele>123</ele>
        <time>2011-05-15T08:19:42Z</time>
      </trkpt>
      <trkpt lat="48.20587" lon="3.27109">
        <ele>123</ele>
        <time>2011-05-15T08:19:43Z</time>
      </trkpt>
      <trkpt lat="48.20593" lon="3.27107">
        <ele>123</ele>
        <time>2011-05-15T08:19:44Z</time>
      </trkpt>
      <trkpt lat="48.20598" lon="3.27103">
        <ele>123</ele>
        <time>2011-05-15T08:19:45Z</time>
      </trkpt>
      <trkpt lat="48.20603" lon="3.27101">
        <ele>123</ele>
        <time>2011-05-15T08:19:46Z</time>
      </trkpt>
      <trkpt lat="48.20609" lon="3.27099">
        <ele>124</ele>
        <time>2011-05-15T08:19:47Z</time>
      </trkpt>
      <trkpt lat="48.20613" lon="3.27094">
        <ele>124</ele>
        <time>2011-05-15T08:19:48Z</time>
      </trkpt>
      <trkpt lat="48.20618" lon="3.27092">
        <ele>124</ele>
        <time>2011-05-15T08:19:49Z</time>
      </trkpt>
      <trkpt lat="48.20624" lon="3.2709">
        <ele>124</ele>
        <time>2011-05-15T08:19:50Z</time>
      </trkpt>
      <trkpt lat="48.20629" lon="3.27088">
        <ele>124</ele>
        <time>2011-05-15T08:19:51Z</time>
      </trkpt>
      <trkpt lat="48.20634" lon="3.27086">
        <ele>124</ele>
        <time>2011-05-15T08:19:52Z</time>
      </trkpt>
      <trkpt lat="48.2064" lon="3.27081">
        <ele>125</ele>
        <time>2011-05-15T08:19:53Z</time>
      </trkpt>
      <trkpt lat="48.20644" lon="3.27079">
        <ele>125</ele>
        <time>2011-05-15T08:19:54Z</time>
      </trkpt>
      <trkpt lat="48.2065" lon="3.27077">
        <ele>125</ele>
        <time>2011-05-15T08:19:55Z</time>
      </trkpt>
      <trkpt lat="48.20655" lon="3.27075">
        <ele>125</ele>
        <time>2011-05-15T08:19:56Z</time>
      </trkpt>
      <trkpt lat="48.2066" lon="3.27073">
        <ele>124</ele>
        <time>2011-05-15T08:19:57Z</time>
      </trkpt>
      <trkpt lat="48.20666" lon="3.27071">
        <ele>124</ele>
        <time>2011-05-15T08:19:58Z</time>
      </trkpt>
      <trkpt lat="48.2067" lon="3.27068">
        <ele>124</ele>
        <time>2011-05-15T08:19:59Z</time>
      </trkpt>
      <trkpt lat="48.20675" lon="3.27066">
        <ele>124</ele>
        <time>2011-05-15T08:20:00Z</time>
      </trkpt>
      <trkpt lat="48.20681" lon="3.27064">
        <ele>125</ele>
        <time>2011-05-15T08:20:01Z</time>
      </trkpt>
      <trkpt lat="48.20685" lon="3.27062">
        <ele>125</ele>
        <time>2011-05-15T08:20:02Z</time>
      </trkpt>
      <trkpt lat="48.20689" lon="3.27058">
        <ele>125</ele>
        <time>2011-05-15T08:20:03Z</time>
      </trkpt>
      <trkpt lat="48.20694" lon="3.27056">
        <ele>125</ele>
        <time>2011-05-15T08:20:04Z</time>
      </trkpt>
      <trkpt lat="48.20699" lon="3.27054">
        <ele>125</ele>
        <time>2011-05-15T08:20:05Z</time>
      </trkpt>
      <trkpt lat="48.20703" lon="3.27051">
        <ele>126</ele>
        <time>2011-05-15T08:20:06Z</time>
      </trkpt>
      <trkpt lat="48.20707" lon="3.27049">
        <ele>126</ele>
        <time>2011-05-15T08:20:07Z</time>
      </trkpt>
      <trkpt lat="48.20712" lon="3.27045">
        <ele>126</ele>
        <time>2011-05-15T08:20:08Z</time>
      </trkpt>
      <trkpt lat="48.20716" lon="3.27043">
        <ele>127</ele>
        <time>2011-05-15T08:20:09Z</time>
      </trkpt>
      <trkpt lat="48.2072" lon="3.27038">
        <ele>127</ele>
        <time>2011-05-15T08:20:10Z</time>
      </trkpt>
      <trkpt lat="48.20725" lon="3.27034">
        <ele>127</ele>
        <time>2011-05-15T08:20:11Z</time>
      </trkpt>
      <trkpt lat="48.2073" lon="3.2703">
        <ele>127</ele>
        <time>2011-05-15T08:20:12Z</time>
      </trkpt>
      <trkpt lat="48.20734" lon="3.27028">
        <ele>127</ele>
        <time>2011-05-15T08:20:13Z</time>
      </trkpt>
      <trkpt lat="48.20738" lon="3.27024">
        <ele>127</ele>
        <time>2011-05-15T08:20:14Z</time>
      </trkpt>
      <trkpt lat="48.20743" lon="3.27019">
        <ele>126</ele>
        <time>2011-05-15T08:20:15Z</time>
      </trkpt>
      <trkpt lat="48.20747" lon="3.27015">
        <ele>126</ele>
        <time>2011-05-15T08:20:16Z</time>
      </trkpt>
      <trkpt lat="48.20751" lon="3.27011">
        <ele>126</ele>
        <time>2011-05-15T08:20:17Z</time>
      </trkpt>
      <trkpt lat="48.20756" lon="3.27006">
        <ele>126</ele>
        <time>2011-05-15T08:20:18Z</time>
      </trkpt>
      <trkpt lat="48.20763" lon="3.26998">
        <ele>126</ele>
        <time>2011-05-15T08:20:20Z</time>
      </trkpt>
      <trkpt lat="48.20766" lon="3.26991">
        <ele>126</ele>
        <time>2011-05-15T08:20:21Z</time>
      </trkpt>
      <trkpt lat="48.20771" lon="3.26987">
        <ele>126</ele>
        <time>2011-05-15T08:20:22Z</time>
      </trkpt>
      <trkpt lat="48.20777" lon="3.26978">
        <ele>126</ele>
        <time>2011-05-15T08:20:24Z</time>
      </trkpt>
      <trkpt lat="48.20784" lon="3.2697">
        <ele>127</ele>
        <time>2011-05-15T08:20:26Z</time>
      </trkpt>
      <trkpt lat="48.20789" lon="3.26963">
        <ele>127</ele>
        <time>2011-05-15T08:20:28Z</time>
      </trkpt>
      <trkpt lat="48.20794" lon="3.26955">
        <ele>127</ele>
        <time>2011-05-15T08:20:30Z</time>
      </trkpt>
      <trkpt lat="48.20799" lon="3.26948">
        <ele>127</ele>
        <time>2011-05-15T08:20:32Z</time>
      </trkpt>
      <trkpt lat="48.20804" lon="3.2694">
        <ele>127</ele>
        <time>2011-05-15T08:20:34Z</time>
      </trkpt>
      <trkpt lat="48.2081" lon="3.26931">
        <ele>127</ele>
        <time>2011-05-15T08:20:36Z</time>
      </trkpt>
      <trkpt lat="48.20816" lon="3.26923">
        <ele>127</ele>
        <time>2011-05-15T08:20:38Z</time>
      </trkpt>
      <trkpt lat="48.20822" lon="3.26914">
        <ele>126</ele>
        <time>2011-05-15T08:20:40Z</time>
      </trkpt>
      <trkpt lat="48.20825" lon="3.26908">
        <ele>126</ele>
        <time>2011-05-15T08:20:41Z</time>
      </trkpt>
      <trkpt lat="48.20831" lon="3.26899">
        <ele>126</ele>
        <time>2011-05-15T08:20:43Z</time>
      </trkpt>
      <trkpt lat="48.20834" lon="3.26893">
        <ele>126</ele>
        <time>2011-05-15T08:20:44Z</time>
      </trkpt>
      <trkpt lat="48.2084" lon="3.26884">
        <ele>125</ele>
        <time>2011-05-15T08:20:46Z</time>
      </trkpt>
      <trkpt lat="48.20847" lon="3.26875">
        <ele>125</ele>
        <time>2011-05-15T08:20:48Z</time>
      </trkpt>
      <trkpt lat="48.20853" lon="3.26869">
        <ele>125</ele>
        <time>2011-05-15T08:20:50Z</time>
      </trkpt>
      <trkpt lat="48.20859" lon="3.26858">
        <ele>124</ele>
        <time>2011-05-15T08:20:52Z</time>
      </trkpt>
      <trkpt lat="48.20865" lon="3.2685">
        <ele>123</ele>
        <time>2011-05-15T08:20:54Z</time>
      </trkpt>
      <trkpt lat="48.20872" lon="3.26839">
        <ele>123</ele>
        <time>2011-05-15T08:20:56Z</time>
      </trkpt>
      <trkpt lat="48.20877" lon="3.2683">
        <ele>122</ele>
        <time>2011-05-15T08:20:58Z</time>
      </trkpt>
      <trkpt lat="48.20882" lon="3.26822">
        <ele>121</ele>
        <time>2011-05-15T08:21:00Z</time>
      </trkpt>
      <trkpt lat="48.20889" lon="3.26813">
        <ele>121</ele>
        <time>2011-05-15T08:21:02Z</time>
      </trkpt>
      <trkpt lat="48.20895" lon="3.26805">
        <ele>120</ele>
        <time>2011-05-15T08:21:04Z</time>
      </trkpt>
      <trkpt lat="48.20902" lon="3.26796">
        <ele>120</ele>
        <time>2011-05-15T08:21:06Z</time>
      </trkpt>
      <trkpt lat="48.20908" lon="3.26787">
        <ele>120</ele>
        <time>2011-05-15T08:21:08Z</time>
      </trkpt>
      <trkpt lat="48.20916" lon="3.26777">
        <ele>120</ele>
        <time>2011-05-15T08:21:10Z</time>
      </trkpt>
      <trkpt lat="48.20919" lon="3.2677">
        <ele>120</ele>
        <time>2011-05-15T08:21:11Z</time>
      </trkpt>
      <trkpt lat="48.20923" lon="3.26766">
        <ele>120</ele>
        <time>2011-05-15T08:21:12Z</time>
      </trkpt>
      <trkpt lat="48.20926" lon="3.2676">
        <ele>120</ele>
        <time>2011-05-15T08:21:13Z</time>
      </trkpt>
      <trkpt lat="48.2093" lon="3.26753">
        <ele>120</ele>
        <time>2011-05-15T08:21:14Z</time>
      </trkpt>
      <trkpt lat="48.20937" lon="3.26742">
        <ele>119</ele>
        <time>2011-05-15T08:21:16Z</time>
      </trkpt>
      <trkpt lat="48.20943" lon="3.26732">
        <ele>119</ele>
        <time>2011-05-15T08:21:18Z</time>
      </trkpt>
      <trkpt lat="48.2095" lon="3.26723">
        <ele>119</ele>
        <time>2011-05-15T08:21:20Z</time>
      </trkpt>
      <trkpt lat="48.20953" lon="3.26717">
        <ele>119</ele>
        <time>2011-05-15T08:21:21Z</time>
      </trkpt>
      <trkpt lat="48.2096" lon="3.26708">
        <ele>120</ele>
        <time>2011-05-15T08:21:23Z</time>
      </trkpt>
      <trkpt lat="48.20963" lon="3.26702">
        <ele>120</ele>
        <time>2011-05-15T08:21:24Z</time>
      </trkpt>
      <trkpt lat="48.20968" lon="3.26691">
        <ele>121</ele>
        <time>2011-05-15T08:21:26Z</time>
      </trkpt>
      <trkpt lat="48.2097" lon="3.26684">
        <ele>121</ele>
        <time>2011-05-15T08:21:27Z</time>
      </trkpt>
      <trkpt lat="48.20972" lon="3.26672">
        <ele>121</ele>
        <time>2011-05-15T08:21:29Z</time>
      </trkpt>
      <trkpt lat="48.20974" lon="3.26659">
        <ele>121</ele>
        <time>2011-05-15T08:21:31Z</time>
      </trkpt>
      <trkpt lat="48.20974" lon="3.2665">
        <ele>121</ele>
        <time>2011-05-15T08:21:32Z</time>
      </trkpt>
      <trkpt lat="48.20974" lon="3.26637">
        <ele>121</ele>
        <time>2011-05-15T08:21:34Z</time>
      </trkpt>
      <trkpt lat="48.20974" lon="3.26629">
        <ele>121</ele>
        <time>2011-05-15T08:21:35Z</time>
      </trkpt>
      <trkpt lat="48.20974" lon="3.26614">
        <ele>121</ele>
        <time>2011-05-15T08:21:37Z</time>
      </trkpt>
      <trkpt lat="48.20974" lon="3.26601">
        <ele>121</ele>
        <time>2011-05-15T08:21:39Z</time>
      </trkpt>
      <trkpt lat="48.20978" lon="3.2659">
        <ele>121</ele>
        <time>2011-05-15T08:21:41Z</time>
      </trkpt>
      <trkpt lat="48.20982" lon="3.26581">
        <ele>121</ele>
        <time>2011-05-15T08:21:43Z</time>
      </trkpt>
      <trkpt lat="48.20987" lon="3.26575">
        <ele>121</ele>
        <time>2011-05-15T08:21:45Z</time>
      </trkpt>
      <trkpt lat="48.20993" lon="3.26566">
        <ele>121</ele>
        <time>2011-05-15T08:21:47Z</time>
      </trkpt>
      <trkpt lat="48.20998" lon="3.26562">
        <ele>121</ele>
        <time>2011-05-15T08:21:49Z</time>
      </trkpt>
      <trkpt lat="48.21006" lon="3.26564">
        <ele>121</ele>
        <time>2011-05-15T08:21:51Z</time>
      </trkpt>
      <trkpt lat="48.2101" lon="3.26566">
        <ele>122</ele>
        <time>2011-05-15T08:21:52Z</time>
      </trkpt>
      <trkpt lat="48.21018" lon="3.26569">
        <ele>123</ele>
        <time>2011-05-15T08:21:54Z</time>
      </trkpt>
      <trkpt lat="48.21023" lon="3.26571">
        <ele>123</ele>
        <time>2011-05-15T08:21:55Z</time>
      </trkpt>
      <trkpt lat="48.21028" lon="3.26571">
        <ele>124</ele>
        <time>2011-05-15T08:21:56Z</time>
      </trkpt>
      <trkpt lat="48.21032" lon="3.26573">
        <ele>124</ele>
        <time>2011-05-15T08:21:57Z</time>
      </trkpt>
      <trkpt lat="48.21037" lon="3.26575">
        <ele>124</ele>
        <time>2011-05-15T08:21:58Z</time>
      </trkpt>
      <trkpt lat="48.21045" lon="3.26577">
        <ele>125</ele>
        <time>2011-05-15T08:22:00Z</time>
      </trkpt>
      <trkpt lat="48.21051" lon="3.26579">
        <ele>125</ele>
        <time>2011-05-15T08:22:01Z</time>
      </trkpt>
      <trkpt lat="48.21055" lon="3.26581">
        <ele>125</ele>
        <time>2011-05-15T08:22:02Z</time>
      </trkpt>
      <trkpt lat="48.21059" lon="3.26584">
        <ele>125</ele>
        <time>2011-05-15T08:22:03Z</time>
      </trkpt>
      <trkpt lat="48.21069" lon="3.26586">
        <ele>125</ele>
        <time>2011-05-15T08:22:05Z</time>
      </trkpt>
      <trkpt lat="48.21079" lon="3.26588">
        <ele>124</ele>
        <time>2011-05-15T08:22:07Z</time>
      </trkpt>
      <trkpt lat="48.21088" lon="3.26588">
        <ele>123</ele>
        <time>2011-05-15T08:22:09Z</time>
      </trkpt>
      <trkpt lat="48.21098" lon="3.26586">
        <ele>122</ele>
        <time>2011-05-15T08:22:11Z</time>
      </trkpt>
      <trkpt lat="48.21106" lon="3.26586">
        <ele>122</ele>
        <time>2011-05-15T08:22:13Z</time>
      </trkpt>
      <trkpt lat="48.21115" lon="3.26584">
        <ele>122</ele>
        <time>2011-05-15T08:22:15Z</time>
      </trkpt>
      <trkpt lat="48.2112" lon="3.26581">
        <ele>122</ele>
        <time>2011-05-15T08:22:16Z</time>
      </trkpt>
      <trkpt lat="48.21126" lon="3.26579">
        <ele>122</ele>
        <time>2011-05-15T08:22:17Z</time>
      </trkpt>
      <trkpt lat="48.2113" lon="3.26577">
        <ele>122</ele>
        <time>2011-05-15T08:22:18Z</time>
      </trkpt>
      <trkpt lat="48.21136" lon="3.26577">
        <ele>122</ele>
        <time>2011-05-15T08:22:19Z</time>
      </trkpt>
      <trkpt lat="48.21141" lon="3.26575">
        <ele>122</ele>
        <time>2011-05-15T08:22:20Z</time>
      </trkpt>
      <trkpt lat="48.21145" lon="3.26573">
        <ele>122</ele>
        <time>2011-05-15T08:22:21Z</time>
      </trkpt>
      <trkpt lat="48.2115" lon="3.26569">
        <ele>122</ele>
        <time>2011-05-15T08:22:22Z</time>
      </trkpt>
      <trkpt lat="48.21156" lon="3.26566">
        <ele>122</ele>
        <time>2011-05-15T08:22:23Z</time>
      </trkpt>
      <trkpt lat="48.21161" lon="3.26562">
        <ele>121</ele>
        <time>2011-05-15T08:22:24Z</time>
      </trkpt>
      <trkpt lat="48.21167" lon="3.26558">
        <ele>121</ele>
        <time>2011-05-15T08:22:25Z</time>
      </trkpt>
      <trkpt lat="48.21172" lon="3.26556">
        <ele>121</ele>
        <time>2011-05-15T08:22:26Z</time>
      </trkpt>
      <trkpt lat="48.21177" lon="3.26549">
        <ele>121</ele>
        <time>2011-05-15T08:22:27Z</time>
      </trkpt>
      <trkpt lat="48.21182" lon="3.26545">
        <ele>121</ele>
        <time>2011-05-15T08:22:28Z</time>
      </trkpt>
      <trkpt lat="48.21187" lon="3.26541">
        <ele>121</ele>
        <time>2011-05-15T08:22:29Z</time>
      </trkpt>
      <trkpt lat="48.21191" lon="3.26536">
        <ele>121</ele>
        <time>2011-05-15T08:22:30Z</time>
      </trkpt>
      <trkpt lat="48.21197" lon="3.2653">
        <ele>121</ele>
        <time>2011-05-15T08:22:31Z</time>
      </trkpt>
      <trkpt lat="48.21201" lon="3.26526">
        <ele>121</ele>
        <time>2011-05-15T08:22:32Z</time>
      </trkpt>
      <trkpt lat="48.21205" lon="3.26521">
        <ele>121</ele>
        <time>2011-05-15T08:22:33Z</time>
      </trkpt>
      <trkpt lat="48.2121" lon="3.26515">
        <ele>121</ele>
        <time>2011-05-15T08:22:34Z</time>
      </trkpt>
      <trkpt lat="48.21214" lon="3.26508">
        <ele>121</ele>
        <time>2011-05-15T08:22:35Z</time>
      </trkpt>
      <trkpt lat="48.2122" lon="3.26498">
        <ele>121</ele>
        <time>2011-05-15T08:22:37Z</time>
      </trkpt>
      <trkpt lat="48.21223" lon="3.26491">
        <ele>121</ele>
        <time>2011-05-15T08:22:38Z</time>
      </trkpt>
      <trkpt lat="48.21227" lon="3.26485">
        <ele>121</ele>
        <time>2011-05-15T08:22:39Z</time>
      </trkpt>
      <trkpt lat="48.21232" lon="3.26474">
        <ele>121</ele>
        <time>2011-05-15T08:22:41Z</time>
      </trkpt>
      <trkpt lat="48.21237" lon="3.26463">
        <ele>121</ele>
        <time>2011-05-15T08:22:43Z</time>
      </trkpt>
      <trkpt lat="48.21243" lon="3.26455">
        <ele>121</ele>
        <time>2011-05-15T08:22:45Z</time>
      </trkpt>
      <trkpt lat="48.21245" lon="3.26448">
        <ele>121</ele>
        <time>2011-05-15T08:22:46Z</time>
      </trkpt>
      <trkpt lat="48.2125" lon="3.2644">
        <ele>122</ele>
        <time>2011-05-15T08:22:48Z</time>
      </trkpt>
      <trkpt lat="48.21256" lon="3.26433">
        <ele>122</ele>
        <time>2011-05-15T08:22:50Z</time>
      </trkpt>
      <trkpt lat="48.21261" lon="3.26425">
        <ele>122</ele>
        <time>2011-05-15T08:22:52Z</time>
      </trkpt>
      <trkpt lat="48.21268" lon="3.26418">
        <ele>122</ele>
        <time>2011-05-15T08:22:54Z</time>
      </trkpt>
      <trkpt lat="48.21276" lon="3.26412">
        <ele>122</ele>
        <time>2011-05-15T08:22:56Z</time>
      </trkpt>
      <trkpt lat="48.2128" lon="3.26408">
        <ele>123</ele>
        <time>2011-05-15T08:22:57Z</time>
      </trkpt>
      <trkpt lat="48.21285" lon="3.26406">
        <ele>123</ele>
        <time>2011-05-15T08:22:58Z</time>
      </trkpt>
      <trkpt lat="48.21289" lon="3.26403">
        <ele>123</ele>
        <time>2011-05-15T08:22:59Z</time>
      </trkpt>
      <trkpt lat="48.21294" lon="3.26401">
        <ele>123</ele>
        <time>2011-05-15T08:23:00Z</time>
      </trkpt>
      <trkpt lat="48.21304" lon="3.26399">
        <ele>123</ele>
        <time>2011-05-15T08:23:02Z</time>
      </trkpt>
      <trkpt lat="48.21309" lon="3.26399">
        <ele>123</ele>
        <time>2011-05-15T08:23:03Z</time>
      </trkpt>
      <trkpt lat="48.21315" lon="3.26399">
        <ele>123</ele>
        <time>2011-05-15T08:23:04Z</time>
      </trkpt>
      <trkpt lat="48.2132" lon="3.26399">
        <ele>123</ele>
        <time>2011-05-15T08:23:05Z</time>
      </trkpt>
      <trkpt lat="48.2133" lon="3.26399">
        <ele>124</ele>
        <time>2011-05-15T08:23:07Z</time>
      </trkpt>
      <trkpt lat="48.21339" lon="3.26401">
        <ele>124</ele>
        <time>2011-05-15T08:23:09Z</time>
      </trkpt>
      <trkpt lat="48.21348" lon="3.26403">
        <ele>124</ele>
        <time>2011-05-15T08:23:11Z</time>
      </trkpt>
      <trkpt lat="48.21353" lon="3.26403">
        <ele>125</ele>
        <time>2011-05-15T08:23:12Z</time>
      </trkpt>
      <trkpt lat="48.21359" lon="3.26403">
        <ele>125</ele>
        <time>2011-05-15T08:23:13Z</time>
      </trkpt>
      <trkpt lat="48.21364" lon="3.26403">
        <ele>125</ele>
        <time>2011-05-15T08:23:14Z</time>
      </trkpt>
      <trkpt lat="48.21369" lon="3.26403">
        <ele>125</ele>
        <time>2011-05-15T08:23:15Z</time>
      </trkpt>
      <trkpt lat="48.21375" lon="3.26403">
        <ele>125</ele>
        <time>2011-05-15T08:23:16Z</time>
      </trkpt>
      <trkpt lat="48.2138" lon="3.26403">
        <ele>125</ele>
        <time>2011-05-15T08:23:17Z</time>
      </trkpt>
      <trkpt lat="48.21386" lon="3.26403">
        <ele>125</ele>
        <time>2011-05-15T08:23:18Z</time>
      </trkpt>
      <trkpt lat="48.21391" lon="3.26401">
        <ele>125</ele>
        <time>2011-05-15T08:23:19Z</time>
      </trkpt>
      <trkpt lat="48.21396" lon="3.26401">
        <ele>125</ele>
        <time>2011-05-15T08:23:20Z</time>
      </trkpt>
      <trkpt lat="48.21402" lon="3.26399">
        <ele>125</ele>
        <time>2011-05-15T08:23:21Z</time>
      </trkpt>
      <trkpt lat="48.21407" lon="3.26397">
        <ele>125</ele>
        <time>2011-05-15T08:23:22Z</time>
      </trkpt>
      <trkpt lat="48.21412" lon="3.26397">
        <ele>125</ele>
        <time>2011-05-15T08:23:23Z</time>
      </trkpt>
      <trkpt lat="48.21418" lon="3.26395">
        <ele>125</ele>
        <time>2011-05-15T08:23:24Z</time>
      </trkpt>
      <trkpt lat="48.21423" lon="3.26395">
        <ele>125</ele>
        <time>2011-05-15T08:23:25Z</time>
      </trkpt>
      <trkpt lat="48.21428" lon="3.26395">
        <ele>125</ele>
        <time>2011-05-15T08:23:26Z</time>
      </trkpt>
      <trkpt lat="48.21434" lon="3.26393">
        <ele>124</ele>
        <time>2011-05-15T08:23:27Z</time>
      </trkpt>
      <trkpt lat="48.21439" lon="3.26393">
        <ele>124</ele>
        <time>2011-05-15T08:23:28Z</time>
      </trkpt>
      <trkpt lat="48.21444" lon="3.2639">
        <ele>125</ele>
        <time>2011-05-15T08:23:29Z</time>
      </trkpt>
      <trkpt lat="48.2145" lon="3.2639">
        <ele>125</ele>
        <time>2011-05-15T08:23:30Z</time>
      </trkpt>
      <trkpt lat="48.21455" lon="3.26388">
        <ele>125</ele>
        <time>2011-05-15T08:23:31Z</time>
      </trkpt>
      <trkpt lat="48.21461" lon="3.26388">
        <ele>125</ele>
        <time>2011-05-15T08:23:32Z</time>
      </trkpt>
      <trkpt lat="48.21466" lon="3.26386">
        <ele>125</ele>
        <time>2011-05-15T08:23:33Z</time>
      </trkpt>
      <trkpt lat="48.21471" lon="3.26386">
        <ele>125</ele>
        <time>2011-05-15T08:23:34Z</time>
      </trkpt>
      <trkpt lat="48.21477" lon="3.26384">
        <ele>125</ele>
        <time>2011-05-15T08:23:35Z</time>
      </trkpt>
      <trkpt lat="48.21482" lon="3.26384">
        <ele>125</ele>
        <time>2011-05-15T08:23:36Z</time>
      </trkpt>
      <trkpt lat="48.21488" lon="3.26382">
        <ele>125</ele>
        <time>2011-05-15T08:23:37Z</time>
      </trkpt>
      <trkpt lat="48.21494" lon="3.26382">
        <ele>125</ele>
        <time>2011-05-15T08:23:38Z</time>
      </trkpt>
      <trkpt lat="48.21499" lon="3.26382">
        <ele>125</ele>
        <time>2011-05-15T08:23:39Z</time>
      </trkpt>
      <trkpt lat="48.21504" lon="3.2638">
        <ele>125</ele>
        <time>2011-05-15T08:23:40Z</time>
      </trkpt>
      <trkpt lat="48.2151" lon="3.2638">
        <ele>125</ele>
        <time>2011-05-15T08:23:41Z</time>
      </trkpt>
      <trkpt lat="48.21518" lon="3.26378">
        <ele>125</ele>
        <time>2011-05-15T08:23:43Z</time>
      </trkpt>
      <trkpt lat="48.21523" lon="3.26375">
        <ele>125</ele>
        <time>2011-05-15T08:23:44Z</time>
      </trkpt>
      <trkpt lat="48.2153" lon="3.26373">
        <ele>125</ele>
        <time>2011-05-15T08:23:46Z</time>
      </trkpt>
      <trkpt lat="48.21536" lon="3.26365">
        <ele>125</ele>
        <time>2011-05-15T08:23:48Z</time>
      </trkpt>
      <trkpt lat="48.21535" lon="3.26352">
        <ele>124</ele>
        <time>2011-05-15T08:23:50Z</time>
      </trkpt>
      <trkpt lat="48.21534" lon="3.26339">
        <ele>123</ele>
        <time>2011-05-15T08:23:52Z</time>
      </trkpt>
      <trkpt lat="48.2153" lon="3.26328">
        <ele>122</ele>
        <time>2011-05-15T08:23:54Z</time>
      </trkpt>
      <trkpt lat="48.21528" lon="3.26322">
        <ele>122</ele>
        <time>2011-05-15T08:23:55Z</time>
      </trkpt>
      <trkpt lat="48.21523" lon="3.26311">
        <ele>122</ele>
        <time>2011-05-15T08:23:57Z</time>
      </trkpt>
      <trkpt lat="48.21518" lon="3.263">
        <ele>121</ele>
        <time>2011-05-15T08:23:59Z</time>
      </trkpt>
      <trkpt lat="48.21512" lon="3.2629">
        <ele>121</ele>
        <time>2011-05-15T08:24:01Z</time>
      </trkpt>
      <trkpt lat="48.21507" lon="3.26279">
        <ele>121</ele>
        <time>2011-05-15T08:24:03Z</time>
      </trkpt>
      <trkpt lat="48.215" lon="3.26268">
        <ele>121</ele>
        <time>2011-05-15T08:24:05Z</time>
      </trkpt>
      <trkpt lat="48.21496" lon="3.26264">
        <ele>121</ele>
        <time>2011-05-15T08:24:06Z</time>
      </trkpt>
      <trkpt lat="48.21492" lon="3.26255">
        <ele>120</ele>
        <time>2011-05-15T08:24:08Z</time>
      </trkpt>
      <trkpt lat="48.21494" lon="3.26242">
        <ele>120</ele>
        <time>2011-05-15T08:24:10Z</time>
      </trkpt>
      <trkpt lat="48.21497" lon="3.26236">
        <ele>120</ele>
        <time>2011-05-15T08:24:11Z</time>
      </trkpt>
      <trkpt lat="48.215" lon="3.2623">
        <ele>120</ele>
        <time>2011-05-15T08:24:12Z</time>
      </trkpt>
      <trkpt lat="48.21504" lon="3.26223">
        <ele>120</ele>
        <time>2011-05-15T08:24:13Z</time>
      </trkpt>
      <trkpt lat="48.21508" lon="3.26217">
        <ele>120</ele>
        <time>2011-05-15T08:24:14Z</time>
      </trkpt>
      <trkpt lat="48.21511" lon="3.2621">
        <ele>120</ele>
        <time>2011-05-15T08:24:15Z</time>
      </trkpt>
      <trkpt lat="48.21515" lon="3.26206">
        <ele>120</ele>
        <time>2011-05-15T08:24:16Z</time>
      </trkpt>
      <trkpt lat="48.21518" lon="3.262">
        <ele>120</ele>
        <time>2011-05-15T08:24:17Z</time>
      </trkpt>
      <trkpt lat="48.21522" lon="3.26193">
        <ele>120</ele>
        <time>2011-05-15T08:24:18Z</time>
      </trkpt>
      <trkpt lat="48.21528" lon="3.26182">
        <ele>121</ele>
        <time>2011-05-15T08:24:20Z</time>
      </trkpt>
      <trkpt lat="48.21535" lon="3.26174">
        <ele>121</ele>
        <time>2011-05-15T08:24:22Z</time>
      </trkpt>
      <trkpt lat="48.21539" lon="3.26169">
        <ele>121</ele>
        <time>2011-05-15T08:24:23Z</time>
      </trkpt>
      <trkpt lat="48.21542" lon="3.26163">
        <ele>121</ele>
        <time>2011-05-15T08:24:24Z</time>
      </trkpt>
      <trkpt lat="48.21548" lon="3.26154">
        <ele>121</ele>
        <time>2011-05-15T08:24:26Z</time>
      </trkpt>
      <trkpt lat="48.21555" lon="3.26146">
        <ele>121</ele>
        <time>2011-05-15T08:24:28Z</time>
      </trkpt>
      <trkpt lat="48.21561" lon="3.26137">
        <ele>121</ele>
        <time>2011-05-15T08:24:30Z</time>
      </trkpt>
      <trkpt lat="48.21567" lon="3.26131">
        <ele>121</ele>
        <time>2011-05-15T08:24:34Z</time>
      </trkpt>
      <trkpt lat="48.21567" lon="3.26131">
        <ele>121</ele>
        <time>2011-05-15T08:24:34Z</time>
      </trkpt>
      <trkpt lat="48.21567" lon="3.26131">
        <ele>121</ele>
        <time>2011-05-15T08:24:36Z</time>
      </trkpt>
      <trkpt lat="48.21572" lon="3.26124">
        <ele>121</ele>
        <time>2011-05-15T08:24:37Z</time>
      </trkpt>
      <trkpt lat="48.21576" lon="3.2612">
        <ele>121</ele>
        <time>2011-05-15T08:24:39Z</time>
      </trkpt>
      <trkpt lat="48.21582" lon="3.26114">
        <ele>121</ele>
        <time>2011-05-15T08:24:41Z</time>
      </trkpt>
      <trkpt lat="48.21586" lon="3.26107">
        <ele>121</ele>
        <time>2011-05-15T08:24:43Z</time>
      </trkpt>
      <trkpt lat="48.21591" lon="3.26101">
        <ele>121</ele>
        <time>2011-05-15T08:24:45Z</time>
      </trkpt>
      <trkpt lat="48.21597" lon="3.26092">
        <ele>121</ele>
        <time>2011-05-15T08:24:47Z</time>
      </trkpt>
      <trkpt lat="48.21602" lon="3.26084">
        <ele>121</ele>
        <time>2011-05-15T08:24:49Z</time>
      </trkpt>
      <trkpt lat="48.21608" lon="3.26075">
        <ele>121</ele>
        <time>2011-05-15T08:24:51Z</time>
      </trkpt>
      <trkpt lat="48.21613" lon="3.26069">
        <ele>122</ele>
        <time>2011-05-15T08:24:53Z</time>
      </trkpt>
      <trkpt lat="48.21618" lon="3.2606">
        <ele>122</ele>
        <time>2011-05-15T08:24:55Z</time>
      </trkpt>
      <trkpt lat="48.21624" lon="3.26051">
        <ele>122</ele>
        <time>2011-05-15T08:24:57Z</time>
      </trkpt>
      <trkpt lat="48.2163" lon="3.26045">
        <ele>122</ele>
        <time>2011-05-15T08:24:59Z</time>
      </trkpt>
      <trkpt lat="48.21635" lon="3.26036">
        <ele>123</ele>
        <time>2011-05-15T08:25:01Z</time>
      </trkpt>
      <trkpt lat="48.21642" lon="3.26028">
        <ele>124</ele>
        <time>2011-05-15T08:25:03Z</time>
      </trkpt>
      <trkpt lat="48.21648" lon="3.26021">
        <ele>124</ele>
        <time>2011-05-15T08:25:05Z</time>
      </trkpt>
      <trkpt lat="48.21654" lon="3.26015">
        <ele>125</ele>
        <time>2011-05-15T08:25:07Z</time>
      </trkpt>
      <trkpt lat="48.2166" lon="3.26006">
        <ele>125</ele>
        <time>2011-05-15T08:25:09Z</time>
      </trkpt>
      <trkpt lat="48.21666" lon="3.26">
        <ele>126</ele>
        <time>2011-05-15T08:25:11Z</time>
      </trkpt>
      <trkpt lat="48.21673" lon="3.25991">
        <ele>127</ele>
        <time>2011-05-15T08:25:13Z</time>
      </trkpt>
      <trkpt lat="48.21678" lon="3.25983">
        <ele>127</ele>
        <time>2011-05-15T08:25:15Z</time>
      </trkpt>
      <trkpt lat="48.21685" lon="3.25974">
        <ele>128</ele>
        <time>2011-05-15T08:25:17Z</time>
      </trkpt>
      <trkpt lat="48.21691" lon="3.25966">
        <ele>128</ele>
        <time>2011-05-15T08:25:19Z</time>
      </trkpt>
      <trkpt lat="48.21698" lon="3.25959">
        <ele>128</ele>
        <time>2011-05-15T08:25:21Z</time>
      </trkpt>
      <trkpt lat="48.21704" lon="3.25953">
        <ele>129</ele>
        <time>2011-05-15T08:25:23Z</time>
      </trkpt>
      <trkpt lat="48.2171" lon="3.25946">
        <ele>130</ele>
        <time>2011-05-15T08:25:25Z</time>
      </trkpt>
      <trkpt lat="48.21717" lon="3.25938">
        <ele>130</ele>
        <time>2011-05-15T08:25:27Z</time>
      </trkpt>
      <trkpt lat="48.21723" lon="3.25931">
        <ele>130</ele>
        <time>2011-05-15T08:25:29Z</time>
      </trkpt>
      <trkpt lat="48.21731" lon="3.25923">
        <ele>130</ele>
        <time>2011-05-15T08:25:31Z</time>
      </trkpt>
      <trkpt lat="48.21737" lon="3.25916">
        <ele>131</ele>
        <time>2011-05-15T08:25:33Z</time>
      </trkpt>
      <trkpt lat="48.21744" lon="3.25908">
        <ele>131</ele>
        <time>2011-05-15T08:25:35Z</time>
      </trkpt>
      <trkpt lat="48.2175" lon="3.25899">
        <ele>131</ele>
        <time>2011-05-15T08:25:37Z</time>
      </trkpt>
      <trkpt lat="48.21756" lon="3.25893">
        <ele>131</ele>
        <time>2011-05-15T08:25:39Z</time>
      </trkpt>
      <trkpt lat="48.21759" lon="3.25884">
        <ele>131</ele>
        <time>2011-05-15T08:25:41Z</time>
      </trkpt>
      <trkpt lat="48.21758" lon="3.25873">
        <ele>131</ele>
        <time>2011-05-15T08:25:43Z</time>
      </trkpt>
      <trkpt lat="48.21752" lon="3.25869">
        <ele>131</ele>
        <time>2011-05-15T08:25:45Z</time>
      </trkpt>
      <trkpt lat="48.21747" lon="3.25863">
        <ele>131</ele>
        <time>2011-05-15T08:25:47Z</time>
      </trkpt>
      <trkpt lat="48.21741" lon="3.25856">
        <ele>131</ele>
        <time>2011-05-15T08:25:49Z</time>
      </trkpt>
      <trkpt lat="48.21734" lon="3.25852">
        <ele>131</ele>
        <time>2011-05-15T08:25:51Z</time>
      </trkpt>
      <trkpt lat="48.21728" lon="3.25845">
        <ele>131</ele>
        <time>2011-05-15T08:25:53Z</time>
      </trkpt>
      <trkpt lat="48.21721" lon="3.25839">
        <ele>131</ele>
        <time>2011-05-15T08:25:55Z</time>
      </trkpt>
      <trkpt lat="48.21717" lon="3.25837">
        <ele>131</ele>
        <time>2011-05-15T08:25:56Z</time>
      </trkpt>
      <trkpt lat="48.2171" lon="3.25828">
        <ele>130</ele>
        <time>2011-05-15T08:25:58Z</time>
      </trkpt>
      <trkpt lat="48.21704" lon="3.25822">
        <ele>130</ele>
        <time>2011-05-15T08:26:00Z</time>
      </trkpt>
      <trkpt lat="48.21697" lon="3.25815">
        <ele>130</ele>
        <time>2011-05-15T08:26:02Z</time>
      </trkpt>
      <trkpt lat="48.21689" lon="3.25811">
        <ele>130</ele>
        <time>2011-05-15T08:26:04Z</time>
      </trkpt>
      <trkpt lat="48.21682" lon="3.25805">
        <ele>131</ele>
        <time>2011-05-15T08:26:06Z</time>
      </trkpt>
      <trkpt lat="48.21675" lon="3.25798">
        <ele>131</ele>
        <time>2011-05-15T08:26:08Z</time>
      </trkpt>
      <trkpt lat="48.21668" lon="3.25792">
        <ele>131</ele>
        <time>2011-05-15T08:26:10Z</time>
      </trkpt>
      <trkpt lat="48.2166" lon="3.25788">
        <ele>132</ele>
        <time>2011-05-15T08:26:12Z</time>
      </trkpt>
      <trkpt lat="48.21654" lon="3.25781">
        <ele>132</ele>
        <time>2011-05-15T08:26:14Z</time>
      </trkpt>
      <trkpt lat="48.21646" lon="3.25777">
        <ele>132</ele>
        <time>2011-05-15T08:26:16Z</time>
      </trkpt>
      <trkpt lat="48.2164" lon="3.2577">
        <ele>132</ele>
        <time>2011-05-15T08:26:18Z</time>
      </trkpt>
      <trkpt lat="48.21632" lon="3.25764">
        <ele>132</ele>
        <time>2011-05-15T08:26:20Z</time>
      </trkpt>
      <trkpt lat="48.21625" lon="3.2576">
        <ele>133</ele>
        <time>2011-05-15T08:26:22Z</time>
      </trkpt>
      <trkpt lat="48.2162" lon="3.25755">
        <ele>133</ele>
        <time>2011-05-15T08:26:23Z</time>
      </trkpt>
      <trkpt lat="48.21613" lon="3.25751">
        <ele>133</ele>
        <time>2011-05-15T08:26:25Z</time>
      </trkpt>
      <trkpt lat="48.21606" lon="3.25745">
        <ele>134</ele>
        <time>2011-05-15T08:26:27Z</time>
      </trkpt>
      <trkpt lat="48.21602" lon="3.25742">
        <ele>134</ele>
        <time>2011-05-15T08:26:28Z</time>
      </trkpt>
      <trkpt lat="48.21595" lon="3.25736">
        <ele>135</ele>
        <time>2011-05-15T08:26:30Z</time>
      </trkpt>
      <trkpt lat="48.21587" lon="3.2573">
        <ele>135</ele>
        <time>2011-05-15T08:26:32Z</time>
      </trkpt>
      <trkpt lat="48.21583" lon="3.25727">
        <ele>135</ele>
        <time>2011-05-15T08:26:33Z</time>
      </trkpt>
      <trkpt lat="48.21575" lon="3.25721">
        <ele>135</ele>
        <time>2011-05-15T08:26:35Z</time>
      </trkpt>
      <trkpt lat="48.21568" lon="3.25714">
        <ele>136</ele>
        <time>2011-05-15T08:26:37Z</time>
      </trkpt>
      <trkpt lat="48.2156" lon="3.2571">
        <ele>136</ele>
        <time>2011-05-15T08:26:39Z</time>
      </trkpt>
      <trkpt lat="48.21554" lon="3.25704">
        <ele>136</ele>
        <time>2011-05-15T08:26:41Z</time>
      </trkpt>
      <trkpt lat="48.2155" lon="3.257">
        <ele>136</ele>
        <time>2011-05-15T08:26:42Z</time>
      </trkpt>
      <trkpt lat="48.21542" lon="3.25695">
        <ele>136</ele>
        <time>2011-05-15T08:26:44Z</time>
      </trkpt>
      <trkpt lat="48.21536" lon="3.25689">
        <ele>136</ele>
        <time>2011-05-15T08:26:46Z</time>
      </trkpt>
      <trkpt lat="48.21529" lon="3.2568">
        <ele>136</ele>
        <time>2011-05-15T08:26:48Z</time>
      </trkpt>
      <trkpt lat="48.21522" lon="3.25674">
        <ele>136</ele>
        <time>2011-05-15T08:26:50Z</time>
      </trkpt>
      <trkpt lat="48.21514" lon="3.25667">
        <ele>137</ele>
        <time>2011-05-15T08:26:52Z</time>
      </trkpt>
      <trkpt lat="48.21507" lon="3.25663">
        <ele>137</ele>
        <time>2011-05-15T08:26:54Z</time>
      </trkpt>
      <trkpt lat="48.21502" lon="3.25659">
        <ele>137</ele>
        <time>2011-05-15T08:26:55Z</time>
      </trkpt>
      <trkpt lat="48.21496" lon="3.2565">
        <ele>137</ele>
        <time>2011-05-15T08:26:57Z</time>
      </trkpt>
      <trkpt lat="48.21496" lon="3.25639">
        <ele>138</ele>
        <time>2011-05-15T08:26:59Z</time>
      </trkpt>
      <trkpt lat="48.21499" lon="3.25631">
        <ele>138</ele>
        <time>2011-05-15T08:27:01Z</time>
      </trkpt>
      <trkpt lat="48.21502" lon="3.25622">
        <ele>138</ele>
        <time>2011-05-15T08:27:03Z</time>
      </trkpt>
      <trkpt lat="48.21506" lon="3.25614">
        <ele>138</ele>
        <time>2011-05-15T08:27:05Z</time>
      </trkpt>
      <trkpt lat="48.2151" lon="3.25605">
        <ele>138</ele>
        <time>2011-05-15T08:27:07Z</time>
      </trkpt>
      <trkpt lat="48.21514" lon="3.25596">
        <ele>139</ele>
        <time>2011-05-15T08:27:09Z</time>
      </trkpt>
      <trkpt lat="48.2152" lon="3.2559">
        <ele>140</ele>
        <time>2011-05-15T08:27:11Z</time>
      </trkpt>
      <trkpt lat="48.21524" lon="3.25584">
        <ele>140</ele>
        <time>2011-05-15T08:27:13Z</time>
      </trkpt>
      <trkpt lat="48.21528" lon="3.25577">
        <ele>140</ele>
        <time>2011-05-15T08:27:15Z</time>
      </trkpt>
      <trkpt lat="48.21532" lon="3.25573">
        <ele>140</ele>
        <time>2011-05-15T08:27:17Z</time>
      </trkpt>
      <trkpt lat="48.21537" lon="3.25566">
        <ele>141</ele>
        <time>2011-05-15T08:27:19Z</time>
      </trkpt>
      <trkpt lat="48.21541" lon="3.25562">
        <ele>141</ele>
        <time>2011-05-15T08:27:21Z</time>
      </trkpt>
      <trkpt lat="48.21545" lon="3.25558">
        <ele>141</ele>
        <time>2011-05-15T08:27:23Z</time>
      </trkpt>
      <trkpt lat="48.21551" lon="3.25552">
        <ele>141</ele>
        <time>2011-05-15T08:27:26Z</time>
      </trkpt>
      <trkpt lat="48.21556" lon="3.25545">
        <ele>142</ele>
        <time>2011-05-15T08:27:29Z</time>
      </trkpt>
      <trkpt lat="48.2156" lon="3.25539">
        <ele>142</ele>
        <time>2011-05-15T08:27:31Z</time>
      </trkpt>
      <trkpt lat="48.21565" lon="3.25534">
        <ele>142</ele>
        <time>2011-05-15T08:27:33Z</time>
      </trkpt>
      <trkpt lat="48.21569" lon="3.2553">
        <ele>143</ele>
        <time>2011-05-15T08:27:35Z</time>
      </trkpt>
      <trkpt lat="48.21573" lon="3.25524">
        <ele>143</ele>
        <time>2011-05-15T08:27:37Z</time>
      </trkpt>
      <trkpt lat="48.21578" lon="3.25519">
        <ele>143</ele>
        <time>2011-05-15T08:27:39Z</time>
      </trkpt>
      <trkpt lat="48.21582" lon="3.25513">
        <ele>143</ele>
        <time>2011-05-15T08:27:41Z</time>
      </trkpt>
      <trkpt lat="48.21586" lon="3.25506">
        <ele>144</ele>
        <time>2011-05-15T08:27:43Z</time>
      </trkpt>
      <trkpt lat="48.2159" lon="3.25502">
        <ele>144</ele>
        <time>2011-05-15T08:27:45Z</time>
      </trkpt>
      <trkpt lat="48.21596" lon="3.25498">
        <ele>144</ele>
        <time>2011-05-15T08:27:47Z</time>
      </trkpt>
      <trkpt lat="48.21601" lon="3.25494">
        <ele>144</ele>
        <time>2011-05-15T08:27:49Z</time>
      </trkpt>
      <trkpt lat="48.21605" lon="3.25489">
        <ele>145</ele>
        <time>2011-05-15T08:27:51Z</time>
      </trkpt>
      <trkpt lat="48.21611" lon="3.25485">
        <ele>145</ele>
        <time>2011-05-15T08:27:53Z</time>
      </trkpt>
      <trkpt lat="48.21616" lon="3.25476">
        <ele>145</ele>
        <time>2011-05-15T08:27:56Z</time>
      </trkpt>
      <trkpt lat="48.21617" lon="3.25468">
        <ele>146</ele>
        <time>2011-05-15T08:27:59Z</time>
      </trkpt>
      <trkpt lat="48.21618" lon="3.25459">
        <ele>146</ele>
        <time>2011-05-15T08:28:02Z</time>
      </trkpt>
      <trkpt lat="48.2162" lon="3.25451">
        <ele>147</ele>
        <time>2011-05-15T08:28:05Z</time>
      </trkpt>
      <trkpt lat="48.21622" lon="3.25442">
        <ele>147</ele>
        <time>2011-05-15T08:28:08Z</time>
      </trkpt>
      <trkpt lat="48.21624" lon="3.25436">
        <ele>147</ele>
        <time>2011-05-15T08:28:10Z</time>
      </trkpt>
      <trkpt lat="48.21626" lon="3.25425">
        <ele>148</ele>
        <time>2011-05-15T08:28:13Z</time>
      </trkpt>
      <trkpt lat="48.21628" lon="3.25416">
        <ele>148</ele>
        <time>2011-05-15T08:28:16Z</time>
      </trkpt>
      <trkpt lat="48.21629" lon="3.25406">
        <ele>149</ele>
        <time>2011-05-15T08:28:19Z</time>
      </trkpt>
      <trkpt lat="48.21631" lon="3.25399">
        <ele>149</ele>
        <time>2011-05-15T08:28:21Z</time>
      </trkpt>
      <trkpt lat="48.21633" lon="3.25388">
        <ele>149</ele>
        <time>2011-05-15T08:28:24Z</time>
      </trkpt>
      <trkpt lat="48.21633" lon="3.25388">
        <ele>149</ele>
        <time>2011-05-15T08:28:24Z</time>
      </trkpt>
      <trkpt lat="48.21633" lon="3.25388">
        <ele>149</ele>
        <time>2011-05-15T08:28:26Z</time>
      </trkpt>
      <trkpt lat="48.21634" lon="3.2538">
        <ele>150</ele>
        <time>2011-05-15T08:28:27Z</time>
      </trkpt>
      <trkpt lat="48.21634" lon="3.2538">
        <ele>150</ele>
        <time>2011-05-15T08:28:27Z</time>
      </trkpt>
      <trkpt lat="48.21634" lon="3.2538">
        <ele>150</ele>
        <time>2011-05-15T08:28:29Z</time>
      </trkpt>
      <trkpt lat="48.21636" lon="3.25371">
        <ele>150</ele>
        <time>2011-05-15T08:28:30Z</time>
      </trkpt>
      <trkpt lat="48.21639" lon="3.25358">
        <ele>151</ele>
        <time>2011-05-15T08:28:34Z</time>
      </trkpt>
      <trkpt lat="48.21639" lon="3.25358">
        <ele>151</ele>
        <time>2011-05-15T08:28:34Z</time>
      </trkpt>
      <trkpt lat="48.21639" lon="3.25358">
        <ele>151</ele>
        <time>2011-05-15T08:28:36Z</time>
      </trkpt>
      <trkpt lat="48.21641" lon="3.25348">
        <ele>152</ele>
        <time>2011-05-15T08:28:37Z</time>
      </trkpt>
      <trkpt lat="48.21643" lon="3.25337">
        <ele>153</ele>
        <time>2011-05-15T08:28:41Z</time>
      </trkpt>
      <trkpt lat="48.21643" lon="3.25337">
        <ele>153</ele>
        <time>2011-05-15T08:28:41Z</time>
      </trkpt>
      <trkpt lat="48.21643" lon="3.25337">
        <ele>153</ele>
        <time>2011-05-15T08:28:43Z</time>
      </trkpt>
      <trkpt lat="48.21645" lon="3.25326">
        <ele>153</ele>
        <time>2011-05-15T08:28:44Z</time>
      </trkpt>
      <trkpt lat="48.21645" lon="3.25326">
        <ele>153</ele>
        <time>2011-05-15T08:28:44Z</time>
      </trkpt>
      <trkpt lat="48.21645" lon="3.25326">
        <ele>153</ele>
        <time>2011-05-15T08:28:45Z</time>
      </trkpt>
      <trkpt lat="48.21647" lon="3.2532">
        <ele>154</ele>
        <time>2011-05-15T08:28:46Z</time>
      </trkpt>
      <trkpt lat="48.21648" lon="3.25311">
        <ele>154</ele>
        <time>2011-05-15T08:28:48Z</time>
      </trkpt>
      <trkpt lat="48.2165" lon="3.25303">
        <ele>155</ele>
        <time>2011-05-15T08:28:50Z</time>
      </trkpt>
      <trkpt lat="48.21649" lon="3.25292">
        <ele>155</ele>
        <time>2011-05-15T08:28:53Z</time>
      </trkpt>
      <trkpt lat="48.21645" lon="3.25283">
        <ele>156</ele>
        <time>2011-05-15T08:28:57Z</time>
      </trkpt>
      <trkpt lat="48.21645" lon="3.25283">
        <ele>156</ele>
        <time>2011-05-15T08:28:57Z</time>
      </trkpt>
      <trkpt lat="48.21645" lon="3.25283">
        <ele>156</ele>
        <time>2011-05-15T08:28:59Z</time>
      </trkpt>
      <trkpt lat="48.21642" lon="3.25275">
        <ele>157</ele>
        <time>2011-05-15T08:29:00Z</time>
      </trkpt>
      <trkpt lat="48.21642" lon="3.25275">
        <ele>157</ele>
        <time>2011-05-15T08:29:00Z</time>
      </trkpt>
      <trkpt lat="48.21642" lon="3.25275">
        <ele>157</ele>
        <time>2011-05-15T08:29:02Z</time>
      </trkpt>
      <trkpt lat="48.21638" lon="3.25268">
        <ele>157</ele>
        <time>2011-05-15T08:29:03Z</time>
      </trkpt>
      <trkpt lat="48.21638" lon="3.25268">
        <ele>157</ele>
        <time>2011-05-15T08:29:03Z</time>
      </trkpt>
      <trkpt lat="48.21638" lon="3.25268">
        <ele>157</ele>
        <time>2011-05-15T08:29:05Z</time>
      </trkpt>
      <trkpt lat="48.21633" lon="3.25262">
        <ele>158</ele>
        <time>2011-05-15T08:29:06Z</time>
      </trkpt>
      <trkpt lat="48.21633" lon="3.25262">
        <ele>158</ele>
        <time>2011-05-15T08:29:06Z</time>
      </trkpt>
      <trkpt lat="48.21633" lon="3.25262">
        <ele>158</ele>
        <time>2011-05-15T08:29:08Z</time>
      </trkpt>
      <trkpt lat="48.21629" lon="3.25253">
        <ele>159</ele>
        <time>2011-05-15T08:29:09Z</time>
      </trkpt>
      <trkpt lat="48.21629" lon="3.25253">
        <ele>159</ele>
        <time>2011-05-15T08:29:09Z</time>
      </trkpt>
      <trkpt lat="48.21629" lon="3.25253">
        <ele>159</ele>
        <time>2011-05-15T08:29:11Z</time>
      </trkpt>
      <trkpt lat="48.21624" lon="3.25247">
        <ele>159</ele>
        <time>2011-05-15T08:29:12Z</time>
      </trkpt>
      <trkpt lat="48.21624" lon="3.25247">
        <ele>159</ele>
        <time>2011-05-15T08:29:12Z</time>
      </trkpt>
      <trkpt lat="48.21624" lon="3.25247">
        <ele>159</ele>
        <time>2011-05-15T08:29:13Z</time>
      </trkpt>
      <trkpt lat="48.21617" lon="3.25238">
        <ele>160</ele>
        <time>2011-05-15T08:29:16Z</time>
      </trkpt>
      <trkpt lat="48.21617" lon="3.25238">
        <ele>160</ele>
        <time>2011-05-15T08:29:16Z</time>
      </trkpt>
      <trkpt lat="48.21617" lon="3.25238">
        <ele>160</ele>
        <time>2011-05-15T08:29:17Z</time>
      </trkpt>
      <trkpt lat="48.21613" lon="3.25234">
        <ele>161</ele>
        <time>2011-05-15T08:29:18Z</time>
      </trkpt>
      <trkpt lat="48.21613" lon="3.25234">
        <ele>161</ele>
        <time>2011-05-15T08:29:18Z</time>
      </trkpt>
      <trkpt lat="48.21613" lon="3.25234">
        <ele>161</ele>
        <time>2011-05-15T08:29:19Z</time>
      </trkpt>
      <trkpt lat="48.2161" lon="3.25227">
        <ele>161</ele>
        <time>2011-05-15T08:29:20Z</time>
      </trkpt>
      <trkpt lat="48.2161" lon="3.25227">
        <ele>161</ele>
        <time>2011-05-15T08:29:20Z</time>
      </trkpt>
      <trkpt lat="48.2161" lon="3.25227">
        <ele>161</ele>
        <time>2011-05-15T08:29:21Z</time>
      </trkpt>
      <trkpt lat="48.21604" lon="3.25221">
        <ele>162</ele>
        <time>2011-05-15T08:29:23Z</time>
      </trkpt>
      <trkpt lat="48.216" lon="3.25217">
        <ele>162</ele>
        <time>2011-05-15T08:29:25Z</time>
      </trkpt>
      <trkpt lat="48.21595" lon="3.2521">
        <ele>163</ele>
        <time>2011-05-15T08:29:28Z</time>
      </trkpt>
      <trkpt lat="48.21595" lon="3.2521">
        <ele>163</ele>
        <time>2011-05-15T08:29:28Z</time>
      </trkpt>
      <trkpt lat="48.21595" lon="3.2521">
        <ele>163</ele>
        <time>2011-05-15T08:29:29Z</time>
      </trkpt>
      <trkpt lat="48.21591" lon="3.25204">
        <ele>163</ele>
        <time>2011-05-15T08:29:30Z</time>
      </trkpt>
      <trkpt lat="48.21591" lon="3.25204">
        <ele>163</ele>
        <time>2011-05-15T08:29:30Z</time>
      </trkpt>
      <trkpt lat="48.21591" lon="3.25204">
        <ele>163</ele>
        <time>2011-05-15T08:29:31Z</time>
      </trkpt>
      <trkpt lat="48.21586" lon="3.25197">
        <ele>163</ele>
        <time>2011-05-15T08:29:33Z</time>
      </trkpt>
      <trkpt lat="48.21581" lon="3.25191">
        <ele>164</ele>
        <time>2011-05-15T08:29:36Z</time>
      </trkpt>
      <trkpt lat="48.21576" lon="3.25184">
        <ele>164</ele>
        <time>2011-05-15T08:29:38Z</time>
      </trkpt>
      <trkpt lat="48.21572" lon="3.2518">
        <ele>165</ele>
        <time>2011-05-15T08:29:40Z</time>
      </trkpt>
      <trkpt lat="48.21569" lon="3.25174">
        <ele>165</ele>
        <time>2011-05-15T08:29:42Z</time>
      </trkpt>
      <trkpt lat="48.21565" lon="3.2517">
        <ele>165</ele>
        <time>2011-05-15T08:29:44Z</time>
      </trkpt>
      <trkpt lat="48.21559" lon="3.25163">
        <ele>166</ele>
        <time>2011-05-15T08:29:47Z</time>
      </trkpt>
      <trkpt lat="48.21554" lon="3.25157">
        <ele>166</ele>
        <time>2011-05-15T08:29:50Z</time>
      </trkpt>
      <trkpt lat="48.21548" lon="3.25146">
        <ele>167</ele>
        <time>2011-05-15T08:29:54Z</time>
      </trkpt>
      <trkpt lat="48.21548" lon="3.25146">
        <ele>167</ele>
        <time>2011-05-15T08:29:54Z</time>
      </trkpt>
      <trkpt lat="48.21548" lon="3.25146">
        <ele>167</ele>
        <time>2011-05-15T08:29:56Z</time>
      </trkpt>
      <trkpt lat="48.21543" lon="3.2514">
        <ele>167</ele>
        <time>2011-05-15T08:29:57Z</time>
      </trkpt>
      <trkpt lat="48.21541" lon="3.25133">
        <ele>168</ele>
        <time>2011-05-15T08:29:59Z</time>
      </trkpt>
      <trkpt lat="48.21536" lon="3.25124">
        <ele>168</ele>
        <time>2011-05-15T08:30:02Z</time>
      </trkpt>
      <trkpt lat="48.21531" lon="3.25116">
        <ele>168</ele>
        <time>2011-05-15T08:30:05Z</time>
      </trkpt>
      <trkpt lat="48.21526" lon="3.25107">
        <ele>169</ele>
        <time>2011-05-15T08:30:08Z</time>
      </trkpt>
      <trkpt lat="48.21521" lon="3.25099">
        <ele>169</ele>
        <time>2011-05-15T08:30:11Z</time>
      </trkpt>
      <trkpt lat="48.21516" lon="3.2509">
        <ele>170</ele>
        <time>2011-05-15T08:30:14Z</time>
      </trkpt>
      <trkpt lat="48.21512" lon="3.25084">
        <ele>170</ele>
        <time>2011-05-15T08:30:17Z</time>
      </trkpt>
      <trkpt lat="48.21509" lon="3.25077">
        <ele>170</ele>
        <time>2011-05-15T08:30:19Z</time>
      </trkpt>
      <trkpt lat="48.21507" lon="3.25071">
        <ele>170</ele>
        <time>2011-05-15T08:30:21Z</time>
      </trkpt>
      <trkpt lat="48.21504" lon="3.25064">
        <ele>171</ele>
        <time>2011-05-15T08:30:23Z</time>
      </trkpt>
      <trkpt lat="48.21499" lon="3.25058">
        <ele>171</ele>
        <time>2011-05-15T08:30:26Z</time>
      </trkpt>
      <trkpt lat="48.21496" lon="3.25052">
        <ele>171</ele>
        <time>2011-05-15T08:30:28Z</time>
      </trkpt>
      <trkpt lat="48.21494" lon="3.25045">
        <ele>172</ele>
        <time>2011-05-15T08:30:30Z</time>
      </trkpt>
      <trkpt lat="48.2149" lon="3.25036">
        <ele>172</ele>
        <time>2011-05-15T08:30:33Z</time>
      </trkpt>
      <trkpt lat="48.21485" lon="3.25028">
        <ele>172</ele>
        <time>2011-05-15T08:30:36Z</time>
      </trkpt>
      <trkpt lat="48.21482" lon="3.25022">
        <ele>173</ele>
        <time>2011-05-15T08:30:38Z</time>
      </trkpt>
      <trkpt lat="48.21479" lon="3.25015">
        <ele>173</ele>
        <time>2011-05-15T08:30:40Z</time>
      </trkpt>
      <trkpt lat="48.21477" lon="3.25009">
        <ele>173</ele>
        <time>2011-05-15T08:30:42Z</time>
      </trkpt>
      <trkpt lat="48.21474" lon="3.25002">
        <ele>174</ele>
        <time>2011-05-15T08:30:44Z</time>
      </trkpt>
      <trkpt lat="48.21473" lon="3.24994">
        <ele>174</ele>
        <time>2011-05-15T08:30:46Z</time>
      </trkpt>
      <trkpt lat="48.21471" lon="3.24985">
        <ele>174</ele>
        <time>2011-05-15T08:30:48Z</time>
      </trkpt>
      <trkpt lat="48.21469" lon="3.24974">
        <ele>175</ele>
        <time>2011-05-15T08:30:51Z</time>
      </trkpt>
      <trkpt lat="48.21468" lon="3.24966">
        <ele>175</ele>
        <time>2011-05-15T08:30:53Z</time>
      </trkpt>
      <trkpt lat="48.21466" lon="3.24959">
        <ele>175</ele>
        <time>2011-05-15T08:30:55Z</time>
      </trkpt>
      <trkpt lat="48.21464" lon="3.24948">
        <ele>176</ele>
        <time>2011-05-15T08:30:58Z</time>
      </trkpt>
      <trkpt lat="48.21462" lon="3.24942">
        <ele>176</ele>
        <time>2011-05-15T08:31:00Z</time>
      </trkpt>
      <trkpt lat="48.2146" lon="3.24934">
        <ele>176</ele>
        <time>2011-05-15T08:31:02Z</time>
      </trkpt>
      <trkpt lat="48.21457" lon="3.24925">
        <ele>176</ele>
        <time>2011-05-15T08:31:04Z</time>
      </trkpt>
      <trkpt lat="48.21455" lon="3.24918">
        <ele>177</ele>
        <time>2011-05-15T08:31:06Z</time>
      </trkpt>
      <trkpt lat="48.21452" lon="3.2491">
        <ele>177</ele>
        <time>2011-05-15T08:31:08Z</time>
      </trkpt>
      <trkpt lat="48.2145" lon="3.24901">
        <ele>177</ele>
        <time>2011-05-15T08:31:10Z</time>
      </trkpt>
      <trkpt lat="48.21448" lon="3.24893">
        <ele>177</ele>
        <time>2011-05-15T08:31:12Z</time>
      </trkpt>
      <trkpt lat="48.21444" lon="3.24886">
        <ele>178</ele>
        <time>2011-05-15T08:31:14Z</time>
      </trkpt>
      <trkpt lat="48.21441" lon="3.24878">
        <ele>178</ele>
        <time>2011-05-15T08:31:16Z</time>
      </trkpt>
      <trkpt lat="48.21439" lon="3.24871">
        <ele>178</ele>
        <time>2011-05-15T08:31:18Z</time>
      </trkpt>
      <trkpt lat="48.21437" lon="3.24863">
        <ele>178</ele>
        <time>2011-05-15T08:31:20Z</time>
      </trkpt>
      <trkpt lat="48.21435" lon="3.24856">
        <ele>179</ele>
        <time>2011-05-15T08:31:22Z</time>
      </trkpt>
      <trkpt lat="48.21433" lon="3.2485">
        <ele>179</ele>
        <time>2011-05-15T08:31:24Z</time>
      </trkpt>
      <trkpt lat="48.2143" lon="3.24841">
        <ele>179</ele>
        <time>2011-05-15T08:31:26Z</time>
      </trkpt>
      <trkpt lat="48.21427" lon="3.24835">
        <ele>180</ele>
        <time>2011-05-15T08:31:28Z</time>
      </trkpt>
      <trkpt lat="48.21425" lon="3.24826">
        <ele>180</ele>
        <time>2011-05-15T08:31:30Z</time>
      </trkpt>
      <trkpt lat="48.21423" lon="3.24818">
        <ele>180</ele>
        <time>2011-05-15T08:31:32Z</time>
      </trkpt>
      <trkpt lat="48.21421" lon="3.24807">
        <ele>181</ele>
        <time>2011-05-15T08:31:35Z</time>
      </trkpt>
      <trkpt lat="48.21419" lon="3.24798">
        <ele>181</ele>
        <time>2011-05-15T08:31:37Z</time>
      </trkpt>
      <trkpt lat="48.21417" lon="3.24792">
        <ele>181</ele>
        <time>2011-05-15T08:31:39Z</time>
      </trkpt>
      <trkpt lat="48.21416" lon="3.24783">
        <ele>181</ele>
        <time>2011-05-15T08:31:41Z</time>
      </trkpt>
      <trkpt lat="48.21413" lon="3.24775">
        <ele>182</ele>
        <time>2011-05-15T08:31:43Z</time>
      </trkpt>
      <trkpt lat="48.21411" lon="3.24768">
        <ele>182</ele>
        <time>2011-05-15T08:31:45Z</time>
      </trkpt>
      <trkpt lat="48.21408" lon="3.2476">
        <ele>182</ele>
        <time>2011-05-15T08:31:47Z</time>
      </trkpt>
      <trkpt lat="48.21406" lon="3.24753">
        <ele>183</ele>
        <time>2011-05-15T08:31:49Z</time>
      </trkpt>
      <trkpt lat="48.21404" lon="3.24745">
        <ele>183</ele>
        <time>2011-05-15T08:31:51Z</time>
      </trkpt>
      <trkpt lat="48.21402" lon="3.24738">
        <ele>183</ele>
        <time>2011-05-15T08:31:53Z</time>
      </trkpt>
      <trkpt lat="48.21398" lon="3.24732">
        <ele>184</ele>
        <time>2011-05-15T08:31:55Z</time>
      </trkpt>
      <trkpt lat="48.21396" lon="3.24723">
        <ele>184</ele>
        <time>2011-05-15T08:31:57Z</time>
      </trkpt>
      <trkpt lat="48.21393" lon="3.24717">
        <ele>184</ele>
        <time>2011-05-15T08:31:59Z</time>
      </trkpt>
      <trkpt lat="48.2139" lon="3.24708">
        <ele>184</ele>
        <time>2011-05-15T08:32:01Z</time>
      </trkpt>
      <trkpt lat="48.21388" lon="3.24702">
        <ele>185</ele>
        <time>2011-05-15T08:32:03Z</time>
      </trkpt>
      <trkpt lat="48.21386" lon="3.24695">
        <ele>185</ele>
        <time>2011-05-15T08:32:05Z</time>
      </trkpt>
      <trkpt lat="48.21383" lon="3.24689">
        <ele>185</ele>
        <time>2011-05-15T08:32:07Z</time>
      </trkpt>
      <trkpt lat="48.21381" lon="3.24682">
        <ele>185</ele>
        <time>2011-05-15T08:32:09Z</time>
      </trkpt>
      <trkpt lat="48.21378" lon="3.24676">
        <ele>186</ele>
        <time>2011-05-15T08:32:12Z</time>
      </trkpt>
      <trkpt lat="48.21376" lon="3.2467">
        <ele>186</ele>
        <time>2011-05-15T08:32:15Z</time>
      </trkpt>
      <trkpt lat="48.21372" lon="3.24665">
        <ele>186</ele>
        <time>2011-05-15T08:32:35Z</time>
      </trkpt>
      <trkpt lat="48.21372" lon="3.24665">
        <ele>186</ele>
        <time>2011-05-15T08:32:35Z</time>
      </trkpt>
      <trkpt lat="48.21372" lon="3.24665">
        <ele>186</ele>
        <time>2011-05-15T08:32:42Z</time>
      </trkpt>
      <trkpt lat="48.21376" lon="3.24663">
        <ele>186</ele>
        <time>2011-05-15T08:32:52Z</time>
      </trkpt>
      <trkpt lat="48.21376" lon="3.24663">
        <ele>186</ele>
        <time>2011-05-15T08:32:52Z</time>
      </trkpt>
      <trkpt lat="48.21376" lon="3.24663">
        <ele>187</ele>
        <time>2011-05-15T08:32:53Z</time>
      </trkpt>
      <trkpt lat="48.21376" lon="3.24654">
        <ele>188</ele>
        <time>2011-05-15T08:33:23Z</time>
      </trkpt>
      <trkpt lat="48.21374" lon="3.24648">
        <ele>188</ele>
        <time>2011-05-15T08:33:25Z</time>
      </trkpt>
      <trkpt lat="48.2137" lon="3.24642">
        <ele>189</ele>
        <time>2011-05-15T08:33:27Z</time>
      </trkpt>
      <trkpt lat="48.21366" lon="3.24635">
        <ele>189</ele>
        <time>2011-05-15T08:33:29Z</time>
      </trkpt>
      <trkpt lat="48.21363" lon="3.24627">
        <ele>189</ele>
        <time>2011-05-15T08:33:31Z</time>
      </trkpt>
      <trkpt lat="48.2136" lon="3.24618">
        <ele>190</ele>
        <time>2011-05-15T08:33:33Z</time>
      </trkpt>
      <trkpt lat="48.21356" lon="3.24612">
        <ele>190</ele>
        <time>2011-05-15T08:33:35Z</time>
      </trkpt>
      <trkpt lat="48.21354" lon="3.24603">
        <ele>191</ele>
        <time>2011-05-15T08:33:37Z</time>
      </trkpt>
      <trkpt lat="48.21352" lon="3.24592">
        <ele>191</ele>
        <time>2011-05-15T08:33:39Z</time>
      </trkpt>
      <trkpt lat="48.2135" lon="3.24584">
        <ele>191</ele>
        <time>2011-05-15T08:33:41Z</time>
      </trkpt>
      <trkpt lat="48.21348" lon="3.24573">
        <ele>192</ele>
        <time>2011-05-15T08:33:43Z</time>
      </trkpt>
      <trkpt lat="48.21347" lon="3.24562">
        <ele>192</ele>
        <time>2011-05-15T08:33:45Z</time>
      </trkpt>
      <trkpt lat="48.21345" lon="3.24554">
        <ele>192</ele>
        <time>2011-05-15T08:33:47Z</time>
      </trkpt>
      <trkpt lat="48.21344" lon="3.24543">
        <ele>193</ele>
        <time>2011-05-15T08:33:49Z</time>
      </trkpt>
      <trkpt lat="48.21342" lon="3.24534">
        <ele>193</ele>
        <time>2011-05-15T08:33:51Z</time>
      </trkpt>
      <trkpt lat="48.21342" lon="3.24524">
        <ele>193</ele>
        <time>2011-05-15T08:33:53Z</time>
      </trkpt>
      <trkpt lat="48.21342" lon="3.24515">
        <ele>193</ele>
        <time>2011-05-15T08:33:55Z</time>
      </trkpt>
      <trkpt lat="48.21342" lon="3.24504">
        <ele>194</ele>
        <time>2011-05-15T08:33:57Z</time>
      </trkpt>
      <trkpt lat="48.21342" lon="3.24496">
        <ele>194</ele>
        <time>2011-05-15T08:33:59Z</time>
      </trkpt>
      <trkpt lat="48.21344" lon="3.24485">
        <ele>194</ele>
        <time>2011-05-15T08:34:01Z</time>
      </trkpt>
      <trkpt lat="48.21342" lon="3.24474">
        <ele>194</ele>
        <time>2011-05-15T08:34:03Z</time>
      </trkpt>
      <trkpt lat="48.21342" lon="3.24464">
        <ele>195</ele>
        <time>2011-05-15T08:34:05Z</time>
      </trkpt>
      <trkpt lat="48.21342" lon="3.24453">
        <ele>195</ele>
        <time>2011-05-15T08:34:07Z</time>
      </trkpt>
      <trkpt lat="48.2134" lon="3.24442">
        <ele>195</ele>
        <time>2011-05-15T08:34:09Z</time>
      </trkpt>
      <trkpt lat="48.21338" lon="3.24431">
        <ele>195</ele>
        <time>2011-05-15T08:34:11Z</time>
      </trkpt>
      <trkpt lat="48.21337" lon="3.24421">
        <ele>196</ele>
        <time>2011-05-15T08:34:13Z</time>
      </trkpt>
      <trkpt lat="48.21335" lon="3.2441">
        <ele>196</ele>
        <time>2011-05-15T08:34:15Z</time>
      </trkpt>
      <trkpt lat="48.21333" lon="3.24399">
        <ele>196</ele>
        <time>2011-05-15T08:34:17Z</time>
      </trkpt>
      <trkpt lat="48.21331" lon="3.24388">
        <ele>196</ele>
        <time>2011-05-15T08:34:19Z</time>
      </trkpt>
      <trkpt lat="48.21329" lon="3.24378">
        <ele>196</ele>
        <time>2011-05-15T08:34:21Z</time>
      </trkpt>
      <trkpt lat="48.21326" lon="3.24367">
        <ele>197</ele>
        <time>2011-05-15T08:34:23Z</time>
      </trkpt>
      <trkpt lat="48.21324" lon="3.24358">
        <ele>197</ele>
        <time>2011-05-15T08:34:25Z</time>
      </trkpt>
      <trkpt lat="48.21322" lon="3.24346">
        <ele>197</ele>
        <time>2011-05-15T08:34:27Z</time>
      </trkpt>
      <trkpt lat="48.2132" lon="3.24335">
        <ele>197</ele>
        <time>2011-05-15T08:34:29Z</time>
      </trkpt>
      <trkpt lat="48.21319" lon="3.24326">
        <ele>197</ele>
        <time>2011-05-15T08:34:31Z</time>
      </trkpt>
      <trkpt lat="48.21317" lon="3.24316">
        <ele>198</ele>
        <time>2011-05-15T08:34:33Z</time>
      </trkpt>
      <trkpt lat="48.21316" lon="3.24305">
        <ele>198</ele>
        <time>2011-05-15T08:34:35Z</time>
      </trkpt>
      <trkpt lat="48.21314" lon="3.24294">
        <ele>198</ele>
        <time>2011-05-15T08:34:37Z</time>
      </trkpt>
      <trkpt lat="48.21311" lon="3.24283">
        <ele>198</ele>
        <time>2011-05-15T08:34:39Z</time>
      </trkpt>
      <trkpt lat="48.21309" lon="3.24273">
        <ele>199</ele>
        <time>2011-05-15T08:34:41Z</time>
      </trkpt>
      <trkpt lat="48.21307" lon="3.24262">
        <ele>199</ele>
        <time>2011-05-15T08:34:43Z</time>
      </trkpt>
      <trkpt lat="48.21306" lon="3.24253">
        <ele>199</ele>
        <time>2011-05-15T08:34:45Z</time>
      </trkpt>
      <trkpt lat="48.21304" lon="3.24242">
        <ele>199</ele>
        <time>2011-05-15T08:34:47Z</time>
      </trkpt>
      <trkpt lat="48.21303" lon="3.24232">
        <ele>199</ele>
        <time>2011-05-15T08:34:49Z</time>
      </trkpt>
      <trkpt lat="48.21301" lon="3.24221">
        <ele>200</ele>
        <time>2011-05-15T08:34:51Z</time>
      </trkpt>
      <trkpt lat="48.213" lon="3.2421">
        <ele>200</ele>
        <time>2011-05-15T08:34:53Z</time>
      </trkpt>
      <trkpt lat="48.21298" lon="3.24202">
        <ele>200</ele>
        <time>2011-05-15T08:34:55Z</time>
      </trkpt>
      <trkpt lat="48.21295" lon="3.24191">
        <ele>200</ele>
        <time>2011-05-15T08:34:57Z</time>
      </trkpt>
      <trkpt lat="48.21293" lon="3.2418">
        <ele>200</ele>
        <time>2011-05-15T08:34:59Z</time>
      </trkpt>
      <trkpt lat="48.21292" lon="3.2417">
        <ele>201</ele>
        <time>2011-05-15T08:35:01Z</time>
      </trkpt>
      <trkpt lat="48.21289" lon="3.24159">
        <ele>201</ele>
        <time>2011-05-15T08:35:03Z</time>
      </trkpt>
      <trkpt lat="48.21287" lon="3.2415">
        <ele>201</ele>
        <time>2011-05-15T08:35:05Z</time>
      </trkpt>
      <trkpt lat="48.21285" lon="3.2414">
        <ele>201</ele>
        <time>2011-05-15T08:35:07Z</time>
      </trkpt>
      <trkpt lat="48.21282" lon="3.24131">
        <ele>201</ele>
        <time>2011-05-15T08:35:09Z</time>
      </trkpt>
      <trkpt lat="48.2128" lon="3.2412">
        <ele>202</ele>
        <time>2011-05-15T08:35:11Z</time>
      </trkpt>
      <trkpt lat="48.21279" lon="3.24112">
        <ele>202</ele>
        <time>2011-05-15T08:35:13Z</time>
      </trkpt>
      <trkpt lat="48.21278" lon="3.24103">
        <ele>202</ele>
        <time>2011-05-15T08:35:15Z</time>
      </trkpt>
      <trkpt lat="48.21277" lon="3.24092">
        <ele>202</ele>
        <time>2011-05-15T08:35:17Z</time>
      </trkpt>
      <trkpt lat="48.21275" lon="3.24084">
        <ele>202</ele>
        <time>2011-05-15T08:35:19Z</time>
      </trkpt>
      <trkpt lat="48.21274" lon="3.24073">
        <ele>203</ele>
        <time>2011-05-15T08:35:21Z</time>
      </trkpt>
      <trkpt lat="48.21273" lon="3.24064">
        <ele>203</ele>
        <time>2011-05-15T08:35:23Z</time>
      </trkpt>
      <trkpt lat="48.21272" lon="3.24052">
        <ele>203</ele>
        <time>2011-05-15T08:35:25Z</time>
      </trkpt>
      <trkpt lat="48.21268" lon="3.24043">
        <ele>203</ele>
        <time>2011-05-15T08:35:27Z</time>
      </trkpt>
      <trkpt lat="48.21266" lon="3.24034">
        <ele>203</ele>
        <time>2011-05-15T08:35:29Z</time>
      </trkpt>
      <trkpt lat="48.21263" lon="3.24026">
        <ele>203</ele>
        <time>2011-05-15T08:35:31Z</time>
      </trkpt>
      <trkpt lat="48.21261" lon="3.24017">
        <ele>203</ele>
        <time>2011-05-15T08:35:33Z</time>
      </trkpt>
      <trkpt lat="48.21259" lon="3.24006">
        <ele>203</ele>
        <time>2011-05-15T08:35:35Z</time>
      </trkpt>
      <trkpt lat="48.21256" lon="3.23998">
        <ele>203</ele>
        <time>2011-05-15T08:35:37Z</time>
      </trkpt>
      <trkpt lat="48.21254" lon="3.23992">
        <ele>203</ele>
        <time>2011-05-15T08:35:38Z</time>
      </trkpt>
      <trkpt lat="48.21251" lon="3.23983">
        <ele>203</ele>
        <time>2011-05-15T08:35:40Z</time>
      </trkpt>
      <trkpt lat="48.21249" lon="3.23976">
        <ele>203</ele>
        <time>2011-05-15T08:35:41Z</time>
      </trkpt>
      <trkpt lat="48.21246" lon="3.23968">
        <ele>203</ele>
        <time>2011-05-15T08:35:43Z</time>
      </trkpt>
      <trkpt lat="48.21245" lon="3.23957">
        <ele>204</ele>
        <time>2011-05-15T08:35:45Z</time>
      </trkpt>
      <trkpt lat="48.21242" lon="3.23946">
        <ele>204</ele>
        <time>2011-05-15T08:35:47Z</time>
      </trkpt>
      <trkpt lat="48.21238" lon="3.23938">
        <ele>204</ele>
        <time>2011-05-15T08:35:49Z</time>
      </trkpt>
      <trkpt lat="48.21236" lon="3.23929">
        <ele>204</ele>
        <time>2011-05-15T08:35:51Z</time>
      </trkpt>
      <trkpt lat="48.21234" lon="3.23923">
        <ele>204</ele>
        <time>2011-05-15T08:35:53Z</time>
      </trkpt>
      <trkpt lat="48.21232" lon="3.23914">
        <ele>204</ele>
        <time>2011-05-15T08:35:55Z</time>
      </trkpt>
      <trkpt lat="48.21231" lon="3.23906">
        <ele>204</ele>
        <time>2011-05-15T08:35:57Z</time>
      </trkpt>
      <trkpt lat="48.21228" lon="3.23899">
        <ele>204</ele>
        <time>2011-05-15T08:35:59Z</time>
      </trkpt>
      <trkpt lat="48.21227" lon="3.23888">
        <ele>204</ele>
        <time>2011-05-15T08:36:01Z</time>
      </trkpt>
      <trkpt lat="48.21224" lon="3.2388">
        <ele>205</ele>
        <time>2011-05-15T08:36:03Z</time>
      </trkpt>
      <trkpt lat="48.21221" lon="3.23874">
        <ele>205</ele>
        <time>2011-05-15T08:36:05Z</time>
      </trkpt>
      <trkpt lat="48.21217" lon="3.23865">
        <ele>205</ele>
        <time>2011-05-15T08:36:07Z</time>
      </trkpt>
      <trkpt lat="48.21212" lon="3.23858">
        <ele>205</ele>
        <time>2011-05-15T08:36:09Z</time>
      </trkpt>
      <trkpt lat="48.21206" lon="3.23852">
        <ele>205</ele>
        <time>2011-05-15T08:36:11Z</time>
      </trkpt>
      <trkpt lat="48.21201" lon="3.23846">
        <ele>205</ele>
        <time>2011-05-15T08:36:13Z</time>
      </trkpt>
      <trkpt lat="48.21196" lon="3.23837">
        <ele>206</ele>
        <time>2011-05-15T08:36:15Z</time>
      </trkpt>
      <trkpt lat="48.2119" lon="3.23831">
        <ele>206</ele>
        <time>2011-05-15T08:36:17Z</time>
      </trkpt>
      <trkpt lat="48.21184" lon="3.23822">
        <ele>206</ele>
        <time>2011-05-15T08:36:19Z</time>
      </trkpt>
      <trkpt lat="48.21177" lon="3.23813">
        <ele>206</ele>
        <time>2011-05-15T08:36:21Z</time>
      </trkpt>
      <trkpt lat="48.21171" lon="3.23805">
        <ele>207</ele>
        <time>2011-05-15T08:36:23Z</time>
      </trkpt>
      <trkpt lat="48.21166" lon="3.23796">
        <ele>207</ele>
        <time>2011-05-15T08:36:25Z</time>
      </trkpt>
      <trkpt lat="48.21159" lon="3.23788">
        <ele>207</ele>
        <time>2011-05-15T08:36:27Z</time>
      </trkpt>
      <trkpt lat="48.21155" lon="3.23777">
        <ele>208</ele>
        <time>2011-05-15T08:36:29Z</time>
      </trkpt>
      <trkpt lat="48.2115" lon="3.23768">
        <ele>208</ele>
        <time>2011-05-15T08:36:31Z</time>
      </trkpt>
      <trkpt lat="48.21148" lon="3.23762">
        <ele>208</ele>
        <time>2011-05-15T08:36:32Z</time>
      </trkpt>
      <trkpt lat="48.21143" lon="3.23753">
        <ele>209</ele>
        <time>2011-05-15T08:36:34Z</time>
      </trkpt>
      <trkpt lat="48.21138" lon="3.23743">
        <ele>209</ele>
        <time>2011-05-15T08:36:36Z</time>
      </trkpt>
      <trkpt lat="48.21133" lon="3.23734">
        <ele>210</ele>
        <time>2011-05-15T08:36:38Z</time>
      </trkpt>
      <trkpt lat="48.2113" lon="3.23728">
        <ele>210</ele>
        <time>2011-05-15T08:36:39Z</time>
      </trkpt>
      <trkpt lat="48.21126" lon="3.23717">
        <ele>210</ele>
        <time>2011-05-15T08:36:41Z</time>
      </trkpt>
      <trkpt lat="48.2112" lon="3.23706">
        <ele>211</ele>
        <time>2011-05-15T08:36:43Z</time>
      </trkpt>
      <trkpt lat="48.21116" lon="3.23695">
        <ele>211</ele>
        <time>2011-05-15T08:36:45Z</time>
      </trkpt>
      <trkpt lat="48.21112" lon="3.23687">
        <ele>211</ele>
        <time>2011-05-15T08:36:47Z</time>
      </trkpt>
      <trkpt lat="48.2111" lon="3.2368">
        <ele>211</ele>
        <time>2011-05-15T08:36:48Z</time>
      </trkpt>
      <trkpt lat="48.21105" lon="3.23672">
        <ele>212</ele>
        <time>2011-05-15T08:36:50Z</time>
      </trkpt>
      <trkpt lat="48.211" lon="3.23663">
        <ele>212</ele>
        <time>2011-05-15T08:36:52Z</time>
      </trkpt>
      <trkpt lat="48.21096" lon="3.23655">
        <ele>212</ele>
        <time>2011-05-15T08:36:54Z</time>
      </trkpt>
      <trkpt lat="48.21092" lon="3.23646">
        <ele>213</ele>
        <time>2011-05-15T08:36:56Z</time>
      </trkpt>
      <trkpt lat="48.21086" lon="3.2364">
        <ele>213</ele>
        <time>2011-05-15T08:36:58Z</time>
      </trkpt>
      <trkpt lat="48.21082" lon="3.23631">
        <ele>213</ele>
        <time>2011-05-15T08:37:00Z</time>
      </trkpt>
      <trkpt lat="48.21076" lon="3.23622">
        <ele>213</ele>
        <time>2011-05-15T08:37:02Z</time>
      </trkpt>
      <trkpt lat="48.21072" lon="3.23614">
        <ele>213</ele>
        <time>2011-05-15T08:37:04Z</time>
      </trkpt>
      <trkpt lat="48.21067" lon="3.23605">
        <ele>214</ele>
        <time>2011-05-15T08:37:06Z</time>
      </trkpt>
      <trkpt lat="48.21061" lon="3.23597">
        <ele>214</ele>
        <time>2011-05-15T08:37:08Z</time>
      </trkpt>
      <trkpt lat="48.21057" lon="3.23588">
        <ele>214</ele>
        <time>2011-05-15T08:37:10Z</time>
      </trkpt>
      <trkpt lat="48.21055" lon="3.23582">
        <ele>214</ele>
        <time>2011-05-15T08:37:11Z</time>
      </trkpt>
      <trkpt lat="48.21051" lon="3.23573">
        <ele>214</ele>
        <time>2011-05-15T08:37:13Z</time>
      </trkpt>
      <trkpt lat="48.21045" lon="3.23562">
        <ele>215</ele>
        <time>2011-05-15T08:37:15Z</time>
      </trkpt>
      <trkpt lat="48.21041" lon="3.23552">
        <ele>216</ele>
        <time>2011-05-15T08:37:17Z</time>
      </trkpt>
      <trkpt lat="48.21035" lon="3.23541">
        <ele>217</ele>
        <time>2011-05-15T08:37:19Z</time>
      </trkpt>
      <trkpt lat="48.21029" lon="3.2353">
        <ele>218</ele>
        <time>2011-05-15T08:37:21Z</time>
      </trkpt>
      <trkpt lat="48.21027" lon="3.23524">
        <ele>218</ele>
        <time>2011-05-15T08:37:22Z</time>
      </trkpt>
      <trkpt lat="48.21022" lon="3.23513">
        <ele>219</ele>
        <time>2011-05-15T08:37:24Z</time>
      </trkpt>
      <trkpt lat="48.21016" lon="3.23502">
        <ele>219</ele>
        <time>2011-05-15T08:37:26Z</time>
      </trkpt>
      <trkpt lat="48.21011" lon="3.23492">
        <ele>220</ele>
        <time>2011-05-15T08:37:28Z</time>
      </trkpt>
      <trkpt lat="48.21009" lon="3.23485">
        <ele>220</ele>
        <time>2011-05-15T08:37:29Z</time>
      </trkpt>
      <trkpt lat="48.21004" lon="3.23474">
        <ele>220</ele>
        <time>2011-05-15T08:37:31Z</time>
      </trkpt>
      <trkpt lat="48.20998" lon="3.23464">
        <ele>221</ele>
        <time>2011-05-15T08:37:33Z</time>
      </trkpt>
      <trkpt lat="48.20993" lon="3.23455">
        <ele>221</ele>
        <time>2011-05-15T08:37:35Z</time>
      </trkpt>
      <trkpt lat="48.2099" lon="3.23449">
        <ele>221</ele>
        <time>2011-05-15T08:37:36Z</time>
      </trkpt>
      <trkpt lat="48.20984" lon="3.2344">
        <ele>222</ele>
        <time>2011-05-15T08:37:38Z</time>
      </trkpt>
      <trkpt lat="48.20982" lon="3.23434">
        <ele>222</ele>
        <time>2011-05-15T08:37:39Z</time>
      </trkpt>
      <trkpt lat="48.20977" lon="3.23425">
        <ele>222</ele>
        <time>2011-05-15T08:37:41Z</time>
      </trkpt>
      <trkpt lat="48.20972" lon="3.23414">
        <ele>222</ele>
        <time>2011-05-15T08:37:43Z</time>
      </trkpt>
      <trkpt lat="48.20968" lon="3.23406">
        <ele>222</ele>
        <time>2011-05-15T08:37:45Z</time>
      </trkpt>
      <trkpt lat="48.20966" lon="3.23399">
        <ele>223</ele>
        <time>2011-05-15T08:37:46Z</time>
      </trkpt>
      <trkpt lat="48.20963" lon="3.23388">
        <ele>223</ele>
        <time>2011-05-15T08:37:48Z</time>
      </trkpt>
      <trkpt lat="48.20958" lon="3.23378">
        <ele>223</ele>
        <time>2011-05-15T08:37:50Z</time>
      </trkpt>
      <trkpt lat="48.20955" lon="3.23367">
        <ele>223</ele>
        <time>2011-05-15T08:37:52Z</time>
      </trkpt>
      <trkpt lat="48.20953" lon="3.23361">
        <ele>224</ele>
        <time>2011-05-15T08:37:53Z</time>
      </trkpt>
      <trkpt lat="48.2095" lon="3.2335">
        <ele>224</ele>
        <time>2011-05-15T08:37:55Z</time>
      </trkpt>
      <trkpt lat="48.20948" lon="3.23344">
        <ele>224</ele>
        <time>2011-05-15T08:37:56Z</time>
      </trkpt>
      <trkpt lat="48.20943" lon="3.23333">
        <ele>224</ele>
        <time>2011-05-15T08:37:58Z</time>
      </trkpt>
      <trkpt lat="48.20941" lon="3.2332">
        <ele>225</ele>
        <time>2011-05-15T08:38:00Z</time>
      </trkpt>
      <trkpt lat="48.20939" lon="3.23307">
        <ele>224</ele>
        <time>2011-05-15T08:38:02Z</time>
      </trkpt>
      <trkpt lat="48.20937" lon="3.23294">
        <ele>224</ele>
        <time>2011-05-15T08:38:04Z</time>
      </trkpt>
      <trkpt lat="48.20936" lon="3.23286">
        <ele>223</ele>
        <time>2011-05-15T08:38:05Z</time>
      </trkpt>
      <trkpt lat="48.20934" lon="3.23273">
        <ele>223</ele>
        <time>2011-05-15T08:38:07Z</time>
      </trkpt>
      <trkpt lat="48.20932" lon="3.2326">
        <ele>222</ele>
        <time>2011-05-15T08:38:09Z</time>
      </trkpt>
      <trkpt lat="48.20931" lon="3.23247">
        <ele>221</ele>
        <time>2011-05-15T08:38:11Z</time>
      </trkpt>
      <trkpt lat="48.20928" lon="3.23234">
        <ele>220</ele>
        <time>2011-05-15T08:38:13Z</time>
      </trkpt>
      <trkpt lat="48.20928" lon="3.23221">
        <ele>220</ele>
        <time>2011-05-15T08:38:15Z</time>
      </trkpt>
      <trkpt lat="48.20931" lon="3.23206">
        <ele>219</ele>
        <time>2011-05-15T08:38:17Z</time>
      </trkpt>
      <trkpt lat="48.20933" lon="3.23191">
        <ele>219</ele>
        <time>2011-05-15T08:38:19Z</time>
      </trkpt>
      <trkpt lat="48.20932" lon="3.23176">
        <ele>218</ele>
        <time>2011-05-15T08:38:21Z</time>
      </trkpt>
      <trkpt lat="48.20925" lon="3.23172">
        <ele>218</ele>
        <time>2011-05-15T08:38:23Z</time>
      </trkpt>
      <trkpt lat="48.20917" lon="3.2317">
        <ele>218</ele>
        <time>2011-05-15T08:38:25Z</time>
      </trkpt>
      <trkpt lat="48.20908" lon="3.2317">
        <ele>218</ele>
        <time>2011-05-15T08:38:27Z</time>
      </trkpt>
      <trkpt lat="48.20899" lon="3.23168">
        <ele>217</ele>
        <time>2011-05-15T08:38:29Z</time>
      </trkpt>
      <trkpt lat="48.20891" lon="3.23165">
        <ele>217</ele>
        <time>2011-05-15T08:38:31Z</time>
      </trkpt>
      <trkpt lat="48.20882" lon="3.23165">
        <ele>216</ele>
        <time>2011-05-15T08:38:33Z</time>
      </trkpt>
      <trkpt lat="48.20877" lon="3.23165">
        <ele>216</ele>
        <time>2011-05-15T08:38:34Z</time>
      </trkpt>
      <trkpt lat="48.20868" lon="3.23163">
        <ele>216</ele>
        <time>2011-05-15T08:38:36Z</time>
      </trkpt>
      <trkpt lat="48.20863" lon="3.23161">
        <ele>216</ele>
        <time>2011-05-15T08:38:37Z</time>
      </trkpt>
      <trkpt lat="48.20853" lon="3.23161">
        <ele>215</ele>
        <time>2011-05-15T08:38:39Z</time>
      </trkpt>
      <trkpt lat="48.20844" lon="3.23159">
        <ele>215</ele>
        <time>2011-05-15T08:38:41Z</time>
      </trkpt>
      <trkpt lat="48.20835" lon="3.23159">
        <ele>215</ele>
        <time>2011-05-15T08:38:43Z</time>
      </trkpt>
      <trkpt lat="48.20825" lon="3.23157">
        <ele>215</ele>
        <time>2011-05-15T08:38:45Z</time>
      </trkpt>
      <trkpt lat="48.20817" lon="3.23155">
        <ele>215</ele>
        <time>2011-05-15T08:38:47Z</time>
      </trkpt>
      <trkpt lat="48.20808" lon="3.23155">
        <ele>215</ele>
        <time>2011-05-15T08:38:49Z</time>
      </trkpt>
      <trkpt lat="48.20799" lon="3.23152">
        <ele>215</ele>
        <time>2011-05-15T08:38:51Z</time>
      </trkpt>
      <trkpt lat="48.20789" lon="3.23152">
        <ele>215</ele>
        <time>2011-05-15T08:38:53Z</time>
      </trkpt>
      <trkpt lat="48.20779" lon="3.23152">
        <ele>216</ele>
        <time>2011-05-15T08:38:55Z</time>
      </trkpt>
      <trkpt lat="48.2077" lon="3.2315">
        <ele>216</ele>
        <time>2011-05-15T08:38:57Z</time>
      </trkpt>
      <trkpt lat="48.2076" lon="3.23148">
        <ele>216</ele>
        <time>2011-05-15T08:38:59Z</time>
      </trkpt>
      <trkpt lat="48.20751" lon="3.23146">
        <ele>216</ele>
        <time>2011-05-15T08:39:01Z</time>
      </trkpt>
      <trkpt lat="48.20742" lon="3.23144">
        <ele>216</ele>
        <time>2011-05-15T08:39:03Z</time>
      </trkpt>
      <trkpt lat="48.20733" lon="3.23144">
        <ele>216</ele>
        <time>2011-05-15T08:39:05Z</time>
      </trkpt>
      <trkpt lat="48.20728" lon="3.23142">
        <ele>216</ele>
        <time>2011-05-15T08:39:06Z</time>
      </trkpt>
      <trkpt lat="48.20718" lon="3.23142">
        <ele>216</ele>
        <time>2011-05-15T08:39:08Z</time>
      </trkpt>
      <trkpt lat="48.20708" lon="3.23142">
        <ele>216</ele>
        <time>2011-05-15T08:39:10Z</time>
      </trkpt>
      <trkpt lat="48.20704" lon="3.2314">
        <ele>216</ele>
        <time>2011-05-15T08:39:11Z</time>
      </trkpt>
      <trkpt lat="48.20699" lon="3.2314">
        <ele>216</ele>
        <time>2011-05-15T08:39:12Z</time>
      </trkpt>
      <trkpt lat="48.20693" lon="3.23138">
        <ele>216</ele>
        <time>2011-05-15T08:39:13Z</time>
      </trkpt>
      <trkpt lat="48.20688" lon="3.23138">
        <ele>216</ele>
        <time>2011-05-15T08:39:14Z</time>
      </trkpt>
      <trkpt lat="48.20683" lon="3.23135">
        <ele>216</ele>
        <time>2011-05-15T08:39:15Z</time>
      </trkpt>
      <trkpt lat="48.20677" lon="3.23135">
        <ele>216</ele>
        <time>2011-05-15T08:39:16Z</time>
      </trkpt>
      <trkpt lat="48.20672" lon="3.23133">
        <ele>216</ele>
        <time>2011-05-15T08:39:17Z</time>
      </trkpt>
      <trkpt lat="48.20663" lon="3.23133">
        <ele>216</ele>
        <time>2011-05-15T08:39:19Z</time>
      </trkpt>
      <trkpt lat="48.20655" lon="3.23131">
        <ele>216</ele>
        <time>2011-05-15T08:39:21Z</time>
      </trkpt>
      <trkpt lat="48.20646" lon="3.23131">
        <ele>216</ele>
        <time>2011-05-15T08:39:23Z</time>
      </trkpt>
      <trkpt lat="48.20638" lon="3.23131">
        <ele>216</ele>
        <time>2011-05-15T08:39:25Z</time>
      </trkpt>
      <trkpt lat="48.20629" lon="3.23133">
        <ele>216</ele>
        <time>2011-05-15T08:39:27Z</time>
      </trkpt>
      <trkpt lat="48.20624" lon="3.23135">
        <ele>216</ele>
        <time>2011-05-15T08:39:28Z</time>
      </trkpt>
      <trkpt lat="48.20614" lon="3.2314">
        <ele>216</ele>
        <time>2011-05-15T08:39:30Z</time>
      </trkpt>
      <trkpt lat="48.20609" lon="3.2314">
        <ele>216</ele>
        <time>2011-05-15T08:39:31Z</time>
      </trkpt>
      <trkpt lat="48.20603" lon="3.23142">
        <ele>216</ele>
        <time>2011-05-15T08:39:32Z</time>
      </trkpt>
      <trkpt lat="48.20598" lon="3.23144">
        <ele>215</ele>
        <time>2011-05-15T08:39:33Z</time>
      </trkpt>
      <trkpt lat="48.20588" lon="3.23146">
        <ele>215</ele>
        <time>2011-05-15T08:39:35Z</time>
      </trkpt>
      <trkpt lat="48.20583" lon="3.23146">
        <ele>215</ele>
        <time>2011-05-15T08:39:36Z</time>
      </trkpt>
      <trkpt lat="48.20578" lon="3.23148">
        <ele>215</ele>
        <time>2011-05-15T08:39:37Z</time>
      </trkpt>
      <trkpt lat="48.20568" lon="3.23148">
        <ele>215</ele>
        <time>2011-05-15T08:39:39Z</time>
      </trkpt>
      <trkpt lat="48.20559" lon="3.23144">
        <ele>215</ele>
        <time>2011-05-15T08:39:41Z</time>
      </trkpt>
      <trkpt lat="48.20555" lon="3.2314">
        <ele>215</ele>
        <time>2011-05-15T08:39:42Z</time>
      </trkpt>
      <trkpt lat="48.2055" lon="3.23131">
        <ele>215</ele>
        <time>2011-05-15T08:39:44Z</time>
      </trkpt>
      <trkpt lat="48.20545" lon="3.23122">
        <ele>214</ele>
        <time>2011-05-15T08:39:46Z</time>
      </trkpt>
      <trkpt lat="48.20541" lon="3.23114">
        <ele>214</ele>
        <time>2011-05-15T08:39:48Z</time>
      </trkpt>
      <trkpt lat="48.2054" lon="3.23103">
        <ele>214</ele>
        <time>2011-05-15T08:39:50Z</time>
      </trkpt>
      <trkpt lat="48.20539" lon="3.23092">
        <ele>214</ele>
        <time>2011-05-15T08:39:52Z</time>
      </trkpt>
      <trkpt lat="48.20537" lon="3.2308">
        <ele>214</ele>
        <time>2011-05-15T08:39:54Z</time>
      </trkpt>
      <trkpt lat="48.20536" lon="3.23069">
        <ele>214</ele>
        <time>2011-05-15T08:39:56Z</time>
      </trkpt>
      <trkpt lat="48.20534" lon="3.23058">
        <ele>214</ele>
        <time>2011-05-15T08:39:58Z</time>
      </trkpt>
      <trkpt lat="48.20532" lon="3.23045">
        <ele>214</ele>
        <time>2011-05-15T08:40:00Z</time>
      </trkpt>
      <trkpt lat="48.20531" lon="3.23032">
        <ele>214</ele>
        <time>2011-05-15T08:40:02Z</time>
      </trkpt>
      <trkpt lat="48.2053" lon="3.2302">
        <ele>214</ele>
        <time>2011-05-15T08:40:04Z</time>
      </trkpt>
      <trkpt lat="48.20529" lon="3.23007">
        <ele>214</ele>
        <time>2011-05-15T08:40:06Z</time>
      </trkpt>
      <trkpt lat="48.20528" lon="3.22992">
        <ele>214</ele>
        <time>2011-05-15T08:40:08Z</time>
      </trkpt>
      <trkpt lat="48.20528" lon="3.22976">
        <ele>214</ele>
        <time>2011-05-15T08:40:10Z</time>
      </trkpt>
      <trkpt lat="48.20527" lon="3.22962">
        <ele>214</ele>
        <time>2011-05-15T08:40:12Z</time>
      </trkpt>
      <trkpt lat="48.20527" lon="3.22946">
        <ele>214</ele>
        <time>2011-05-15T08:40:14Z</time>
      </trkpt>
      <trkpt lat="48.20527" lon="3.22932">
        <ele>214</ele>
        <time>2011-05-15T08:40:16Z</time>
      </trkpt>
      <trkpt lat="48.20526" lon="3.22916">
        <ele>214</ele>
        <time>2011-05-15T08:40:18Z</time>
      </trkpt>
      <trkpt lat="48.20526" lon="3.22901">
        <ele>214</ele>
        <time>2011-05-15T08:40:20Z</time>
      </trkpt>
      <trkpt lat="48.20525" lon="3.22889">
        <ele>215</ele>
        <time>2011-05-15T08:40:22Z</time>
      </trkpt>
      <trkpt lat="48.20525" lon="3.22876">
        <ele>215</ele>
        <time>2011-05-15T08:40:24Z</time>
      </trkpt>
      <trkpt lat="48.20524" lon="3.22867">
        <ele>215</ele>
        <time>2011-05-15T08:40:25Z</time>
      </trkpt>
      <trkpt lat="48.20523" lon="3.22854">
        <ele>215</ele>
        <time>2011-05-15T08:40:27Z</time>
      </trkpt>
      <trkpt lat="48.20523" lon="3.22841">
        <ele>215</ele>
        <time>2011-05-15T08:40:29Z</time>
      </trkpt>
      <trkpt lat="48.20522" lon="3.22828">
        <ele>215</ele>
        <time>2011-05-15T08:40:31Z</time>
      </trkpt>
      <trkpt lat="48.20522" lon="3.22816">
        <ele>216</ele>
        <time>2011-05-15T08:40:33Z</time>
      </trkpt>
      <trkpt lat="48.20522" lon="3.22801">
        <ele>216</ele>
        <time>2011-05-15T08:40:35Z</time>
      </trkpt>
      <trkpt lat="48.20521" lon="3.22788">
        <ele>216</ele>
        <time>2011-05-15T08:40:37Z</time>
      </trkpt>
      <trkpt lat="48.2052" lon="3.22775">
        <ele>216</ele>
        <time>2011-05-15T08:40:39Z</time>
      </trkpt>
      <trkpt lat="48.20518" lon="3.22762">
        <ele>216</ele>
        <time>2011-05-15T08:40:41Z</time>
      </trkpt>
      <trkpt lat="48.20516" lon="3.22749">
        <ele>215</ele>
        <time>2011-05-15T08:40:43Z</time>
      </trkpt>
      <trkpt lat="48.20514" lon="3.22736">
        <ele>215</ele>
        <time>2011-05-15T08:40:45Z</time>
      </trkpt>
      <trkpt lat="48.20512" lon="3.22723">
        <ele>215</ele>
        <time>2011-05-15T08:40:47Z</time>
      </trkpt>
      <trkpt lat="48.2051" lon="3.22713">
        <ele>215</ele>
        <time>2011-05-15T08:40:49Z</time>
      </trkpt>
      <trkpt lat="48.20507" lon="3.22702">
        <ele>215</ele>
        <time>2011-05-15T08:40:51Z</time>
      </trkpt>
      <trkpt lat="48.20501" lon="3.22693">
        <ele>214</ele>
        <time>2011-05-15T08:40:53Z</time>
      </trkpt>
      <trkpt lat="48.20496" lon="3.22691">
        <ele>214</ele>
        <time>2011-05-15T08:40:54Z</time>
      </trkpt>
      <trkpt lat="48.2049" lon="3.22689">
        <ele>214</ele>
        <time>2011-05-15T08:40:55Z</time>
      </trkpt>
      <trkpt lat="48.20483" lon="3.22687">
        <ele>214</ele>
        <time>2011-05-15T08:40:56Z</time>
      </trkpt>
      <trkpt lat="48.20476" lon="3.22685">
        <ele>214</ele>
        <time>2011-05-15T08:40:57Z</time>
      </trkpt>
      <trkpt lat="48.20468" lon="3.22685">
        <ele>213</ele>
        <time>2011-05-15T08:40:58Z</time>
      </trkpt>
      <trkpt lat="48.20461" lon="3.22683">
        <ele>213</ele>
        <time>2011-05-15T08:40:59Z</time>
      </trkpt>
      <trkpt lat="48.20452" lon="3.2268">
        <ele>213</ele>
        <time>2011-05-15T08:41:00Z</time>
      </trkpt>
      <trkpt lat="48.20444" lon="3.22678">
        <ele>213</ele>
        <time>2011-05-15T08:41:01Z</time>
      </trkpt>
      <trkpt lat="48.20435" lon="3.22676">
        <ele>213</ele>
        <time>2011-05-15T08:41:02Z</time>
      </trkpt>
      <trkpt lat="48.20426" lon="3.22674">
        <ele>213</ele>
        <time>2011-05-15T08:41:03Z</time>
      </trkpt>
      <trkpt lat="48.20417" lon="3.22672">
        <ele>212</ele>
        <time>2011-05-15T08:41:04Z</time>
      </trkpt>
      <trkpt lat="48.20408" lon="3.2267">
        <ele>212</ele>
        <time>2011-05-15T08:41:05Z</time>
      </trkpt>
      <trkpt lat="48.20398" lon="3.22668">
        <ele>212</ele>
        <time>2011-05-15T08:41:06Z</time>
      </trkpt>
      <trkpt lat="48.20388" lon="3.22663">
        <ele>211</ele>
        <time>2011-05-15T08:41:07Z</time>
      </trkpt>
      <trkpt lat="48.20377" lon="3.22659">
        <ele>211</ele>
        <time>2011-05-15T08:41:08Z</time>
      </trkpt>
      <trkpt lat="48.20367" lon="3.22657">
        <ele>211</ele>
        <time>2011-05-15T08:41:09Z</time>
      </trkpt>
      <trkpt lat="48.20358" lon="3.22652">
        <ele>211</ele>
        <time>2011-05-15T08:41:10Z</time>
      </trkpt>
      <trkpt lat="48.20348" lon="3.2265">
        <ele>210</ele>
        <time>2011-05-15T08:41:11Z</time>
      </trkpt>
      <trkpt lat="48.2034" lon="3.22648">
        <ele>210</ele>
        <time>2011-05-15T08:41:12Z</time>
      </trkpt>
      <trkpt lat="48.20334" lon="3.2265">
        <ele>209</ele>
        <time>2011-05-15T08:41:13Z</time>
      </trkpt>
      <trkpt lat="48.20328" lon="3.22655">
        <ele>208</ele>
        <time>2011-05-15T08:41:14Z</time>
      </trkpt>
      <trkpt lat="48.20322" lon="3.22663">
        <ele>207</ele>
        <time>2011-05-15T08:41:15Z</time>
      </trkpt>
      <trkpt lat="48.20317" lon="3.2267">
        <ele>207</ele>
        <time>2011-05-15T08:41:16Z</time>
      </trkpt>
      <trkpt lat="48.20312" lon="3.22678">
        <ele>206</ele>
        <time>2011-05-15T08:41:17Z</time>
      </trkpt>
      <trkpt lat="48.20308" lon="3.22689">
        <ele>205</ele>
        <time>2011-05-15T08:41:18Z</time>
      </trkpt>
      <trkpt lat="48.20304" lon="3.22698">
        <ele>204</ele>
        <time>2011-05-15T08:41:19Z</time>
      </trkpt>
      <trkpt lat="48.20301" lon="3.22706">
        <ele>204</ele>
        <time>2011-05-15T08:41:20Z</time>
      </trkpt>
      <trkpt lat="48.20298" lon="3.22717">
        <ele>203</ele>
        <time>2011-05-15T08:41:21Z</time>
      </trkpt>
      <trkpt lat="48.20294" lon="3.22726">
        <ele>202</ele>
        <time>2011-05-15T08:41:22Z</time>
      </trkpt>
      <trkpt lat="48.20292" lon="3.22736">
        <ele>202</ele>
        <time>2011-05-15T08:41:23Z</time>
      </trkpt>
      <trkpt lat="48.20289" lon="3.22747">
        <ele>201</ele>
        <time>2011-05-15T08:41:24Z</time>
      </trkpt>
      <trkpt lat="48.20287" lon="3.22758">
        <ele>201</ele>
        <time>2011-05-15T08:41:25Z</time>
      </trkpt>
      <trkpt lat="48.20284" lon="3.22768">
        <ele>200</ele>
        <time>2011-05-15T08:41:26Z</time>
      </trkpt>
      <trkpt lat="48.20282" lon="3.22779">
        <ele>200</ele>
        <time>2011-05-15T08:41:27Z</time>
      </trkpt>
      <trkpt lat="48.20278" lon="3.22788">
        <ele>200</ele>
        <time>2011-05-15T08:41:28Z</time>
      </trkpt>
      <trkpt lat="48.20276" lon="3.22798">
        <ele>199</ele>
        <time>2011-05-15T08:41:29Z</time>
      </trkpt>
      <trkpt lat="48.20274" lon="3.22809">
        <ele>199</ele>
        <time>2011-05-15T08:41:30Z</time>
      </trkpt>
      <trkpt lat="48.20271" lon="3.22818">
        <ele>199</ele>
        <time>2011-05-15T08:41:31Z</time>
      </trkpt>
      <trkpt lat="48.2027" lon="3.22828">
        <ele>198</ele>
        <time>2011-05-15T08:41:32Z</time>
      </trkpt>
      <trkpt lat="48.20268" lon="3.22839">
        <ele>198</ele>
        <time>2011-05-15T08:41:33Z</time>
      </trkpt>
      <trkpt lat="48.20266" lon="3.2285">
        <ele>198</ele>
        <time>2011-05-15T08:41:34Z</time>
      </trkpt>
      <trkpt lat="48.20265" lon="3.22861">
        <ele>198</ele>
        <time>2011-05-15T08:41:35Z</time>
      </trkpt>
      <trkpt lat="48.20265" lon="3.22871">
        <ele>198</ele>
        <time>2011-05-15T08:41:36Z</time>
      </trkpt>
      <trkpt lat="48.20265" lon="3.22882">
        <ele>198</ele>
        <time>2011-05-15T08:41:37Z</time>
      </trkpt>
      <trkpt lat="48.20266" lon="3.22895">
        <ele>198</ele>
        <time>2011-05-15T08:41:38Z</time>
      </trkpt>
      <trkpt lat="48.20268" lon="3.22906">
        <ele>197</ele>
        <time>2011-05-15T08:41:39Z</time>
      </trkpt>
      <trkpt lat="48.2027" lon="3.22919">
        <ele>197</ele>
        <time>2011-05-15T08:41:40Z</time>
      </trkpt>
      <trkpt lat="48.20273" lon="3.22934">
        <ele>197</ele>
        <time>2011-05-15T08:41:41Z</time>
      </trkpt>
      <trkpt lat="48.20277" lon="3.22946">
        <ele>197</ele>
        <time>2011-05-15T08:41:42Z</time>
      </trkpt>
      <trkpt lat="48.2028" lon="3.22959">
        <ele>197</ele>
        <time>2011-05-15T08:41:43Z</time>
      </trkpt>
      <trkpt lat="48.20284" lon="3.22972">
        <ele>196</ele>
        <time>2011-05-15T08:41:44Z</time>
      </trkpt>
      <trkpt lat="48.20286" lon="3.22985">
        <ele>196</ele>
        <time>2011-05-15T08:41:45Z</time>
      </trkpt>
      <trkpt lat="48.20288" lon="3.22998">
        <ele>196</ele>
        <time>2011-05-15T08:41:46Z</time>
      </trkpt>
      <trkpt lat="48.20289" lon="3.23011">
        <ele>196</ele>
        <time>2011-05-15T08:41:47Z</time>
      </trkpt>
      <trkpt lat="48.2029" lon="3.23024">
        <ele>196</ele>
        <time>2011-05-15T08:41:48Z</time>
      </trkpt>
      <trkpt lat="48.20291" lon="3.23034">
        <ele>197</ele>
        <time>2011-05-15T08:41:49Z</time>
      </trkpt>
      <trkpt lat="48.20292" lon="3.23047">
        <ele>197</ele>
        <time>2011-05-15T08:41:50Z</time>
      </trkpt>
      <trkpt lat="48.20294" lon="3.23058">
        <ele>197</ele>
        <time>2011-05-15T08:41:51Z</time>
      </trkpt>
      <trkpt lat="48.20298" lon="3.23069">
        <ele>197</ele>
        <time>2011-05-15T08:41:52Z</time>
      </trkpt>
      <trkpt lat="48.20301" lon="3.2308">
        <ele>197</ele>
        <time>2011-05-15T08:41:53Z</time>
      </trkpt>
      <trkpt lat="48.20304" lon="3.23088">
        <ele>197</ele>
        <time>2011-05-15T08:41:54Z</time>
      </trkpt>
      <trkpt lat="48.20307" lon="3.23099">
        <ele>197</ele>
        <time>2011-05-15T08:41:55Z</time>
      </trkpt>
      <trkpt lat="48.20312" lon="3.23107">
        <ele>197</ele>
        <time>2011-05-15T08:41:56Z</time>
      </trkpt>
      <trkpt lat="48.20316" lon="3.23114">
        <ele>197</ele>
        <time>2011-05-15T08:41:57Z</time>
      </trkpt>
      <trkpt lat="48.2032" lon="3.23122">
        <ele>197</ele>
        <time>2011-05-15T08:41:58Z</time>
      </trkpt>
      <trkpt lat="48.20323" lon="3.23131">
        <ele>197</ele>
        <time>2011-05-15T08:41:59Z</time>
      </trkpt>
      <trkpt lat="48.20328" lon="3.2314">
        <ele>197</ele>
        <time>2011-05-15T08:42:00Z</time>
      </trkpt>
      <trkpt lat="48.20332" lon="3.23148">
        <ele>197</ele>
        <time>2011-05-15T08:42:01Z</time>
      </trkpt>
      <trkpt lat="48.20336" lon="3.23159">
        <ele>197</ele>
        <time>2011-05-15T08:42:02Z</time>
      </trkpt>
      <trkpt lat="48.20339" lon="3.23168">
        <ele>197</ele>
        <time>2011-05-15T08:42:03Z</time>
      </trkpt>
      <trkpt lat="48.20343" lon="3.23178">
        <ele>197</ele>
        <time>2011-05-15T08:42:04Z</time>
      </trkpt>
      <trkpt lat="48.20346" lon="3.23191">
        <ele>197</ele>
        <time>2011-05-15T08:42:05Z</time>
      </trkpt>
      <trkpt lat="48.20349" lon="3.23202">
        <ele>197</ele>
        <time>2011-05-15T08:42:06Z</time>
      </trkpt>
      <trkpt lat="48.20352" lon="3.2321">
        <ele>197</ele>
        <time>2011-05-15T08:42:07Z</time>
      </trkpt>
      <trkpt lat="48.20356" lon="3.23221">
        <ele>197</ele>
        <time>2011-05-15T08:42:08Z</time>
      </trkpt>
      <trkpt lat="48.2036" lon="3.23232">
        <ele>197</ele>
        <time>2011-05-15T08:42:09Z</time>
      </trkpt>
      <trkpt lat="48.20363" lon="3.23243">
        <ele>196</ele>
        <time>2011-05-15T08:42:10Z</time>
      </trkpt>
      <trkpt lat="48.20367" lon="3.23253">
        <ele>196</ele>
        <time>2011-05-15T08:42:11Z</time>
      </trkpt>
      <trkpt lat="48.20372" lon="3.23264">
        <ele>196</ele>
        <time>2011-05-15T08:42:12Z</time>
      </trkpt>
      <trkpt lat="48.20375" lon="3.23277">
        <ele>196</ele>
        <time>2011-05-15T08:42:13Z</time>
      </trkpt>
      <trkpt lat="48.20379" lon="3.2329">
        <ele>196</ele>
        <time>2011-05-15T08:42:14Z</time>
      </trkpt>
      <trkpt lat="48.20383" lon="3.23303">
        <ele>195</ele>
        <time>2011-05-15T08:42:15Z</time>
      </trkpt>
      <trkpt lat="48.20387" lon="3.23316">
        <ele>195</ele>
        <time>2011-05-15T08:42:16Z</time>
      </trkpt>
      <trkpt lat="48.2039" lon="3.23328">
        <ele>195</ele>
        <time>2011-05-15T08:42:17Z</time>
      </trkpt>
      <trkpt lat="48.20393" lon="3.23344">
        <ele>195</ele>
        <time>2011-05-15T08:42:18Z</time>
      </trkpt>
      <trkpt lat="48.20396" lon="3.23356">
        <ele>195</ele>
        <time>2011-05-15T08:42:19Z</time>
      </trkpt>
      <trkpt lat="48.204" lon="3.23369">
        <ele>194</ele>
        <time>2011-05-15T08:42:20Z</time>
      </trkpt>
      <trkpt lat="48.20405" lon="3.23382">
        <ele>194</ele>
        <time>2011-05-15T08:42:21Z</time>
      </trkpt>
      <trkpt lat="48.20409" lon="3.23395">
        <ele>194</ele>
        <time>2011-05-15T08:42:22Z</time>
      </trkpt>
      <trkpt lat="48.20413" lon="3.23406">
        <ele>193</ele>
        <time>2011-05-15T08:42:23Z</time>
      </trkpt>
      <trkpt lat="48.20419" lon="3.23416">
        <ele>193</ele>
        <time>2011-05-15T08:42:24Z</time>
      </trkpt>
      <trkpt lat="48.20423" lon="3.23427">
        <ele>193</ele>
        <time>2011-05-15T08:42:25Z</time>
      </trkpt>
      <trkpt lat="48.20428" lon="3.23436">
        <ele>192</ele>
        <time>2011-05-15T08:42:26Z</time>
      </trkpt>
      <trkpt lat="48.20433" lon="3.23444">
        <ele>192</ele>
        <time>2011-05-15T08:42:27Z</time>
      </trkpt>
      <trkpt lat="48.20437" lon="3.23453">
        <ele>192</ele>
        <time>2011-05-15T08:42:28Z</time>
      </trkpt>
      <trkpt lat="48.20441" lon="3.23462">
        <ele>192</ele>
        <time>2011-05-15T08:42:29Z</time>
      </trkpt>
      <trkpt lat="48.20446" lon="3.2347">
        <ele>192</ele>
        <time>2011-05-15T08:42:30Z</time>
      </trkpt>
      <trkpt lat="48.20451" lon="3.23479">
        <ele>191</ele>
        <time>2011-05-15T08:42:31Z</time>
      </trkpt>
      <trkpt lat="48.20455" lon="3.23487">
        <ele>191</ele>
        <time>2011-05-15T08:42:32Z</time>
      </trkpt>
      <trkpt lat="48.2046" lon="3.23498">
        <ele>191</ele>
        <time>2011-05-15T08:42:33Z</time>
      </trkpt>
      <trkpt lat="48.20464" lon="3.23509">
        <ele>191</ele>
        <time>2011-05-15T08:42:34Z</time>
      </trkpt>
      <trkpt lat="48.20468" lon="3.23519">
        <ele>191</ele>
        <time>2011-05-15T08:42:35Z</time>
      </trkpt>
      <trkpt lat="48.20472" lon="3.2353">
        <ele>191</ele>
        <time>2011-05-15T08:42:36Z</time>
      </trkpt>
      <trkpt lat="48.20477" lon="3.23541">
        <ele>191</ele>
        <time>2011-05-15T08:42:37Z</time>
      </trkpt>
      <trkpt lat="48.2048" lon="3.23552">
        <ele>191</ele>
        <time>2011-05-15T08:42:38Z</time>
      </trkpt>
      <trkpt lat="48.20484" lon="3.23562">
        <ele>191</ele>
        <time>2011-05-15T08:42:39Z</time>
      </trkpt>
      <trkpt lat="48.20486" lon="3.23573">
        <ele>191</ele>
        <time>2011-05-15T08:42:40Z</time>
      </trkpt>
      <trkpt lat="48.20487" lon="3.23584">
        <ele>191</ele>
        <time>2011-05-15T08:42:41Z</time>
      </trkpt>
      <trkpt lat="48.20488" lon="3.23594">
        <ele>191</ele>
        <time>2011-05-15T08:42:42Z</time>
      </trkpt>
      <trkpt lat="48.2049" lon="3.23601">
        <ele>191</ele>
        <time>2011-05-15T08:42:43Z</time>
      </trkpt>
      <trkpt lat="48.20491" lon="3.23612">
        <ele>191</ele>
        <time>2011-05-15T08:42:45Z</time>
      </trkpt>
      <trkpt lat="48.20491" lon="3.2362">
        <ele>191</ele>
        <time>2011-05-15T08:42:47Z</time>
      </trkpt>
      <trkpt lat="48.20491" lon="3.23631">
        <ele>191</ele>
        <time>2011-05-15T08:42:49Z</time>
      </trkpt>
      <trkpt lat="48.20492" lon="3.2364">
        <ele>191</ele>
        <time>2011-05-15T08:42:51Z</time>
      </trkpt>
      <trkpt lat="48.20492" lon="3.23652">
        <ele>191</ele>
        <time>2011-05-15T08:42:53Z</time>
      </trkpt>
      <trkpt lat="48.20492" lon="3.23663">
        <ele>190</ele>
        <time>2011-05-15T08:42:55Z</time>
      </trkpt>
      <trkpt lat="48.20492" lon="3.23676">
        <ele>189</ele>
        <time>2011-05-15T08:42:57Z</time>
      </trkpt>
      <trkpt lat="48.20493" lon="3.23689">
        <ele>189</ele>
        <time>2011-05-15T08:42:59Z</time>
      </trkpt>
      <trkpt lat="48.20494" lon="3.237">
        <ele>188</ele>
        <time>2011-05-15T08:43:01Z</time>
      </trkpt>
      <trkpt lat="48.20495" lon="3.23712">
        <ele>188</ele>
        <time>2011-05-15T08:43:03Z</time>
      </trkpt>
      <trkpt lat="48.20496" lon="3.23725">
        <ele>187</ele>
        <time>2011-05-15T08:43:05Z</time>
      </trkpt>
      <trkpt lat="48.20497" lon="3.23738">
        <ele>187</ele>
        <time>2011-05-15T08:43:07Z</time>
      </trkpt>
      <trkpt lat="48.20497" lon="3.23747">
        <ele>187</ele>
        <time>2011-05-15T08:43:08Z</time>
      </trkpt>
      <trkpt lat="48.20497" lon="3.2376">
        <ele>187</ele>
        <time>2011-05-15T08:43:10Z</time>
      </trkpt>
      <trkpt lat="48.20497" lon="3.23768">
        <ele>187</ele>
        <time>2011-05-15T08:43:11Z</time>
      </trkpt>
      <trkpt lat="48.20496" lon="3.23781">
        <ele>187</ele>
        <time>2011-05-15T08:43:13Z</time>
      </trkpt>
      <trkpt lat="48.20496" lon="3.2379">
        <ele>187</ele>
        <time>2011-05-15T08:43:14Z</time>
      </trkpt>
      <trkpt lat="48.20496" lon="3.23803">
        <ele>186</ele>
        <time>2011-05-15T08:43:16Z</time>
      </trkpt>
      <trkpt lat="48.20496" lon="3.23816">
        <ele>186</ele>
        <time>2011-05-15T08:43:18Z</time>
      </trkpt>
      <trkpt lat="48.20496" lon="3.23828">
        <ele>186</ele>
        <time>2011-05-15T08:43:20Z</time>
      </trkpt>
      <trkpt lat="48.20496" lon="3.23837">
        <ele>186</ele>
        <time>2011-05-15T08:43:21Z</time>
      </trkpt>
      <trkpt lat="48.20495" lon="3.23848">
        <ele>186</ele>
        <time>2011-05-15T08:43:23Z</time>
      </trkpt>
      <trkpt lat="48.20495" lon="3.23863">
        <ele>186</ele>
        <time>2011-05-15T08:43:25Z</time>
      </trkpt>
      <trkpt lat="48.20495" lon="3.23876">
        <ele>186</ele>
        <time>2011-05-15T08:43:27Z</time>
      </trkpt>
      <trkpt lat="48.20494" lon="3.23888">
        <ele>186</ele>
        <time>2011-05-15T08:43:29Z</time>
      </trkpt>
      <trkpt lat="48.20495" lon="3.23904">
        <ele>186</ele>
        <time>2011-05-15T08:43:31Z</time>
      </trkpt>
      <trkpt lat="48.20495" lon="3.23916">
        <ele>186</ele>
        <time>2011-05-15T08:43:33Z</time>
      </trkpt>
      <trkpt lat="48.20495" lon="3.23929">
        <ele>186</ele>
        <time>2011-05-15T08:43:35Z</time>
      </trkpt>
      <trkpt lat="48.20495" lon="3.2394">
        <ele>186</ele>
        <time>2011-05-15T08:43:37Z</time>
      </trkpt>
      <trkpt lat="48.20496" lon="3.23953">
        <ele>186</ele>
        <time>2011-05-15T08:43:39Z</time>
      </trkpt>
      <trkpt lat="48.20497" lon="3.23961">
        <ele>186</ele>
        <time>2011-05-15T08:43:42Z</time>
      </trkpt>
      <trkpt lat="48.20497" lon="3.2397">
        <ele>186</ele>
        <time>2011-05-15T08:43:44Z</time>
      </trkpt>
      <trkpt lat="48.20498" lon="3.23976">
        <ele>186</ele>
        <time>2011-05-15T08:43:46Z</time>
      </trkpt>
      <trkpt lat="48.20502" lon="3.23985">
        <ele>186</ele>
        <time>2011-05-15T08:43:48Z</time>
      </trkpt>
      <trkpt lat="48.20505" lon="3.23992">
        <ele>186</ele>
        <time>2011-05-15T08:43:49Z</time>
      </trkpt>
      <trkpt lat="48.20509" lon="3.24">
        <ele>186</ele>
        <time>2011-05-15T08:43:51Z</time>
      </trkpt>
      <trkpt lat="48.20511" lon="3.24006">
        <ele>186</ele>
        <time>2011-05-15T08:43:52Z</time>
      </trkpt>
      <trkpt lat="48.20511" lon="3.24006">
        <ele>186</ele>
        <time>2011-05-15T08:43:52Z</time>
      </trkpt>
      <trkpt lat="48.20511" lon="3.24006">
        <ele>186</ele>
        <time>2011-05-15T08:43:54Z</time>
      </trkpt>
      <trkpt lat="48.2052" lon="3.24017">
        <ele>186</ele>
        <time>2011-05-15T08:43:55Z</time>
      </trkpt>
      <trkpt lat="48.2052" lon="3.24017">
        <ele>186</ele>
        <time>2011-05-15T08:43:55Z</time>
      </trkpt>
      <trkpt lat="48.2052" lon="3.24017">
        <ele>186</ele>
        <time>2011-05-15T08:44:02Z</time>
      </trkpt>
      <trkpt lat="48.20523" lon="3.24028">
        <ele>186</ele>
        <time>2011-05-15T08:44:03Z</time>
      </trkpt>
      <trkpt lat="48.20523" lon="3.24028">
        <ele>186</ele>
        <time>2011-05-15T08:44:03Z</time>
      </trkpt>
      <trkpt lat="48.20523" lon="3.24028">
        <ele>186</ele>
        <time>2011-05-15T08:44:18Z</time>
      </trkpt>
      <trkpt lat="48.20514" lon="3.24034">
        <ele>186</ele>
        <time>2011-05-15T08:44:19Z</time>
      </trkpt>
      <trkpt lat="48.20514" lon="3.24034">
        <ele>186</ele>
        <time>2011-05-15T08:44:19Z</time>
      </trkpt>
      <trkpt lat="48.20514" lon="3.24034">
        <ele>186</ele>
        <time>2011-05-15T08:44:27Z</time>
      </trkpt>
      <trkpt lat="48.20504" lon="3.24039">
        <ele>186</ele>
        <time>2011-05-15T08:44:28Z</time>
      </trkpt>
      <trkpt lat="48.20504" lon="3.24039">
        <ele>186</ele>
        <time>2011-05-15T08:44:28Z</time>
      </trkpt>
      <trkpt lat="48.20504" lon="3.24039">
        <ele>186</ele>
        <time>2011-05-15T08:44:35Z</time>
      </trkpt>
      <trkpt lat="48.20495" lon="3.24043">
        <ele>186</ele>
        <time>2011-05-15T08:44:36Z</time>
      </trkpt>
      <trkpt lat="48.20495" lon="3.24043">
        <ele>186</ele>
        <time>2011-05-15T08:44:36Z</time>
      </trkpt>
      <trkpt lat="48.20495" lon="3.24043">
        <ele>186</ele>
        <time>2011-05-15T08:44:45Z</time>
      </trkpt>
      <trkpt lat="48.20486" lon="3.24049">
        <ele>187</ele>
        <time>2011-05-15T08:44:46Z</time>
      </trkpt>
      <trkpt lat="48.20486" lon="3.24049">
        <ele>187</ele>
        <time>2011-05-15T08:44:46Z</time>
      </trkpt>
      <trkpt lat="48.20486" lon="3.24049">
        <ele>187</ele>
        <time>2011-05-15T08:44:58Z</time>
      </trkpt>
      <trkpt lat="48.20478" lon="3.24054">
        <ele>189</ele>
        <time>2011-05-15T08:44:59Z</time>
      </trkpt>
      <trkpt lat="48.20478" lon="3.24054">
        <ele>189</ele>
        <time>2011-05-15T08:44:59Z</time>
      </trkpt>
      <trkpt lat="48.20478" lon="3.24054">
        <ele>189</ele>
        <time>2011-05-15T08:45:03Z</time>
      </trkpt>
      <trkpt lat="48.2047" lon="3.24062">
        <ele>189</ele>
        <time>2011-05-15T08:45:04Z</time>
      </trkpt>
      <trkpt lat="48.2047" lon="3.24062">
        <ele>189</ele>
        <time>2011-05-15T08:45:04Z</time>
      </trkpt>
      <trkpt lat="48.2047" lon="3.24062">
        <ele>189</ele>
        <time>2011-05-15T08:45:07Z</time>
      </trkpt>
      <trkpt lat="48.20468" lon="3.24077">
        <ele>189</ele>
        <time>2011-05-15T08:45:08Z</time>
      </trkpt>
      <trkpt lat="48.20468" lon="3.24077">
        <ele>189</ele>
        <time>2011-05-15T08:45:08Z</time>
      </trkpt>
      <trkpt lat="48.20468" lon="3.24077">
        <ele>189</ele>
        <time>2011-05-15T08:45:11Z</time>
      </trkpt>
      <trkpt lat="48.20468" lon="3.24094">
        <ele>189</ele>
        <time>2011-05-15T08:45:12Z</time>
      </trkpt>
      <trkpt lat="48.20468" lon="3.24094">
        <ele>189</ele>
        <time>2011-05-15T08:45:12Z</time>
      </trkpt>
      <trkpt lat="48.20468" lon="3.24094">
        <ele>189</ele>
        <time>2011-05-15T08:45:15Z</time>
      </trkpt>
      <trkpt lat="48.20466" lon="3.24107">
        <ele>189</ele>
        <time>2011-05-15T08:45:16Z</time>
      </trkpt>
      <trkpt lat="48.20466" lon="3.24107">
        <ele>189</ele>
        <time>2011-05-15T08:45:16Z</time>
      </trkpt>
      <trkpt lat="48.20466" lon="3.24107">
        <ele>189</ele>
        <time>2011-05-15T08:45:20Z</time>
      </trkpt>
      <trkpt lat="48.20465" lon="3.24122">
        <ele>189</ele>
        <time>2011-05-15T08:45:21Z</time>
      </trkpt>
      <trkpt lat="48.20465" lon="3.24122">
        <ele>189</ele>
        <time>2011-05-15T08:45:21Z</time>
      </trkpt>
      <trkpt lat="48.20465" lon="3.24122">
        <ele>189</ele>
        <time>2011-05-15T08:45:27Z</time>
      </trkpt>
      <trkpt lat="48.20463" lon="3.24135">
        <ele>190</ele>
        <time>2011-05-15T08:45:28Z</time>
      </trkpt>
      <trkpt lat="48.20463" lon="3.24135">
        <ele>190</ele>
        <time>2011-05-15T08:45:28Z</time>
      </trkpt>
      <trkpt lat="48.20463" lon="3.24135">
        <ele>190</ele>
        <time>2011-05-15T08:45:34Z</time>
      </trkpt>
      <trkpt lat="48.20462" lon="3.2415">
        <ele>190</ele>
        <time>2011-05-15T08:45:35Z</time>
      </trkpt>
      <trkpt lat="48.20462" lon="3.2415">
        <ele>190</ele>
        <time>2011-05-15T08:45:35Z</time>
      </trkpt>
      <trkpt lat="48.20462" lon="3.2415">
        <ele>190</ele>
        <time>2011-05-15T08:45:41Z</time>
      </trkpt>
      <trkpt lat="48.20458" lon="3.24163">
        <ele>191</ele>
        <time>2011-05-15T08:45:42Z</time>
      </trkpt>
      <trkpt lat="48.20458" lon="3.24163">
        <ele>191</ele>
        <time>2011-05-15T08:45:42Z</time>
      </trkpt>
      <trkpt lat="48.20458" lon="3.24163">
        <ele>191</ele>
        <time>2011-05-15T08:45:49Z</time>
      </trkpt>
      <trkpt lat="48.20465" lon="3.24176">
        <ele>192</ele>
        <time>2011-05-15T08:45:50Z</time>
      </trkpt>
      <trkpt lat="48.20465" lon="3.24176">
        <ele>192</ele>
        <time>2011-05-15T08:45:50Z</time>
      </trkpt>
      <trkpt lat="48.20465" lon="3.24176">
        <ele>192</ele>
        <time>2011-05-15T08:46:23Z</time>
      </trkpt>
      <trkpt lat="48.20469" lon="3.24178">
        <ele>192</ele>
        <time>2011-05-15T08:46:24Z</time>
      </trkpt>
      <trkpt lat="48.20469" lon="3.24178">
        <ele>192</ele>
        <time>2011-05-15T08:46:24Z</time>
      </trkpt>
      <trkpt lat="48.20469" lon="3.24178">
        <ele>192</ele>
        <time>2011-05-15T08:46:27Z</time>
      </trkpt>
      <trkpt lat="48.20479" lon="3.24185">
        <ele>191</ele>
        <time>2011-05-15T08:46:28Z</time>
      </trkpt>
      <trkpt lat="48.20479" lon="3.24185">
        <ele>191</ele>
        <time>2011-05-15T08:46:28Z</time>
      </trkpt>
      <trkpt lat="48.20479" lon="3.24185">
        <ele>191</ele>
        <time>2011-05-15T08:46:29Z</time>
      </trkpt>
      <trkpt lat="48.20485" lon="3.24193">
        <ele>191</ele>
        <time>2011-05-15T08:46:30Z</time>
      </trkpt>
      <trkpt lat="48.20485" lon="3.24193">
        <ele>191</ele>
        <time>2011-05-15T08:46:30Z</time>
      </trkpt>
      <trkpt lat="48.20485" lon="3.24193">
        <ele>191</ele>
        <time>2011-05-15T08:46:32Z</time>
      </trkpt>
      <trkpt lat="48.20494" lon="3.24204">
        <ele>191</ele>
        <time>2011-05-15T08:46:33Z</time>
      </trkpt>
      <trkpt lat="48.20494" lon="3.24204">
        <ele>191</ele>
        <time>2011-05-15T08:46:33Z</time>
      </trkpt>
      <trkpt lat="48.20494" lon="3.24204">
        <ele>191</ele>
        <time>2011-05-15T08:46:35Z</time>
      </trkpt>
      <trkpt lat="48.20498" lon="3.24217">
        <ele>191</ele>
        <time>2011-05-15T08:46:36Z</time>
      </trkpt>
      <trkpt lat="48.20498" lon="3.24217">
        <ele>191</ele>
        <time>2011-05-15T08:46:36Z</time>
      </trkpt>
      <trkpt lat="48.20498" lon="3.24217">
        <ele>191</ele>
        <time>2011-05-15T08:46:37Z</time>
      </trkpt>
      <trkpt lat="48.20501" lon="3.24223">
        <ele>191</ele>
        <time>2011-05-15T08:46:38Z</time>
      </trkpt>
      <trkpt lat="48.20501" lon="3.24223">
        <ele>191</ele>
        <time>2011-05-15T08:46:38Z</time>
      </trkpt>
      <trkpt lat="48.20501" lon="3.24223">
        <ele>191</ele>
        <time>2011-05-15T08:46:39Z</time>
      </trkpt>
      <trkpt lat="48.20505" lon="3.24232">
        <ele>191</ele>
        <time>2011-05-15T08:46:40Z</time>
      </trkpt>
      <trkpt lat="48.20507" lon="3.24238">
        <ele>191</ele>
        <time>2011-05-15T08:46:42Z</time>
      </trkpt>
      <trkpt lat="48.20509" lon="3.24247">
        <ele>191</ele>
        <time>2011-05-15T08:46:44Z</time>
      </trkpt>
      <trkpt lat="48.2051" lon="3.24253">
        <ele>191</ele>
        <time>2011-05-15T08:46:46Z</time>
      </trkpt>
      <trkpt lat="48.20511" lon="3.24264">
        <ele>191</ele>
        <time>2011-05-15T08:46:50Z</time>
      </trkpt>
      <trkpt lat="48.2051" lon="3.24273">
        <ele>192</ele>
        <time>2011-05-15T08:46:54Z</time>
      </trkpt>
      <trkpt lat="48.20506" lon="3.24275">
        <ele>192</ele>
        <time>2011-05-15T08:46:58Z</time>
      </trkpt>
      <trkpt lat="48.205" lon="3.24273">
        <ele>193</ele>
        <time>2011-05-15T08:47:04Z</time>
      </trkpt>
      <trkpt lat="48.20495" lon="3.24273">
        <ele>193</ele>
        <time>2011-05-15T08:47:09Z</time>
      </trkpt>
      <trkpt lat="48.20492" lon="3.24279">
        <ele>194</ele>
        <time>2011-05-15T08:47:15Z</time>
      </trkpt>
      <trkpt lat="48.20491" lon="3.24288">
        <ele>195</ele>
        <time>2011-05-15T08:47:20Z</time>
      </trkpt>
      <trkpt lat="48.2049" lon="3.24296">
        <ele>195</ele>
        <time>2011-05-15T08:47:24Z</time>
      </trkpt>
      <trkpt lat="48.20488" lon="3.24305">
        <ele>196</ele>
        <time>2011-05-15T08:47:29Z</time>
      </trkpt>
      <trkpt lat="48.20486" lon="3.24313">
        <ele>197</ele>
        <time>2011-05-15T08:47:34Z</time>
      </trkpt>
      <trkpt lat="48.20486" lon="3.24313">
        <ele>197</ele>
        <time>2011-05-15T08:47:34Z</time>
      </trkpt>
      <trkpt lat="48.20486" lon="3.24313">
        <ele>197</ele>
        <time>2011-05-15T08:47:35Z</time>
      </trkpt>
      <trkpt lat="48.20486" lon="3.24322">
        <ele>197</ele>
        <time>2011-05-15T08:47:39Z</time>
      </trkpt>
      <trkpt lat="48.20485" lon="3.2433">
        <ele>198</ele>
        <time>2011-05-15T08:47:43Z</time>
      </trkpt>
      <trkpt lat="48.20484" lon="3.24339">
        <ele>199</ele>
        <time>2011-05-15T08:47:48Z</time>
      </trkpt>
      <trkpt lat="48.20484" lon="3.24348">
        <ele>199</ele>
        <time>2011-05-15T08:47:51Z</time>
      </trkpt>
      <trkpt lat="48.20487" lon="3.24354">
        <ele>199</ele>
        <time>2011-05-15T08:47:53Z</time>
      </trkpt>
      <trkpt lat="48.2049" lon="3.24363">
        <ele>200</ele>
        <time>2011-05-15T08:47:55Z</time>
      </trkpt>
      <trkpt lat="48.20492" lon="3.24369">
        <ele>200</ele>
        <time>2011-05-15T08:47:57Z</time>
      </trkpt>
      <trkpt lat="48.20493" lon="3.24376">
        <ele>200</ele>
        <time>2011-05-15T08:47:59Z</time>
      </trkpt>
      <trkpt lat="48.20495" lon="3.24382">
        <ele>200</ele>
        <time>2011-05-15T08:48:01Z</time>
      </trkpt>
      <trkpt lat="48.20496" lon="3.24391">
        <ele>201</ele>
        <time>2011-05-15T08:48:04Z</time>
      </trkpt>
      <trkpt lat="48.20497" lon="3.24399">
        <ele>201</ele>
        <time>2011-05-15T08:48:07Z</time>
      </trkpt>
      <trkpt lat="48.20497" lon="3.24408">
        <ele>202</ele>
        <time>2011-05-15T08:48:10Z</time>
      </trkpt>
      <trkpt lat="48.20499" lon="3.24414">
        <ele>202</ele>
        <time>2011-05-15T08:48:13Z</time>
      </trkpt>
      <trkpt lat="48.20499" lon="3.24414">
        <ele>202</ele>
        <time>2011-05-15T08:48:13Z</time>
      </trkpt>
      <trkpt lat="48.20499" lon="3.24414">
        <ele>202</ele>
        <time>2011-05-15T08:48:14Z</time>
      </trkpt>
      <trkpt lat="48.205" lon="3.24423">
        <ele>202</ele>
        <time>2011-05-15T08:48:18Z</time>
      </trkpt>
      <trkpt lat="48.20502" lon="3.24431">
        <ele>203</ele>
        <time>2011-05-15T08:48:22Z</time>
      </trkpt>
      <trkpt lat="48.20504" lon="3.2444">
        <ele>203</ele>
        <time>2011-05-15T08:48:25Z</time>
      </trkpt>
      <trkpt lat="48.20505" lon="3.24448">
        <ele>204</ele>
        <time>2011-05-15T08:48:28Z</time>
      </trkpt>
      <trkpt lat="48.20505" lon="3.24457">
        <ele>204</ele>
        <time>2011-05-15T08:48:32Z</time>
      </trkpt>
      <trkpt lat="48.20504" lon="3.24466">
        <ele>204</ele>
        <time>2011-05-15T08:48:36Z</time>
      </trkpt>
      <trkpt lat="48.20501" lon="3.24472">
        <ele>205</ele>
        <time>2011-05-15T08:48:40Z</time>
      </trkpt>
      <trkpt lat="48.20499" lon="3.24479">
        <ele>205</ele>
        <time>2011-05-15T08:48:44Z</time>
      </trkpt>
      <trkpt lat="48.20499" lon="3.24489">
        <ele>205</ele>
        <time>2011-05-15T08:48:48Z</time>
      </trkpt>
      <trkpt lat="48.20499" lon="3.245">
        <ele>205</ele>
        <time>2011-05-15T08:48:52Z</time>
      </trkpt>
      <trkpt lat="48.205" lon="3.24509">
        <ele>206</ele>
        <time>2011-05-15T08:48:55Z</time>
      </trkpt>
      <trkpt lat="48.20501" lon="3.24517">
        <ele>206</ele>
        <time>2011-05-15T08:48:58Z</time>
      </trkpt>
      <trkpt lat="48.20502" lon="3.24528">
        <ele>206</ele>
        <time>2011-05-15T08:49:01Z</time>
      </trkpt>
      <trkpt lat="48.20505" lon="3.24536">
        <ele>206</ele>
        <time>2011-05-15T08:49:04Z</time>
      </trkpt>
      <trkpt lat="48.20507" lon="3.24543">
        <ele>207</ele>
        <time>2011-05-15T08:49:06Z</time>
      </trkpt>
      <trkpt lat="48.2051" lon="3.24552">
        <ele>207</ele>
        <time>2011-05-15T08:49:09Z</time>
      </trkpt>
      <trkpt lat="48.20513" lon="3.24558">
        <ele>207</ele>
        <time>2011-05-15T08:49:12Z</time>
      </trkpt>
      <trkpt lat="48.20515" lon="3.24567">
        <ele>207</ele>
        <time>2011-05-15T08:49:15Z</time>
      </trkpt>
      <trkpt lat="48.20518" lon="3.24573">
        <ele>207</ele>
        <time>2011-05-15T08:49:17Z</time>
      </trkpt>
      <trkpt lat="48.2052" lon="3.24582">
        <ele>207</ele>
        <time>2011-05-15T08:49:20Z</time>
      </trkpt>
      <trkpt lat="48.20521" lon="3.24592">
        <ele>207</ele>
        <time>2011-05-15T08:49:23Z</time>
      </trkpt>
      <trkpt lat="48.20522" lon="3.24603">
        <ele>206</ele>
        <time>2011-05-15T08:49:26Z</time>
      </trkpt>
      <trkpt lat="48.20523" lon="3.24612">
        <ele>206</ele>
        <time>2011-05-15T08:49:29Z</time>
      </trkpt>
      <trkpt lat="48.20525" lon="3.2462">
        <ele>206</ele>
        <time>2011-05-15T08:49:32Z</time>
      </trkpt>
      <trkpt lat="48.20526" lon="3.24629">
        <ele>206</ele>
        <time>2011-05-15T08:49:36Z</time>
      </trkpt>
      <trkpt lat="48.20526" lon="3.24637">
        <ele>206</ele>
        <time>2011-05-15T08:49:39Z</time>
      </trkpt>
      <trkpt lat="48.20525" lon="3.24646">
        <ele>206</ele>
        <time>2011-05-15T08:49:44Z</time>
      </trkpt>
      <trkpt lat="48.20524" lon="3.24654">
        <ele>206</ele>
        <time>2011-05-15T08:49:47Z</time>
      </trkpt>
      <trkpt lat="48.20523" lon="3.24663">
        <ele>206</ele>
        <time>2011-05-15T08:49:50Z</time>
      </trkpt>
      <trkpt lat="48.20522" lon="3.24674">
        <ele>206</ele>
        <time>2011-05-15T08:49:53Z</time>
      </trkpt>
      <trkpt lat="48.20521" lon="3.24682">
        <ele>206</ele>
        <time>2011-05-15T08:49:56Z</time>
      </trkpt>
      <trkpt lat="48.20521" lon="3.24691">
        <ele>207</ele>
        <time>2011-05-15T08:50:00Z</time>
      </trkpt>
      <trkpt lat="48.20521" lon="3.24691">
        <ele>207</ele>
        <time>2011-05-15T08:50:00Z</time>
      </trkpt>
      <trkpt lat="48.20521" lon="3.24691">
        <ele>207</ele>
        <time>2011-05-15T08:50:01Z</time>
      </trkpt>
      <trkpt lat="48.20523" lon="3.24697">
        <ele>207</ele>
        <time>2011-05-15T08:50:05Z</time>
      </trkpt>
      <trkpt lat="48.20526" lon="3.24704">
        <ele>207</ele>
        <time>2011-05-15T08:50:08Z</time>
      </trkpt>
      <trkpt lat="48.20529" lon="3.2471">
        <ele>207</ele>
        <time>2011-05-15T08:50:12Z</time>
      </trkpt>
      <trkpt lat="48.20532" lon="3.24717">
        <ele>207</ele>
        <time>2011-05-15T08:50:18Z</time>
      </trkpt>
      <trkpt lat="48.20532" lon="3.24717">
        <ele>207</ele>
        <time>2011-05-15T08:50:18Z</time>
      </trkpt>
      <trkpt lat="48.20532" lon="3.24717">
        <ele>207</ele>
        <time>2011-05-15T08:50:19Z</time>
      </trkpt>
      <trkpt lat="48.20535" lon="3.24723">
        <ele>207</ele>
        <time>2011-05-15T08:50:31Z</time>
      </trkpt>
      <trkpt lat="48.20535" lon="3.24723">
        <ele>207</ele>
        <time>2011-05-15T08:50:31Z</time>
      </trkpt>
      <trkpt lat="48.20535" lon="3.24723">
        <ele>207</ele>
        <time>2011-05-15T08:50:37Z</time>
      </trkpt>
      <trkpt lat="48.2053" lon="3.24717">
        <ele>206</ele>
        <time>2011-05-15T08:50:44Z</time>
      </trkpt>
      <trkpt lat="48.20525" lon="3.2471">
        <ele>206</ele>
        <time>2011-05-15T08:50:48Z</time>
      </trkpt>
      <trkpt lat="48.20522" lon="3.24704">
        <ele>206</ele>
        <time>2011-05-15T08:50:51Z</time>
      </trkpt>
      <trkpt lat="48.20518" lon="3.24697">
        <ele>206</ele>
        <time>2011-05-15T08:50:54Z</time>
      </trkpt>
      <trkpt lat="48.20514" lon="3.24691">
        <ele>206</ele>
        <time>2011-05-15T08:50:56Z</time>
      </trkpt>
      <trkpt lat="48.20511" lon="3.24685">
        <ele>206</ele>
        <time>2011-05-15T08:50:58Z</time>
      </trkpt>
      <trkpt lat="48.20507" lon="3.24678">
        <ele>206</ele>
        <time>2011-05-15T08:51:00Z</time>
      </trkpt>
      <trkpt lat="48.20504" lon="3.24672">
        <ele>206</ele>
        <time>2011-05-15T08:51:02Z</time>
      </trkpt>
      <trkpt lat="48.205" lon="3.24665">
        <ele>206</ele>
        <time>2011-05-15T08:51:04Z</time>
      </trkpt>
      <trkpt lat="48.20497" lon="3.24659">
        <ele>206</ele>
        <time>2011-05-15T08:51:06Z</time>
      </trkpt>
      <trkpt lat="48.20495" lon="3.24652">
        <ele>206</ele>
        <time>2011-05-15T08:51:08Z</time>
      </trkpt>
      <trkpt lat="48.20492" lon="3.24646">
        <ele>206</ele>
        <time>2011-05-15T08:51:10Z</time>
      </trkpt>
      <trkpt lat="48.2049" lon="3.2464">
        <ele>206</ele>
        <time>2011-05-15T08:51:12Z</time>
      </trkpt>
      <trkpt lat="48.20486" lon="3.24633">
        <ele>206</ele>
        <time>2011-05-15T08:51:14Z</time>
      </trkpt>
      <trkpt lat="48.20483" lon="3.24627">
        <ele>206</ele>
        <time>2011-05-15T08:51:16Z</time>
      </trkpt>
      <trkpt lat="48.20479" lon="3.2462">
        <ele>206</ele>
        <time>2011-05-15T08:51:18Z</time>
      </trkpt>
      <trkpt lat="48.20475" lon="3.24614">
        <ele>206</ele>
        <time>2011-05-15T08:51:20Z</time>
      </trkpt>
      <trkpt lat="48.2047" lon="3.24607">
        <ele>206</ele>
        <time>2011-05-15T08:51:22Z</time>
      </trkpt>
      <trkpt lat="48.20464" lon="3.24601">
        <ele>206</ele>
        <time>2011-05-15T08:51:24Z</time>
      </trkpt>
      <trkpt lat="48.20458" lon="3.24592">
        <ele>206</ele>
        <time>2011-05-15T08:51:26Z</time>
      </trkpt>
      <trkpt lat="48.20452" lon="3.24586">
        <ele>206</ele>
        <time>2011-05-15T08:51:28Z</time>
      </trkpt>
      <trkpt lat="48.20447" lon="3.24579">
        <ele>206</ele>
        <time>2011-05-15T08:51:30Z</time>
      </trkpt>
      <trkpt lat="48.20441" lon="3.24571">
        <ele>205</ele>
        <time>2011-05-15T08:51:32Z</time>
      </trkpt>
      <trkpt lat="48.20436" lon="3.24564">
        <ele>205</ele>
        <time>2011-05-15T08:51:34Z</time>
      </trkpt>
      <trkpt lat="48.2043" lon="3.24556">
        <ele>205</ele>
        <time>2011-05-15T08:51:36Z</time>
      </trkpt>
      <trkpt lat="48.20424" lon="3.24547">
        <ele>205</ele>
        <time>2011-05-15T08:51:38Z</time>
      </trkpt>
      <trkpt lat="48.20418" lon="3.24541">
        <ele>205</ele>
        <time>2011-05-15T08:51:40Z</time>
      </trkpt>
      <trkpt lat="48.20411" lon="3.24532">
        <ele>205</ele>
        <time>2011-05-15T08:51:42Z</time>
      </trkpt>
      <trkpt lat="48.20407" lon="3.24526">
        <ele>205</ele>
        <time>2011-05-15T08:51:44Z</time>
      </trkpt>
      <trkpt lat="48.20402" lon="3.24519">
        <ele>205</ele>
        <time>2011-05-15T08:51:46Z</time>
      </trkpt>
      <trkpt lat="48.20397" lon="3.24511">
        <ele>205</ele>
        <time>2011-05-15T08:51:48Z</time>
      </trkpt>
      <trkpt lat="48.20394" lon="3.24504">
        <ele>205</ele>
        <time>2011-05-15T08:51:50Z</time>
      </trkpt>
      <trkpt lat="48.20391" lon="3.24496">
        <ele>205</ele>
        <time>2011-05-15T08:51:52Z</time>
      </trkpt>
      <trkpt lat="48.20388" lon="3.24489">
        <ele>205</ele>
        <time>2011-05-15T08:51:54Z</time>
      </trkpt>
      <trkpt lat="48.20384" lon="3.24479">
        <ele>205</ele>
        <time>2011-05-15T08:51:56Z</time>
      </trkpt>
      <trkpt lat="48.20381" lon="3.2447">
        <ele>204</ele>
        <time>2011-05-15T08:51:58Z</time>
      </trkpt>
      <trkpt lat="48.20378" lon="3.24459">
        <ele>204</ele>
        <time>2011-05-15T08:52:00Z</time>
      </trkpt>
      <trkpt lat="48.20375" lon="3.24451">
        <ele>204</ele>
        <time>2011-05-15T08:52:02Z</time>
      </trkpt>
      <trkpt lat="48.20373" lon="3.24444">
        <ele>204</ele>
        <time>2011-05-15T08:52:03Z</time>
      </trkpt>
      <trkpt lat="48.20369" lon="3.24436">
        <ele>204</ele>
        <time>2011-05-15T08:52:05Z</time>
      </trkpt>
      <trkpt lat="48.20366" lon="3.24427">
        <ele>203</ele>
        <time>2011-05-15T08:52:07Z</time>
      </trkpt>
      <trkpt lat="48.20362" lon="3.24418">
        <ele>203</ele>
        <time>2011-05-15T08:52:09Z</time>
      </trkpt>
      <trkpt lat="48.20359" lon="3.2441">
        <ele>203</ele>
        <time>2011-05-15T08:52:11Z</time>
      </trkpt>
      <trkpt lat="48.20353" lon="3.24401">
        <ele>203</ele>
        <time>2011-05-15T08:52:13Z</time>
      </trkpt>
      <trkpt lat="48.20349" lon="3.24397">
        <ele>203</ele>
        <time>2011-05-15T08:52:14Z</time>
      </trkpt>
      <trkpt lat="48.20345" lon="3.24393">
        <ele>203</ele>
        <time>2011-05-15T08:52:15Z</time>
      </trkpt>
      <trkpt lat="48.2034" lon="3.24391">
        <ele>203</ele>
        <time>2011-05-15T08:52:16Z</time>
      </trkpt>
      <trkpt lat="48.20335" lon="3.24386">
        <ele>203</ele>
        <time>2011-05-15T08:52:17Z</time>
      </trkpt>
      <trkpt lat="48.20326" lon="3.2438">
        <ele>203</ele>
        <time>2011-05-15T08:52:19Z</time>
      </trkpt>
      <trkpt lat="48.20318" lon="3.24373">
        <ele>203</ele>
        <time>2011-05-15T08:52:21Z</time>
      </trkpt>
      <trkpt lat="48.2031" lon="3.24369">
        <ele>203</ele>
        <time>2011-05-15T08:52:23Z</time>
      </trkpt>
      <trkpt lat="48.20306" lon="3.24365">
        <ele>203</ele>
        <time>2011-05-15T08:52:24Z</time>
      </trkpt>
      <trkpt lat="48.203" lon="3.24361">
        <ele>203</ele>
        <time>2011-05-15T08:52:26Z</time>
      </trkpt>
      <trkpt lat="48.20293" lon="3.24354">
        <ele>203</ele>
        <time>2011-05-15T08:52:28Z</time>
      </trkpt>
      <trkpt lat="48.20287" lon="3.24348">
        <ele>203</ele>
        <time>2011-05-15T08:52:30Z</time>
      </trkpt>
      <trkpt lat="48.2028" lon="3.24341">
        <ele>203</ele>
        <time>2011-05-15T08:52:32Z</time>
      </trkpt>
      <trkpt lat="48.20274" lon="3.24337">
        <ele>203</ele>
        <time>2011-05-15T08:52:34Z</time>
      </trkpt>
      <trkpt lat="48.20268" lon="3.24333">
        <ele>203</ele>
        <time>2011-05-15T08:52:36Z</time>
      </trkpt>
      <trkpt lat="48.20261" lon="3.24328">
        <ele>203</ele>
        <time>2011-05-15T08:52:38Z</time>
      </trkpt>
      <trkpt lat="48.20255" lon="3.24324">
        <ele>203</ele>
        <time>2011-05-15T08:52:40Z</time>
      </trkpt>
      <trkpt lat="48.20249" lon="3.24322">
        <ele>203</ele>
        <time>2011-05-15T08:52:42Z</time>
      </trkpt>
      <trkpt lat="48.20245" lon="3.24318">
        <ele>203</ele>
        <time>2011-05-15T08:52:44Z</time>
      </trkpt>
      <trkpt lat="48.2024" lon="3.24316">
        <ele>203</ele>
        <time>2011-05-15T08:52:47Z</time>
      </trkpt>
      <trkpt lat="48.20234" lon="3.24311">
        <ele>203</ele>
        <time>2011-05-15T08:52:50Z</time>
      </trkpt>
      <trkpt lat="48.20229" lon="3.24309">
        <ele>203</ele>
        <time>2011-05-15T08:52:53Z</time>
      </trkpt>
      <trkpt lat="48.20225" lon="3.24305">
        <ele>204</ele>
        <time>2011-05-15T08:52:55Z</time>
      </trkpt>
      <trkpt lat="48.20219" lon="3.243">
        <ele>204</ele>
        <time>2011-05-15T08:52:58Z</time>
      </trkpt>
      <trkpt lat="48.20214" lon="3.24298">
        <ele>204</ele>
        <time>2011-05-15T08:53:00Z</time>
      </trkpt>
      <trkpt lat="48.2021" lon="3.24294">
        <ele>204</ele>
        <time>2011-05-15T08:53:02Z</time>
      </trkpt>
      <trkpt lat="48.20204" lon="3.2429">
        <ele>204</ele>
        <time>2011-05-15T08:53:04Z</time>
      </trkpt>
      <trkpt lat="48.20198" lon="3.24286">
        <ele>205</ele>
        <time>2011-05-15T08:53:07Z</time>
      </trkpt>
      <trkpt lat="48.20192" lon="3.24283">
        <ele>205</ele>
        <time>2011-05-15T08:53:09Z</time>
      </trkpt>
      <trkpt lat="48.20185" lon="3.24283">
        <ele>205</ele>
        <time>2011-05-15T08:53:11Z</time>
      </trkpt>
      <trkpt lat="48.20176" lon="3.24286">
        <ele>205</ele>
        <time>2011-05-15T08:53:13Z</time>
      </trkpt>
      <trkpt lat="48.20169" lon="3.24286">
        <ele>205</ele>
        <time>2011-05-15T08:53:15Z</time>
      </trkpt>
      <trkpt lat="48.20162" lon="3.24288">
        <ele>205</ele>
        <time>2011-05-15T08:53:17Z</time>
      </trkpt>
      <trkpt lat="48.20156" lon="3.24288">
        <ele>205</ele>
        <time>2011-05-15T08:53:19Z</time>
      </trkpt>
      <trkpt lat="48.2015" lon="3.24288">
        <ele>205</ele>
        <time>2011-05-15T08:53:21Z</time>
      </trkpt>
      <trkpt lat="48.20144" lon="3.2429">
        <ele>205</ele>
        <time>2011-05-15T08:53:22Z</time>
      </trkpt>
      <trkpt lat="48.20138" lon="3.24292">
        <ele>205</ele>
        <time>2011-05-15T08:53:23Z</time>
      </trkpt>
      <trkpt lat="48.20133" lon="3.24296">
        <ele>205</ele>
        <time>2011-05-15T08:53:24Z</time>
      </trkpt>
      <trkpt lat="48.20129" lon="3.243">
        <ele>205</ele>
        <time>2011-05-15T08:53:25Z</time>
      </trkpt>
      <trkpt lat="48.20126" lon="3.24307">
        <ele>205</ele>
        <time>2011-05-15T08:53:26Z</time>
      </trkpt>
      <trkpt lat="48.2012" lon="3.24316">
        <ele>205</ele>
        <time>2011-05-15T08:53:28Z</time>
      </trkpt>
      <trkpt lat="48.20117" lon="3.24324">
        <ele>204</ele>
        <time>2011-05-15T08:53:30Z</time>
      </trkpt>
      <trkpt lat="48.20116" lon="3.24335">
        <ele>204</ele>
        <time>2011-05-15T08:53:32Z</time>
      </trkpt>
      <trkpt lat="48.20118" lon="3.24343">
        <ele>204</ele>
        <time>2011-05-15T08:53:34Z</time>
      </trkpt>
      <trkpt lat="48.2012" lon="3.24352">
        <ele>204</ele>
        <time>2011-05-15T08:53:36Z</time>
      </trkpt>
      <trkpt lat="48.20122" lon="3.24361">
        <ele>203</ele>
        <time>2011-05-15T08:53:38Z</time>
      </trkpt>
      <trkpt lat="48.20118" lon="3.24371">
        <ele>203</ele>
        <time>2011-05-15T08:53:41Z</time>
      </trkpt>
      <trkpt lat="48.20112" lon="3.24378">
        <ele>202</ele>
        <time>2011-05-15T08:53:44Z</time>
      </trkpt>
      <trkpt lat="48.20107" lon="3.24382">
        <ele>202</ele>
        <time>2011-05-15T08:53:46Z</time>
      </trkpt>
      <trkpt lat="48.201" lon="3.24384">
        <ele>202</ele>
        <time>2011-05-15T08:53:48Z</time>
      </trkpt>
      <trkpt lat="48.20095" lon="3.24388">
        <ele>202</ele>
        <time>2011-05-15T08:53:51Z</time>
      </trkpt>
      <trkpt lat="48.20089" lon="3.24393">
        <ele>201</ele>
        <time>2011-05-15T08:53:54Z</time>
      </trkpt>
      <trkpt lat="48.20084" lon="3.24397">
        <ele>201</ele>
        <time>2011-05-15T08:53:57Z</time>
      </trkpt>
      <trkpt lat="48.2008" lon="3.24401">
        <ele>200</ele>
        <time>2011-05-15T08:53:59Z</time>
      </trkpt>
      <trkpt lat="48.20076" lon="3.24404">
        <ele>200</ele>
        <time>2011-05-15T08:54:01Z</time>
      </trkpt>
      <trkpt lat="48.20071" lon="3.2441">
        <ele>200</ele>
        <time>2011-05-15T08:54:03Z</time>
      </trkpt>
      <trkpt lat="48.20067" lon="3.24418">
        <ele>200</ele>
        <time>2011-05-15T08:54:05Z</time>
      </trkpt>
      <trkpt lat="48.20063" lon="3.24425">
        <ele>199</ele>
        <time>2011-05-15T08:54:07Z</time>
      </trkpt>
      <trkpt lat="48.20058" lon="3.24431">
        <ele>199</ele>
        <time>2011-05-15T08:54:09Z</time>
      </trkpt>
      <trkpt lat="48.20053" lon="3.24438">
        <ele>198</ele>
        <time>2011-05-15T08:54:12Z</time>
      </trkpt>
      <trkpt lat="48.2005" lon="3.24446">
        <ele>198</ele>
        <time>2011-05-15T08:54:14Z</time>
      </trkpt>
      <trkpt lat="48.20045" lon="3.24453">
        <ele>197</ele>
        <time>2011-05-15T08:54:16Z</time>
      </trkpt>
      <trkpt lat="48.20041" lon="3.24459">
        <ele>197</ele>
        <time>2011-05-15T08:54:18Z</time>
      </trkpt>
      <trkpt lat="48.20037" lon="3.24468">
        <ele>196</ele>
        <time>2011-05-15T08:54:20Z</time>
      </trkpt>
      <trkpt lat="48.20032" lon="3.24472">
        <ele>195</ele>
        <time>2011-05-15T08:54:22Z</time>
      </trkpt>
      <trkpt lat="48.20029" lon="3.24479">
        <ele>195</ele>
        <time>2011-05-15T08:54:24Z</time>
      </trkpt>
      <trkpt lat="48.20024" lon="3.24485">
        <ele>194</ele>
        <time>2011-05-15T08:54:27Z</time>
      </trkpt>
      <trkpt lat="48.2002" lon="3.24492">
        <ele>193</ele>
        <time>2011-05-15T08:54:31Z</time>
      </trkpt>
      <trkpt lat="48.20015" lon="3.24496">
        <ele>192</ele>
        <time>2011-05-15T08:54:34Z</time>
      </trkpt>
      <trkpt lat="48.20011" lon="3.245">
        <ele>192</ele>
        <time>2011-05-15T08:54:36Z</time>
      </trkpt>
      <trkpt lat="48.20007" lon="3.24504">
        <ele>191</ele>
        <time>2011-05-15T08:54:38Z</time>
      </trkpt>
      <trkpt lat="48.20005" lon="3.24511">
        <ele>190</ele>
        <time>2011-05-15T08:54:42Z</time>
      </trkpt>
      <trkpt lat="48.20007" lon="3.24517">
        <ele>189</ele>
        <time>2011-05-15T08:54:47Z</time>
      </trkpt>
      <trkpt lat="48.20005" lon="3.24524">
        <ele>188</ele>
        <time>2011-05-15T08:54:54Z</time>
      </trkpt>
      <trkpt lat="48.20005" lon="3.24524">
        <ele>188</ele>
        <time>2011-05-15T08:54:54Z</time>
      </trkpt>
      <trkpt lat="48.20005" lon="3.24524">
        <ele>188</ele>
        <time>2011-05-15T08:54:55Z</time>
      </trkpt>
      <trkpt lat="48.19999" lon="3.2453">
        <ele>187</ele>
        <time>2011-05-15T08:55:00Z</time>
      </trkpt>
      <trkpt lat="48.19993" lon="3.24534">
        <ele>187</ele>
        <time>2011-05-15T08:55:02Z</time>
      </trkpt>
      <trkpt lat="48.19988" lon="3.24539">
        <ele>186</ele>
        <time>2011-05-15T08:55:04Z</time>
      </trkpt>
      <trkpt lat="48.19982" lon="3.24541">
        <ele>186</ele>
        <time>2011-05-15T08:55:06Z</time>
      </trkpt>
      <trkpt lat="48.19976" lon="3.24543">
        <ele>185</ele>
        <time>2011-05-15T08:55:08Z</time>
      </trkpt>
      <trkpt lat="48.19968" lon="3.24545">
        <ele>184</ele>
        <time>2011-05-15T08:55:10Z</time>
      </trkpt>
      <trkpt lat="48.1996" lon="3.24547">
        <ele>184</ele>
        <time>2011-05-15T08:55:12Z</time>
      </trkpt>
      <trkpt lat="48.19951" lon="3.24549">
        <ele>179</ele>
        <time>2011-05-15T08:55:14Z</time>
      </trkpt>
      <trkpt lat="48.19945" lon="3.24552">
        <ele>179</ele>
        <time>2011-05-15T08:55:16Z</time>
      </trkpt>
      <trkpt lat="48.19937" lon="3.24556">
        <ele>179</ele>
        <time>2011-05-15T08:55:18Z</time>
      </trkpt>
      <trkpt lat="48.19931" lon="3.24558">
        <ele>179</ele>
        <time>2011-05-15T08:55:20Z</time>
      </trkpt>
      <trkpt lat="48.19924" lon="3.2456">
        <ele>178</ele>
        <time>2011-05-15T08:55:23Z</time>
      </trkpt>
      <trkpt lat="48.19919" lon="3.24562">
        <ele>178</ele>
        <time>2011-05-15T08:55:25Z</time>
      </trkpt>
      <trkpt lat="48.19914" lon="3.24567">
        <ele>179</ele>
        <time>2011-05-15T08:55:28Z</time>
      </trkpt>
      <trkpt lat="48.19911" lon="3.24573">
        <ele>179</ele>
        <time>2011-05-15T08:55:32Z</time>
      </trkpt>
      <trkpt lat="48.19906" lon="3.24575">
        <ele>177</ele>
        <time>2011-05-15T08:55:39Z</time>
      </trkpt>
      <trkpt lat="48.19902" lon="3.24579">
        <ele>176</ele>
        <time>2011-05-15T08:55:47Z</time>
      </trkpt>
      <trkpt lat="48.19897" lon="3.24582">
        <ele>176</ele>
        <time>2011-05-15T08:55:54Z</time>
      </trkpt>
      <trkpt lat="48.19897" lon="3.24582">
        <ele>176</ele>
        <time>2011-05-15T08:55:54Z</time>
      </trkpt>
      <trkpt lat="48.19897" lon="3.24582">
        <ele>176</ele>
        <time>2011-05-15T08:55:55Z</time>
      </trkpt>
      <trkpt lat="48.19892" lon="3.24579">
        <ele>173</ele>
        <time>2011-05-15T08:56:04Z</time>
      </trkpt>
      <trkpt lat="48.19887" lon="3.24577">
        <ele>173</ele>
        <time>2011-05-15T08:56:07Z</time>
      </trkpt>
      <trkpt lat="48.19882" lon="3.24571">
        <ele>172</ele>
        <time>2011-05-15T08:56:10Z</time>
      </trkpt>
      <trkpt lat="48.19878" lon="3.24567">
        <ele>171</ele>
        <time>2011-05-15T08:56:12Z</time>
      </trkpt>
      <trkpt lat="48.19876" lon="3.2456">
        <ele>171</ele>
        <time>2011-05-15T08:56:14Z</time>
      </trkpt>
      <trkpt lat="48.1987" lon="3.24552">
        <ele>170</ele>
        <time>2011-05-15T08:56:17Z</time>
      </trkpt>
      <trkpt lat="48.19867" lon="3.24545">
        <ele>169</ele>
        <time>2011-05-15T08:56:19Z</time>
      </trkpt>
      <trkpt lat="48.19863" lon="3.24539">
        <ele>169</ele>
        <time>2011-05-15T08:56:21Z</time>
      </trkpt>
      <trkpt lat="48.1986" lon="3.2453">
        <ele>168</ele>
        <time>2011-05-15T08:56:23Z</time>
      </trkpt>
      <trkpt lat="48.19856" lon="3.24524">
        <ele>168</ele>
        <time>2011-05-15T08:56:25Z</time>
      </trkpt>
      <trkpt lat="48.1985" lon="3.24517">
        <ele>167</ele>
        <time>2011-05-15T08:56:27Z</time>
      </trkpt>
      <trkpt lat="48.19846" lon="3.24511">
        <ele>167</ele>
        <time>2011-05-15T08:56:29Z</time>
      </trkpt>
      <trkpt lat="48.1984" lon="3.24506">
        <ele>166</ele>
        <time>2011-05-15T08:56:31Z</time>
      </trkpt>
      <trkpt lat="48.19835" lon="3.245">
        <ele>166</ele>
        <time>2011-05-15T08:56:33Z</time>
      </trkpt>
      <trkpt lat="48.19829" lon="3.24498">
        <ele>165</ele>
        <time>2011-05-15T08:56:35Z</time>
      </trkpt>
      <trkpt lat="48.19822" lon="3.24496">
        <ele>165</ele>
        <time>2011-05-15T08:56:37Z</time>
      </trkpt>
      <trkpt lat="48.19816" lon="3.24498">
        <ele>164</ele>
        <time>2011-05-15T08:56:39Z</time>
      </trkpt>
      <trkpt lat="48.19809" lon="3.245">
        <ele>164</ele>
        <time>2011-05-15T08:56:41Z</time>
      </trkpt>
      <trkpt lat="48.19804" lon="3.24502">
        <ele>164</ele>
        <time>2011-05-15T08:56:43Z</time>
      </trkpt>
      <trkpt lat="48.19799" lon="3.24504">
        <ele>163</ele>
        <time>2011-05-15T08:56:45Z</time>
      </trkpt>
      <trkpt lat="48.19793" lon="3.24504">
        <ele>163</ele>
        <time>2011-05-15T08:56:47Z</time>
      </trkpt>
      <trkpt lat="48.19787" lon="3.24506">
        <ele>162</ele>
        <time>2011-05-15T08:56:49Z</time>
      </trkpt>
      <trkpt lat="48.19783" lon="3.24509">
        <ele>162</ele>
        <time>2011-05-15T08:56:51Z</time>
      </trkpt>
      <trkpt lat="48.19777" lon="3.24511">
        <ele>162</ele>
        <time>2011-05-15T08:56:53Z</time>
      </trkpt>
      <trkpt lat="48.19772" lon="3.24515">
        <ele>161</ele>
        <time>2011-05-15T08:56:55Z</time>
      </trkpt>
      <trkpt lat="48.19765" lon="3.24517">
        <ele>161</ele>
        <time>2011-05-15T08:56:58Z</time>
      </trkpt>
      <trkpt lat="48.1976" lon="3.24524">
        <ele>161</ele>
        <time>2011-05-15T08:57:01Z</time>
      </trkpt>
      <trkpt lat="48.19756" lon="3.24528">
        <ele>160</ele>
        <time>2011-05-15T08:57:04Z</time>
      </trkpt>
      <trkpt lat="48.19752" lon="3.24532">
        <ele>160</ele>
        <time>2011-05-15T08:57:07Z</time>
      </trkpt>
      <trkpt lat="48.19747" lon="3.24536">
        <ele>160</ele>
        <time>2011-05-15T08:57:10Z</time>
      </trkpt>
      <trkpt lat="48.19743" lon="3.24543">
        <ele>159</ele>
        <time>2011-05-15T08:57:14Z</time>
      </trkpt>
      <trkpt lat="48.19738" lon="3.24547">
        <ele>159</ele>
        <time>2011-05-15T08:57:17Z</time>
      </trkpt>
      <trkpt lat="48.19733" lon="3.24554">
        <ele>159</ele>
        <time>2011-05-15T08:57:20Z</time>
      </trkpt>
      <trkpt lat="48.19728" lon="3.24558">
        <ele>159</ele>
        <time>2011-05-15T08:57:23Z</time>
      </trkpt>
      <trkpt lat="48.19722" lon="3.24562">
        <ele>159</ele>
        <time>2011-05-15T08:57:26Z</time>
      </trkpt>
      <trkpt lat="48.19717" lon="3.24569">
        <ele>159</ele>
        <time>2011-05-15T08:57:29Z</time>
      </trkpt>
      <trkpt lat="48.19712" lon="3.24573">
        <ele>159</ele>
        <time>2011-05-15T08:57:32Z</time>
      </trkpt>
      <trkpt lat="48.19708" lon="3.24577">
        <ele>159</ele>
        <time>2011-05-15T08:57:34Z</time>
      </trkpt>
      <trkpt lat="48.19702" lon="3.24582">
        <ele>159</ele>
        <time>2011-05-15T08:57:37Z</time>
      </trkpt>
      <trkpt lat="48.19697" lon="3.24588">
        <ele>159</ele>
        <time>2011-05-15T08:57:40Z</time>
      </trkpt>
      <trkpt lat="48.19692" lon="3.24594">
        <ele>159</ele>
        <time>2011-05-15T08:57:43Z</time>
      </trkpt>
      <trkpt lat="48.19688" lon="3.24601">
        <ele>159</ele>
        <time>2011-05-15T08:57:46Z</time>
      </trkpt>
      <trkpt lat="48.19683" lon="3.24607">
        <ele>159</ele>
        <time>2011-05-15T08:57:49Z</time>
      </trkpt>
      <trkpt lat="48.19678" lon="3.24612">
        <ele>159</ele>
        <time>2011-05-15T08:57:52Z</time>
      </trkpt>
      <trkpt lat="48.19674" lon="3.24618">
        <ele>159</ele>
        <time>2011-05-15T08:57:55Z</time>
      </trkpt>
      <trkpt lat="48.19671" lon="3.24624">
        <ele>159</ele>
        <time>2011-05-15T08:57:57Z</time>
      </trkpt>
      <trkpt lat="48.19668" lon="3.24631">
        <ele>159</ele>
        <time>2011-05-15T08:57:59Z</time>
      </trkpt>
      <trkpt lat="48.19664" lon="3.24637">
        <ele>160</ele>
        <time>2011-05-15T08:58:01Z</time>
      </trkpt>
      <trkpt lat="48.1966" lon="3.24644">
        <ele>160</ele>
        <time>2011-05-15T08:58:03Z</time>
      </trkpt>
      <trkpt lat="48.19657" lon="3.2465">
        <ele>161</ele>
        <time>2011-05-15T08:58:05Z</time>
      </trkpt>
      <trkpt lat="48.19653" lon="3.24659">
        <ele>162</ele>
        <time>2011-05-15T08:58:08Z</time>
      </trkpt>
      <trkpt lat="48.19647" lon="3.24665">
        <ele>163</ele>
        <time>2011-05-15T08:58:11Z</time>
      </trkpt>
      <trkpt lat="48.19643" lon="3.24672">
        <ele>164</ele>
        <time>2011-05-15T08:58:14Z</time>
      </trkpt>
      <trkpt lat="48.19638" lon="3.24678">
        <ele>165</ele>
        <time>2011-05-15T08:58:17Z</time>
      </trkpt>
      <trkpt lat="48.19633" lon="3.24682">
        <ele>166</ele>
        <time>2011-05-15T08:58:20Z</time>
      </trkpt>
      <trkpt lat="48.19629" lon="3.24687">
        <ele>167</ele>
        <time>2011-05-15T08:58:23Z</time>
      </trkpt>
      <trkpt lat="48.19625" lon="3.24693">
        <ele>168</ele>
        <time>2011-05-15T08:58:26Z</time>
      </trkpt>
      <trkpt lat="48.1962" lon="3.247">
        <ele>169</ele>
        <time>2011-05-15T08:58:29Z</time>
      </trkpt>
      <trkpt lat="48.19615" lon="3.24704">
        <ele>170</ele>
        <time>2011-05-15T08:58:32Z</time>
      </trkpt>
      <trkpt lat="48.1961" lon="3.24708">
        <ele>171</ele>
        <time>2011-05-15T08:58:35Z</time>
      </trkpt>
      <trkpt lat="48.19607" lon="3.24715">
        <ele>172</ele>
        <time>2011-05-15T08:58:38Z</time>
      </trkpt>
      <trkpt lat="48.19602" lon="3.24719">
        <ele>172</ele>
        <time>2011-05-15T08:58:41Z</time>
      </trkpt>
      <trkpt lat="48.19597" lon="3.24725">
        <ele>173</ele>
        <time>2011-05-15T08:58:44Z</time>
      </trkpt>
      <trkpt lat="48.19593" lon="3.2473">
        <ele>174</ele>
        <time>2011-05-15T08:58:47Z</time>
      </trkpt>
      <trkpt lat="48.19588" lon="3.24736">
        <ele>175</ele>
        <time>2011-05-15T08:58:50Z</time>
      </trkpt>
      <trkpt lat="48.19584" lon="3.2474">
        <ele>176</ele>
        <time>2011-05-15T08:58:54Z</time>
      </trkpt>
      <trkpt lat="48.1958" lon="3.24745">
        <ele>177</ele>
        <time>2011-05-15T08:58:57Z</time>
      </trkpt>
      <trkpt lat="48.19576" lon="3.24749">
        <ele>178</ele>
        <time>2011-05-15T08:59:00Z</time>
      </trkpt>
      <trkpt lat="48.19571" lon="3.24753">
        <ele>178</ele>
        <time>2011-05-15T08:59:03Z</time>
      </trkpt>
      <trkpt lat="48.19566" lon="3.2476">
        <ele>179</ele>
        <time>2011-05-15T08:59:06Z</time>
      </trkpt>
      <trkpt lat="48.19562" lon="3.24766">
        <ele>180</ele>
        <time>2011-05-15T08:59:09Z</time>
      </trkpt>
      <trkpt lat="48.19557" lon="3.2477">
        <ele>181</ele>
        <time>2011-05-15T08:59:12Z</time>
      </trkpt>
      <trkpt lat="48.19552" lon="3.24777">
        <ele>181</ele>
        <time>2011-05-15T08:59:15Z</time>
      </trkpt>
      <trkpt lat="48.19548" lon="3.24781">
        <ele>182</ele>
        <time>2011-05-15T08:59:19Z</time>
      </trkpt>
      <trkpt lat="48.19543" lon="3.24785">
        <ele>183</ele>
        <time>2011-05-15T08:59:24Z</time>
      </trkpt>
      <trkpt lat="48.19539" lon="3.2479">
        <ele>184</ele>
        <time>2011-05-15T08:59:28Z</time>
      </trkpt>
      <trkpt lat="48.19535" lon="3.24794">
        <ele>185</ele>
        <time>2011-05-15T08:59:32Z</time>
      </trkpt>
      <trkpt lat="48.1953" lon="3.248">
        <ele>186</ele>
        <time>2011-05-15T08:59:37Z</time>
      </trkpt>
      <trkpt lat="48.19526" lon="3.24807">
        <ele>187</ele>
        <time>2011-05-15T08:59:41Z</time>
      </trkpt>
      <trkpt lat="48.19521" lon="3.24809">
        <ele>188</ele>
        <time>2011-05-15T08:59:47Z</time>
      </trkpt>
      <trkpt lat="48.19519" lon="3.24816">
        <ele>188</ele>
        <time>2011-05-15T08:59:51Z</time>
      </trkpt>
      <trkpt lat="48.19521" lon="3.24824">
        <ele>189</ele>
        <time>2011-05-15T08:59:56Z</time>
      </trkpt>
      <trkpt lat="48.19526" lon="3.24822">
        <ele>190</ele>
        <time>2011-05-15T09:00:00Z</time>
      </trkpt>
      <trkpt lat="48.19532" lon="3.24816">
        <ele>191</ele>
        <time>2011-05-15T09:00:03Z</time>
      </trkpt>
      <trkpt lat="48.19537" lon="3.24811">
        <ele>191</ele>
        <time>2011-05-15T09:00:05Z</time>
      </trkpt>
      <trkpt lat="48.19541" lon="3.24805">
        <ele>191</ele>
        <time>2011-05-15T09:00:07Z</time>
      </trkpt>
      <trkpt lat="48.19546" lon="3.24798">
        <ele>192</ele>
        <time>2011-05-15T09:00:09Z</time>
      </trkpt>
      <trkpt lat="48.19551" lon="3.24794">
        <ele>192</ele>
        <time>2011-05-15T09:00:11Z</time>
      </trkpt>
      <trkpt lat="48.19556" lon="3.2479">
        <ele>192</ele>
        <time>2011-05-15T09:00:13Z</time>
      </trkpt>
      <trkpt lat="48.19562" lon="3.24785">
        <ele>193</ele>
        <time>2011-05-15T09:00:15Z</time>
      </trkpt>
      <trkpt lat="48.19567" lon="3.24783">
        <ele>193</ele>
        <time>2011-05-15T09:00:17Z</time>
      </trkpt>
      <trkpt lat="48.19571" lon="3.24779">
        <ele>194</ele>
        <time>2011-05-15T09:00:19Z</time>
      </trkpt>
      <trkpt lat="48.19576" lon="3.24775">
        <ele>194</ele>
        <time>2011-05-15T09:00:22Z</time>
      </trkpt>
      <trkpt lat="48.1958" lon="3.2477">
        <ele>195</ele>
        <time>2011-05-15T09:00:25Z</time>
      </trkpt>
      <trkpt lat="48.19582" lon="3.24764">
        <ele>195</ele>
        <time>2011-05-15T09:00:28Z</time>
      </trkpt>
      <trkpt lat="48.1958" lon="3.24755">
        <ele>195</ele>
        <time>2011-05-15T09:00:33Z</time>
      </trkpt>
      <trkpt lat="48.19574" lon="3.24758">
        <ele>195</ele>
        <time>2011-05-15T09:00:36Z</time>
      </trkpt>
      <trkpt lat="48.19568" lon="3.24762">
        <ele>195</ele>
        <time>2011-05-15T09:00:39Z</time>
      </trkpt>
      <trkpt lat="48.19563" lon="3.24768">
        <ele>196</ele>
        <time>2011-05-15T09:00:41Z</time>
      </trkpt>
      <trkpt lat="48.19556" lon="3.24775">
        <ele>196</ele>
        <time>2011-05-15T09:00:43Z</time>
      </trkpt>
      <trkpt lat="48.19552" lon="3.24781">
        <ele>196</ele>
        <time>2011-05-15T09:00:45Z</time>
      </trkpt>
      <trkpt lat="48.19546" lon="3.24788">
        <ele>196</ele>
        <time>2011-05-15T09:00:48Z</time>
      </trkpt>
      <trkpt lat="48.19542" lon="3.24794">
        <ele>196</ele>
        <time>2011-05-15T09:00:51Z</time>
      </trkpt>
      <trkpt lat="48.19537" lon="3.248">
        <ele>196</ele>
        <time>2011-05-15T09:00:54Z</time>
      </trkpt>
      <trkpt lat="48.19533" lon="3.24807">
        <ele>196</ele>
        <time>2011-05-15T09:00:57Z</time>
      </trkpt>
      <trkpt lat="48.19528" lon="3.24809">
        <ele>196</ele>
        <time>2011-05-15T09:01:00Z</time>
      </trkpt>
      <trkpt lat="48.19523" lon="3.24805">
        <ele>197</ele>
        <time>2011-05-15T09:01:07Z</time>
      </trkpt>
      <trkpt lat="48.19523" lon="3.24805">
        <ele>197</ele>
        <time>2011-05-15T09:01:07Z</time>
      </trkpt>
      <trkpt lat="48.19523" lon="3.24805">
        <ele>197</ele>
        <time>2011-05-15T09:01:16Z</time>
      </trkpt>
      <trkpt lat="48.19528" lon="3.24805">
        <ele>197</ele>
        <time>2011-05-15T09:01:39Z</time>
      </trkpt>
      <trkpt lat="48.19528" lon="3.24805">
        <ele>197</ele>
        <time>2011-05-15T09:01:39Z</time>
      </trkpt>
      <trkpt lat="48.19528" lon="3.24805">
        <ele>197</ele>
        <time>2011-05-15T09:01:42Z</time>
      </trkpt>
      <trkpt lat="48.19529" lon="3.24796">
        <ele>198</ele>
        <time>2011-05-15T09:01:57Z</time>
      </trkpt>
      <trkpt lat="48.19527" lon="3.2479">
        <ele>198</ele>
        <time>2011-05-15T09:01:59Z</time>
      </trkpt>
      <trkpt lat="48.19523" lon="3.24781">
        <ele>198</ele>
        <time>2011-05-15T09:02:02Z</time>
      </trkpt>
      <trkpt lat="48.19519" lon="3.24775">
        <ele>198</ele>
        <time>2011-05-15T09:02:04Z</time>
      </trkpt>
      <trkpt lat="48.19514" lon="3.24768">
        <ele>199</ele>
        <time>2011-05-15T09:02:06Z</time>
      </trkpt>
      <trkpt lat="48.1951" lon="3.24762">
        <ele>199</ele>
        <time>2011-05-15T09:02:08Z</time>
      </trkpt>
      <trkpt lat="48.19505" lon="3.24753">
        <ele>199</ele>
        <time>2011-05-15T09:02:10Z</time>
      </trkpt>
      <trkpt lat="48.19499" lon="3.24747">
        <ele>199</ele>
        <time>2011-05-15T09:02:12Z</time>
      </trkpt>
      <trkpt lat="48.19494" lon="3.24738">
        <ele>199</ele>
        <time>2011-05-15T09:02:14Z</time>
      </trkpt>
      <trkpt lat="48.1949" lon="3.2473">
        <ele>199</ele>
        <time>2011-05-15T09:02:16Z</time>
      </trkpt>
      <trkpt lat="48.19484" lon="3.24721">
        <ele>199</ele>
        <time>2011-05-15T09:02:18Z</time>
      </trkpt>
      <trkpt lat="48.19481" lon="3.24715">
        <ele>199</ele>
        <time>2011-05-15T09:02:20Z</time>
      </trkpt>
      <trkpt lat="48.19477" lon="3.24706">
        <ele>199</ele>
        <time>2011-05-15T09:02:22Z</time>
      </trkpt>
      <trkpt lat="48.19474" lon="3.247">
        <ele>200</ele>
        <time>2011-05-15T09:02:24Z</time>
      </trkpt>
      <trkpt lat="48.19469" lon="3.24691">
        <ele>200</ele>
        <time>2011-05-15T09:02:26Z</time>
      </trkpt>
      <trkpt lat="48.19465" lon="3.24685">
        <ele>200</ele>
        <time>2011-05-15T09:02:28Z</time>
      </trkpt>
      <trkpt lat="48.19461" lon="3.24676">
        <ele>200</ele>
        <time>2011-05-15T09:02:30Z</time>
      </trkpt>
      <trkpt lat="48.19455" lon="3.24667">
        <ele>200</ele>
        <time>2011-05-15T09:02:32Z</time>
      </trkpt>
      <trkpt lat="48.19451" lon="3.24659">
        <ele>200</ele>
        <time>2011-05-15T09:02:34Z</time>
      </trkpt>
      <trkpt lat="48.19446" lon="3.2465">
        <ele>201</ele>
        <time>2011-05-15T09:02:36Z</time>
      </trkpt>
      <trkpt lat="48.19444" lon="3.24644">
        <ele>201</ele>
        <time>2011-05-15T09:02:37Z</time>
      </trkpt>
      <trkpt lat="48.19438" lon="3.24635">
        <ele>201</ele>
        <time>2011-05-15T09:02:39Z</time>
      </trkpt>
      <trkpt lat="48.19433" lon="3.24624">
        <ele>202</ele>
        <time>2011-05-15T09:02:41Z</time>
      </trkpt>
      <trkpt lat="48.19427" lon="3.24616">
        <ele>202</ele>
        <time>2011-05-15T09:02:43Z</time>
      </trkpt>
      <trkpt lat="48.19422" lon="3.24607">
        <ele>202</ele>
        <time>2011-05-15T09:02:45Z</time>
      </trkpt>
      <trkpt lat="48.19417" lon="3.24597">
        <ele>202</ele>
        <time>2011-05-15T09:02:47Z</time>
      </trkpt>
      <trkpt lat="48.19412" lon="3.24588">
        <ele>202</ele>
        <time>2011-05-15T09:02:49Z</time>
      </trkpt>
      <trkpt lat="48.19407" lon="3.24579">
        <ele>202</ele>
        <time>2011-05-15T09:02:51Z</time>
      </trkpt>
      <trkpt lat="48.19402" lon="3.24571">
        <ele>202</ele>
        <time>2011-05-15T09:02:53Z</time>
      </trkpt>
      <trkpt lat="48.19396" lon="3.24562">
        <ele>202</ele>
        <time>2011-05-15T09:02:55Z</time>
      </trkpt>
      <trkpt lat="48.19392" lon="3.24556">
        <ele>201</ele>
        <time>2011-05-15T09:02:57Z</time>
      </trkpt>
      <trkpt lat="48.19387" lon="3.24549">
        <ele>201</ele>
        <time>2011-05-15T09:02:59Z</time>
      </trkpt>
      <trkpt lat="48.19382" lon="3.24545">
        <ele>201</ele>
        <time>2011-05-15T09:03:01Z</time>
      </trkpt>
      <trkpt lat="48.19376" lon="3.24541">
        <ele>202</ele>
        <time>2011-05-15T09:03:04Z</time>
      </trkpt>
      <trkpt lat="48.1937" lon="3.24539">
        <ele>201</ele>
        <time>2011-05-15T09:03:07Z</time>
      </trkpt>
      <trkpt lat="48.19364" lon="3.24534">
        <ele>201</ele>
        <time>2011-05-15T09:03:10Z</time>
      </trkpt>
      <trkpt lat="48.19366" lon="3.24526">
        <ele>201</ele>
        <time>2011-05-15T09:03:15Z</time>
      </trkpt>
      <trkpt lat="48.19372" lon="3.24524">
        <ele>201</ele>
        <time>2011-05-15T09:03:17Z</time>
      </trkpt>
      <trkpt lat="48.19378" lon="3.24519">
        <ele>201</ele>
        <time>2011-05-15T09:03:19Z</time>
      </trkpt>
      <trkpt lat="48.19382" lon="3.24517">
        <ele>201</ele>
        <time>2011-05-15T09:03:20Z</time>
      </trkpt>
      <trkpt lat="48.1939" lon="3.24515">
        <ele>201</ele>
        <time>2011-05-15T09:03:22Z</time>
      </trkpt>
      <trkpt lat="48.19397" lon="3.24513">
        <ele>201</ele>
        <time>2011-05-15T09:03:24Z</time>
      </trkpt>
      <trkpt lat="48.19402" lon="3.24511">
        <ele>201</ele>
        <time>2011-05-15T09:03:25Z</time>
      </trkpt>
      <trkpt lat="48.19406" lon="3.24509">
        <ele>202</ele>
        <time>2011-05-15T09:03:26Z</time>
      </trkpt>
      <trkpt lat="48.19412" lon="3.24506">
        <ele>202</ele>
        <time>2011-05-15T09:03:28Z</time>
      </trkpt>
      <trkpt lat="48.19414" lon="3.24492">
        <ele>202</ele>
        <time>2011-05-15T09:03:36Z</time>
      </trkpt>
      <trkpt lat="48.19414" lon="3.24492">
        <ele>202</ele>
        <time>2011-05-15T09:03:36Z</time>
      </trkpt>
      <trkpt lat="48.19414" lon="3.24492">
        <ele>202</ele>
        <time>2011-05-15T09:03:40Z</time>
      </trkpt>
      <trkpt lat="48.19418" lon="3.24481">
        <ele>202</ele>
        <time>2011-05-15T09:03:41Z</time>
      </trkpt>
      <trkpt lat="48.19418" lon="3.24481">
        <ele>202</ele>
        <time>2011-05-15T09:03:41Z</time>
      </trkpt>
      <trkpt lat="48.19418" lon="3.24481">
        <ele>202</ele>
        <time>2011-05-15T09:03:44Z</time>
      </trkpt>
      <trkpt lat="48.19423" lon="3.24479">
        <ele>201</ele>
        <time>2011-05-15T09:03:45Z</time>
      </trkpt>
      <trkpt lat="48.19423" lon="3.24479">
        <ele>201</ele>
        <time>2011-05-15T09:03:45Z</time>
      </trkpt>
      <trkpt lat="48.19423" lon="3.24479">
        <ele>201</ele>
        <time>2011-05-15T09:03:51Z</time>
      </trkpt>
      <trkpt lat="48.19428" lon="3.24476">
        <ele>202</ele>
        <time>2011-05-15T09:03:52Z</time>
      </trkpt>
      <trkpt lat="48.19436" lon="3.24472">
        <ele>202</ele>
        <time>2011-05-15T09:03:54Z</time>
      </trkpt>
      <trkpt lat="48.19442" lon="3.24468">
        <ele>202</ele>
        <time>2011-05-15T09:03:56Z</time>
      </trkpt>
      <trkpt lat="48.19449" lon="3.24466">
        <ele>202</ele>
        <time>2011-05-15T09:03:58Z</time>
      </trkpt>
      <trkpt lat="48.19456" lon="3.2447">
        <ele>202</ele>
        <time>2011-05-15T09:04:02Z</time>
      </trkpt>
      <trkpt lat="48.19456" lon="3.2447">
        <ele>202</ele>
        <time>2011-05-15T09:04:02Z</time>
      </trkpt>
      <trkpt lat="48.19456" lon="3.2447">
        <ele>202</ele>
        <time>2011-05-15T09:04:06Z</time>
      </trkpt>
      <trkpt lat="48.19466" lon="3.24476">
        <ele>202</ele>
        <time>2011-05-15T09:04:07Z</time>
      </trkpt>
      <trkpt lat="48.19474" lon="3.24476">
        <ele>202</ele>
        <time>2011-05-15T09:04:10Z</time>
      </trkpt>
      <trkpt lat="48.1948" lon="3.24476">
        <ele>202</ele>
        <time>2011-05-15T09:04:12Z</time>
      </trkpt>
      <trkpt lat="48.19485" lon="3.24474">
        <ele>202</ele>
        <time>2011-05-15T09:04:14Z</time>
      </trkpt>
      <trkpt lat="48.1949" lon="3.2447">
        <ele>202</ele>
        <time>2011-05-15T09:04:16Z</time>
      </trkpt>
      <trkpt lat="48.19499" lon="3.24461">
        <ele>202</ele>
        <time>2011-05-15T09:04:21Z</time>
      </trkpt>
      <trkpt lat="48.19504" lon="3.24459">
        <ele>202</ele>
        <time>2011-05-15T09:04:23Z</time>
      </trkpt>
      <trkpt lat="48.19511" lon="3.24453">
        <ele>202</ele>
        <time>2011-05-15T09:04:27Z</time>
      </trkpt>
      <trkpt lat="48.1952" lon="3.24448">
        <ele>202</ele>
        <time>2011-05-15T09:04:31Z</time>
      </trkpt>
      <trkpt lat="48.1952" lon="3.24448">
        <ele>202</ele>
        <time>2011-05-15T09:04:31Z</time>
      </trkpt>
      <trkpt lat="48.1952" lon="3.24448">
        <ele>202</ele>
        <time>2011-05-15T09:04:34Z</time>
      </trkpt>
      <trkpt lat="48.19523" lon="3.24436">
        <ele>202</ele>
        <time>2011-05-15T09:04:35Z</time>
      </trkpt>
      <trkpt lat="48.19523" lon="3.24436">
        <ele>202</ele>
        <time>2011-05-15T09:04:35Z</time>
      </trkpt>
      <trkpt lat="48.19523" lon="3.24436">
        <ele>202</ele>
        <time>2011-05-15T09:04:37Z</time>
      </trkpt>
      <trkpt lat="48.19526" lon="3.24427">
        <ele>201</ele>
        <time>2011-05-15T09:04:38Z</time>
      </trkpt>
      <trkpt lat="48.19526" lon="3.24427">
        <ele>201</ele>
        <time>2011-05-15T09:04:38Z</time>
      </trkpt>
      <trkpt lat="48.19526" lon="3.24427">
        <ele>201</ele>
        <time>2011-05-15T09:04:40Z</time>
      </trkpt>
      <trkpt lat="48.1953" lon="3.24423">
        <ele>201</ele>
        <time>2011-05-15T09:04:41Z</time>
      </trkpt>
      <trkpt lat="48.1953" lon="3.24423">
        <ele>201</ele>
        <time>2011-05-15T09:04:41Z</time>
      </trkpt>
      <trkpt lat="48.1953" lon="3.24423">
        <ele>201</ele>
        <time>2011-05-15T09:04:45Z</time>
      </trkpt>
      <trkpt lat="48.19539" lon="3.24416">
        <ele>200</ele>
        <time>2011-05-15T09:04:46Z</time>
      </trkpt>
      <trkpt lat="48.19539" lon="3.24416">
        <ele>200</ele>
        <time>2011-05-15T09:04:46Z</time>
      </trkpt>
      <trkpt lat="48.19539" lon="3.24416">
        <ele>200</ele>
        <time>2011-05-15T09:04:59Z</time>
      </trkpt>
      <trkpt lat="48.19543" lon="3.24414">
        <ele>199</ele>
        <time>2011-05-15T09:05:00Z</time>
      </trkpt>
      <trkpt lat="48.19543" lon="3.24414">
        <ele>199</ele>
        <time>2011-05-15T09:05:00Z</time>
      </trkpt>
      <trkpt lat="48.19543" lon="3.24414">
        <ele>199</ele>
        <time>2011-05-15T09:06:55Z</time>
      </trkpt>
      <trkpt lat="48.1955" lon="3.2441">
        <ele>190</ele>
        <time>2011-05-15T09:06:56Z</time>
      </trkpt>
      <trkpt lat="48.19558" lon="3.24408">
        <ele>190</ele>
        <time>2011-05-15T09:06:58Z</time>
      </trkpt>
      <trkpt lat="48.19571" lon="3.24404">
        <ele>189</ele>
        <time>2011-05-15T09:07:03Z</time>
      </trkpt>
      <trkpt lat="48.19571" lon="3.24404">
        <ele>189</ele>
        <time>2011-05-15T09:07:03Z</time>
      </trkpt>
      <trkpt lat="48.19571" lon="3.24404">
        <ele>189</ele>
        <time>2011-05-15T09:07:11Z</time>
      </trkpt>
      <trkpt lat="48.19579" lon="3.24395">
        <ele>187</ele>
        <time>2011-05-15T09:07:12Z</time>
      </trkpt>
      <trkpt lat="48.19579" lon="3.24395">
        <ele>187</ele>
        <time>2011-05-15T09:07:12Z</time>
      </trkpt>
      <trkpt lat="48.19579" lon="3.24395">
        <ele>187</ele>
        <time>2011-05-15T09:07:14Z</time>
      </trkpt>
      <trkpt lat="48.19584" lon="3.24395">
        <ele>186</ele>
        <time>2011-05-15T09:07:15Z</time>
      </trkpt>
      <trkpt lat="48.19584" lon="3.24395">
        <ele>186</ele>
        <time>2011-05-15T09:07:15Z</time>
      </trkpt>
      <trkpt lat="48.19584" lon="3.24395">
        <ele>186</ele>
        <time>2011-05-15T09:07:16Z</time>
      </trkpt>
      <trkpt lat="48.19589" lon="3.24393">
        <ele>186</ele>
        <time>2011-05-15T09:07:17Z</time>
      </trkpt>
      <trkpt lat="48.19594" lon="3.24391">
        <ele>186</ele>
        <time>2011-05-15T09:07:18Z</time>
      </trkpt>
      <trkpt lat="48.19599" lon="3.24386">
        <ele>185</ele>
        <time>2011-05-15T09:07:20Z</time>
      </trkpt>
      <trkpt lat="48.19604" lon="3.24382">
        <ele>185</ele>
        <time>2011-05-15T09:07:22Z</time>
      </trkpt>
      <trkpt lat="48.1961" lon="3.2438">
        <ele>185</ele>
        <time>2011-05-15T09:07:24Z</time>
      </trkpt>
      <trkpt lat="48.1961" lon="3.2438">
        <ele>185</ele>
        <time>2011-05-15T09:07:24Z</time>
      </trkpt>
      <trkpt lat="48.1961" lon="3.2438">
        <ele>185</ele>
        <time>2011-05-15T09:07:27Z</time>
      </trkpt>
      <trkpt lat="48.19618" lon="3.24376">
        <ele>184</ele>
        <time>2011-05-15T09:07:28Z</time>
      </trkpt>
      <trkpt lat="48.19624" lon="3.2438">
        <ele>184</ele>
        <time>2011-05-15T09:07:31Z</time>
      </trkpt>
      <trkpt lat="48.1963" lon="3.24382">
        <ele>184</ele>
        <time>2011-05-15T09:07:34Z</time>
      </trkpt>
      <trkpt lat="48.19634" lon="3.24384">
        <ele>184</ele>
        <time>2011-05-15T09:07:36Z</time>
      </trkpt>
      <trkpt lat="48.19638" lon="3.24391">
        <ele>184</ele>
        <time>2011-05-15T09:07:38Z</time>
      </trkpt>
      <trkpt lat="48.19646" lon="3.24401">
        <ele>183</ele>
        <time>2011-05-15T09:07:48Z</time>
      </trkpt>
      <trkpt lat="48.19654" lon="3.24404">
        <ele>183</ele>
        <time>2011-05-15T09:07:50Z</time>
      </trkpt>
      <trkpt lat="48.19658" lon="3.24406">
        <ele>183</ele>
        <time>2011-05-15T09:07:51Z</time>
      </trkpt>
      <trkpt lat="48.19664" lon="3.24408">
        <ele>183</ele>
        <time>2011-05-15T09:07:53Z</time>
      </trkpt>
      <trkpt lat="48.1967" lon="3.24412">
        <ele>183</ele>
        <time>2011-05-15T09:07:55Z</time>
      </trkpt>
      <trkpt lat="48.1967" lon="3.24412">
        <ele>183</ele>
        <time>2011-05-15T09:07:55Z</time>
      </trkpt>
      <trkpt lat="48.1967" lon="3.24412">
        <ele>183</ele>
        <time>2011-05-15T09:08:00Z</time>
      </trkpt>
      <trkpt lat="48.1968" lon="3.24412">
        <ele>182</ele>
        <time>2011-05-15T09:08:01Z</time>
      </trkpt>
      <trkpt lat="48.1968" lon="3.24412">
        <ele>182</ele>
        <time>2011-05-15T09:08:01Z</time>
      </trkpt>
      <trkpt lat="48.1968" lon="3.24412">
        <ele>182</ele>
        <time>2011-05-15T09:08:02Z</time>
      </trkpt>
      <trkpt lat="48.19683" lon="3.24399">
        <ele>182</ele>
        <time>2011-05-15T09:08:03Z</time>
      </trkpt>
      <trkpt lat="48.19684" lon="3.24391">
        <ele>182</ele>
        <time>2011-05-15T09:08:04Z</time>
      </trkpt>
      <trkpt lat="48.19684" lon="3.24391">
        <ele>182</ele>
        <time>2011-05-15T09:08:04Z</time>
      </trkpt>
      <trkpt lat="48.19684" lon="3.24391">
        <ele>182</ele>
        <time>2011-05-15T09:08:05Z</time>
      </trkpt>
      <trkpt lat="48.19682" lon="3.24382">
        <ele>181</ele>
        <time>2011-05-15T09:08:06Z</time>
      </trkpt>
      <trkpt lat="48.19682" lon="3.24382">
        <ele>181</ele>
        <time>2011-05-15T09:08:06Z</time>
      </trkpt>
      <trkpt lat="48.19682" lon="3.24382">
        <ele>181</ele>
        <time>2011-05-15T09:08:07Z</time>
      </trkpt>
      <trkpt lat="48.19675" lon="3.24371">
        <ele>179</ele>
        <time>2011-05-15T09:08:12Z</time>
      </trkpt>
      <trkpt lat="48.19672" lon="3.24365">
        <ele>178</ele>
        <time>2011-05-15T09:08:15Z</time>
      </trkpt>
      <trkpt lat="48.19669" lon="3.24358">
        <ele>178</ele>
        <time>2011-05-15T09:08:18Z</time>
      </trkpt>
      <trkpt lat="48.19669" lon="3.24358">
        <ele>178</ele>
        <time>2011-05-15T09:08:18Z</time>
      </trkpt>
      <trkpt lat="48.19669" lon="3.24358">
        <ele>178</ele>
        <time>2011-05-15T09:08:19Z</time>
      </trkpt>
      <trkpt lat="48.19666" lon="3.24352">
        <ele>177</ele>
        <time>2011-05-15T09:08:21Z</time>
      </trkpt>
      <trkpt lat="48.19662" lon="3.24346">
        <ele>176</ele>
        <time>2011-05-15T09:08:24Z</time>
      </trkpt>
      <trkpt lat="48.19662" lon="3.24346">
        <ele>176</ele>
        <time>2011-05-15T09:08:24Z</time>
      </trkpt>
      <trkpt lat="48.19662" lon="3.24346">
        <ele>176</ele>
        <time>2011-05-15T09:08:25Z</time>
      </trkpt>
      <trkpt lat="48.19659" lon="3.24339">
        <ele>175</ele>
        <time>2011-05-15T09:08:27Z</time>
      </trkpt>
      <trkpt lat="48.19659" lon="3.24339">
        <ele>175</ele>
        <time>2011-05-15T09:08:27Z</time>
      </trkpt>
      <trkpt lat="48.19659" lon="3.24339">
        <ele>175</ele>
        <time>2011-05-15T09:08:28Z</time>
      </trkpt>
      <trkpt lat="48.19655" lon="3.24333">
        <ele>174</ele>
        <time>2011-05-15T09:08:30Z</time>
      </trkpt>
      <trkpt lat="48.19652" lon="3.24326">
        <ele>173</ele>
        <time>2011-05-15T09:08:33Z</time>
      </trkpt>
      <trkpt lat="48.19647" lon="3.2432">
        <ele>172</ele>
        <time>2011-05-15T09:08:36Z</time>
      </trkpt>
      <trkpt lat="48.19643" lon="3.24313">
        <ele>172</ele>
        <time>2011-05-15T09:08:39Z</time>
      </trkpt>
      <trkpt lat="48.1964" lon="3.24307">
        <ele>171</ele>
        <time>2011-05-15T09:08:41Z</time>
      </trkpt>
      <trkpt lat="48.19636" lon="3.243">
        <ele>171</ele>
        <time>2011-05-15T09:08:44Z</time>
      </trkpt>
      <trkpt lat="48.19628" lon="3.2429">
        <ele>170</ele>
        <time>2011-05-15T09:08:49Z</time>
      </trkpt>
      <trkpt lat="48.19628" lon="3.2429">
        <ele>170</ele>
        <time>2011-05-15T09:08:49Z</time>
      </trkpt>
      <trkpt lat="48.19628" lon="3.2429">
        <ele>170</ele>
        <time>2011-05-15T09:08:51Z</time>
      </trkpt>
      <trkpt lat="48.19623" lon="3.24286">
        <ele>169</ele>
        <time>2011-05-15T09:08:52Z</time>
      </trkpt>
      <trkpt lat="48.19623" lon="3.24286">
        <ele>169</ele>
        <time>2011-05-15T09:08:52Z</time>
      </trkpt>
      <trkpt lat="48.19623" lon="3.24286">
        <ele>169</ele>
        <time>2011-05-15T09:08:55Z</time>
      </trkpt>
      <trkpt lat="48.19616" lon="3.24277">
        <ele>168</ele>
        <time>2011-05-15T09:08:56Z</time>
      </trkpt>
      <trkpt lat="48.19616" lon="3.24277">
        <ele>168</ele>
        <time>2011-05-15T09:08:56Z</time>
      </trkpt>
      <trkpt lat="48.19616" lon="3.24277">
        <ele>168</ele>
        <time>2011-05-15T09:08:58Z</time>
      </trkpt>
      <trkpt lat="48.19612" lon="3.2427">
        <ele>168</ele>
        <time>2011-05-15T09:08:59Z</time>
      </trkpt>
      <trkpt lat="48.19612" lon="3.2427">
        <ele>168</ele>
        <time>2011-05-15T09:08:59Z</time>
      </trkpt>
      <trkpt lat="48.19612" lon="3.2427">
        <ele>168</ele>
        <time>2011-05-15T09:09:01Z</time>
      </trkpt>
      <trkpt lat="48.19608" lon="3.24264">
        <ele>167</ele>
        <time>2011-05-15T09:09:02Z</time>
      </trkpt>
      <trkpt lat="48.19608" lon="3.24264">
        <ele>167</ele>
        <time>2011-05-15T09:09:02Z</time>
      </trkpt>
      <trkpt lat="48.19608" lon="3.24264">
        <ele>167</ele>
        <time>2011-05-15T09:09:03Z</time>
      </trkpt>
      <trkpt lat="48.19604" lon="3.24258">
        <ele>167</ele>
        <time>2011-05-15T09:09:04Z</time>
      </trkpt>
      <trkpt lat="48.19604" lon="3.24258">
        <ele>167</ele>
        <time>2011-05-15T09:09:04Z</time>
      </trkpt>
      <trkpt lat="48.19604" lon="3.24258">
        <ele>167</ele>
        <time>2011-05-15T09:09:05Z</time>
      </trkpt>
      <trkpt lat="48.19599" lon="3.24251">
        <ele>167</ele>
        <time>2011-05-15T09:09:07Z</time>
      </trkpt>
      <trkpt lat="48.19599" lon="3.24251">
        <ele>167</ele>
        <time>2011-05-15T09:09:07Z</time>
      </trkpt>
      <trkpt lat="48.19599" lon="3.24251">
        <ele>167</ele>
        <time>2011-05-15T09:09:08Z</time>
      </trkpt>
      <trkpt lat="48.19593" lon="3.24242">
        <ele>166</ele>
        <time>2011-05-15T09:09:11Z</time>
      </trkpt>
      <trkpt lat="48.19589" lon="3.24236">
        <ele>166</ele>
        <time>2011-05-15T09:09:13Z</time>
      </trkpt>
      <trkpt lat="48.19586" lon="3.2423">
        <ele>166</ele>
        <time>2011-05-15T09:09:15Z</time>
      </trkpt>
      <trkpt lat="48.19581" lon="3.24221">
        <ele>165</ele>
        <time>2011-05-15T09:09:18Z</time>
      </trkpt>
      <trkpt lat="48.19577" lon="3.24215">
        <ele>165</ele>
        <time>2011-05-15T09:09:20Z</time>
      </trkpt>
      <trkpt lat="48.19573" lon="3.24208">
        <ele>165</ele>
        <time>2011-05-15T09:09:22Z</time>
      </trkpt>
      <trkpt lat="48.19569" lon="3.24202">
        <ele>165</ele>
        <time>2011-05-15T09:09:24Z</time>
      </trkpt>
      <trkpt lat="48.19566" lon="3.24195">
        <ele>164</ele>
        <time>2011-05-15T09:09:26Z</time>
      </trkpt>
      <trkpt lat="48.19563" lon="3.24189">
        <ele>164</ele>
        <time>2011-05-15T09:09:28Z</time>
      </trkpt>
      <trkpt lat="48.19558" lon="3.24182">
        <ele>164</ele>
        <time>2011-05-15T09:09:30Z</time>
      </trkpt>
      <trkpt lat="48.19554" lon="3.24174">
        <ele>164</ele>
        <time>2011-05-15T09:09:32Z</time>
      </trkpt>
      <trkpt lat="48.19549" lon="3.24165">
        <ele>164</ele>
        <time>2011-05-15T09:09:34Z</time>
      </trkpt>
      <trkpt lat="48.19543" lon="3.24157">
        <ele>164</ele>
        <time>2011-05-15T09:09:36Z</time>
      </trkpt>
      <trkpt lat="48.19539" lon="3.24148">
        <ele>164</ele>
        <time>2011-05-15T09:09:38Z</time>
      </trkpt>
      <trkpt lat="48.19535" lon="3.2414">
        <ele>165</ele>
        <time>2011-05-15T09:09:40Z</time>
      </trkpt>
      <trkpt lat="48.19529" lon="3.24133">
        <ele>165</ele>
        <time>2011-05-15T09:09:42Z</time>
      </trkpt>
      <trkpt lat="48.19525" lon="3.24127">
        <ele>165</ele>
        <time>2011-05-15T09:09:44Z</time>
      </trkpt>
      <trkpt lat="48.19521" lon="3.24118">
        <ele>165</ele>
        <time>2011-05-15T09:09:46Z</time>
      </trkpt>
      <trkpt lat="48.19515" lon="3.24112">
        <ele>165</ele>
        <time>2011-05-15T09:09:48Z</time>
      </trkpt>
      <trkpt lat="48.19511" lon="3.24105">
        <ele>166</ele>
        <time>2011-05-15T09:09:50Z</time>
      </trkpt>
      <trkpt lat="48.19507" lon="3.24097">
        <ele>166</ele>
        <time>2011-05-15T09:09:52Z</time>
      </trkpt>
      <trkpt lat="48.19502" lon="3.2409">
        <ele>166</ele>
        <time>2011-05-15T09:09:54Z</time>
      </trkpt>
      <trkpt lat="48.19502" lon="3.2409">
        <ele>166</ele>
        <time>2011-05-15T09:09:54Z</time>
      </trkpt>
      <trkpt lat="48.19502" lon="3.2409">
        <ele>166</ele>
        <time>2011-05-15T09:09:56Z</time>
      </trkpt>
      <trkpt lat="48.19498" lon="3.24084">
        <ele>166</ele>
        <time>2011-05-15T09:09:57Z</time>
      </trkpt>
      <trkpt lat="48.19493" lon="3.24075">
        <ele>167</ele>
        <time>2011-05-15T09:09:59Z</time>
      </trkpt>
      <trkpt lat="48.19489" lon="3.24067">
        <ele>167</ele>
        <time>2011-05-15T09:10:01Z</time>
      </trkpt>
      <trkpt lat="48.19485" lon="3.2406">
        <ele>167</ele>
        <time>2011-05-15T09:10:03Z</time>
      </trkpt>
      <trkpt lat="48.19481" lon="3.24054">
        <ele>168</ele>
        <time>2011-05-15T09:10:05Z</time>
      </trkpt>
      <trkpt lat="48.19478" lon="3.24047">
        <ele>168</ele>
        <time>2011-05-15T09:10:07Z</time>
      </trkpt>
      <trkpt lat="48.19474" lon="3.24041">
        <ele>169</ele>
        <time>2011-05-15T09:10:09Z</time>
      </trkpt>
      <trkpt lat="48.19468" lon="3.24034">
        <ele>169</ele>
        <time>2011-05-15T09:10:11Z</time>
      </trkpt>
      <trkpt lat="48.19464" lon="3.24026">
        <ele>169</ele>
        <time>2011-05-15T09:10:13Z</time>
      </trkpt>
      <trkpt lat="48.1946" lon="3.24019">
        <ele>170</ele>
        <time>2011-05-15T09:10:15Z</time>
      </trkpt>
      <trkpt lat="48.19456" lon="3.24013">
        <ele>170</ele>
        <time>2011-05-15T09:10:17Z</time>
      </trkpt>
      <trkpt lat="48.19453" lon="3.24004">
        <ele>170</ele>
        <time>2011-05-15T09:10:19Z</time>
      </trkpt>
      <trkpt lat="48.1945" lon="3.23998">
        <ele>171</ele>
        <time>2011-05-15T09:10:21Z</time>
      </trkpt>
      <trkpt lat="48.19447" lon="3.23989">
        <ele>171</ele>
        <time>2011-05-15T09:10:23Z</time>
      </trkpt>
      <trkpt lat="48.19444" lon="3.23983">
        <ele>171</ele>
        <time>2011-05-15T09:10:25Z</time>
      </trkpt>
      <trkpt lat="48.1944" lon="3.23976">
        <ele>172</ele>
        <time>2011-05-15T09:10:27Z</time>
      </trkpt>
      <trkpt lat="48.19437" lon="3.23968">
        <ele>172</ele>
        <time>2011-05-15T09:10:29Z</time>
      </trkpt>
      <trkpt lat="48.19435" lon="3.23961">
        <ele>172</ele>
        <time>2011-05-15T09:10:31Z</time>
      </trkpt>
      <trkpt lat="48.19432" lon="3.23955">
        <ele>173</ele>
        <time>2011-05-15T09:10:33Z</time>
      </trkpt>
      <trkpt lat="48.19428" lon="3.23949">
        <ele>173</ele>
        <time>2011-05-15T09:10:35Z</time>
      </trkpt>
      <trkpt lat="48.19425" lon="3.23942">
        <ele>173</ele>
        <time>2011-05-15T09:10:37Z</time>
      </trkpt>
      <trkpt lat="48.1942" lon="3.23934">
        <ele>174</ele>
        <time>2011-05-15T09:10:40Z</time>
      </trkpt>
      <trkpt lat="48.19416" lon="3.23927">
        <ele>174</ele>
        <time>2011-05-15T09:10:43Z</time>
      </trkpt>
      <trkpt lat="48.19412" lon="3.23921">
        <ele>174</ele>
        <time>2011-05-15T09:10:45Z</time>
      </trkpt>
      <trkpt lat="48.19409" lon="3.23914">
        <ele>175</ele>
        <time>2011-05-15T09:10:47Z</time>
      </trkpt>
      <trkpt lat="48.19407" lon="3.23906">
        <ele>175</ele>
        <time>2011-05-15T09:10:49Z</time>
      </trkpt>
      <trkpt lat="48.19405" lon="3.23899">
        <ele>175</ele>
        <time>2011-05-15T09:10:51Z</time>
      </trkpt>
      <trkpt lat="48.194" lon="3.23891">
        <ele>176</ele>
        <time>2011-05-15T09:10:54Z</time>
      </trkpt>
      <trkpt lat="48.19396" lon="3.23884">
        <ele>176</ele>
        <time>2011-05-15T09:10:56Z</time>
      </trkpt>
      <trkpt lat="48.19392" lon="3.2388">
        <ele>176</ele>
        <time>2011-05-15T09:10:58Z</time>
      </trkpt>
      <trkpt lat="48.19389" lon="3.23874">
        <ele>177</ele>
        <time>2011-05-15T09:11:00Z</time>
      </trkpt>
      <trkpt lat="48.19386" lon="3.23867">
        <ele>177</ele>
        <time>2011-05-15T09:11:02Z</time>
      </trkpt>
      <trkpt lat="48.19382" lon="3.23861">
        <ele>177</ele>
        <time>2011-05-15T09:11:04Z</time>
      </trkpt>
      <trkpt lat="48.19379" lon="3.23854">
        <ele>178</ele>
        <time>2011-05-15T09:11:06Z</time>
      </trkpt>
      <trkpt lat="48.19376" lon="3.23846">
        <ele>178</ele>
        <time>2011-05-15T09:11:08Z</time>
      </trkpt>
      <trkpt lat="48.19374" lon="3.23837">
        <ele>178</ele>
        <time>2011-05-15T09:11:10Z</time>
      </trkpt>
      <trkpt lat="48.19371" lon="3.23826">
        <ele>178</ele>
        <time>2011-05-15T09:11:12Z</time>
      </trkpt>
      <trkpt lat="48.19366" lon="3.23818">
        <ele>179</ele>
        <time>2011-05-15T09:11:14Z</time>
      </trkpt>
      <trkpt lat="48.19364" lon="3.23809">
        <ele>179</ele>
        <time>2011-05-15T09:11:16Z</time>
      </trkpt>
      <trkpt lat="48.19362" lon="3.23803">
        <ele>179</ele>
        <time>2011-05-15T09:11:18Z</time>
      </trkpt>
      <trkpt lat="48.19362" lon="3.23794">
        <ele>180</ele>
        <time>2011-05-15T09:11:21Z</time>
      </trkpt>
      <trkpt lat="48.19364" lon="3.23788">
        <ele>180</ele>
        <time>2011-05-15T09:11:25Z</time>
      </trkpt>
      <trkpt lat="48.19366" lon="3.23781">
        <ele>181</ele>
        <time>2011-05-15T09:11:29Z</time>
      </trkpt>
      <trkpt lat="48.19368" lon="3.23773">
        <ele>182</ele>
        <time>2011-05-15T09:11:33Z</time>
      </trkpt>
      <trkpt lat="48.19372" lon="3.23766">
        <ele>183</ele>
        <time>2011-05-15T09:11:37Z</time>
      </trkpt>
      <trkpt lat="48.19375" lon="3.2376">
        <ele>183</ele>
        <time>2011-05-15T09:11:40Z</time>
      </trkpt>
      <trkpt lat="48.19379" lon="3.23753">
        <ele>184</ele>
        <time>2011-05-15T09:11:43Z</time>
      </trkpt>
      <trkpt lat="48.19382" lon="3.23747">
        <ele>185</ele>
        <time>2011-05-15T09:11:46Z</time>
      </trkpt>
      <trkpt lat="48.19386" lon="3.2374">
        <ele>185</ele>
        <time>2011-05-15T09:11:49Z</time>
      </trkpt>
      <trkpt lat="48.1939" lon="3.23736">
        <ele>186</ele>
        <time>2011-05-15T09:11:52Z</time>
      </trkpt>
      <trkpt lat="48.19394" lon="3.2373">
        <ele>187</ele>
        <time>2011-05-15T09:11:56Z</time>
      </trkpt>
      <trkpt lat="48.19397" lon="3.23723">
        <ele>188</ele>
        <time>2011-05-15T09:11:59Z</time>
      </trkpt>
      <trkpt lat="48.19401" lon="3.23717">
        <ele>189</ele>
        <time>2011-05-15T09:12:02Z</time>
      </trkpt>
      <trkpt lat="48.19403" lon="3.2371">
        <ele>190</ele>
        <time>2011-05-15T09:12:05Z</time>
      </trkpt>
      <trkpt lat="48.19407" lon="3.23704">
        <ele>191</ele>
        <time>2011-05-15T09:12:09Z</time>
      </trkpt>
      <trkpt lat="48.19407" lon="3.23704">
        <ele>191</ele>
        <time>2011-05-15T09:12:09Z</time>
      </trkpt>
      <trkpt lat="48.19407" lon="3.23704">
        <ele>191</ele>
        <time>2011-05-15T09:12:14Z</time>
      </trkpt>
      <trkpt lat="48.19405" lon="3.23698">
        <ele>192</ele>
        <time>2011-05-15T09:12:42Z</time>
      </trkpt>
      <trkpt lat="48.19405" lon="3.23698">
        <ele>192</ele>
        <time>2011-05-15T09:12:42Z</time>
      </trkpt>
      <trkpt lat="48.19405" lon="3.23698">
        <ele>192</ele>
        <time>2011-05-15T09:12:46Z</time>
      </trkpt>
      <trkpt lat="48.19405" lon="3.23689">
        <ele>192</ele>
        <time>2011-05-15T09:13:34Z</time>
      </trkpt>
      <trkpt lat="48.19408" lon="3.2368">
        <ele>193</ele>
        <time>2011-05-15T09:13:37Z</time>
      </trkpt>
      <trkpt lat="48.1941" lon="3.23674">
        <ele>193</ele>
        <time>2011-05-15T09:13:39Z</time>
      </trkpt>
      <trkpt lat="48.19412" lon="3.23668">
        <ele>193</ele>
        <time>2011-05-15T09:13:41Z</time>
      </trkpt>
      <trkpt lat="48.19415" lon="3.23661">
        <ele>193</ele>
        <time>2011-05-15T09:13:43Z</time>
      </trkpt>
      <trkpt lat="48.19417" lon="3.23652">
        <ele>194</ele>
        <time>2011-05-15T09:13:46Z</time>
      </trkpt>
      <trkpt lat="48.19419" lon="3.23646">
        <ele>194</ele>
        <time>2011-05-15T09:13:48Z</time>
      </trkpt>
      <trkpt lat="48.19421" lon="3.23637">
        <ele>194</ele>
        <time>2011-05-15T09:13:50Z</time>
      </trkpt>
      <trkpt lat="48.19423" lon="3.23625">
        <ele>194</ele>
        <time>2011-05-15T09:13:53Z</time>
      </trkpt>
      <trkpt lat="48.19424" lon="3.23616">
        <ele>194</ele>
        <time>2011-05-15T09:13:55Z</time>
      </trkpt>
      <trkpt lat="48.19426" lon="3.23605">
        <ele>195</ele>
        <time>2011-05-15T09:13:57Z</time>
      </trkpt>
      <trkpt lat="48.19428" lon="3.23599">
        <ele>196</ele>
        <time>2011-05-15T09:13:58Z</time>
      </trkpt>
      <trkpt lat="48.19431" lon="3.23592">
        <ele>197</ele>
        <time>2011-05-15T09:13:59Z</time>
      </trkpt>
      <trkpt lat="48.19433" lon="3.23582">
        <ele>198</ele>
        <time>2011-05-15T09:14:00Z</time>
      </trkpt>
      <trkpt lat="48.19435" lon="3.23571">
        <ele>198</ele>
        <time>2011-05-15T09:14:01Z</time>
      </trkpt>
      <trkpt lat="48.19437" lon="3.23558">
        <ele>198</ele>
        <time>2011-05-15T09:14:02Z</time>
      </trkpt>
      <trkpt lat="48.19439" lon="3.23547">
        <ele>197</ele>
        <time>2011-05-15T09:14:03Z</time>
      </trkpt>
      <trkpt lat="48.19442" lon="3.23537">
        <ele>197</ele>
        <time>2011-05-15T09:14:04Z</time>
      </trkpt>
      <trkpt lat="48.19445" lon="3.23526">
        <ele>197</ele>
        <time>2011-05-15T09:14:05Z</time>
      </trkpt>
      <trkpt lat="48.19448" lon="3.23517">
        <ele>197</ele>
        <time>2011-05-15T09:14:06Z</time>
      </trkpt>
      <trkpt lat="48.19452" lon="3.23509">
        <ele>197</ele>
        <time>2011-05-15T09:14:07Z</time>
      </trkpt>
      <trkpt lat="48.19455" lon="3.235">
        <ele>197</ele>
        <time>2011-05-15T09:14:08Z</time>
      </trkpt>
      <trkpt lat="48.1946" lon="3.23494">
        <ele>197</ele>
        <time>2011-05-15T09:14:09Z</time>
      </trkpt>
      <trkpt lat="48.19465" lon="3.23487">
        <ele>197</ele>
        <time>2011-05-15T09:14:10Z</time>
      </trkpt>
      <trkpt lat="48.19469" lon="3.23481">
        <ele>197</ele>
        <time>2011-05-15T09:14:11Z</time>
      </trkpt>
      <trkpt lat="48.19474" lon="3.23479">
        <ele>197</ele>
        <time>2011-05-15T09:14:12Z</time>
      </trkpt>
      <trkpt lat="48.19479" lon="3.23472">
        <ele>197</ele>
        <time>2011-05-15T09:14:13Z</time>
      </trkpt>
      <trkpt lat="48.19485" lon="3.23468">
        <ele>197</ele>
        <time>2011-05-15T09:14:14Z</time>
      </trkpt>
      <trkpt lat="48.19491" lon="3.23462">
        <ele>197</ele>
        <time>2011-05-15T09:14:15Z</time>
      </trkpt>
      <trkpt lat="48.19497" lon="3.23453">
        <ele>197</ele>
        <time>2011-05-15T09:14:16Z</time>
      </trkpt>
      <trkpt lat="48.19502" lon="3.23444">
        <ele>196</ele>
        <time>2011-05-15T09:14:17Z</time>
      </trkpt>
      <trkpt lat="48.1951" lon="3.23434">
        <ele>195</ele>
        <time>2011-05-15T09:14:18Z</time>
      </trkpt>
      <trkpt lat="48.19516" lon="3.23425">
        <ele>195</ele>
        <time>2011-05-15T09:14:19Z</time>
      </trkpt>
      <trkpt lat="48.19523" lon="3.23414">
        <ele>194</ele>
        <time>2011-05-15T09:14:20Z</time>
      </trkpt>
      <trkpt lat="48.1953" lon="3.23406">
        <ele>192</ele>
        <time>2011-05-15T09:14:21Z</time>
      </trkpt>
      <trkpt lat="48.19538" lon="3.23397">
        <ele>191</ele>
        <time>2011-05-15T09:14:22Z</time>
      </trkpt>
      <trkpt lat="48.19546" lon="3.23388">
        <ele>190</ele>
        <time>2011-05-15T09:14:23Z</time>
      </trkpt>
      <trkpt lat="48.19554" lon="3.23382">
        <ele>188</ele>
        <time>2011-05-15T09:14:24Z</time>
      </trkpt>
      <trkpt lat="48.19562" lon="3.23376">
        <ele>187</ele>
        <time>2011-05-15T09:14:25Z</time>
      </trkpt>
      <trkpt lat="48.19569" lon="3.23369">
        <ele>186</ele>
        <time>2011-05-15T09:14:26Z</time>
      </trkpt>
      <trkpt lat="48.19577" lon="3.23365">
        <ele>185</ele>
        <time>2011-05-15T09:14:27Z</time>
      </trkpt>
      <trkpt lat="48.19584" lon="3.23361">
        <ele>185</ele>
        <time>2011-05-15T09:14:28Z</time>
      </trkpt>
      <trkpt lat="48.19592" lon="3.23354">
        <ele>184</ele>
        <time>2011-05-15T09:14:29Z</time>
      </trkpt>
      <trkpt lat="48.19599" lon="3.2335">
        <ele>183</ele>
        <time>2011-05-15T09:14:30Z</time>
      </trkpt>
      <trkpt lat="48.19606" lon="3.23346">
        <ele>182</ele>
        <time>2011-05-15T09:14:31Z</time>
      </trkpt>
      <trkpt lat="48.19613" lon="3.23344">
        <ele>181</ele>
        <time>2011-05-15T09:14:32Z</time>
      </trkpt>
      <trkpt lat="48.19621" lon="3.23339">
        <ele>180</ele>
        <time>2011-05-15T09:14:33Z</time>
      </trkpt>
      <trkpt lat="48.19627" lon="3.23335">
        <ele>179</ele>
        <time>2011-05-15T09:14:34Z</time>
      </trkpt>
      <trkpt lat="48.19634" lon="3.23328">
        <ele>178</ele>
        <time>2011-05-15T09:14:35Z</time>
      </trkpt>
      <trkpt lat="48.1964" lon="3.23322">
        <ele>178</ele>
        <time>2011-05-15T09:14:36Z</time>
      </trkpt>
      <trkpt lat="48.19645" lon="3.23316">
        <ele>177</ele>
        <time>2011-05-15T09:14:37Z</time>
      </trkpt>
      <trkpt lat="48.19651" lon="3.23309">
        <ele>176</ele>
        <time>2011-05-15T09:14:38Z</time>
      </trkpt>
      <trkpt lat="48.19656" lon="3.23303">
        <ele>175</ele>
        <time>2011-05-15T09:14:39Z</time>
      </trkpt>
      <trkpt lat="48.19661" lon="3.23292">
        <ele>175</ele>
        <time>2011-05-15T09:14:41Z</time>
      </trkpt>
      <trkpt lat="48.19666" lon="3.23283">
        <ele>174</ele>
        <time>2011-05-15T09:14:43Z</time>
      </trkpt>
      <trkpt lat="48.19669" lon="3.23275">
        <ele>174</ele>
        <time>2011-05-15T09:14:45Z</time>
      </trkpt>
      <trkpt lat="48.19672" lon="3.23264">
        <ele>174</ele>
        <time>2011-05-15T09:14:47Z</time>
      </trkpt>
      <trkpt lat="48.19675" lon="3.23253">
        <ele>174</ele>
        <time>2011-05-15T09:14:49Z</time>
      </trkpt>
      <trkpt lat="48.19677" lon="3.23245">
        <ele>174</ele>
        <time>2011-05-15T09:14:51Z</time>
      </trkpt>
      <trkpt lat="48.19682" lon="3.2323">
        <ele>174</ele>
        <time>2011-05-15T09:14:56Z</time>
      </trkpt>
      <trkpt lat="48.19682" lon="3.2323">
        <ele>174</ele>
        <time>2011-05-15T09:14:56Z</time>
      </trkpt>
      <trkpt lat="48.19682" lon="3.2323">
        <ele>174</ele>
        <time>2011-05-15T09:15:00Z</time>
      </trkpt>
      <trkpt lat="48.19687" lon="3.23217">
        <ele>173</ele>
        <time>2011-05-15T09:15:01Z</time>
      </trkpt>
      <trkpt lat="48.19687" lon="3.23217">
        <ele>173</ele>
        <time>2011-05-15T09:15:01Z</time>
      </trkpt>
      <trkpt lat="48.19687" lon="3.23217">
        <ele>173</ele>
        <time>2011-05-15T09:15:03Z</time>
      </trkpt>
      <trkpt lat="48.19689" lon="3.2321">
        <ele>173</ele>
        <time>2011-05-15T09:15:04Z</time>
      </trkpt>
      <trkpt lat="48.19689" lon="3.2321">
        <ele>173</ele>
        <time>2011-05-15T09:15:04Z</time>
      </trkpt>
      <trkpt lat="48.19689" lon="3.2321">
        <ele>173</ele>
        <time>2011-05-15T09:15:07Z</time>
      </trkpt>
      <trkpt lat="48.19692" lon="3.23202">
        <ele>173</ele>
        <time>2011-05-15T09:15:08Z</time>
      </trkpt>
      <trkpt lat="48.19692" lon="3.23202">
        <ele>173</ele>
        <time>2011-05-15T09:15:08Z</time>
      </trkpt>
      <trkpt lat="48.19692" lon="3.23202">
        <ele>173</ele>
        <time>2011-05-15T09:15:10Z</time>
      </trkpt>
      <trkpt lat="48.19696" lon="3.23195">
        <ele>173</ele>
        <time>2011-05-15T09:15:11Z</time>
      </trkpt>
      <trkpt lat="48.19696" lon="3.23195">
        <ele>173</ele>
        <time>2011-05-15T09:15:11Z</time>
      </trkpt>
      <trkpt lat="48.19696" lon="3.23195">
        <ele>173</ele>
        <time>2011-05-15T09:15:21Z</time>
      </trkpt>
      <trkpt lat="48.19696" lon="3.23187">
        <ele>173</ele>
        <time>2011-05-15T09:15:22Z</time>
      </trkpt>
      <trkpt lat="48.19696" lon="3.23187">
        <ele>173</ele>
        <time>2011-05-15T09:15:22Z</time>
      </trkpt>
      <trkpt lat="48.19696" lon="3.23187">
        <ele>173</ele>
        <time>2011-05-15T09:15:24Z</time>
      </trkpt>
      <trkpt lat="48.19698" lon="3.23176">
        <ele>173</ele>
        <time>2011-05-15T09:15:29Z</time>
      </trkpt>
      <trkpt lat="48.19698" lon="3.23176">
        <ele>173</ele>
        <time>2011-05-15T09:15:29Z</time>
      </trkpt>
      <trkpt lat="48.19698" lon="3.23176">
        <ele>173</ele>
        <time>2011-05-15T09:15:31Z</time>
      </trkpt>
      <trkpt lat="48.19701" lon="3.23163">
        <ele>173</ele>
        <time>2011-05-15T09:15:36Z</time>
      </trkpt>
      <trkpt lat="48.19701" lon="3.23163">
        <ele>173</ele>
        <time>2011-05-15T09:15:36Z</time>
      </trkpt>
      <trkpt lat="48.19701" lon="3.23163">
        <ele>173</ele>
        <time>2011-05-15T09:15:39Z</time>
      </trkpt>
      <trkpt lat="48.19703" lon="3.23157">
        <ele>173</ele>
        <time>2011-05-15T09:15:40Z</time>
      </trkpt>
      <trkpt lat="48.19703" lon="3.23157">
        <ele>173</ele>
        <time>2011-05-15T09:15:40Z</time>
      </trkpt>
      <trkpt lat="48.19703" lon="3.23157">
        <ele>173</ele>
        <time>2011-05-15T09:15:41Z</time>
      </trkpt>
      <trkpt lat="48.19708" lon="3.23146">
        <ele>173</ele>
        <time>2011-05-15T09:15:46Z</time>
      </trkpt>
      <trkpt lat="48.19708" lon="3.23146">
        <ele>173</ele>
        <time>2011-05-15T09:15:46Z</time>
      </trkpt>
      <trkpt lat="48.19708" lon="3.23146">
        <ele>173</ele>
        <time>2011-05-15T09:15:48Z</time>
      </trkpt>
      <trkpt lat="48.19713" lon="3.23133">
        <ele>173</ele>
        <time>2011-05-15T09:15:52Z</time>
      </trkpt>
      <trkpt lat="48.19713" lon="3.23133">
        <ele>173</ele>
        <time>2011-05-15T09:15:52Z</time>
      </trkpt>
      <trkpt lat="48.19713" lon="3.23133">
        <ele>173</ele>
        <time>2011-05-15T09:15:54Z</time>
      </trkpt>
      <trkpt lat="48.19716" lon="3.23127">
        <ele>173</ele>
        <time>2011-05-15T09:15:55Z</time>
      </trkpt>
      <trkpt lat="48.19716" lon="3.23127">
        <ele>173</ele>
        <time>2011-05-15T09:15:55Z</time>
      </trkpt>
      <trkpt lat="48.19716" lon="3.23127">
        <ele>173</ele>
        <time>2011-05-15T09:15:59Z</time>
      </trkpt>
      <trkpt lat="48.19722" lon="3.23116">
        <ele>174</ele>
        <time>2011-05-15T09:16:00Z</time>
      </trkpt>
      <trkpt lat="48.19722" lon="3.23116">
        <ele>174</ele>
        <time>2011-05-15T09:16:00Z</time>
      </trkpt>
      <trkpt lat="48.19722" lon="3.23116">
        <ele>174</ele>
        <time>2011-05-15T09:16:03Z</time>
      </trkpt>
      <trkpt lat="48.19725" lon="3.2311">
        <ele>174</ele>
        <time>2011-05-15T09:16:04Z</time>
      </trkpt>
      <trkpt lat="48.19725" lon="3.2311">
        <ele>174</ele>
        <time>2011-05-15T09:16:04Z</time>
      </trkpt>
      <trkpt lat="48.19725" lon="3.2311">
        <ele>174</ele>
        <time>2011-05-15T09:16:07Z</time>
      </trkpt>
      <trkpt lat="48.19727" lon="3.23103">
        <ele>174</ele>
        <time>2011-05-15T09:16:08Z</time>
      </trkpt>
      <trkpt lat="48.19727" lon="3.23103">
        <ele>174</ele>
        <time>2011-05-15T09:16:08Z</time>
      </trkpt>
      <trkpt lat="48.19727" lon="3.23103">
        <ele>174</ele>
        <time>2011-05-15T09:16:12Z</time>
      </trkpt>
      <trkpt lat="48.1973" lon="3.23097">
        <ele>175</ele>
        <time>2011-05-15T09:16:13Z</time>
      </trkpt>
      <trkpt lat="48.1973" lon="3.23097">
        <ele>175</ele>
        <time>2011-05-15T09:16:13Z</time>
      </trkpt>
      <trkpt lat="48.1973" lon="3.23097">
        <ele>175</ele>
        <time>2011-05-15T09:16:17Z</time>
      </trkpt>
      <trkpt lat="48.19733" lon="3.23088">
        <ele>176</ele>
        <time>2011-05-15T09:16:18Z</time>
      </trkpt>
      <trkpt lat="48.19733" lon="3.23088">
        <ele>176</ele>
        <time>2011-05-15T09:16:18Z</time>
      </trkpt>
      <trkpt lat="48.19733" lon="3.23088">
        <ele>176</ele>
        <time>2011-05-15T09:16:22Z</time>
      </trkpt>
      <trkpt lat="48.19735" lon="3.23082">
        <ele>176</ele>
        <time>2011-05-15T09:16:23Z</time>
      </trkpt>
      <trkpt lat="48.19735" lon="3.23082">
        <ele>176</ele>
        <time>2011-05-15T09:16:23Z</time>
      </trkpt>
      <trkpt lat="48.19735" lon="3.23082">
        <ele>176</ele>
        <time>2011-05-15T09:16:29Z</time>
      </trkpt>
      <trkpt lat="48.1974" lon="3.23073">
        <ele>177</ele>
        <time>2011-05-15T09:16:30Z</time>
      </trkpt>
      <trkpt lat="48.1974" lon="3.23073">
        <ele>177</ele>
        <time>2011-05-15T09:16:30Z</time>
      </trkpt>
      <trkpt lat="48.1974" lon="3.23073">
        <ele>177</ele>
        <time>2011-05-15T09:16:35Z</time>
      </trkpt>
      <trkpt lat="48.19744" lon="3.23067">
        <ele>178</ele>
        <time>2011-05-15T09:16:36Z</time>
      </trkpt>
      <trkpt lat="48.19744" lon="3.23067">
        <ele>178</ele>
        <time>2011-05-15T09:16:36Z</time>
      </trkpt>
      <trkpt lat="48.19744" lon="3.23067">
        <ele>178</ele>
        <time>2011-05-15T09:16:46Z</time>
      </trkpt>
      <trkpt lat="48.1975" lon="3.23056">
        <ele>180</ele>
        <time>2011-05-15T09:16:47Z</time>
      </trkpt>
      <trkpt lat="48.1975" lon="3.23056">
        <ele>180</ele>
        <time>2011-05-15T09:16:47Z</time>
      </trkpt>
      <trkpt lat="48.1975" lon="3.23056">
        <ele>180</ele>
        <time>2011-05-15T09:16:56Z</time>
      </trkpt>
      <trkpt lat="48.19756" lon="3.23043">
        <ele>181</ele>
        <time>2011-05-15T09:16:57Z</time>
      </trkpt>
      <trkpt lat="48.19756" lon="3.23043">
        <ele>181</ele>
        <time>2011-05-15T09:16:57Z</time>
      </trkpt>
      <trkpt lat="48.19756" lon="3.23043">
        <ele>181</ele>
        <time>2011-05-15T09:17:01Z</time>
      </trkpt>
      <trkpt lat="48.19759" lon="3.23037">
        <ele>182</ele>
        <time>2011-05-15T09:17:02Z</time>
      </trkpt>
      <trkpt lat="48.19759" lon="3.23037">
        <ele>182</ele>
        <time>2011-05-15T09:17:02Z</time>
      </trkpt>
      <trkpt lat="48.19759" lon="3.23037">
        <ele>182</ele>
        <time>2011-05-15T09:17:06Z</time>
      </trkpt>
      <trkpt lat="48.19761" lon="3.2303">
        <ele>183</ele>
        <time>2011-05-15T09:17:07Z</time>
      </trkpt>
      <trkpt lat="48.19761" lon="3.2303">
        <ele>183</ele>
        <time>2011-05-15T09:17:07Z</time>
      </trkpt>
      <trkpt lat="48.19761" lon="3.2303">
        <ele>183</ele>
        <time>2011-05-15T09:17:41Z</time>
      </trkpt>
      <trkpt lat="48.19764" lon="3.23024">
        <ele>186</ele>
        <time>2011-05-15T09:17:46Z</time>
      </trkpt>
      <trkpt lat="48.19769" lon="3.2302">
        <ele>188</ele>
        <time>2011-05-15T09:17:50Z</time>
      </trkpt>
      <trkpt lat="48.19773" lon="3.23013">
        <ele>189</ele>
        <time>2011-05-15T09:17:54Z</time>
      </trkpt>
      <trkpt lat="48.19777" lon="3.23011">
        <ele>190</ele>
        <time>2011-05-15T09:17:57Z</time>
      </trkpt>
      <trkpt lat="48.19782" lon="3.23004">
        <ele>191</ele>
        <time>2011-05-15T09:18:00Z</time>
      </trkpt>
      <trkpt lat="48.19785" lon="3.22998">
        <ele>191</ele>
        <time>2011-05-15T09:18:02Z</time>
      </trkpt>
      <trkpt lat="48.1979" lon="3.22994">
        <ele>193</ele>
        <time>2011-05-15T09:18:05Z</time>
      </trkpt>
      <trkpt lat="48.19794" lon="3.22989">
        <ele>194</ele>
        <time>2011-05-15T09:18:08Z</time>
      </trkpt>
      <trkpt lat="48.19799" lon="3.22983">
        <ele>195</ele>
        <time>2011-05-15T09:18:14Z</time>
      </trkpt>
      <trkpt lat="48.19799" lon="3.22983">
        <ele>195</ele>
        <time>2011-05-15T09:18:14Z</time>
      </trkpt>
      <trkpt lat="48.19799" lon="3.22983">
        <ele>195</ele>
        <time>2011-05-15T09:18:15Z</time>
      </trkpt>
      <trkpt lat="48.19802" lon="3.22976">
        <ele>196</ele>
        <time>2011-05-15T09:18:18Z</time>
      </trkpt>
      <trkpt lat="48.19805" lon="3.2297">
        <ele>197</ele>
        <time>2011-05-15T09:18:21Z</time>
      </trkpt>
      <trkpt lat="48.19809" lon="3.22964">
        <ele>198</ele>
        <time>2011-05-15T09:18:25Z</time>
      </trkpt>
      <trkpt lat="48.19813" lon="3.22957">
        <ele>199</ele>
        <time>2011-05-15T09:18:28Z</time>
      </trkpt>
      <trkpt lat="48.19815" lon="3.22951">
        <ele>200</ele>
        <time>2011-05-15T09:18:30Z</time>
      </trkpt>
      <trkpt lat="48.19818" lon="3.22944">
        <ele>201</ele>
        <time>2011-05-15T09:18:33Z</time>
      </trkpt>
      <trkpt lat="48.19821" lon="3.22938">
        <ele>202</ele>
        <time>2011-05-15T09:18:36Z</time>
      </trkpt>
      <trkpt lat="48.19826" lon="3.22932">
        <ele>202</ele>
        <time>2011-05-15T09:18:39Z</time>
      </trkpt>
      <trkpt lat="48.19828" lon="3.22925">
        <ele>203</ele>
        <time>2011-05-15T09:18:41Z</time>
      </trkpt>
      <trkpt lat="48.19831" lon="3.22916">
        <ele>204</ele>
        <time>2011-05-15T09:18:44Z</time>
      </trkpt>
      <trkpt lat="48.19833" lon="3.2291">
        <ele>204</ele>
        <time>2011-05-15T09:18:46Z</time>
      </trkpt>
      <trkpt lat="48.19835" lon="3.22904">
        <ele>205</ele>
        <time>2011-05-15T09:18:48Z</time>
      </trkpt>
      <trkpt lat="48.19839" lon="3.22897">
        <ele>206</ele>
        <time>2011-05-15T09:18:51Z</time>
      </trkpt>
      <trkpt lat="48.19844" lon="3.22891">
        <ele>206</ele>
        <time>2011-05-15T09:18:54Z</time>
      </trkpt>
      <trkpt lat="48.19848" lon="3.22886">
        <ele>207</ele>
        <time>2011-05-15T09:18:59Z</time>
      </trkpt>
      <trkpt lat="48.1985" lon="3.2288">
        <ele>208</ele>
        <time>2011-05-15T09:19:20Z</time>
      </trkpt>
      <trkpt lat="48.1985" lon="3.2288">
        <ele>208</ele>
        <time>2011-05-15T09:19:20Z</time>
      </trkpt>
      <trkpt lat="48.1985" lon="3.2288">
        <ele>208</ele>
        <time>2011-05-15T09:19:22Z</time>
      </trkpt>
      <trkpt lat="48.19848" lon="3.22874">
        <ele>208</ele>
        <time>2011-05-15T09:19:30Z</time>
      </trkpt>
      <trkpt lat="48.19848" lon="3.22874">
        <ele>208</ele>
        <time>2011-05-15T09:19:30Z</time>
      </trkpt>
      <trkpt lat="48.19848" lon="3.22874">
        <ele>208</ele>
        <time>2011-05-15T09:20:05Z</time>
      </trkpt>
      <trkpt lat="48.19849" lon="3.22865">
        <ele>208</ele>
        <time>2011-05-15T09:20:47Z</time>
      </trkpt>
      <trkpt lat="48.1985" lon="3.22856">
        <ele>208</ele>
        <time>2011-05-15T09:20:50Z</time>
      </trkpt>
      <trkpt lat="48.19851" lon="3.22848">
        <ele>208</ele>
        <time>2011-05-15T09:20:53Z</time>
      </trkpt>
      <trkpt lat="48.19853" lon="3.22839">
        <ele>208</ele>
        <time>2011-05-15T09:20:56Z</time>
      </trkpt>
      <trkpt lat="48.19854" lon="3.22831">
        <ele>208</ele>
        <time>2011-05-15T09:20:59Z</time>
      </trkpt>
      <trkpt lat="48.19857" lon="3.22824">
        <ele>208</ele>
        <time>2011-05-15T09:21:01Z</time>
      </trkpt>
      <trkpt lat="48.1986" lon="3.22814">
        <ele>209</ele>
        <time>2011-05-15T09:21:03Z</time>
      </trkpt>
      <trkpt lat="48.19863" lon="3.22805">
        <ele>209</ele>
        <time>2011-05-15T09:21:05Z</time>
      </trkpt>
      <trkpt lat="48.19867" lon="3.22796">
        <ele>209</ele>
        <time>2011-05-15T09:21:07Z</time>
      </trkpt>
      <trkpt lat="48.1987" lon="3.22788">
        <ele>209</ele>
        <time>2011-05-15T09:21:09Z</time>
      </trkpt>
      <trkpt lat="48.19874" lon="3.22779">
        <ele>209</ele>
        <time>2011-05-15T09:21:11Z</time>
      </trkpt>
      <trkpt lat="48.19877" lon="3.2277">
        <ele>209</ele>
        <time>2011-05-15T09:21:13Z</time>
      </trkpt>
      <trkpt lat="48.19879" lon="3.22762">
        <ele>209</ele>
        <time>2011-05-15T09:21:15Z</time>
      </trkpt>
      <trkpt lat="48.19881" lon="3.22753">
        <ele>209</ele>
        <time>2011-05-15T09:21:17Z</time>
      </trkpt>
      <trkpt lat="48.19883" lon="3.22745">
        <ele>209</ele>
        <time>2011-05-15T09:21:19Z</time>
      </trkpt>
      <trkpt lat="48.19884" lon="3.22736">
        <ele>209</ele>
        <time>2011-05-15T09:21:21Z</time>
      </trkpt>
      <trkpt lat="48.19886" lon="3.22723">
        <ele>209</ele>
        <time>2011-05-15T09:21:23Z</time>
      </trkpt>
      <trkpt lat="48.19887" lon="3.22713">
        <ele>209</ele>
        <time>2011-05-15T09:21:25Z</time>
      </trkpt>
      <trkpt lat="48.19887" lon="3.22702">
        <ele>209</ele>
        <time>2011-05-15T09:21:27Z</time>
      </trkpt>
      <trkpt lat="48.19887" lon="3.22691">
        <ele>209</ele>
        <time>2011-05-15T09:21:29Z</time>
      </trkpt>
      <trkpt lat="48.19887" lon="3.2268">
        <ele>209</ele>
        <time>2011-05-15T09:21:31Z</time>
      </trkpt>
      <trkpt lat="48.19887" lon="3.2267">
        <ele>209</ele>
        <time>2011-05-15T09:21:33Z</time>
      </trkpt>
      <trkpt lat="48.19886" lon="3.22659">
        <ele>209</ele>
        <time>2011-05-15T09:21:35Z</time>
      </trkpt>
      <trkpt lat="48.19886" lon="3.22648">
        <ele>209</ele>
        <time>2011-05-15T09:21:37Z</time>
      </trkpt>
      <trkpt lat="48.19884" lon="3.22638">
        <ele>210</ele>
        <time>2011-05-15T09:21:39Z</time>
      </trkpt>
      <trkpt lat="48.19884" lon="3.22627">
        <ele>210</ele>
        <time>2011-05-15T09:21:41Z</time>
      </trkpt>
      <trkpt lat="48.19884" lon="3.22616">
        <ele>210</ele>
        <time>2011-05-15T09:21:43Z</time>
      </trkpt>
      <trkpt lat="48.19886" lon="3.22605">
        <ele>210</ele>
        <time>2011-05-15T09:21:45Z</time>
      </trkpt>
      <trkpt lat="48.19888" lon="3.22597">
        <ele>210</ele>
        <time>2011-05-15T09:21:47Z</time>
      </trkpt>
      <trkpt lat="48.19891" lon="3.22588">
        <ele>210</ele>
        <time>2011-05-15T09:21:49Z</time>
      </trkpt>
      <trkpt lat="48.19894" lon="3.2258">
        <ele>210</ele>
        <time>2011-05-15T09:21:51Z</time>
      </trkpt>
      <trkpt lat="48.19898" lon="3.22571">
        <ele>210</ele>
        <time>2011-05-15T09:21:53Z</time>
      </trkpt>
      <trkpt lat="48.19902" lon="3.22562">
        <ele>210</ele>
        <time>2011-05-15T09:21:55Z</time>
      </trkpt>
      <trkpt lat="48.19907" lon="3.22554">
        <ele>210</ele>
        <time>2011-05-15T09:21:57Z</time>
      </trkpt>
      <trkpt lat="48.19911" lon="3.22545">
        <ele>210</ele>
        <time>2011-05-15T09:21:59Z</time>
      </trkpt>
      <trkpt lat="48.19916" lon="3.22537">
        <ele>210</ele>
        <time>2011-05-15T09:22:01Z</time>
      </trkpt>
      <trkpt lat="48.1992" lon="3.22526">
        <ele>210</ele>
        <time>2011-05-15T09:22:03Z</time>
      </trkpt>
      <trkpt lat="48.19924" lon="3.22517">
        <ele>210</ele>
        <time>2011-05-15T09:22:05Z</time>
      </trkpt>
      <trkpt lat="48.19928" lon="3.22509">
        <ele>210</ele>
        <time>2011-05-15T09:22:07Z</time>
      </trkpt>
      <trkpt lat="48.19931" lon="3.22502">
        <ele>210</ele>
        <time>2011-05-15T09:22:08Z</time>
      </trkpt>
      <trkpt lat="48.19935" lon="3.22494">
        <ele>210</ele>
        <time>2011-05-15T09:22:10Z</time>
      </trkpt>
      <trkpt lat="48.19939" lon="3.22483">
        <ele>211</ele>
        <time>2011-05-15T09:22:12Z</time>
      </trkpt>
      <trkpt lat="48.19944" lon="3.22474">
        <ele>211</ele>
        <time>2011-05-15T09:22:14Z</time>
      </trkpt>
      <trkpt lat="48.19946" lon="3.22468">
        <ele>212</ele>
        <time>2011-05-15T09:22:15Z</time>
      </trkpt>
      <trkpt lat="48.19951" lon="3.22459">
        <ele>212</ele>
        <time>2011-05-15T09:22:17Z</time>
      </trkpt>
      <trkpt lat="48.19953" lon="3.22453">
        <ele>212</ele>
        <time>2011-05-15T09:22:18Z</time>
      </trkpt>
      <trkpt lat="48.19957" lon="3.22442">
        <ele>212</ele>
        <time>2011-05-15T09:22:20Z</time>
      </trkpt>
      <trkpt lat="48.19961" lon="3.22436">
        <ele>212</ele>
        <time>2011-05-15T09:22:21Z</time>
      </trkpt>
      <trkpt lat="48.19965" lon="3.22425">
        <ele>212</ele>
        <time>2011-05-15T09:22:23Z</time>
      </trkpt>
      <trkpt lat="48.1997" lon="3.22414">
        <ele>212</ele>
        <time>2011-05-15T09:22:25Z</time>
      </trkpt>
      <trkpt lat="48.19975" lon="3.22404">
        <ele>212</ele>
        <time>2011-05-15T09:22:27Z</time>
      </trkpt>
      <trkpt lat="48.19979" lon="3.22393">
        <ele>212</ele>
        <time>2011-05-15T09:22:29Z</time>
      </trkpt>
      <trkpt lat="48.19983" lon="3.22384">
        <ele>212</ele>
        <time>2011-05-15T09:22:31Z</time>
      </trkpt>
      <trkpt lat="48.19985" lon="3.22378">
        <ele>212</ele>
        <time>2011-05-15T09:22:32Z</time>
      </trkpt>
      <trkpt lat="48.1999" lon="3.22367">
        <ele>212</ele>
        <time>2011-05-15T09:22:34Z</time>
      </trkpt>
      <trkpt lat="48.19994" lon="3.22359">
        <ele>212</ele>
        <time>2011-05-15T09:22:36Z</time>
      </trkpt>
      <trkpt lat="48.19998" lon="3.22348">
        <ele>212</ele>
        <time>2011-05-15T09:22:38Z</time>
      </trkpt>
      <trkpt lat="48.20002" lon="3.22339">
        <ele>212</ele>
        <time>2011-05-15T09:22:40Z</time>
      </trkpt>
      <trkpt lat="48.20007" lon="3.22331">
        <ele>212</ele>
        <time>2011-05-15T09:22:42Z</time>
      </trkpt>
      <trkpt lat="48.20009" lon="3.22324">
        <ele>212</ele>
        <time>2011-05-15T09:22:43Z</time>
      </trkpt>
      <trkpt lat="48.20013" lon="3.22316">
        <ele>212</ele>
        <time>2011-05-15T09:22:45Z</time>
      </trkpt>
      <trkpt lat="48.20016" lon="3.22305">
        <ele>213</ele>
        <time>2011-05-15T09:22:47Z</time>
      </trkpt>
      <trkpt lat="48.20019" lon="3.22298">
        <ele>213</ele>
        <time>2011-05-15T09:22:48Z</time>
      </trkpt>
      <trkpt lat="48.20023" lon="3.22288">
        <ele>213</ele>
        <time>2011-05-15T09:22:50Z</time>
      </trkpt>
      <trkpt lat="48.20025" lon="3.22281">
        <ele>213</ele>
        <time>2011-05-15T09:22:51Z</time>
      </trkpt>
      <trkpt lat="48.20028" lon="3.22271">
        <ele>213</ele>
        <time>2011-05-15T09:22:53Z</time>
      </trkpt>
      <trkpt lat="48.20032" lon="3.2226">
        <ele>213</ele>
        <time>2011-05-15T09:22:55Z</time>
      </trkpt>
      <trkpt lat="48.20035" lon="3.22249">
        <ele>213</ele>
        <time>2011-05-15T09:22:57Z</time>
      </trkpt>
      <trkpt lat="48.20037" lon="3.22243">
        <ele>213</ele>
        <time>2011-05-15T09:22:58Z</time>
      </trkpt>
      <trkpt lat="48.2004" lon="3.22232">
        <ele>214</ele>
        <time>2011-05-15T09:23:00Z</time>
      </trkpt>
      <trkpt lat="48.20043" lon="3.22219">
        <ele>214</ele>
        <time>2011-05-15T09:23:02Z</time>
      </trkpt>
      <trkpt lat="48.20046" lon="3.22208">
        <ele>214</ele>
        <time>2011-05-15T09:23:04Z</time>
      </trkpt>
      <trkpt lat="48.20049" lon="3.22202">
        <ele>214</ele>
        <time>2011-05-15T09:23:05Z</time>
      </trkpt>
      <trkpt lat="48.20051" lon="3.22191">
        <ele>214</ele>
        <time>2011-05-15T09:23:07Z</time>
      </trkpt>
      <trkpt lat="48.20053" lon="3.22185">
        <ele>214</ele>
        <time>2011-05-15T09:23:08Z</time>
      </trkpt>
      <trkpt lat="48.20055" lon="3.22172">
        <ele>214</ele>
        <time>2011-05-15T09:23:10Z</time>
      </trkpt>
      <trkpt lat="48.20057" lon="3.22159">
        <ele>215</ele>
        <time>2011-05-15T09:23:12Z</time>
      </trkpt>
      <trkpt lat="48.20059" lon="3.22148">
        <ele>215</ele>
        <time>2011-05-15T09:23:14Z</time>
      </trkpt>
      <trkpt lat="48.20062" lon="3.22138">
        <ele>215</ele>
        <time>2011-05-15T09:23:16Z</time>
      </trkpt>
      <trkpt lat="48.20063" lon="3.22127">
        <ele>215</ele>
        <time>2011-05-15T09:23:18Z</time>
      </trkpt>
      <trkpt lat="48.20065" lon="3.2212">
        <ele>215</ele>
        <time>2011-05-15T09:23:20Z</time>
      </trkpt>
      <trkpt lat="48.20066" lon="3.2211">
        <ele>215</ele>
        <time>2011-05-15T09:23:23Z</time>
      </trkpt>
      <trkpt lat="48.20068" lon="3.22101">
        <ele>215</ele>
        <time>2011-05-15T09:23:25Z</time>
      </trkpt>
      <trkpt lat="48.2007" lon="3.2209">
        <ele>215</ele>
        <time>2011-05-15T09:23:28Z</time>
      </trkpt>
      <trkpt lat="48.20072" lon="3.22082">
        <ele>215</ele>
        <time>2011-05-15T09:23:30Z</time>
      </trkpt>
      <trkpt lat="48.20074" lon="3.22075">
        <ele>215</ele>
        <time>2011-05-15T09:23:32Z</time>
      </trkpt>
      <trkpt lat="48.20076" lon="3.22067">
        <ele>215</ele>
        <time>2011-05-15T09:23:34Z</time>
      </trkpt>
      <trkpt lat="48.20078" lon="3.22058">
        <ele>216</ele>
        <time>2011-05-15T09:23:36Z</time>
      </trkpt>
      <trkpt lat="48.2008" lon="3.2205">
        <ele>216</ele>
        <time>2011-05-15T09:23:38Z</time>
      </trkpt>
      <trkpt lat="48.20082" lon="3.22041">
        <ele>216</ele>
        <time>2011-05-15T09:23:40Z</time>
      </trkpt>
      <trkpt lat="48.20084" lon="3.22032">
        <ele>216</ele>
        <time>2011-05-15T09:23:42Z</time>
      </trkpt>
      <trkpt lat="48.20086" lon="3.22024">
        <ele>216</ele>
        <time>2011-05-15T09:23:44Z</time>
      </trkpt>
      <trkpt lat="48.20088" lon="3.22015">
        <ele>216</ele>
        <time>2011-05-15T09:23:46Z</time>
      </trkpt>
      <trkpt lat="48.2009" lon="3.22004">
        <ele>216</ele>
        <time>2011-05-15T09:23:48Z</time>
      </trkpt>
      <trkpt lat="48.20093" lon="3.21996">
        <ele>216</ele>
        <time>2011-05-15T09:23:50Z</time>
      </trkpt>
      <trkpt lat="48.20095" lon="3.21987">
        <ele>216</ele>
        <time>2011-05-15T09:23:52Z</time>
      </trkpt>
      <trkpt lat="48.20097" lon="3.21981">
        <ele>217</ele>
        <time>2011-05-15T09:23:54Z</time>
      </trkpt>
      <trkpt lat="48.201" lon="3.21972">
        <ele>217</ele>
        <time>2011-05-15T09:23:56Z</time>
      </trkpt>
      <trkpt lat="48.20102" lon="3.21964">
        <ele>217</ele>
        <time>2011-05-15T09:23:58Z</time>
      </trkpt>
      <trkpt lat="48.20106" lon="3.21955">
        <ele>217</ele>
        <time>2011-05-15T09:24:00Z</time>
      </trkpt>
      <trkpt lat="48.20108" lon="3.21947">
        <ele>218</ele>
        <time>2011-05-15T09:24:02Z</time>
      </trkpt>
      <trkpt lat="48.20111" lon="3.21938">
        <ele>218</ele>
        <time>2011-05-15T09:24:04Z</time>
      </trkpt>
      <trkpt lat="48.20114" lon="3.21929">
        <ele>218</ele>
        <time>2011-05-15T09:24:06Z</time>
      </trkpt>
      <trkpt lat="48.20116" lon="3.21919">
        <ele>218</ele>
        <time>2011-05-15T09:24:08Z</time>
      </trkpt>
      <trkpt lat="48.20118" lon="3.21908">
        <ele>218</ele>
        <time>2011-05-15T09:24:10Z</time>
      </trkpt>
      <trkpt lat="48.2012" lon="3.21899">
        <ele>218</ele>
        <time>2011-05-15T09:24:12Z</time>
      </trkpt>
      <trkpt lat="48.20123" lon="3.21889">
        <ele>219</ele>
        <time>2011-05-15T09:24:14Z</time>
      </trkpt>
      <trkpt lat="48.20125" lon="3.2188">
        <ele>219</ele>
        <time>2011-05-15T09:24:16Z</time>
      </trkpt>
      <trkpt lat="48.20127" lon="3.21872">
        <ele>219</ele>
        <time>2011-05-15T09:24:18Z</time>
      </trkpt>
      <trkpt lat="48.20128" lon="3.21861">
        <ele>219</ele>
        <time>2011-05-15T09:24:20Z</time>
      </trkpt>
      <trkpt lat="48.2013" lon="3.21852">
        <ele>219</ele>
        <time>2011-05-15T09:24:22Z</time>
      </trkpt>
      <trkpt lat="48.20131" lon="3.21844">
        <ele>219</ele>
        <time>2011-05-15T09:24:24Z</time>
      </trkpt>
      <trkpt lat="48.20133" lon="3.21835">
        <ele>219</ele>
        <time>2011-05-15T09:24:26Z</time>
      </trkpt>
      <trkpt lat="48.20134" lon="3.21826">
        <ele>220</ele>
        <time>2011-05-15T09:24:28Z</time>
      </trkpt>
      <trkpt lat="48.20137" lon="3.21816">
        <ele>220</ele>
        <time>2011-05-15T09:24:30Z</time>
      </trkpt>
      <trkpt lat="48.20139" lon="3.21807">
        <ele>220</ele>
        <time>2011-05-15T09:24:32Z</time>
      </trkpt>
      <trkpt lat="48.20141" lon="3.21798">
        <ele>220</ele>
        <time>2011-05-15T09:24:34Z</time>
      </trkpt>
      <trkpt lat="48.20142" lon="3.21788">
        <ele>220</ele>
        <time>2011-05-15T09:24:36Z</time>
      </trkpt>
      <trkpt lat="48.20144" lon="3.21779">
        <ele>220</ele>
        <time>2011-05-15T09:24:38Z</time>
      </trkpt>
      <trkpt lat="48.20146" lon="3.21768">
        <ele>220</ele>
        <time>2011-05-15T09:24:40Z</time>
      </trkpt>
      <trkpt lat="48.20147" lon="3.21758">
        <ele>220</ele>
        <time>2011-05-15T09:24:42Z</time>
      </trkpt>
      <trkpt lat="48.2015" lon="3.21747">
        <ele>220</ele>
        <time>2011-05-15T09:24:44Z</time>
      </trkpt>
      <trkpt lat="48.20152" lon="3.21738">
        <ele>220</ele>
        <time>2011-05-15T09:24:46Z</time>
      </trkpt>
      <trkpt lat="48.20154" lon="3.21732">
        <ele>220</ele>
        <time>2011-05-15T09:24:47Z</time>
      </trkpt>
      <trkpt lat="48.20156" lon="3.21721">
        <ele>220</ele>
        <time>2011-05-15T09:24:49Z</time>
      </trkpt>
      <trkpt lat="48.20157" lon="3.21713">
        <ele>220</ele>
        <time>2011-05-15T09:24:51Z</time>
      </trkpt>
      <trkpt lat="48.20158" lon="3.21702">
        <ele>220</ele>
        <time>2011-05-15T09:24:53Z</time>
      </trkpt>
      <trkpt lat="48.20159" lon="3.21693">
        <ele>220</ele>
        <time>2011-05-15T09:24:55Z</time>
      </trkpt>
      <trkpt lat="48.2016" lon="3.21683">
        <ele>220</ele>
        <time>2011-05-15T09:24:57Z</time>
      </trkpt>
      <trkpt lat="48.20161" lon="3.21674">
        <ele>220</ele>
        <time>2011-05-15T09:24:59Z</time>
      </trkpt>
      <trkpt lat="48.20163" lon="3.21666">
        <ele>221</ele>
        <time>2011-05-15T09:25:00Z</time>
      </trkpt>
      <trkpt lat="48.20166" lon="3.21653">
        <ele>222</ele>
        <time>2011-05-15T09:25:02Z</time>
      </trkpt>
      <trkpt lat="48.20167" lon="3.21644">
        <ele>222</ele>
        <time>2011-05-15T09:25:03Z</time>
      </trkpt>
      <trkpt lat="48.20169" lon="3.21629">
        <ele>222</ele>
        <time>2011-05-15T09:25:05Z</time>
      </trkpt>
      <trkpt lat="48.2017" lon="3.2162">
        <ele>222</ele>
        <time>2011-05-15T09:25:06Z</time>
      </trkpt>
      <trkpt lat="48.20172" lon="3.21614">
        <ele>222</ele>
        <time>2011-05-15T09:25:07Z</time>
      </trkpt>
      <trkpt lat="48.20173" lon="3.21603">
        <ele>222</ele>
        <time>2011-05-15T09:25:08Z</time>
      </trkpt>
      <trkpt lat="48.20175" lon="3.21595">
        <ele>221</ele>
        <time>2011-05-15T09:25:09Z</time>
      </trkpt>
      <trkpt lat="48.20176" lon="3.21586">
        <ele>221</ele>
        <time>2011-05-15T09:25:10Z</time>
      </trkpt>
      <trkpt lat="48.20178" lon="3.2158">
        <ele>221</ele>
        <time>2011-05-15T09:25:11Z</time>
      </trkpt>
      <trkpt lat="48.20181" lon="3.21571">
        <ele>220</ele>
        <time>2011-05-15T09:25:12Z</time>
      </trkpt>
      <trkpt lat="48.20182" lon="3.21562">
        <ele>220</ele>
        <time>2011-05-15T09:25:13Z</time>
      </trkpt>
      <trkpt lat="48.20185" lon="3.21548">
        <ele>220</ele>
        <time>2011-05-15T09:25:15Z</time>
      </trkpt>
      <trkpt lat="48.20186" lon="3.21539">
        <ele>220</ele>
        <time>2011-05-15T09:25:16Z</time>
      </trkpt>
      <trkpt lat="48.20188" lon="3.21532">
        <ele>220</ele>
        <time>2011-05-15T09:25:17Z</time>
      </trkpt>
      <trkpt lat="48.20191" lon="3.2152">
        <ele>220</ele>
        <time>2011-05-15T09:25:19Z</time>
      </trkpt>
      <trkpt lat="48.20194" lon="3.21513">
        <ele>220</ele>
        <time>2011-05-15T09:25:20Z</time>
      </trkpt>
      <trkpt lat="48.20195" lon="3.21498">
        <ele>221</ele>
        <time>2011-05-15T09:25:22Z</time>
      </trkpt>
      <trkpt lat="48.20197" lon="3.21485">
        <ele>222</ele>
        <time>2011-05-15T09:25:24Z</time>
      </trkpt>
      <trkpt lat="48.20198" lon="3.21474">
        <ele>222</ele>
        <time>2011-05-15T09:25:26Z</time>
      </trkpt>
      <trkpt lat="48.20199" lon="3.21462">
        <ele>222</ele>
        <time>2011-05-15T09:25:28Z</time>
      </trkpt>
      <trkpt lat="48.20201" lon="3.21451">
        <ele>223</ele>
        <time>2011-05-15T09:25:30Z</time>
      </trkpt>
      <trkpt lat="48.20203" lon="3.21438">
        <ele>223</ele>
        <time>2011-05-15T09:25:32Z</time>
      </trkpt>
      <trkpt lat="48.20205" lon="3.21427">
        <ele>224</ele>
        <time>2011-05-15T09:25:34Z</time>
      </trkpt>
      <trkpt lat="48.20208" lon="3.21417">
        <ele>224</ele>
        <time>2011-05-15T09:25:36Z</time>
      </trkpt>
      <trkpt lat="48.20214" lon="3.21408">
        <ele>225</ele>
        <time>2011-05-15T09:25:38Z</time>
      </trkpt>
      <trkpt lat="48.20217" lon="3.21402">
        <ele>225</ele>
        <time>2011-05-15T09:25:40Z</time>
      </trkpt>
      <trkpt lat="48.20217" lon="3.21402">
        <ele>225</ele>
        <time>2011-05-15T09:25:40Z</time>
      </trkpt>
      <trkpt lat="48.20217" lon="3.21402">
        <ele>225</ele>
        <time>2011-05-15T09:25:43Z</time>
      </trkpt>
      <trkpt lat="48.20222" lon="3.21384">
        <ele>225</ele>
        <time>2011-05-15T09:25:44Z</time>
      </trkpt>
      <trkpt lat="48.20225" lon="3.21376">
        <ele>225</ele>
        <time>2011-05-15T09:25:46Z</time>
      </trkpt>
      <trkpt lat="48.20227" lon="3.21369">
        <ele>225</ele>
        <time>2011-05-15T09:25:48Z</time>
      </trkpt>
      <trkpt lat="48.2023" lon="3.21361">
        <ele>225</ele>
        <time>2011-05-15T09:25:50Z</time>
      </trkpt>
      <trkpt lat="48.20231" lon="3.21342">
        <ele>225</ele>
        <time>2011-05-15T09:25:56Z</time>
      </trkpt>
      <trkpt lat="48.20231" lon="3.21342">
        <ele>225</ele>
        <time>2011-05-15T09:25:56Z</time>
      </trkpt>
      <trkpt lat="48.20231" lon="3.21342">
        <ele>225</ele>
        <time>2011-05-15T09:26:00Z</time>
      </trkpt>
      <trkpt lat="48.20232" lon="3.21326">
        <ele>225</ele>
        <time>2011-05-15T09:26:01Z</time>
      </trkpt>
      <trkpt lat="48.20232" lon="3.21326">
        <ele>225</ele>
        <time>2011-05-15T09:26:01Z</time>
      </trkpt>
      <trkpt lat="48.20232" lon="3.21326">
        <ele>225</ele>
        <time>2011-05-15T09:26:04Z</time>
      </trkpt>
      <trkpt lat="48.20233" lon="3.21311">
        <ele>225</ele>
        <time>2011-05-15T09:26:05Z</time>
      </trkpt>
      <trkpt lat="48.20233" lon="3.21311">
        <ele>225</ele>
        <time>2011-05-15T09:26:05Z</time>
      </trkpt>
      <trkpt lat="48.20233" lon="3.21311">
        <ele>225</ele>
        <time>2011-05-15T09:26:06Z</time>
      </trkpt>
      <trkpt lat="48.20234" lon="3.21303">
        <ele>225</ele>
        <time>2011-05-15T09:26:07Z</time>
      </trkpt>
      <trkpt lat="48.20235" lon="3.21292">
        <ele>225</ele>
        <time>2011-05-15T09:26:09Z</time>
      </trkpt>
      <trkpt lat="48.20238" lon="3.21281">
        <ele>225</ele>
        <time>2011-05-15T09:26:12Z</time>
      </trkpt>
      <trkpt lat="48.20238" lon="3.21281">
        <ele>225</ele>
        <time>2011-05-15T09:26:12Z</time>
      </trkpt>
      <trkpt lat="48.20238" lon="3.21281">
        <ele>225</ele>
        <time>2011-05-15T09:26:13Z</time>
      </trkpt>
      <trkpt lat="48.20238" lon="3.21273">
        <ele>225</ele>
        <time>2011-05-15T09:26:14Z</time>
      </trkpt>
      <trkpt lat="48.2024" lon="3.21264">
        <ele>225</ele>
        <time>2011-05-15T09:26:16Z</time>
      </trkpt>
      <trkpt lat="48.20242" lon="3.21256">
        <ele>225</ele>
        <time>2011-05-15T09:26:18Z</time>
      </trkpt>
      <trkpt lat="48.20249" lon="3.21238">
        <ele>225</ele>
        <time>2011-05-15T09:26:23Z</time>
      </trkpt>
      <trkpt lat="48.20249" lon="3.21238">
        <ele>225</ele>
        <time>2011-05-15T09:26:23Z</time>
      </trkpt>
      <trkpt lat="48.20249" lon="3.21238">
        <ele>225</ele>
        <time>2011-05-15T09:26:26Z</time>
      </trkpt>
      <trkpt lat="48.20255" lon="3.21223">
        <ele>226</ele>
        <time>2011-05-15T09:26:27Z</time>
      </trkpt>
      <trkpt lat="48.20258" lon="3.21215">
        <ele>226</ele>
        <time>2011-05-15T09:26:29Z</time>
      </trkpt>
      <trkpt lat="48.20261" lon="3.21208">
        <ele>226</ele>
        <time>2011-05-15T09:26:31Z</time>
      </trkpt>
      <trkpt lat="48.20265" lon="3.212">
        <ele>226</ele>
        <time>2011-05-15T09:26:33Z</time>
      </trkpt>
      <trkpt lat="48.20271" lon="3.21193">
        <ele>226</ele>
        <time>2011-05-15T09:26:35Z</time>
      </trkpt>
      <trkpt lat="48.20278" lon="3.21185">
        <ele>228</ele>
        <time>2011-05-15T09:26:37Z</time>
      </trkpt>
      <trkpt lat="48.20282" lon="3.2118">
        <ele>229</ele>
        <time>2011-05-15T09:26:38Z</time>
      </trkpt>
      <trkpt lat="48.20287" lon="3.21176">
        <ele>229</ele>
        <time>2011-05-15T09:26:39Z</time>
      </trkpt>
      <trkpt lat="48.20291" lon="3.21172">
        <ele>230</ele>
        <time>2011-05-15T09:26:40Z</time>
      </trkpt>
      <trkpt lat="48.20295" lon="3.21168">
        <ele>231</ele>
        <time>2011-05-15T09:26:41Z</time>
      </trkpt>
      <trkpt lat="48.203" lon="3.21163">
        <ele>231</ele>
        <time>2011-05-15T09:26:42Z</time>
      </trkpt>
      <trkpt lat="48.20303" lon="3.21157">
        <ele>231</ele>
        <time>2011-05-15T09:26:43Z</time>
      </trkpt>
      <trkpt lat="48.20308" lon="3.2115">
        <ele>231</ele>
        <time>2011-05-15T09:26:45Z</time>
      </trkpt>
      <trkpt lat="48.20313" lon="3.2114">
        <ele>231</ele>
        <time>2011-05-15T09:26:47Z</time>
      </trkpt>
      <trkpt lat="48.20315" lon="3.21125">
        <ele>231</ele>
        <time>2011-05-15T09:26:49Z</time>
      </trkpt>
      <trkpt lat="48.20315" lon="3.21125">
        <ele>231</ele>
        <time>2011-05-15T09:26:49Z</time>
      </trkpt>
      <trkpt lat="48.20315" lon="3.21125">
        <ele>231</ele>
        <time>2011-05-15T09:26:51Z</time>
      </trkpt>
      <trkpt lat="48.20313" lon="3.21112">
        <ele>231</ele>
        <time>2011-05-15T09:26:52Z</time>
      </trkpt>
      <trkpt lat="48.20313" lon="3.21112">
        <ele>231</ele>
        <time>2011-05-15T09:26:52Z</time>
      </trkpt>
      <trkpt lat="48.20313" lon="3.21112">
        <ele>231</ele>
        <time>2011-05-15T09:26:56Z</time>
      </trkpt>
      <trkpt lat="48.20313" lon="3.21097">
        <ele>230</ele>
        <time>2011-05-15T09:26:57Z</time>
      </trkpt>
      <trkpt lat="48.20313" lon="3.21097">
        <ele>230</ele>
        <time>2011-05-15T09:26:57Z</time>
      </trkpt>
      <trkpt lat="48.20313" lon="3.21097">
        <ele>230</ele>
        <time>2011-05-15T09:27:40Z</time>
      </trkpt>
      <trkpt lat="48.20312" lon="3.21086">
        <ele>228</ele>
        <time>2011-05-15T09:27:41Z</time>
      </trkpt>
      <trkpt lat="48.20312" lon="3.21086">
        <ele>228</ele>
        <time>2011-05-15T09:27:41Z</time>
      </trkpt>
      <trkpt lat="48.20312" lon="3.21086">
        <ele>228</ele>
        <time>2011-05-15T09:27:44Z</time>
      </trkpt>
      <trkpt lat="48.20305" lon="3.21078">
        <ele>228</ele>
        <time>2011-05-15T09:27:45Z</time>
      </trkpt>
      <trkpt lat="48.203" lon="3.21071">
        <ele>227</ele>
        <time>2011-05-15T09:27:46Z</time>
      </trkpt>
      <trkpt lat="48.20295" lon="3.21067">
        <ele>227</ele>
        <time>2011-05-15T09:27:47Z</time>
      </trkpt>
      <trkpt lat="48.20291" lon="3.21062">
        <ele>227</ele>
        <time>2011-05-15T09:27:48Z</time>
      </trkpt>
      <trkpt lat="48.20287" lon="3.21058">
        <ele>226</ele>
        <time>2011-05-15T09:27:49Z</time>
      </trkpt>
      <trkpt lat="48.20277" lon="3.21052">
        <ele>225</ele>
        <time>2011-05-15T09:27:53Z</time>
      </trkpt>
      <trkpt lat="48.20277" lon="3.21052">
        <ele>225</ele>
        <time>2011-05-15T09:27:53Z</time>
      </trkpt>
      <trkpt lat="48.20277" lon="3.21052">
        <ele>225</ele>
        <time>2011-05-15T09:27:54Z</time>
      </trkpt>
      <trkpt lat="48.20273" lon="3.21048">
        <ele>225</ele>
        <time>2011-05-15T09:27:55Z</time>
      </trkpt>
      <trkpt lat="48.20273" lon="3.21048">
        <ele>225</ele>
        <time>2011-05-15T09:27:55Z</time>
      </trkpt>
      <trkpt lat="48.20273" lon="3.21048">
        <ele>225</ele>
        <time>2011-05-15T09:27:59Z</time>
      </trkpt>
      <trkpt lat="48.20265" lon="3.21037">
        <ele>224</ele>
        <time>2011-05-15T09:28:00Z</time>
      </trkpt>
      <trkpt lat="48.20265" lon="3.21037">
        <ele>224</ele>
        <time>2011-05-15T09:28:00Z</time>
      </trkpt>
      <trkpt lat="48.20265" lon="3.21037">
        <ele>224</ele>
        <time>2011-05-15T09:28:03Z</time>
      </trkpt>
      <trkpt lat="48.20266" lon="3.21024">
        <ele>223</ele>
        <time>2011-05-15T09:28:04Z</time>
      </trkpt>
      <trkpt lat="48.20266" lon="3.21024">
        <ele>223</ele>
        <time>2011-05-15T09:28:04Z</time>
      </trkpt>
      <trkpt lat="48.20266" lon="3.21024">
        <ele>223</ele>
        <time>2011-05-15T09:28:05Z</time>
      </trkpt>
      <trkpt lat="48.20269" lon="3.21018">
        <ele>223</ele>
        <time>2011-05-15T09:28:06Z</time>
      </trkpt>
      <trkpt lat="48.20269" lon="3.21018">
        <ele>223</ele>
        <time>2011-05-15T09:28:06Z</time>
      </trkpt>
      <trkpt lat="48.20269" lon="3.21018">
        <ele>223</ele>
        <time>2011-05-15T09:28:11Z</time>
      </trkpt>
      <trkpt lat="48.20269" lon="3.21002">
        <ele>222</ele>
        <time>2011-05-15T09:28:12Z</time>
      </trkpt>
      <trkpt lat="48.20269" lon="3.21002">
        <ele>222</ele>
        <time>2011-05-15T09:28:12Z</time>
      </trkpt>
      <trkpt lat="48.20269" lon="3.21002">
        <ele>222</ele>
        <time>2011-05-15T09:28:16Z</time>
      </trkpt>
      <trkpt lat="48.20262" lon="3.2099">
        <ele>222</ele>
        <time>2011-05-15T09:28:17Z</time>
      </trkpt>
      <trkpt lat="48.20262" lon="3.2099">
        <ele>222</ele>
        <time>2011-05-15T09:28:17Z</time>
      </trkpt>
      <trkpt lat="48.20262" lon="3.2099">
        <ele>222</ele>
        <time>2011-05-15T09:28:20Z</time>
      </trkpt>
      <trkpt lat="48.20256" lon="3.20977">
        <ele>222</ele>
        <time>2011-05-15T09:28:21Z</time>
      </trkpt>
      <trkpt lat="48.20256" lon="3.20977">
        <ele>222</ele>
        <time>2011-05-15T09:28:21Z</time>
      </trkpt>
      <trkpt lat="48.20256" lon="3.20977">
        <ele>222</ele>
        <time>2011-05-15T09:28:22Z</time>
      </trkpt>
      <trkpt lat="48.20249" lon="3.20966">
        <ele>223</ele>
        <time>2011-05-15T09:28:25Z</time>
      </trkpt>
      <trkpt lat="48.20249" lon="3.20966">
        <ele>223</ele>
        <time>2011-05-15T09:28:25Z</time>
      </trkpt>
      <trkpt lat="48.20249" lon="3.20966">
        <ele>223</ele>
        <time>2011-05-15T09:28:26Z</time>
      </trkpt>
      <trkpt lat="48.20243" lon="3.20955">
        <ele>223</ele>
        <time>2011-05-15T09:28:29Z</time>
      </trkpt>
      <trkpt lat="48.20243" lon="3.20955">
        <ele>223</ele>
        <time>2011-05-15T09:28:29Z</time>
      </trkpt>
      <trkpt lat="48.20243" lon="3.20955">
        <ele>223</ele>
        <time>2011-05-15T09:28:30Z</time>
      </trkpt>
      <trkpt lat="48.20241" lon="3.20949">
        <ele>223</ele>
        <time>2011-05-15T09:28:31Z</time>
      </trkpt>
      <trkpt lat="48.20238" lon="3.2094">
        <ele>223</ele>
        <time>2011-05-15T09:28:33Z</time>
      </trkpt>
      <trkpt lat="48.20238" lon="3.20932">
        <ele>224</ele>
        <time>2011-05-15T09:28:35Z</time>
      </trkpt>
      <trkpt lat="48.20241" lon="3.20923">
        <ele>224</ele>
        <time>2011-05-15T09:28:37Z</time>
      </trkpt>
      <trkpt lat="48.20244" lon="3.20914">
        <ele>224</ele>
        <time>2011-05-15T09:28:39Z</time>
      </trkpt>
      <trkpt lat="48.2025" lon="3.2091">
        <ele>224</ele>
        <time>2011-05-15T09:28:41Z</time>
      </trkpt>
      <trkpt lat="48.20256" lon="3.20906">
        <ele>224</ele>
        <time>2011-05-15T09:28:43Z</time>
      </trkpt>
      <trkpt lat="48.20263" lon="3.20899">
        <ele>225</ele>
        <time>2011-05-15T09:28:45Z</time>
      </trkpt>
      <trkpt lat="48.2027" lon="3.20895">
        <ele>225</ele>
        <time>2011-05-15T09:28:47Z</time>
      </trkpt>
      <trkpt lat="48.20275" lon="3.20891">
        <ele>225</ele>
        <time>2011-05-15T09:28:49Z</time>
      </trkpt>
      <trkpt lat="48.20284" lon="3.20887">
        <ele>225</ele>
        <time>2011-05-15T09:28:52Z</time>
      </trkpt>
      <trkpt lat="48.20284" lon="3.20887">
        <ele>225</ele>
        <time>2011-05-15T09:28:52Z</time>
      </trkpt>
      <trkpt lat="48.20284" lon="3.20887">
        <ele>225</ele>
        <time>2011-05-15T09:29:43Z</time>
      </trkpt>
      <trkpt lat="48.20288" lon="3.20884">
        <ele>226</ele>
        <time>2011-05-15T09:29:48Z</time>
      </trkpt>
      <trkpt lat="48.20288" lon="3.20884">
        <ele>226</ele>
        <time>2011-05-15T09:29:48Z</time>
      </trkpt>
      <trkpt lat="48.20288" lon="3.20884">
        <ele>226</ele>
        <time>2011-05-15T09:29:49Z</time>
      </trkpt>
      <trkpt lat="48.20294" lon="3.20884">
        <ele>226</ele>
        <time>2011-05-15T09:29:53Z</time>
      </trkpt>
      <trkpt lat="48.203" lon="3.20884">
        <ele>226</ele>
        <time>2011-05-15T09:29:55Z</time>
      </trkpt>
      <trkpt lat="48.20305" lon="3.20887">
        <ele>226</ele>
        <time>2011-05-15T09:29:57Z</time>
      </trkpt>
      <trkpt lat="48.20309" lon="3.20893">
        <ele>227</ele>
        <time>2011-05-15T09:29:59Z</time>
      </trkpt>
      <trkpt lat="48.20315" lon="3.20902">
        <ele>227</ele>
        <time>2011-05-15T09:30:02Z</time>
      </trkpt>
      <trkpt lat="48.20319" lon="3.20906">
        <ele>227</ele>
        <time>2011-05-15T09:30:04Z</time>
      </trkpt>
      <trkpt lat="48.20323" lon="3.2091">
        <ele>227</ele>
        <time>2011-05-15T09:30:06Z</time>
      </trkpt>
      <trkpt lat="48.2033" lon="3.20914">
        <ele>227</ele>
        <time>2011-05-15T09:30:08Z</time>
      </trkpt>
      <trkpt lat="48.20335" lon="3.20921">
        <ele>227</ele>
        <time>2011-05-15T09:30:10Z</time>
      </trkpt>
      <trkpt lat="48.2034" lon="3.20927">
        <ele>227</ele>
        <time>2011-05-15T09:30:12Z</time>
      </trkpt>
      <trkpt lat="48.20345" lon="3.20934">
        <ele>227</ele>
        <time>2011-05-15T09:30:14Z</time>
      </trkpt>
      <trkpt lat="48.20348" lon="3.2094">
        <ele>227</ele>
        <time>2011-05-15T09:30:15Z</time>
      </trkpt>
      <trkpt lat="48.2035" lon="3.20947">
        <ele>227</ele>
        <time>2011-05-15T09:30:16Z</time>
      </trkpt>
      <trkpt lat="48.20356" lon="3.20957">
        <ele>227</ele>
        <time>2011-05-15T09:30:18Z</time>
      </trkpt>
      <trkpt lat="48.20359" lon="3.20966">
        <ele>228</ele>
        <time>2011-05-15T09:30:19Z</time>
      </trkpt>
      <trkpt lat="48.20361" lon="3.20972">
        <ele>228</ele>
        <time>2011-05-15T09:30:20Z</time>
      </trkpt>
      <trkpt lat="48.20364" lon="3.20979">
        <ele>228</ele>
        <time>2011-05-15T09:30:21Z</time>
      </trkpt>
      <trkpt lat="48.20366" lon="3.20985">
        <ele>229</ele>
        <time>2011-05-15T09:30:22Z</time>
      </trkpt>
      <trkpt lat="48.20373" lon="3.20996">
        <ele>229</ele>
        <time>2011-05-15T09:30:24Z</time>
      </trkpt>
      <trkpt lat="48.20376" lon="3.21002">
        <ele>229</ele>
        <time>2011-05-15T09:30:25Z</time>
      </trkpt>
      <trkpt lat="48.20379" lon="3.21009">
        <ele>229</ele>
        <time>2011-05-15T09:30:26Z</time>
      </trkpt>
      <trkpt lat="48.20387" lon="3.21018">
        <ele>229</ele>
        <time>2011-05-15T09:30:28Z</time>
      </trkpt>
      <trkpt lat="48.20391" lon="3.21022">
        <ele>230</ele>
        <time>2011-05-15T09:30:29Z</time>
      </trkpt>
      <trkpt lat="48.20397" lon="3.21032">
        <ele>230</ele>
        <time>2011-05-15T09:30:31Z</time>
      </trkpt>
      <trkpt lat="48.20402" lon="3.21037">
        <ele>231</ele>
        <time>2011-05-15T09:30:32Z</time>
      </trkpt>
      <trkpt lat="48.20405" lon="3.21043">
        <ele>231</ele>
        <time>2011-05-15T09:30:33Z</time>
      </trkpt>
      <trkpt lat="48.20409" lon="3.2105">
        <ele>231</ele>
        <time>2011-05-15T09:30:34Z</time>
      </trkpt>
      <trkpt lat="48.20413" lon="3.21056">
        <ele>231</ele>
        <time>2011-05-15T09:30:35Z</time>
      </trkpt>
      <trkpt lat="48.20418" lon="3.21062">
        <ele>231</ele>
        <time>2011-05-15T09:30:36Z</time>
      </trkpt>
      <trkpt lat="48.20422" lon="3.21069">
        <ele>231</ele>
        <time>2011-05-15T09:30:37Z</time>
      </trkpt>
      <trkpt lat="48.20426" lon="3.21075">
        <ele>231</ele>
        <time>2011-05-15T09:30:38Z</time>
      </trkpt>
      <trkpt lat="48.20431" lon="3.21084">
        <ele>230</ele>
        <time>2011-05-15T09:30:39Z</time>
      </trkpt>
      <trkpt lat="48.20435" lon="3.21093">
        <ele>230</ele>
        <time>2011-05-15T09:30:40Z</time>
      </trkpt>
      <trkpt lat="48.20439" lon="3.21101">
        <ele>229</ele>
        <time>2011-05-15T09:30:41Z</time>
      </trkpt>
      <trkpt lat="48.20444" lon="3.2111">
        <ele>229</ele>
        <time>2011-05-15T09:30:42Z</time>
      </trkpt>
      <trkpt lat="48.20448" lon="3.21116">
        <ele>229</ele>
        <time>2011-05-15T09:30:43Z</time>
      </trkpt>
      <trkpt lat="48.20453" lon="3.21125">
        <ele>229</ele>
        <time>2011-05-15T09:30:44Z</time>
      </trkpt>
      <trkpt lat="48.20458" lon="3.21136">
        <ele>228</ele>
        <time>2011-05-15T09:30:45Z</time>
      </trkpt>
      <trkpt lat="48.20463" lon="3.21142">
        <ele>228</ele>
        <time>2011-05-15T09:30:46Z</time>
      </trkpt>
      <trkpt lat="48.20467" lon="3.21148">
        <ele>228</ele>
        <time>2011-05-15T09:30:47Z</time>
      </trkpt>
      <trkpt lat="48.20472" lon="3.21155">
        <ele>229</ele>
        <time>2011-05-15T09:30:48Z</time>
      </trkpt>
      <trkpt lat="48.20479" lon="3.21161">
        <ele>229</ele>
        <time>2011-05-15T09:30:49Z</time>
      </trkpt>
      <trkpt lat="48.20485" lon="3.21166">
        <ele>230</ele>
        <time>2011-05-15T09:30:50Z</time>
      </trkpt>
      <trkpt lat="48.20494" lon="3.2117">
        <ele>231</ele>
        <time>2011-05-15T09:30:51Z</time>
      </trkpt>
      <trkpt lat="48.20501" lon="3.21174">
        <ele>232</ele>
        <time>2011-05-15T09:30:52Z</time>
      </trkpt>
      <trkpt lat="48.20509" lon="3.21176">
        <ele>232</ele>
        <time>2011-05-15T09:30:53Z</time>
      </trkpt>
      <trkpt lat="48.20515" lon="3.2118">
        <ele>233</ele>
        <time>2011-05-15T09:30:54Z</time>
      </trkpt>
      <trkpt lat="48.2052" lon="3.21185">
        <ele>233</ele>
        <time>2011-05-15T09:30:55Z</time>
      </trkpt>
      <trkpt lat="48.20529" lon="3.21196">
        <ele>233</ele>
        <time>2011-05-15T09:31:00Z</time>
      </trkpt>
      <trkpt lat="48.20529" lon="3.21196">
        <ele>233</ele>
        <time>2011-05-15T09:31:00Z</time>
      </trkpt>
      <trkpt lat="48.20529" lon="3.21196">
        <ele>233</ele>
        <time>2011-05-15T09:31:01Z</time>
      </trkpt>
      <trkpt lat="48.20534" lon="3.21202">
        <ele>232</ele>
        <time>2011-05-15T09:31:02Z</time>
      </trkpt>
      <trkpt lat="48.20539" lon="3.21208">
        <ele>232</ele>
        <time>2011-05-15T09:31:04Z</time>
      </trkpt>
      <trkpt lat="48.20545" lon="3.21215">
        <ele>232</ele>
        <time>2011-05-15T09:31:06Z</time>
      </trkpt>
      <trkpt lat="48.20552" lon="3.21219">
        <ele>232</ele>
        <time>2011-05-15T09:31:08Z</time>
      </trkpt>
      <trkpt lat="48.20557" lon="3.21223">
        <ele>232</ele>
        <time>2011-05-15T09:31:10Z</time>
      </trkpt>
      <trkpt lat="48.20558" lon="3.21232">
        <ele>232</ele>
        <time>2011-05-15T09:31:12Z</time>
      </trkpt>
      <trkpt lat="48.20558" lon="3.21243">
        <ele>232</ele>
        <time>2011-05-15T09:31:14Z</time>
      </trkpt>
      <trkpt lat="48.20558" lon="3.21254">
        <ele>231</ele>
        <time>2011-05-15T09:31:16Z</time>
      </trkpt>
      <trkpt lat="48.20558" lon="3.21262">
        <ele>231</ele>
        <time>2011-05-15T09:31:18Z</time>
      </trkpt>
      <trkpt lat="48.20557" lon="3.21273">
        <ele>231</ele>
        <time>2011-05-15T09:31:20Z</time>
      </trkpt>
      <trkpt lat="48.20557" lon="3.21281">
        <ele>231</ele>
        <time>2011-05-15T09:31:22Z</time>
      </trkpt>
      <trkpt lat="48.20556" lon="3.21292">
        <ele>231</ele>
        <time>2011-05-15T09:31:25Z</time>
      </trkpt>
      <trkpt lat="48.20555" lon="3.21303">
        <ele>231</ele>
        <time>2011-05-15T09:31:28Z</time>
      </trkpt>
      <trkpt lat="48.20554" lon="3.21314">
        <ele>231</ele>
        <time>2011-05-15T09:31:31Z</time>
      </trkpt>
      <trkpt lat="48.20553" lon="3.21322">
        <ele>231</ele>
        <time>2011-05-15T09:31:33Z</time>
      </trkpt>
      <trkpt lat="48.20552" lon="3.21331">
        <ele>231</ele>
        <time>2011-05-15T09:31:35Z</time>
      </trkpt>
      <trkpt lat="48.20551" lon="3.21342">
        <ele>231</ele>
        <time>2011-05-15T09:31:37Z</time>
      </trkpt>
      <trkpt lat="48.2055" lon="3.21354">
        <ele>231</ele>
        <time>2011-05-15T09:31:39Z</time>
      </trkpt>
      <trkpt lat="48.20549" lon="3.21367">
        <ele>232</ele>
        <time>2011-05-15T09:31:41Z</time>
      </trkpt>
      <trkpt lat="48.20548" lon="3.21378">
        <ele>233</ele>
        <time>2011-05-15T09:31:43Z</time>
      </trkpt>
      <trkpt lat="48.20548" lon="3.21391">
        <ele>234</ele>
        <time>2011-05-15T09:31:45Z</time>
      </trkpt>
      <trkpt lat="48.20548" lon="3.21402">
        <ele>235</ele>
        <time>2011-05-15T09:31:47Z</time>
      </trkpt>
      <trkpt lat="48.20548" lon="3.21417">
        <ele>235</ele>
        <time>2011-05-15T09:31:50Z</time>
      </trkpt>
      <trkpt lat="48.20548" lon="3.21417">
        <ele>235</ele>
        <time>2011-05-15T09:31:50Z</time>
      </trkpt>
      <trkpt lat="48.20548" lon="3.21417">
        <ele>235</ele>
        <time>2011-05-15T09:31:53Z</time>
      </trkpt>
      <trkpt lat="48.20557" lon="3.21425">
        <ele>235</ele>
        <time>2011-05-15T09:31:54Z</time>
      </trkpt>
      <trkpt lat="48.20557" lon="3.21425">
        <ele>235</ele>
        <time>2011-05-15T09:31:54Z</time>
      </trkpt>
      <trkpt lat="48.20557" lon="3.21425">
        <ele>235</ele>
        <time>2011-05-15T09:31:58Z</time>
      </trkpt>
      <trkpt lat="48.20565" lon="3.21436">
        <ele>236</ele>
        <time>2011-05-15T09:31:59Z</time>
      </trkpt>
      <trkpt lat="48.20565" lon="3.21436">
        <ele>236</ele>
        <time>2011-05-15T09:31:59Z</time>
      </trkpt>
      <trkpt lat="48.20565" lon="3.21436">
        <ele>236</ele>
        <time>2011-05-15T09:32:00Z</time>
      </trkpt>
      <trkpt lat="48.20569" lon="3.2144">
        <ele>236</ele>
        <time>2011-05-15T09:32:01Z</time>
      </trkpt>
      <trkpt lat="48.20572" lon="3.21447">
        <ele>236</ele>
        <time>2011-05-15T09:32:03Z</time>
      </trkpt>
      <trkpt lat="48.20576" lon="3.21453">
        <ele>236</ele>
        <time>2011-05-15T09:32:05Z</time>
      </trkpt>
      <trkpt lat="48.20581" lon="3.2146">
        <ele>236</ele>
        <time>2011-05-15T09:32:07Z</time>
      </trkpt>
      <trkpt lat="48.20586" lon="3.21464">
        <ele>236</ele>
        <time>2011-05-15T09:32:09Z</time>
      </trkpt>
      <trkpt lat="48.20592" lon="3.21468">
        <ele>236</ele>
        <time>2011-05-15T09:32:11Z</time>
      </trkpt>
      <trkpt lat="48.20596" lon="3.21474">
        <ele>236</ele>
        <time>2011-05-15T09:32:13Z</time>
      </trkpt>
      <trkpt lat="48.20601" lon="3.21479">
        <ele>236</ele>
        <time>2011-05-15T09:32:15Z</time>
      </trkpt>
      <trkpt lat="48.20606" lon="3.21483">
        <ele>236</ele>
        <time>2011-05-15T09:32:17Z</time>
      </trkpt>
      <trkpt lat="48.20609" lon="3.2149">
        <ele>236</ele>
        <time>2011-05-15T09:32:19Z</time>
      </trkpt>
      <trkpt lat="48.20612" lon="3.21496">
        <ele>236</ele>
        <time>2011-05-15T09:32:21Z</time>
      </trkpt>
      <trkpt lat="48.20616" lon="3.21502">
        <ele>236</ele>
        <time>2011-05-15T09:32:23Z</time>
      </trkpt>
      <trkpt lat="48.2062" lon="3.21509">
        <ele>236</ele>
        <time>2011-05-15T09:32:25Z</time>
      </trkpt>
      <trkpt lat="48.20626" lon="3.21515">
        <ele>236</ele>
        <time>2011-05-15T09:32:27Z</time>
      </trkpt>
      <trkpt lat="48.20631" lon="3.2152">
        <ele>235</ele>
        <time>2011-05-15T09:32:29Z</time>
      </trkpt>
      <trkpt lat="48.20631" lon="3.2152">
        <ele>235</ele>
        <time>2011-05-15T09:32:29Z</time>
      </trkpt>
      <trkpt lat="48.20631" lon="3.2152">
        <ele>235</ele>
        <time>2011-05-15T09:32:32Z</time>
      </trkpt>
      <trkpt lat="48.20641" lon="3.21522">
        <ele>235</ele>
        <time>2011-05-15T09:32:33Z</time>
      </trkpt>
      <trkpt lat="48.20641" lon="3.21522">
        <ele>235</ele>
        <time>2011-05-15T09:32:33Z</time>
      </trkpt>
      <trkpt lat="48.20641" lon="3.21522">
        <ele>235</ele>
        <time>2011-05-15T09:32:36Z</time>
      </trkpt>
      <trkpt lat="48.20652" lon="3.21524">
        <ele>234</ele>
        <time>2011-05-15T09:32:37Z</time>
      </trkpt>
      <trkpt lat="48.20652" lon="3.21524">
        <ele>234</ele>
        <time>2011-05-15T09:32:37Z</time>
      </trkpt>
      <trkpt lat="48.20652" lon="3.21524">
        <ele>234</ele>
        <time>2011-05-15T09:32:39Z</time>
      </trkpt>
      <trkpt lat="48.20661" lon="3.21524">
        <ele>233</ele>
        <time>2011-05-15T09:32:40Z</time>
      </trkpt>
      <trkpt lat="48.20661" lon="3.21524">
        <ele>233</ele>
        <time>2011-05-15T09:32:40Z</time>
      </trkpt>
      <trkpt lat="48.20661" lon="3.21524">
        <ele>233</ele>
        <time>2011-05-15T09:32:42Z</time>
      </trkpt>
      <trkpt lat="48.2067" lon="3.21524">
        <ele>233</ele>
        <time>2011-05-15T09:32:43Z</time>
      </trkpt>
      <trkpt lat="48.2067" lon="3.21524">
        <ele>233</ele>
        <time>2011-05-15T09:32:43Z</time>
      </trkpt>
      <trkpt lat="48.2067" lon="3.21524">
        <ele>233</ele>
        <time>2011-05-15T09:32:45Z</time>
      </trkpt>
      <trkpt lat="48.20681" lon="3.21522">
        <ele>232</ele>
        <time>2011-05-15T09:32:46Z</time>
      </trkpt>
      <trkpt lat="48.20694" lon="3.21526">
        <ele>232</ele>
        <time>2011-05-15T09:32:51Z</time>
      </trkpt>
      <trkpt lat="48.20703" lon="3.21526">
        <ele>231</ele>
        <time>2011-05-15T09:32:54Z</time>
      </trkpt>
      <trkpt lat="48.2071" lon="3.21526">
        <ele>231</ele>
        <time>2011-05-15T09:32:56Z</time>
      </trkpt>
      <trkpt lat="48.20715" lon="3.21528">
        <ele>231</ele>
        <time>2011-05-15T09:32:58Z</time>
      </trkpt>
      <trkpt lat="48.20721" lon="3.21528">
        <ele>231</ele>
        <time>2011-05-15T09:33:00Z</time>
      </trkpt>
      <trkpt lat="48.20727" lon="3.21528">
        <ele>231</ele>
        <time>2011-05-15T09:33:02Z</time>
      </trkpt>
      <trkpt lat="48.20733" lon="3.21526">
        <ele>231</ele>
        <time>2011-05-15T09:33:04Z</time>
      </trkpt>
      <trkpt lat="48.20738" lon="3.21528">
        <ele>231</ele>
        <time>2011-05-15T09:33:06Z</time>
      </trkpt>
      <trkpt lat="48.20745" lon="3.21526">
        <ele>231</ele>
        <time>2011-05-15T09:33:08Z</time>
      </trkpt>
      <trkpt lat="48.20752" lon="3.21526">
        <ele>231</ele>
        <time>2011-05-15T09:33:12Z</time>
      </trkpt>
      <trkpt lat="48.20756" lon="3.2152">
        <ele>231</ele>
        <time>2011-05-15T09:33:15Z</time>
      </trkpt>
      <trkpt lat="48.20761" lon="3.21517">
        <ele>231</ele>
        <time>2011-05-15T09:33:56Z</time>
      </trkpt>
      <trkpt lat="48.20765" lon="3.2152">
        <ele>231</ele>
        <time>2011-05-15T09:33:57Z</time>
      </trkpt>
      <trkpt lat="48.20771" lon="3.2152">
        <ele>231</ele>
        <time>2011-05-15T09:33:58Z</time>
      </trkpt>
      <trkpt lat="48.20776" lon="3.2152">
        <ele>231</ele>
        <time>2011-05-15T09:33:59Z</time>
      </trkpt>
      <trkpt lat="48.2078" lon="3.21522">
        <ele>231</ele>
        <time>2011-05-15T09:34:00Z</time>
      </trkpt>
      <trkpt lat="48.20785" lon="3.21524">
        <ele>231</ele>
        <time>2011-05-15T09:34:01Z</time>
      </trkpt>
      <trkpt lat="48.20792" lon="3.21526">
        <ele>232</ele>
        <time>2011-05-15T09:34:03Z</time>
      </trkpt>
      <trkpt lat="48.20796" lon="3.21524">
        <ele>232</ele>
        <time>2011-05-15T09:34:04Z</time>
      </trkpt>
      <trkpt lat="48.20802" lon="3.21524">
        <ele>232</ele>
        <time>2011-05-15T09:34:06Z</time>
      </trkpt>
      <trkpt lat="48.20808" lon="3.2152">
        <ele>232</ele>
        <time>2011-05-15T09:34:08Z</time>
      </trkpt>
      <trkpt lat="48.20814" lon="3.21515">
        <ele>233</ele>
        <time>2011-05-15T09:34:10Z</time>
      </trkpt>
      <trkpt lat="48.20819" lon="3.21513">
        <ele>233</ele>
        <time>2011-05-15T09:34:12Z</time>
      </trkpt>
      <trkpt lat="48.20821" lon="3.21507">
        <ele>233</ele>
        <time>2011-05-15T09:34:19Z</time>
      </trkpt>
      <trkpt lat="48.20823" lon="3.215">
        <ele>232</ele>
        <time>2011-05-15T09:34:27Z</time>
      </trkpt>
      <trkpt lat="48.20823" lon="3.215">
        <ele>232</ele>
        <time>2011-05-15T09:34:27Z</time>
      </trkpt>
      <trkpt lat="48.20823" lon="3.215">
        <ele>232</ele>
        <time>2011-05-15T09:34:28Z</time>
      </trkpt>
      <trkpt lat="48.2083" lon="3.215">
        <ele>231</ele>
        <time>2011-05-15T09:34:32Z</time>
      </trkpt>
      <trkpt lat="48.20836" lon="3.21504">
        <ele>231</ele>
        <time>2011-05-15T09:34:34Z</time>
      </trkpt>
      <trkpt lat="48.20844" lon="3.21507">
        <ele>230</ele>
        <time>2011-05-15T09:34:36Z</time>
      </trkpt>
      <trkpt lat="48.20851" lon="3.21511">
        <ele>230</ele>
        <time>2011-05-15T09:34:38Z</time>
      </trkpt>
      <trkpt lat="48.20856" lon="3.21515">
        <ele>230</ele>
        <time>2011-05-15T09:34:40Z</time>
      </trkpt>
      <trkpt lat="48.20862" lon="3.2152">
        <ele>229</ele>
        <time>2011-05-15T09:34:42Z</time>
      </trkpt>
      <trkpt lat="48.20865" lon="3.21526">
        <ele>229</ele>
        <time>2011-05-15T09:34:44Z</time>
      </trkpt>
      <trkpt lat="48.20869" lon="3.2153">
        <ele>228</ele>
        <time>2011-05-15T09:34:46Z</time>
      </trkpt>
      <trkpt lat="48.20874" lon="3.21532">
        <ele>228</ele>
        <time>2011-05-15T09:34:49Z</time>
      </trkpt>
      <trkpt lat="48.20879" lon="3.21535">
        <ele>227</ele>
        <time>2011-05-15T09:34:52Z</time>
      </trkpt>
      <trkpt lat="48.20884" lon="3.21528">
        <ele>227</ele>
        <time>2011-05-15T09:34:55Z</time>
      </trkpt>
      <trkpt lat="48.20889" lon="3.21517">
        <ele>225</ele>
        <time>2011-05-15T09:34:57Z</time>
      </trkpt>
      <trkpt lat="48.20891" lon="3.21507">
        <ele>223</ele>
        <time>2011-05-15T09:34:58Z</time>
      </trkpt>
      <trkpt lat="48.20893" lon="3.21496">
        <ele>222</ele>
        <time>2011-05-15T09:34:59Z</time>
      </trkpt>
      <trkpt lat="48.20892" lon="3.21487">
        <ele>221</ele>
        <time>2011-05-15T09:35:00Z</time>
      </trkpt>
      <trkpt lat="48.20894" lon="3.21481">
        <ele>221</ele>
        <time>2011-05-15T09:35:01Z</time>
      </trkpt>
      <trkpt lat="48.20894" lon="3.21481">
        <ele>221</ele>
        <time>2011-05-15T09:35:01Z</time>
      </trkpt>
      <trkpt lat="48.20894" lon="3.21481">
        <ele>221</ele>
        <time>2011-05-15T09:35:08Z</time>
      </trkpt>
      <trkpt lat="48.20895" lon="3.21472">
        <ele>221</ele>
        <time>2011-05-15T09:35:09Z</time>
      </trkpt>
      <trkpt lat="48.20895" lon="3.21472">
        <ele>221</ele>
        <time>2011-05-15T09:35:09Z</time>
      </trkpt>
      <trkpt lat="48.20895" lon="3.21472">
        <ele>221</ele>
        <time>2011-05-15T09:35:13Z</time>
      </trkpt>
      <trkpt lat="48.20896" lon="3.21464">
        <ele>221</ele>
        <time>2011-05-15T09:35:14Z</time>
      </trkpt>
      <trkpt lat="48.20896" lon="3.21464">
        <ele>221</ele>
        <time>2011-05-15T09:35:14Z</time>
      </trkpt>
      <trkpt lat="48.20896" lon="3.21464">
        <ele>221</ele>
        <time>2011-05-15T09:35:17Z</time>
      </trkpt>
      <trkpt lat="48.20898" lon="3.21453">
        <ele>221</ele>
        <time>2011-05-15T09:35:18Z</time>
      </trkpt>
      <trkpt lat="48.20898" lon="3.21453">
        <ele>221</ele>
        <time>2011-05-15T09:35:18Z</time>
      </trkpt>
      <trkpt lat="48.20898" lon="3.21453">
        <ele>221</ele>
        <time>2011-05-15T09:35:32Z</time>
      </trkpt>
      <trkpt lat="48.209" lon="3.21438">
        <ele>220</ele>
        <time>2011-05-15T09:35:33Z</time>
      </trkpt>
      <trkpt lat="48.209" lon="3.21438">
        <ele>220</ele>
        <time>2011-05-15T09:35:33Z</time>
      </trkpt>
      <trkpt lat="48.209" lon="3.21438">
        <ele>220</ele>
        <time>2011-05-15T09:35:36Z</time>
      </trkpt>
      <trkpt lat="48.20896" lon="3.21432">
        <ele>220</ele>
        <time>2011-05-15T09:35:37Z</time>
      </trkpt>
      <trkpt lat="48.20883" lon="3.21429">
        <ele>221</ele>
        <time>2011-05-15T09:35:43Z</time>
      </trkpt>
      <trkpt lat="48.20883" lon="3.21429">
        <ele>221</ele>
        <time>2011-05-15T09:35:43Z</time>
      </trkpt>
      <trkpt lat="48.20883" lon="3.21429">
        <ele>221</ele>
        <time>2011-05-15T09:35:49Z</time>
      </trkpt>
      <trkpt lat="48.20873" lon="3.21427">
        <ele>221</ele>
        <time>2011-05-15T09:35:50Z</time>
      </trkpt>
      <trkpt lat="48.20873" lon="3.21427">
        <ele>221</ele>
        <time>2011-05-15T09:35:50Z</time>
      </trkpt>
      <trkpt lat="48.20873" lon="3.21427">
        <ele>221</ele>
        <time>2011-05-15T09:35:55Z</time>
      </trkpt>
      <trkpt lat="48.20863" lon="3.21432">
        <ele>222</ele>
        <time>2011-05-15T09:35:56Z</time>
      </trkpt>
      <trkpt lat="48.20863" lon="3.21432">
        <ele>222</ele>
        <time>2011-05-15T09:35:56Z</time>
      </trkpt>
      <trkpt lat="48.20863" lon="3.21432">
        <ele>222</ele>
        <time>2011-05-15T09:36:02Z</time>
      </trkpt>
      <trkpt lat="48.20853" lon="3.21429">
        <ele>223</ele>
        <time>2011-05-15T09:36:03Z</time>
      </trkpt>
      <trkpt lat="48.20853" lon="3.21429">
        <ele>223</ele>
        <time>2011-05-15T09:36:03Z</time>
      </trkpt>
      <trkpt lat="48.20853" lon="3.21429">
        <ele>223</ele>
        <time>2011-05-15T09:36:08Z</time>
      </trkpt>
      <trkpt lat="48.20845" lon="3.21423">
        <ele>223</ele>
        <time>2011-05-15T09:36:09Z</time>
      </trkpt>
      <trkpt lat="48.20839" lon="3.2141">
        <ele>223</ele>
        <time>2011-05-15T09:36:11Z</time>
      </trkpt>
      <trkpt lat="48.20838" lon="3.21402">
        <ele>225</ele>
        <time>2011-05-15T09:36:12Z</time>
      </trkpt>
      <trkpt lat="48.20838" lon="3.21393">
        <ele>226</ele>
        <time>2011-05-15T09:36:13Z</time>
      </trkpt>
      <trkpt lat="48.20839" lon="3.21378">
        <ele>227</ele>
        <time>2011-05-15T09:36:15Z</time>
      </trkpt>
      <trkpt lat="48.2084" lon="3.21365">
        <ele>228</ele>
        <time>2011-05-15T09:36:17Z</time>
      </trkpt>
      <trkpt lat="48.20842" lon="3.21354">
        <ele>229</ele>
        <time>2011-05-15T09:36:19Z</time>
      </trkpt>
      <trkpt lat="48.20844" lon="3.21333">
        <ele>229</ele>
        <time>2011-05-15T09:36:30Z</time>
      </trkpt>
      <trkpt lat="48.20844" lon="3.21333">
        <ele>229</ele>
        <time>2011-05-15T09:36:30Z</time>
      </trkpt>
      <trkpt lat="48.20844" lon="3.21333">
        <ele>229</ele>
        <time>2011-05-15T09:36:33Z</time>
      </trkpt>
      <trkpt lat="48.20849" lon="3.2132">
        <ele>228</ele>
        <time>2011-05-15T09:36:34Z</time>
      </trkpt>
      <trkpt lat="48.20851" lon="3.21309">
        <ele>228</ele>
        <time>2011-05-15T09:36:36Z</time>
      </trkpt>
      <trkpt lat="48.20851" lon="3.21296">
        <ele>228</ele>
        <time>2011-05-15T09:36:38Z</time>
      </trkpt>
      <trkpt lat="48.20851" lon="3.21286">
        <ele>228</ele>
        <time>2011-05-15T09:36:40Z</time>
      </trkpt>
      <trkpt lat="48.20851" lon="3.21275">
        <ele>228</ele>
        <time>2011-05-15T09:36:42Z</time>
      </trkpt>
      <trkpt lat="48.20851" lon="3.21264">
        <ele>228</ele>
        <time>2011-05-15T09:36:44Z</time>
      </trkpt>
      <trkpt lat="48.20851" lon="3.21251">
        <ele>228</ele>
        <time>2011-05-15T09:36:46Z</time>
      </trkpt>
      <trkpt lat="48.2085" lon="3.21241">
        <ele>228</ele>
        <time>2011-05-15T09:36:48Z</time>
      </trkpt>
      <trkpt lat="48.20846" lon="3.21232">
        <ele>228</ele>
        <time>2011-05-15T09:36:50Z</time>
      </trkpt>
      <trkpt lat="48.20839" lon="3.21226">
        <ele>228</ele>
        <time>2011-05-15T09:36:52Z</time>
      </trkpt>
      <trkpt lat="48.20833" lon="3.21219">
        <ele>229</ele>
        <time>2011-05-15T09:36:54Z</time>
      </trkpt>
      <trkpt lat="48.20828" lon="3.21213">
        <ele>229</ele>
        <time>2011-05-15T09:36:56Z</time>
      </trkpt>
      <trkpt lat="48.20821" lon="3.21206">
        <ele>229</ele>
        <time>2011-05-15T09:36:58Z</time>
      </trkpt>
      <trkpt lat="48.20816" lon="3.212">
        <ele>229</ele>
        <time>2011-05-15T09:37:00Z</time>
      </trkpt>
      <trkpt lat="48.2081" lon="3.21196">
        <ele>229</ele>
        <time>2011-05-15T09:37:02Z</time>
      </trkpt>
      <trkpt lat="48.20804" lon="3.21191">
        <ele>230</ele>
        <time>2011-05-15T09:37:04Z</time>
      </trkpt>
      <trkpt lat="48.20799" lon="3.21187">
        <ele>230</ele>
        <time>2011-05-15T09:37:06Z</time>
      </trkpt>
      <trkpt lat="48.20792" lon="3.21183">
        <ele>230</ele>
        <time>2011-05-15T09:37:08Z</time>
      </trkpt>
      <trkpt lat="48.20786" lon="3.21178">
        <ele>230</ele>
        <time>2011-05-15T09:37:10Z</time>
      </trkpt>
      <trkpt lat="48.20779" lon="3.21174">
        <ele>230</ele>
        <time>2011-05-15T09:37:12Z</time>
      </trkpt>
      <trkpt lat="48.20772" lon="3.2117">
        <ele>231</ele>
        <time>2011-05-15T09:37:14Z</time>
      </trkpt>
      <trkpt lat="48.20765" lon="3.21166">
        <ele>231</ele>
        <time>2011-05-15T09:37:16Z</time>
      </trkpt>
      <trkpt lat="48.20751" lon="3.21159">
        <ele>233</ele>
        <time>2011-05-15T09:37:21Z</time>
      </trkpt>
      <trkpt lat="48.20751" lon="3.21159">
        <ele>233</ele>
        <time>2011-05-15T09:37:21Z</time>
      </trkpt>
      <trkpt lat="48.20751" lon="3.21159">
        <ele>233</ele>
        <time>2011-05-15T09:37:24Z</time>
      </trkpt>
      <trkpt lat="48.20741" lon="3.21153">
        <ele>234</ele>
        <time>2011-05-15T09:37:25Z</time>
      </trkpt>
      <trkpt lat="48.20741" lon="3.21153">
        <ele>234</ele>
        <time>2011-05-15T09:37:25Z</time>
      </trkpt>
      <trkpt lat="48.20741" lon="3.21153">
        <ele>234</ele>
        <time>2011-05-15T09:37:28Z</time>
      </trkpt>
      <trkpt lat="48.20731" lon="3.21144">
        <ele>235</ele>
        <time>2011-05-15T09:37:29Z</time>
      </trkpt>
      <trkpt lat="48.20731" lon="3.21144">
        <ele>235</ele>
        <time>2011-05-15T09:37:29Z</time>
      </trkpt>
      <trkpt lat="48.20731" lon="3.21144">
        <ele>235</ele>
        <time>2011-05-15T09:37:32Z</time>
      </trkpt>
      <trkpt lat="48.2072" lon="3.21138">
        <ele>235</ele>
        <time>2011-05-15T09:37:33Z</time>
      </trkpt>
      <trkpt lat="48.2072" lon="3.21138">
        <ele>235</ele>
        <time>2011-05-15T09:37:33Z</time>
      </trkpt>
      <trkpt lat="48.2072" lon="3.21138">
        <ele>235</ele>
        <time>2011-05-15T09:37:36Z</time>
      </trkpt>
      <trkpt lat="48.20711" lon="3.21131">
        <ele>236</ele>
        <time>2011-05-15T09:37:37Z</time>
      </trkpt>
      <trkpt lat="48.20711" lon="3.21131">
        <ele>236</ele>
        <time>2011-05-15T09:37:37Z</time>
      </trkpt>
      <trkpt lat="48.20711" lon="3.21131">
        <ele>236</ele>
        <time>2011-05-15T09:37:40Z</time>
      </trkpt>
      <trkpt lat="48.20702" lon="3.21125">
        <ele>237</ele>
        <time>2011-05-15T09:37:41Z</time>
      </trkpt>
      <trkpt lat="48.20702" lon="3.21125">
        <ele>237</ele>
        <time>2011-05-15T09:37:41Z</time>
      </trkpt>
      <trkpt lat="48.20702" lon="3.21125">
        <ele>237</ele>
        <time>2011-05-15T09:37:44Z</time>
      </trkpt>
      <trkpt lat="48.20694" lon="3.21114">
        <ele>237</ele>
        <time>2011-05-15T09:37:45Z</time>
      </trkpt>
      <trkpt lat="48.20694" lon="3.21114">
        <ele>237</ele>
        <time>2011-05-15T09:37:45Z</time>
      </trkpt>
      <trkpt lat="48.20694" lon="3.21114">
        <ele>237</ele>
        <time>2011-05-15T09:37:47Z</time>
      </trkpt>
      <trkpt lat="48.20692" lon="3.21099">
        <ele>238</ele>
        <time>2011-05-15T09:37:48Z</time>
      </trkpt>
      <trkpt lat="48.20692" lon="3.21086">
        <ele>238</ele>
        <time>2011-05-15T09:37:50Z</time>
      </trkpt>
      <trkpt lat="48.20692" lon="3.21075">
        <ele>238</ele>
        <time>2011-05-15T09:37:52Z</time>
      </trkpt>
      <trkpt lat="48.20691" lon="3.21067">
        <ele>238</ele>
        <time>2011-05-15T09:37:54Z</time>
      </trkpt>
      <trkpt lat="48.2069" lon="3.21056">
        <ele>239</ele>
        <time>2011-05-15T09:37:56Z</time>
      </trkpt>
      <trkpt lat="48.20693" lon="3.21037">
        <ele>239</ele>
        <time>2011-05-15T09:38:02Z</time>
      </trkpt>
      <trkpt lat="48.20693" lon="3.21037">
        <ele>239</ele>
        <time>2011-05-15T09:38:02Z</time>
      </trkpt>
      <trkpt lat="48.20693" lon="3.21037">
        <ele>239</ele>
        <time>2011-05-15T09:38:08Z</time>
      </trkpt>
      <trkpt lat="48.20699" lon="3.21026">
        <ele>239</ele>
        <time>2011-05-15T09:38:09Z</time>
      </trkpt>
      <trkpt lat="48.20699" lon="3.21026">
        <ele>239</ele>
        <time>2011-05-15T09:38:09Z</time>
      </trkpt>
      <trkpt lat="48.20699" lon="3.21026">
        <ele>239</ele>
        <time>2011-05-15T09:38:19Z</time>
      </trkpt>
      <trkpt lat="48.20704" lon="3.21037">
        <ele>239</ele>
        <time>2011-05-15T09:38:20Z</time>
      </trkpt>
      <trkpt lat="48.20704" lon="3.21037">
        <ele>239</ele>
        <time>2011-05-15T09:38:20Z</time>
      </trkpt>
      <trkpt lat="48.20704" lon="3.21037">
        <ele>239</ele>
        <time>2011-05-15T09:38:28Z</time>
      </trkpt>
      <trkpt lat="48.2071" lon="3.2105">
        <ele>239</ele>
        <time>2011-05-15T09:38:29Z</time>
      </trkpt>
      <trkpt lat="48.2071" lon="3.2105">
        <ele>239</ele>
        <time>2011-05-15T09:38:29Z</time>
      </trkpt>
      <trkpt lat="48.2071" lon="3.2105">
        <ele>239</ele>
        <time>2011-05-15T09:38:37Z</time>
      </trkpt>
      <trkpt lat="48.20716" lon="3.21058">
        <ele>238</ele>
        <time>2011-05-15T09:38:38Z</time>
      </trkpt>
      <trkpt lat="48.20716" lon="3.21058">
        <ele>238</ele>
        <time>2011-05-15T09:38:38Z</time>
      </trkpt>
      <trkpt lat="48.20716" lon="3.21058">
        <ele>238</ele>
        <time>2011-05-15T09:38:44Z</time>
      </trkpt>
      <trkpt lat="48.20726" lon="3.21065">
        <ele>238</ele>
        <time>2011-05-15T09:38:45Z</time>
      </trkpt>
      <trkpt lat="48.20733" lon="3.21067">
        <ele>237</ele>
        <time>2011-05-15T09:38:47Z</time>
      </trkpt>
      <trkpt lat="48.2074" lon="3.21069">
        <ele>237</ele>
        <time>2011-05-15T09:38:49Z</time>
      </trkpt>
      <trkpt lat="48.20746" lon="3.21073">
        <ele>237</ele>
        <time>2011-05-15T09:38:51Z</time>
      </trkpt>
      <trkpt lat="48.2075" lon="3.21075">
        <ele>237</ele>
        <time>2011-05-15T09:38:52Z</time>
      </trkpt>
      <trkpt lat="48.20758" lon="3.21078">
        <ele>237</ele>
        <time>2011-05-15T09:38:54Z</time>
      </trkpt>
      <trkpt lat="48.20762" lon="3.2108">
        <ele>236</ele>
        <time>2011-05-15T09:38:55Z</time>
      </trkpt>
      <trkpt lat="48.20766" lon="3.21082">
        <ele>236</ele>
        <time>2011-05-15T09:38:56Z</time>
      </trkpt>
      <trkpt lat="48.20774" lon="3.21086">
        <ele>236</ele>
        <time>2011-05-15T09:38:58Z</time>
      </trkpt>
      <trkpt lat="48.2078" lon="3.21093">
        <ele>236</ele>
        <time>2011-05-15T09:39:00Z</time>
      </trkpt>
      <trkpt lat="48.20787" lon="3.21097">
        <ele>236</ele>
        <time>2011-05-15T09:39:02Z</time>
      </trkpt>
      <trkpt lat="48.20791" lon="3.21101">
        <ele>235</ele>
        <time>2011-05-15T09:39:04Z</time>
      </trkpt>
      <trkpt lat="48.20794" lon="3.2111">
        <ele>235</ele>
        <time>2011-05-15T09:39:06Z</time>
      </trkpt>
      <trkpt lat="48.20798" lon="3.21116">
        <ele>235</ele>
        <time>2011-05-15T09:39:08Z</time>
      </trkpt>
      <trkpt lat="48.20798" lon="3.21116">
        <ele>235</ele>
        <time>2011-05-15T09:39:08Z</time>
      </trkpt>
      <trkpt lat="48.20798" lon="3.21116">
        <ele>235</ele>
        <time>2011-05-15T09:39:12Z</time>
      </trkpt>
      <trkpt lat="48.20802" lon="3.21129">
        <ele>235</ele>
        <time>2011-05-15T09:39:13Z</time>
      </trkpt>
      <trkpt lat="48.20802" lon="3.21129">
        <ele>235</ele>
        <time>2011-05-15T09:39:13Z</time>
      </trkpt>
      <trkpt lat="48.20802" lon="3.21129">
        <ele>235</ele>
        <time>2011-05-15T09:39:17Z</time>
      </trkpt>
      <trkpt lat="48.20804" lon="3.21144">
        <ele>235</ele>
        <time>2011-05-15T09:39:18Z</time>
      </trkpt>
      <trkpt lat="48.20804" lon="3.21144">
        <ele>235</ele>
        <time>2011-05-15T09:39:18Z</time>
      </trkpt>
      <trkpt lat="48.20804" lon="3.21144">
        <ele>235</ele>
        <time>2011-05-15T09:39:19Z</time>
      </trkpt>
      <trkpt lat="48.20806" lon="3.2115">
        <ele>235</ele>
        <time>2011-05-15T09:39:20Z</time>
      </trkpt>
      <trkpt lat="48.20808" lon="3.21159">
        <ele>235</ele>
        <time>2011-05-15T09:39:23Z</time>
      </trkpt>
      <trkpt lat="48.2081" lon="3.21168">
        <ele>235</ele>
        <time>2011-05-15T09:39:27Z</time>
      </trkpt>
      <trkpt lat="48.20814" lon="3.21174">
        <ele>235</ele>
        <time>2011-05-15T09:39:30Z</time>
      </trkpt>
      <trkpt lat="48.20816" lon="3.2118">
        <ele>236</ele>
        <time>2011-05-15T09:39:32Z</time>
      </trkpt>
      <trkpt lat="48.20821" lon="3.21187">
        <ele>236</ele>
        <time>2011-05-15T09:39:35Z</time>
      </trkpt>
      <trkpt lat="48.20825" lon="3.21193">
        <ele>236</ele>
        <time>2011-05-15T09:39:38Z</time>
      </trkpt>
      <trkpt lat="48.2083" lon="3.212">
        <ele>236</ele>
        <time>2011-05-15T09:39:41Z</time>
      </trkpt>
      <trkpt lat="48.20833" lon="3.21206">
        <ele>236</ele>
        <time>2011-05-15T09:39:43Z</time>
      </trkpt>
      <trkpt lat="48.20838" lon="3.21213">
        <ele>236</ele>
        <time>2011-05-15T09:39:46Z</time>
      </trkpt>
      <trkpt lat="48.20844" lon="3.21219">
        <ele>236</ele>
        <time>2011-05-15T09:39:49Z</time>
      </trkpt>
      <trkpt lat="48.20848" lon="3.21226">
        <ele>236</ele>
        <time>2011-05-15T09:39:52Z</time>
      </trkpt>
      <trkpt lat="48.20851" lon="3.21232">
        <ele>236</ele>
        <time>2011-05-15T09:39:56Z</time>
      </trkpt>
      <trkpt lat="48.20855" lon="3.21236">
        <ele>236</ele>
        <time>2011-05-15T09:40:01Z</time>
      </trkpt>
      <trkpt lat="48.2086" lon="3.21238">
        <ele>236</ele>
        <time>2011-05-15T09:40:05Z</time>
      </trkpt>
      <trkpt lat="48.20864" lon="3.21243">
        <ele>236</ele>
        <time>2011-05-15T09:40:07Z</time>
      </trkpt>
      <trkpt lat="48.20868" lon="3.21247">
        <ele>236</ele>
        <time>2011-05-15T09:40:09Z</time>
      </trkpt>
      <trkpt lat="48.20873" lon="3.21254">
        <ele>236</ele>
        <time>2011-05-15T09:40:12Z</time>
      </trkpt>
      <trkpt lat="48.20875" lon="3.2126">
        <ele>235</ele>
        <time>2011-05-15T09:40:15Z</time>
      </trkpt>
      <trkpt lat="48.20877" lon="3.21266">
        <ele>235</ele>
        <time>2011-05-15T09:40:18Z</time>
      </trkpt>
      <trkpt lat="48.20878" lon="3.21275">
        <ele>235</ele>
        <time>2011-05-15T09:40:21Z</time>
      </trkpt>
      <trkpt lat="48.20881" lon="3.21281">
        <ele>235</ele>
        <time>2011-05-15T09:40:24Z</time>
      </trkpt>
      <trkpt lat="48.20887" lon="3.21288">
        <ele>235</ele>
        <time>2011-05-15T09:40:27Z</time>
      </trkpt>
      <trkpt lat="48.20891" lon="3.2129">
        <ele>235</ele>
        <time>2011-05-15T09:40:29Z</time>
      </trkpt>
      <trkpt lat="48.20895" lon="3.21294">
        <ele>235</ele>
        <time>2011-05-15T09:40:31Z</time>
      </trkpt>
      <trkpt lat="48.209" lon="3.21298">
        <ele>234</ele>
        <time>2011-05-15T09:40:33Z</time>
      </trkpt>
      <trkpt lat="48.20906" lon="3.21301">
        <ele>234</ele>
        <time>2011-05-15T09:40:35Z</time>
      </trkpt>
      <trkpt lat="48.2091" lon="3.21305">
        <ele>233</ele>
        <time>2011-05-15T09:40:37Z</time>
      </trkpt>
      <trkpt lat="48.20916" lon="3.21307">
        <ele>233</ele>
        <time>2011-05-15T09:40:39Z</time>
      </trkpt>
      <trkpt lat="48.2092" lon="3.21309">
        <ele>232</ele>
        <time>2011-05-15T09:40:41Z</time>
      </trkpt>
      <trkpt lat="48.20925" lon="3.21314">
        <ele>232</ele>
        <time>2011-05-15T09:40:43Z</time>
      </trkpt>
      <trkpt lat="48.20931" lon="3.21316">
        <ele>231</ele>
        <time>2011-05-15T09:40:45Z</time>
      </trkpt>
      <trkpt lat="48.20935" lon="3.21318">
        <ele>231</ele>
        <time>2011-05-15T09:40:47Z</time>
      </trkpt>
      <trkpt lat="48.2094" lon="3.2132">
        <ele>230</ele>
        <time>2011-05-15T09:40:49Z</time>
      </trkpt>
      <trkpt lat="48.20946" lon="3.21324">
        <ele>230</ele>
        <time>2011-05-15T09:40:51Z</time>
      </trkpt>
      <trkpt lat="48.20951" lon="3.21324">
        <ele>230</ele>
        <time>2011-05-15T09:40:53Z</time>
      </trkpt>
      <trkpt lat="48.20953" lon="3.21318">
        <ele>229</ele>
        <time>2011-05-15T09:40:55Z</time>
      </trkpt>
      <trkpt lat="48.20955" lon="3.21311">
        <ele>229</ele>
        <time>2011-05-15T09:40:57Z</time>
      </trkpt>
      <trkpt lat="48.20956" lon="3.21303">
        <ele>228</ele>
        <time>2011-05-15T09:41:00Z</time>
      </trkpt>
      <trkpt lat="48.20957" lon="3.21294">
        <ele>228</ele>
        <time>2011-05-15T09:41:02Z</time>
      </trkpt>
      <trkpt lat="48.20958" lon="3.21286">
        <ele>228</ele>
        <time>2011-05-15T09:41:04Z</time>
      </trkpt>
      <trkpt lat="48.20961" lon="3.21275">
        <ele>227</ele>
        <time>2011-05-15T09:41:06Z</time>
      </trkpt>
      <trkpt lat="48.20963" lon="3.21264">
        <ele>227</ele>
        <time>2011-05-15T09:41:08Z</time>
      </trkpt>
      <trkpt lat="48.20965" lon="3.21258">
        <ele>226</ele>
        <time>2011-05-15T09:41:09Z</time>
      </trkpt>
      <trkpt lat="48.20967" lon="3.21245">
        <ele>226</ele>
        <time>2011-05-15T09:41:11Z</time>
      </trkpt>
      <trkpt lat="48.20969" lon="3.21238">
        <ele>226</ele>
        <time>2011-05-15T09:41:12Z</time>
      </trkpt>
      <trkpt lat="48.2097" lon="3.2123">
        <ele>226</ele>
        <time>2011-05-15T09:41:13Z</time>
      </trkpt>
      <trkpt lat="48.20971" lon="3.21221">
        <ele>225</ele>
        <time>2011-05-15T09:41:14Z</time>
      </trkpt>
      <trkpt lat="48.20972" lon="3.21206">
        <ele>225</ele>
        <time>2011-05-15T09:41:16Z</time>
      </trkpt>
      <trkpt lat="48.20974" lon="3.21193">
        <ele>224</ele>
        <time>2011-05-15T09:41:18Z</time>
      </trkpt>
      <trkpt lat="48.20974" lon="3.2118">
        <ele>224</ele>
        <time>2011-05-15T09:41:20Z</time>
      </trkpt>
      <trkpt lat="48.20972" lon="3.21172">
        <ele>223</ele>
        <time>2011-05-15T09:41:22Z</time>
      </trkpt>
      <trkpt lat="48.20971" lon="3.21163">
        <ele>223</ele>
        <time>2011-05-15T09:41:24Z</time>
      </trkpt>
      <trkpt lat="48.2097" lon="3.21155">
        <ele>222</ele>
        <time>2011-05-15T09:41:26Z</time>
      </trkpt>
      <trkpt lat="48.20969" lon="3.21144">
        <ele>222</ele>
        <time>2011-05-15T09:41:29Z</time>
      </trkpt>
      <trkpt lat="48.20969" lon="3.21144">
        <ele>222</ele>
        <time>2011-05-15T09:41:29Z</time>
      </trkpt>
      <trkpt lat="48.20969" lon="3.21144">
        <ele>222</ele>
        <time>2011-05-15T09:41:30Z</time>
      </trkpt>
      <trkpt lat="48.20972" lon="3.21138">
        <ele>221</ele>
        <time>2011-05-15T09:41:34Z</time>
      </trkpt>
      <trkpt lat="48.20979" lon="3.21136">
        <ele>220</ele>
        <time>2011-05-15T09:41:37Z</time>
      </trkpt>
      <trkpt lat="48.20987" lon="3.21133">
        <ele>220</ele>
        <time>2011-05-15T09:41:40Z</time>
      </trkpt>
      <trkpt lat="48.20994" lon="3.21136">
        <ele>219</ele>
        <time>2011-05-15T09:41:42Z</time>
      </trkpt>
      <trkpt lat="48.20998" lon="3.21138">
        <ele>219</ele>
        <time>2011-05-15T09:41:43Z</time>
      </trkpt>
      <trkpt lat="48.21005" lon="3.21142">
        <ele>219</ele>
        <time>2011-05-15T09:41:45Z</time>
      </trkpt>
      <trkpt lat="48.21012" lon="3.21146">
        <ele>216</ele>
        <time>2011-05-15T09:41:47Z</time>
      </trkpt>
      <trkpt lat="48.21016" lon="3.21148">
        <ele>215</ele>
        <time>2011-05-15T09:41:48Z</time>
      </trkpt>
      <trkpt lat="48.21022" lon="3.21153">
        <ele>214</ele>
        <time>2011-05-15T09:41:49Z</time>
      </trkpt>
      <trkpt lat="48.21026" lon="3.21155">
        <ele>213</ele>
        <time>2011-05-15T09:41:50Z</time>
      </trkpt>
      <trkpt lat="48.2103" lon="3.21157">
        <ele>212</ele>
        <time>2011-05-15T09:41:51Z</time>
      </trkpt>
      <trkpt lat="48.21036" lon="3.21159">
        <ele>211</ele>
        <time>2011-05-15T09:41:52Z</time>
      </trkpt>
      <trkpt lat="48.2104" lon="3.21161">
        <ele>211</ele>
        <time>2011-05-15T09:41:53Z</time>
      </trkpt>
      <trkpt lat="48.21045" lon="3.21163">
        <ele>210</ele>
        <time>2011-05-15T09:41:54Z</time>
      </trkpt>
      <trkpt lat="48.21052" lon="3.21166">
        <ele>210</ele>
        <time>2011-05-15T09:41:55Z</time>
      </trkpt>
      <trkpt lat="48.21057" lon="3.21168">
        <ele>209</ele>
        <time>2011-05-15T09:41:56Z</time>
      </trkpt>
      <trkpt lat="48.21064" lon="3.21168">
        <ele>209</ele>
        <time>2011-05-15T09:41:57Z</time>
      </trkpt>
      <trkpt lat="48.21069" lon="3.21172">
        <ele>209</ele>
        <time>2011-05-15T09:41:58Z</time>
      </trkpt>
      <trkpt lat="48.21074" lon="3.21176">
        <ele>208</ele>
        <time>2011-05-15T09:41:59Z</time>
      </trkpt>
      <trkpt lat="48.2108" lon="3.2118">
        <ele>208</ele>
        <time>2011-05-15T09:42:00Z</time>
      </trkpt>
      <trkpt lat="48.21086" lon="3.21185">
        <ele>208</ele>
        <time>2011-05-15T09:42:01Z</time>
      </trkpt>
      <trkpt lat="48.21093" lon="3.21189">
        <ele>208</ele>
        <time>2011-05-15T09:42:02Z</time>
      </trkpt>
      <trkpt lat="48.21097" lon="3.21198">
        <ele>208</ele>
        <time>2011-05-15T09:42:03Z</time>
      </trkpt>
      <trkpt lat="48.21102" lon="3.21204">
        <ele>207</ele>
        <time>2011-05-15T09:42:04Z</time>
      </trkpt>
      <trkpt lat="48.21108" lon="3.21213">
        <ele>207</ele>
        <time>2011-05-15T09:42:05Z</time>
      </trkpt>
      <trkpt lat="48.21112" lon="3.21221">
        <ele>206</ele>
        <time>2011-05-15T09:42:06Z</time>
      </trkpt>
      <trkpt lat="48.21115" lon="3.2123">
        <ele>206</ele>
        <time>2011-05-15T09:42:07Z</time>
      </trkpt>
      <trkpt lat="48.21119" lon="3.21238">
        <ele>205</ele>
        <time>2011-05-15T09:42:08Z</time>
      </trkpt>
      <trkpt lat="48.21124" lon="3.21245">
        <ele>205</ele>
        <time>2011-05-15T09:42:09Z</time>
      </trkpt>
      <trkpt lat="48.21128" lon="3.21254">
        <ele>204</ele>
        <time>2011-05-15T09:42:10Z</time>
      </trkpt>
      <trkpt lat="48.21132" lon="3.2126">
        <ele>204</ele>
        <time>2011-05-15T09:42:11Z</time>
      </trkpt>
      <trkpt lat="48.21136" lon="3.21264">
        <ele>204</ele>
        <time>2011-05-15T09:42:12Z</time>
      </trkpt>
      <trkpt lat="48.21142" lon="3.21271">
        <ele>203</ele>
        <time>2011-05-15T09:42:13Z</time>
      </trkpt>
      <trkpt lat="48.21146" lon="3.21275">
        <ele>203</ele>
        <time>2011-05-15T09:42:14Z</time>
      </trkpt>
      <trkpt lat="48.21153" lon="3.21279">
        <ele>203</ele>
        <time>2011-05-15T09:42:15Z</time>
      </trkpt>
      <trkpt lat="48.21158" lon="3.21284">
        <ele>203</ele>
        <time>2011-05-15T09:42:16Z</time>
      </trkpt>
      <trkpt lat="48.21163" lon="3.2129">
        <ele>203</ele>
        <time>2011-05-15T09:42:17Z</time>
      </trkpt>
      <trkpt lat="48.2117" lon="3.21294">
        <ele>203</ele>
        <time>2011-05-15T09:42:18Z</time>
      </trkpt>
      <trkpt lat="48.21175" lon="3.21301">
        <ele>203</ele>
        <time>2011-05-15T09:42:19Z</time>
      </trkpt>
      <trkpt lat="48.21182" lon="3.21307">
        <ele>203</ele>
        <time>2011-05-15T09:42:20Z</time>
      </trkpt>
      <trkpt lat="48.21188" lon="3.21314">
        <ele>203</ele>
        <time>2011-05-15T09:42:21Z</time>
      </trkpt>
      <trkpt lat="48.21193" lon="3.2132">
        <ele>202</ele>
        <time>2011-05-15T09:42:22Z</time>
      </trkpt>
      <trkpt lat="48.21199" lon="3.21326">
        <ele>201</ele>
        <time>2011-05-15T09:42:23Z</time>
      </trkpt>
      <trkpt lat="48.21205" lon="3.21331">
        <ele>201</ele>
        <time>2011-05-15T09:42:24Z</time>
      </trkpt>
      <trkpt lat="48.21211" lon="3.21335">
        <ele>200</ele>
        <time>2011-05-15T09:42:25Z</time>
      </trkpt>
      <trkpt lat="48.21216" lon="3.21339">
        <ele>200</ele>
        <time>2011-05-15T09:42:26Z</time>
      </trkpt>
      <trkpt lat="48.21222" lon="3.21346">
        <ele>200</ele>
        <time>2011-05-15T09:42:27Z</time>
      </trkpt>
      <trkpt lat="48.21228" lon="3.2135">
        <ele>200</ele>
        <time>2011-05-15T09:42:28Z</time>
      </trkpt>
      <trkpt lat="48.21233" lon="3.21354">
        <ele>199</ele>
        <time>2011-05-15T09:42:29Z</time>
      </trkpt>
      <trkpt lat="48.2124" lon="3.21359">
        <ele>199</ele>
        <time>2011-05-15T09:42:30Z</time>
      </trkpt>
      <trkpt lat="48.21245" lon="3.21363">
        <ele>198</ele>
        <time>2011-05-15T09:42:31Z</time>
      </trkpt>
      <trkpt lat="48.2125" lon="3.21369">
        <ele>197</ele>
        <time>2011-05-15T09:42:32Z</time>
      </trkpt>
      <trkpt lat="48.21256" lon="3.21374">
        <ele>197</ele>
        <time>2011-05-15T09:42:33Z</time>
      </trkpt>
      <trkpt lat="48.21262" lon="3.21376">
        <ele>196</ele>
        <time>2011-05-15T09:42:34Z</time>
      </trkpt>
      <trkpt lat="48.21267" lon="3.21378">
        <ele>195</ele>
        <time>2011-05-15T09:42:35Z</time>
      </trkpt>
      <trkpt lat="48.21274" lon="3.2138">
        <ele>194</ele>
        <time>2011-05-15T09:42:36Z</time>
      </trkpt>
      <trkpt lat="48.21281" lon="3.21382">
        <ele>193</ele>
        <time>2011-05-15T09:42:37Z</time>
      </trkpt>
      <trkpt lat="48.21289" lon="3.21386">
        <ele>190</ele>
        <time>2011-05-15T09:42:38Z</time>
      </trkpt>
      <trkpt lat="48.21296" lon="3.21391">
        <ele>187</ele>
        <time>2011-05-15T09:42:39Z</time>
      </trkpt>
      <trkpt lat="48.21304" lon="3.21395">
        <ele>184</ele>
        <time>2011-05-15T09:42:40Z</time>
      </trkpt>
      <trkpt lat="48.21312" lon="3.21402">
        <ele>181</ele>
        <time>2011-05-15T09:42:41Z</time>
      </trkpt>
      <trkpt lat="48.2132" lon="3.21406">
        <ele>179</ele>
        <time>2011-05-15T09:42:42Z</time>
      </trkpt>
      <trkpt lat="48.21326" lon="3.21412">
        <ele>177</ele>
        <time>2011-05-15T09:42:43Z</time>
      </trkpt>
      <trkpt lat="48.21333" lon="3.21417">
        <ele>175</ele>
        <time>2011-05-15T09:42:44Z</time>
      </trkpt>
      <trkpt lat="48.2134" lon="3.21421">
        <ele>174</ele>
        <time>2011-05-15T09:42:45Z</time>
      </trkpt>
      <trkpt lat="48.21347" lon="3.21425">
        <ele>172</ele>
        <time>2011-05-15T09:42:46Z</time>
      </trkpt>
      <trkpt lat="48.21353" lon="3.21429">
        <ele>171</ele>
        <time>2011-05-15T09:42:47Z</time>
      </trkpt>
      <trkpt lat="48.2136" lon="3.21432">
        <ele>170</ele>
        <time>2011-05-15T09:42:48Z</time>
      </trkpt>
      <trkpt lat="48.21366" lon="3.21436">
        <ele>169</ele>
        <time>2011-05-15T09:42:49Z</time>
      </trkpt>
      <trkpt lat="48.21373" lon="3.21438">
        <ele>168</ele>
        <time>2011-05-15T09:42:50Z</time>
      </trkpt>
      <trkpt lat="48.21378" lon="3.21442">
        <ele>168</ele>
        <time>2011-05-15T09:42:51Z</time>
      </trkpt>
      <trkpt lat="48.21384" lon="3.21444">
        <ele>167</ele>
        <time>2011-05-15T09:42:52Z</time>
      </trkpt>
      <trkpt lat="48.2139" lon="3.21447">
        <ele>167</ele>
        <time>2011-05-15T09:42:53Z</time>
      </trkpt>
      <trkpt lat="48.21395" lon="3.21449">
        <ele>166</ele>
        <time>2011-05-15T09:42:54Z</time>
      </trkpt>
      <trkpt lat="48.214" lon="3.21453">
        <ele>166</ele>
        <time>2011-05-15T09:42:55Z</time>
      </trkpt>
      <trkpt lat="48.21407" lon="3.21455">
        <ele>165</ele>
        <time>2011-05-15T09:42:56Z</time>
      </trkpt>
      <trkpt lat="48.21412" lon="3.2146">
        <ele>165</ele>
        <time>2011-05-15T09:42:57Z</time>
      </trkpt>
      <trkpt lat="48.21418" lon="3.21462">
        <ele>165</ele>
        <time>2011-05-15T09:42:58Z</time>
      </trkpt>
      <trkpt lat="48.21425" lon="3.21466">
        <ele>165</ele>
        <time>2011-05-15T09:42:59Z</time>
      </trkpt>
      <trkpt lat="48.21432" lon="3.2147">
        <ele>165</ele>
        <time>2011-05-15T09:43:00Z</time>
      </trkpt>
      <trkpt lat="48.21439" lon="3.21474">
        <ele>164</ele>
        <time>2011-05-15T09:43:01Z</time>
      </trkpt>
      <trkpt lat="48.21447" lon="3.21479">
        <ele>164</ele>
        <time>2011-05-15T09:43:02Z</time>
      </trkpt>
      <trkpt lat="48.21454" lon="3.21483">
        <ele>164</ele>
        <time>2011-05-15T09:43:03Z</time>
      </trkpt>
      <trkpt lat="48.21462" lon="3.2149">
        <ele>164</ele>
        <time>2011-05-15T09:43:04Z</time>
      </trkpt>
      <trkpt lat="48.2147" lon="3.21494">
        <ele>164</ele>
        <time>2011-05-15T09:43:05Z</time>
      </trkpt>
      <trkpt lat="48.21478" lon="3.215">
        <ele>164</ele>
        <time>2011-05-15T09:43:06Z</time>
      </trkpt>
      <trkpt lat="48.21486" lon="3.21507">
        <ele>164</ele>
        <time>2011-05-15T09:43:07Z</time>
      </trkpt>
      <trkpt lat="48.21494" lon="3.21511">
        <ele>163</ele>
        <time>2011-05-15T09:43:08Z</time>
      </trkpt>
      <trkpt lat="48.21502" lon="3.21517">
        <ele>163</ele>
        <time>2011-05-15T09:43:09Z</time>
      </trkpt>
      <trkpt lat="48.2151" lon="3.21522">
        <ele>163</ele>
        <time>2011-05-15T09:43:10Z</time>
      </trkpt>
      <trkpt lat="48.21518" lon="3.21528">
        <ele>163</ele>
        <time>2011-05-15T09:43:11Z</time>
      </trkpt>
      <trkpt lat="48.21526" lon="3.21535">
        <ele>163</ele>
        <time>2011-05-15T09:43:12Z</time>
      </trkpt>
      <trkpt lat="48.21535" lon="3.21541">
        <ele>163</ele>
        <time>2011-05-15T09:43:13Z</time>
      </trkpt>
      <trkpt lat="48.21542" lon="3.21545">
        <ele>163</ele>
        <time>2011-05-15T09:43:14Z</time>
      </trkpt>
      <trkpt lat="48.21551" lon="3.21552">
        <ele>163</ele>
        <time>2011-05-15T09:43:15Z</time>
      </trkpt>
      <trkpt lat="48.21559" lon="3.21558">
        <ele>163</ele>
        <time>2011-05-15T09:43:16Z</time>
      </trkpt>
      <trkpt lat="48.21568" lon="3.21565">
        <ele>163</ele>
        <time>2011-05-15T09:43:17Z</time>
      </trkpt>
      <trkpt lat="48.21576" lon="3.21571">
        <ele>163</ele>
        <time>2011-05-15T09:43:18Z</time>
      </trkpt>
      <trkpt lat="48.21585" lon="3.21575">
        <ele>163</ele>
        <time>2011-05-15T09:43:19Z</time>
      </trkpt>
      <trkpt lat="48.21594" lon="3.21582">
        <ele>162</ele>
        <time>2011-05-15T09:43:20Z</time>
      </trkpt>
      <trkpt lat="48.21602" lon="3.21588">
        <ele>162</ele>
        <time>2011-05-15T09:43:21Z</time>
      </trkpt>
      <trkpt lat="48.21612" lon="3.21597">
        <ele>162</ele>
        <time>2011-05-15T09:43:22Z</time>
      </trkpt>
      <trkpt lat="48.2162" lon="3.21603">
        <ele>162</ele>
        <time>2011-05-15T09:43:23Z</time>
      </trkpt>
      <trkpt lat="48.2163" lon="3.2161">
        <ele>162</ele>
        <time>2011-05-15T09:43:24Z</time>
      </trkpt>
      <trkpt lat="48.21639" lon="3.21616">
        <ele>162</ele>
        <time>2011-05-15T09:43:25Z</time>
      </trkpt>
      <trkpt lat="48.21647" lon="3.21625">
        <ele>161</ele>
        <time>2011-05-15T09:43:26Z</time>
      </trkpt>
      <trkpt lat="48.21657" lon="3.21631">
        <ele>161</ele>
        <time>2011-05-15T09:43:27Z</time>
      </trkpt>
      <trkpt lat="48.21666" lon="3.21638">
        <ele>161</ele>
        <time>2011-05-15T09:43:28Z</time>
      </trkpt>
      <trkpt lat="48.21673" lon="3.21644">
        <ele>161</ele>
        <time>2011-05-15T09:43:29Z</time>
      </trkpt>
      <trkpt lat="48.21682" lon="3.2165">
        <ele>161</ele>
        <time>2011-05-15T09:43:30Z</time>
      </trkpt>
      <trkpt lat="48.21689" lon="3.21657">
        <ele>161</ele>
        <time>2011-05-15T09:43:31Z</time>
      </trkpt>
      <trkpt lat="48.21698" lon="3.21663">
        <ele>161</ele>
        <time>2011-05-15T09:43:32Z</time>
      </trkpt>
      <trkpt lat="48.21705" lon="3.21668">
        <ele>161</ele>
        <time>2011-05-15T09:43:33Z</time>
      </trkpt>
      <trkpt lat="48.21713" lon="3.21674">
        <ele>161</ele>
        <time>2011-05-15T09:43:34Z</time>
      </trkpt>
      <trkpt lat="48.2172" lon="3.21678">
        <ele>160</ele>
        <time>2011-05-15T09:43:35Z</time>
      </trkpt>
      <trkpt lat="48.21727" lon="3.21685">
        <ele>160</ele>
        <time>2011-05-15T09:43:36Z</time>
      </trkpt>
      <trkpt lat="48.21734" lon="3.21689">
        <ele>160</ele>
        <time>2011-05-15T09:43:37Z</time>
      </trkpt>
      <trkpt lat="48.21742" lon="3.21693">
        <ele>160</ele>
        <time>2011-05-15T09:43:38Z</time>
      </trkpt>
      <trkpt lat="48.21748" lon="3.217">
        <ele>160</ele>
        <time>2011-05-15T09:43:39Z</time>
      </trkpt>
      <trkpt lat="48.21756" lon="3.21704">
        <ele>160</ele>
        <time>2011-05-15T09:43:40Z</time>
      </trkpt>
      <trkpt lat="48.21762" lon="3.2171">
        <ele>160</ele>
        <time>2011-05-15T09:43:41Z</time>
      </trkpt>
      <trkpt lat="48.21767" lon="3.21715">
        <ele>159</ele>
        <time>2011-05-15T09:43:42Z</time>
      </trkpt>
      <trkpt lat="48.21774" lon="3.21719">
        <ele>159</ele>
        <time>2011-05-15T09:43:43Z</time>
      </trkpt>
      <trkpt lat="48.2178" lon="3.21723">
        <ele>159</ele>
        <time>2011-05-15T09:43:44Z</time>
      </trkpt>
      <trkpt lat="48.21787" lon="3.21728">
        <ele>159</ele>
        <time>2011-05-15T09:43:45Z</time>
      </trkpt>
      <trkpt lat="48.21793" lon="3.21732">
        <ele>159</ele>
        <time>2011-05-15T09:43:46Z</time>
      </trkpt>
      <trkpt lat="48.218" lon="3.21734">
        <ele>159</ele>
        <time>2011-05-15T09:43:47Z</time>
      </trkpt>
      <trkpt lat="48.21806" lon="3.21736">
        <ele>159</ele>
        <time>2011-05-15T09:43:48Z</time>
      </trkpt>
      <trkpt lat="48.21812" lon="3.21741">
        <ele>159</ele>
        <time>2011-05-15T09:43:49Z</time>
      </trkpt>
      <trkpt lat="48.21819" lon="3.21743">
        <ele>158</ele>
        <time>2011-05-15T09:43:50Z</time>
      </trkpt>
      <trkpt lat="48.21825" lon="3.21747">
        <ele>158</ele>
        <time>2011-05-15T09:43:51Z</time>
      </trkpt>
      <trkpt lat="48.21833" lon="3.21751">
        <ele>158</ele>
        <time>2011-05-15T09:43:52Z</time>
      </trkpt>
      <trkpt lat="48.2184" lon="3.21756">
        <ele>158</ele>
        <time>2011-05-15T09:43:53Z</time>
      </trkpt>
      <trkpt lat="48.21849" lon="3.2176">
        <ele>158</ele>
        <time>2011-05-15T09:43:54Z</time>
      </trkpt>
      <trkpt lat="48.21858" lon="3.21764">
        <ele>158</ele>
        <time>2011-05-15T09:43:55Z</time>
      </trkpt>
      <trkpt lat="48.21866" lon="3.21768">
        <ele>157</ele>
        <time>2011-05-15T09:43:56Z</time>
      </trkpt>
      <trkpt lat="48.21875" lon="3.21775">
        <ele>157</ele>
        <time>2011-05-15T09:43:57Z</time>
      </trkpt>
      <trkpt lat="48.21883" lon="3.21779">
        <ele>157</ele>
        <time>2011-05-15T09:43:58Z</time>
      </trkpt>
      <trkpt lat="48.21891" lon="3.21784">
        <ele>157</ele>
        <time>2011-05-15T09:43:59Z</time>
      </trkpt>
      <trkpt lat="48.21899" lon="3.21788">
        <ele>157</ele>
        <time>2011-05-15T09:44:00Z</time>
      </trkpt>
      <trkpt lat="48.21907" lon="3.21792">
        <ele>157</ele>
        <time>2011-05-15T09:44:01Z</time>
      </trkpt>
      <trkpt lat="48.21914" lon="3.21796">
        <ele>157</ele>
        <time>2011-05-15T09:44:02Z</time>
      </trkpt>
      <trkpt lat="48.21922" lon="3.21798">
        <ele>157</ele>
        <time>2011-05-15T09:44:03Z</time>
      </trkpt>
      <trkpt lat="48.21929" lon="3.21801">
        <ele>157</ele>
        <time>2011-05-15T09:44:04Z</time>
      </trkpt>
      <trkpt lat="48.21937" lon="3.21803">
        <ele>157</ele>
        <time>2011-05-15T09:44:05Z</time>
      </trkpt>
      <trkpt lat="48.21943" lon="3.21805">
        <ele>156</ele>
        <time>2011-05-15T09:44:06Z</time>
      </trkpt>
      <trkpt lat="48.2195" lon="3.21807">
        <ele>156</ele>
        <time>2011-05-15T09:44:07Z</time>
      </trkpt>
      <trkpt lat="48.21956" lon="3.21807">
        <ele>156</ele>
        <time>2011-05-15T09:44:08Z</time>
      </trkpt>
      <trkpt lat="48.21963" lon="3.21809">
        <ele>156</ele>
        <time>2011-05-15T09:44:09Z</time>
      </trkpt>
      <trkpt lat="48.21968" lon="3.21811">
        <ele>156</ele>
        <time>2011-05-15T09:44:10Z</time>
      </trkpt>
      <trkpt lat="48.21974" lon="3.21814">
        <ele>155</ele>
        <time>2011-05-15T09:44:11Z</time>
      </trkpt>
      <trkpt lat="48.2198" lon="3.21816">
        <ele>155</ele>
        <time>2011-05-15T09:44:12Z</time>
      </trkpt>
      <trkpt lat="48.21985" lon="3.21818">
        <ele>155</ele>
        <time>2011-05-15T09:44:13Z</time>
      </trkpt>
      <trkpt lat="48.21991" lon="3.21822">
        <ele>155</ele>
        <time>2011-05-15T09:44:14Z</time>
      </trkpt>
      <trkpt lat="48.21996" lon="3.21824">
        <ele>155</ele>
        <time>2011-05-15T09:44:15Z</time>
      </trkpt>
      <trkpt lat="48.22001" lon="3.21826">
        <ele>155</ele>
        <time>2011-05-15T09:44:16Z</time>
      </trkpt>
      <trkpt lat="48.22006" lon="3.21831">
        <ele>155</ele>
        <time>2011-05-15T09:44:17Z</time>
      </trkpt>
      <trkpt lat="48.22011" lon="3.21833">
        <ele>156</ele>
        <time>2011-05-15T09:44:18Z</time>
      </trkpt>
      <trkpt lat="48.22016" lon="3.21837">
        <ele>156</ele>
        <time>2011-05-15T09:44:19Z</time>
      </trkpt>
      <trkpt lat="48.22021" lon="3.21841">
        <ele>156</ele>
        <time>2011-05-15T09:44:20Z</time>
      </trkpt>
      <trkpt lat="48.22026" lon="3.21844">
        <ele>156</ele>
        <time>2011-05-15T09:44:21Z</time>
      </trkpt>
      <trkpt lat="48.22032" lon="3.21848">
        <ele>156</ele>
        <time>2011-05-15T09:44:23Z</time>
      </trkpt>
      <trkpt lat="48.22039" lon="3.21852">
        <ele>156</ele>
        <time>2011-05-15T09:44:25Z</time>
      </trkpt>
      <trkpt lat="48.22039" lon="3.21852">
        <ele>156</ele>
        <time>2011-05-15T09:44:25Z</time>
      </trkpt>
      <trkpt lat="48.22039" lon="3.21852">
        <ele>156</ele>
        <time>2011-05-15T09:44:27Z</time>
      </trkpt>
      <trkpt lat="48.22043" lon="3.21859">
        <ele>156</ele>
        <time>2011-05-15T09:44:28Z</time>
      </trkpt>
      <trkpt lat="48.22043" lon="3.21859">
        <ele>156</ele>
        <time>2011-05-15T09:44:28Z</time>
      </trkpt>
      <trkpt lat="48.22043" lon="3.21859">
        <ele>156</ele>
        <time>2011-05-15T09:44:30Z</time>
      </trkpt>
      <trkpt lat="48.22048" lon="3.21861">
        <ele>156</ele>
        <time>2011-05-15T09:44:31Z</time>
      </trkpt>
      <trkpt lat="48.22048" lon="3.21861">
        <ele>156</ele>
        <time>2011-05-15T09:44:31Z</time>
      </trkpt>
      <trkpt lat="48.22048" lon="3.21861">
        <ele>156</ele>
        <time>2011-05-15T09:44:33Z</time>
      </trkpt>
      <trkpt lat="48.22053" lon="3.21863">
        <ele>156</ele>
        <time>2011-05-15T09:44:34Z</time>
      </trkpt>
      <trkpt lat="48.22053" lon="3.21863">
        <ele>156</ele>
        <time>2011-05-15T09:44:34Z</time>
      </trkpt>
      <trkpt lat="48.22053" lon="3.21863">
        <ele>156</ele>
        <time>2011-05-15T09:44:37Z</time>
      </trkpt>
      <trkpt lat="48.22058" lon="3.21865">
        <ele>156</ele>
        <time>2011-05-15T09:44:38Z</time>
      </trkpt>
      <trkpt lat="48.22058" lon="3.21865">
        <ele>156</ele>
        <time>2011-05-15T09:44:38Z</time>
      </trkpt>
      <trkpt lat="48.22058" lon="3.21865">
        <ele>156</ele>
        <time>2011-05-15T09:44:44Z</time>
      </trkpt>
      <trkpt lat="48.22067" lon="3.21869">
        <ele>156</ele>
        <time>2011-05-15T09:44:45Z</time>
      </trkpt>
      <trkpt lat="48.22067" lon="3.21869">
        <ele>156</ele>
        <time>2011-05-15T09:44:45Z</time>
      </trkpt>
      <trkpt lat="48.22067" lon="3.21869">
        <ele>156</ele>
        <time>2011-05-15T09:45:10Z</time>
      </trkpt>
      <trkpt lat="48.22072" lon="3.21874">
        <ele>155</ele>
        <time>2011-05-15T09:45:11Z</time>
      </trkpt>
      <trkpt lat="48.22072" lon="3.21874">
        <ele>155</ele>
        <time>2011-05-15T09:45:11Z</time>
      </trkpt>
      <trkpt lat="48.22072" lon="3.21874">
        <ele>155</ele>
        <time>2011-05-15T09:45:35Z</time>
      </trkpt>
      <trkpt lat="48.22078" lon="3.21878">
        <ele>155</ele>
        <time>2011-05-15T09:45:36Z</time>
      </trkpt>
      <trkpt lat="48.22083" lon="3.21884">
        <ele>154</ele>
        <time>2011-05-15T09:45:38Z</time>
      </trkpt>
      <trkpt lat="48.22089" lon="3.21889">
        <ele>154</ele>
        <time>2011-05-15T09:45:40Z</time>
      </trkpt>
      <trkpt lat="48.22096" lon="3.21895">
        <ele>154</ele>
        <time>2011-05-15T09:45:42Z</time>
      </trkpt>
      <trkpt lat="48.22102" lon="3.21899">
        <ele>154</ele>
        <time>2011-05-15T09:45:44Z</time>
      </trkpt>
      <trkpt lat="48.22109" lon="3.21904">
        <ele>154</ele>
        <time>2011-05-15T09:45:46Z</time>
      </trkpt>
      <trkpt lat="48.22115" lon="3.21908">
        <ele>154</ele>
        <time>2011-05-15T09:45:48Z</time>
      </trkpt>
      <trkpt lat="48.2212" lon="3.21912">
        <ele>153</ele>
        <time>2011-05-15T09:45:50Z</time>
      </trkpt>
      <trkpt lat="48.22125" lon="3.21914">
        <ele>153</ele>
        <time>2011-05-15T09:45:52Z</time>
      </trkpt>
      <trkpt lat="48.2213" lon="3.21921">
        <ele>153</ele>
        <time>2011-05-15T09:45:54Z</time>
      </trkpt>
      <trkpt lat="48.22133" lon="3.21927">
        <ele>153</ele>
        <time>2011-05-15T09:45:56Z</time>
      </trkpt>
      <trkpt lat="48.22138" lon="3.21934">
        <ele>153</ele>
        <time>2011-05-15T09:45:58Z</time>
      </trkpt>
      <trkpt lat="48.2214" lon="3.21944">
        <ele>153</ele>
        <time>2011-05-15T09:46:00Z</time>
      </trkpt>
      <trkpt lat="48.22143" lon="3.21953">
        <ele>153</ele>
        <time>2011-05-15T09:46:02Z</time>
      </trkpt>
      <trkpt lat="48.22145" lon="3.21964">
        <ele>152</ele>
        <time>2011-05-15T09:46:04Z</time>
      </trkpt>
      <trkpt lat="48.22148" lon="3.21972">
        <ele>152</ele>
        <time>2011-05-15T09:46:06Z</time>
      </trkpt>
      <trkpt lat="48.2215" lon="3.21981">
        <ele>152</ele>
        <time>2011-05-15T09:46:08Z</time>
      </trkpt>
      <trkpt lat="48.22153" lon="3.2199">
        <ele>152</ele>
        <time>2011-05-15T09:46:10Z</time>
      </trkpt>
      <trkpt lat="48.22155" lon="3.21998">
        <ele>152</ele>
        <time>2011-05-15T09:46:12Z</time>
      </trkpt>
      <trkpt lat="48.22158" lon="3.22007">
        <ele>152</ele>
        <time>2011-05-15T09:46:14Z</time>
      </trkpt>
      <trkpt lat="48.2216" lon="3.22015">
        <ele>152</ele>
        <time>2011-05-15T09:46:16Z</time>
      </trkpt>
      <trkpt lat="48.2216" lon="3.22015">
        <ele>152</ele>
        <time>2011-05-15T09:46:16Z</time>
      </trkpt>
      <trkpt lat="48.2216" lon="3.22015">
        <ele>152</ele>
        <time>2011-05-15T09:46:17Z</time>
      </trkpt>
      <trkpt lat="48.22162" lon="3.22024">
        <ele>152</ele>
        <time>2011-05-15T09:46:18Z</time>
      </trkpt>
      <trkpt lat="48.22169" lon="3.2203">
        <ele>151</ele>
        <time>2011-05-15T09:46:20Z</time>
      </trkpt>
      <trkpt lat="48.22175" lon="3.22039">
        <ele>151</ele>
        <time>2011-05-15T09:46:22Z</time>
      </trkpt>
      <trkpt lat="48.22182" lon="3.22045">
        <ele>151</ele>
        <time>2011-05-15T09:46:24Z</time>
      </trkpt>
      <trkpt lat="48.22187" lon="3.22054">
        <ele>150</ele>
        <time>2011-05-15T09:46:26Z</time>
      </trkpt>
      <trkpt lat="48.22189" lon="3.2206">
        <ele>150</ele>
        <time>2011-05-15T09:46:27Z</time>
      </trkpt>
      <trkpt lat="48.2219" lon="3.22073">
        <ele>150</ele>
        <time>2011-05-15T09:46:29Z</time>
      </trkpt>
      <trkpt lat="48.22192" lon="3.22086">
        <ele>148</ele>
        <time>2011-05-15T09:46:31Z</time>
      </trkpt>
      <trkpt lat="48.22193" lon="3.22092">
        <ele>147</ele>
        <time>2011-05-15T09:46:32Z</time>
      </trkpt>
      <trkpt lat="48.22196" lon="3.22108">
        <ele>146</ele>
        <time>2011-05-15T09:46:34Z</time>
      </trkpt>
      <trkpt lat="48.22198" lon="3.2212">
        <ele>145</ele>
        <time>2011-05-15T09:46:36Z</time>
      </trkpt>
      <trkpt lat="48.222" lon="3.22133">
        <ele>144</ele>
        <time>2011-05-15T09:46:38Z</time>
      </trkpt>
      <trkpt lat="48.22202" lon="3.2214">
        <ele>144</ele>
        <time>2011-05-15T09:46:39Z</time>
      </trkpt>
      <trkpt lat="48.22203" lon="3.2215">
        <ele>144</ele>
        <time>2011-05-15T09:46:41Z</time>
      </trkpt>
      <trkpt lat="48.22207" lon="3.22159">
        <ele>143</ele>
        <time>2011-05-15T09:46:43Z</time>
      </trkpt>
      <trkpt lat="48.22214" lon="3.22168">
        <ele>143</ele>
        <time>2011-05-15T09:46:45Z</time>
      </trkpt>
      <trkpt lat="48.2222" lon="3.22174">
        <ele>143</ele>
        <time>2011-05-15T09:46:47Z</time>
      </trkpt>
      <trkpt lat="48.22224" lon="3.22178">
        <ele>143</ele>
        <time>2011-05-15T09:46:48Z</time>
      </trkpt>
      <trkpt lat="48.22232" lon="3.22185">
        <ele>143</ele>
        <time>2011-05-15T09:46:50Z</time>
      </trkpt>
      <trkpt lat="48.22238" lon="3.22189">
        <ele>142</ele>
        <time>2011-05-15T09:46:52Z</time>
      </trkpt>
      <trkpt lat="48.22245" lon="3.22198">
        <ele>141</ele>
        <time>2011-05-15T09:46:54Z</time>
      </trkpt>
      <trkpt lat="48.22251" lon="3.22204">
        <ele>141</ele>
        <time>2011-05-15T09:46:56Z</time>
      </trkpt>
      <trkpt lat="48.22256" lon="3.22213">
        <ele>141</ele>
        <time>2011-05-15T09:46:58Z</time>
      </trkpt>
      <trkpt lat="48.22259" lon="3.22219">
        <ele>141</ele>
        <time>2011-05-15T09:47:00Z</time>
      </trkpt>
      <trkpt lat="48.22263" lon="3.22226">
        <ele>141</ele>
        <time>2011-05-15T09:47:02Z</time>
      </trkpt>
      <trkpt lat="48.22265" lon="3.22232">
        <ele>141</ele>
        <time>2011-05-15T09:47:04Z</time>
      </trkpt>
      <trkpt lat="48.22267" lon="3.2224">
        <ele>141</ele>
        <time>2011-05-15T09:47:06Z</time>
      </trkpt>
      <trkpt lat="48.2227" lon="3.22249">
        <ele>141</ele>
        <time>2011-05-15T09:47:08Z</time>
      </trkpt>
      <trkpt lat="48.22272" lon="3.22256">
        <ele>141</ele>
        <time>2011-05-15T09:47:10Z</time>
      </trkpt>
      <trkpt lat="48.22274" lon="3.22262">
        <ele>141</ele>
        <time>2011-05-15T09:47:12Z</time>
      </trkpt>
      <trkpt lat="48.22277" lon="3.22268">
        <ele>141</ele>
        <time>2011-05-15T09:47:14Z</time>
      </trkpt>
      <trkpt lat="48.22279" lon="3.22275">
        <ele>141</ele>
        <time>2011-05-15T09:47:16Z</time>
      </trkpt>
      <trkpt lat="48.22282" lon="3.22281">
        <ele>141</ele>
        <time>2011-05-15T09:47:18Z</time>
      </trkpt>
      <trkpt lat="48.22284" lon="3.22288">
        <ele>141</ele>
        <time>2011-05-15T09:47:20Z</time>
      </trkpt>
      <trkpt lat="48.22289" lon="3.22294">
        <ele>141</ele>
        <time>2011-05-15T09:47:22Z</time>
      </trkpt>
      <trkpt lat="48.22292" lon="3.22301">
        <ele>141</ele>
        <time>2011-05-15T09:47:24Z</time>
      </trkpt>
      <trkpt lat="48.22296" lon="3.22307">
        <ele>141</ele>
        <time>2011-05-15T09:47:27Z</time>
      </trkpt>
      <trkpt lat="48.22296" lon="3.22316">
        <ele>141</ele>
        <time>2011-05-15T09:47:31Z</time>
      </trkpt>
      <trkpt lat="48.22296" lon="3.22316">
        <ele>141</ele>
        <time>2011-05-15T09:47:31Z</time>
      </trkpt>
      <trkpt lat="48.22296" lon="3.22316">
        <ele>141</ele>
        <time>2011-05-15T09:47:39Z</time>
      </trkpt>
      <trkpt lat="48.22295" lon="3.22324">
        <ele>141</ele>
        <time>2011-05-15T09:47:40Z</time>
      </trkpt>
      <trkpt lat="48.22294" lon="3.22333">
        <ele>141</ele>
        <time>2011-05-15T09:47:43Z</time>
      </trkpt>
      <trkpt lat="48.22292" lon="3.22339">
        <ele>141</ele>
        <time>2011-05-15T09:47:45Z</time>
      </trkpt>
      <trkpt lat="48.2229" lon="3.2235">
        <ele>142</ele>
        <time>2011-05-15T09:47:48Z</time>
      </trkpt>
      <trkpt lat="48.22291" lon="3.22361">
        <ele>142</ele>
        <time>2011-05-15T09:47:51Z</time>
      </trkpt>
      <trkpt lat="48.22295" lon="3.22367">
        <ele>142</ele>
        <time>2011-05-15T09:47:54Z</time>
      </trkpt>
      <trkpt lat="48.22295" lon="3.22367">
        <ele>142</ele>
        <time>2011-05-15T09:47:54Z</time>
      </trkpt>
      <trkpt lat="48.22295" lon="3.22367">
        <ele>142</ele>
        <time>2011-05-15T09:47:56Z</time>
      </trkpt>
      <trkpt lat="48.22301" lon="3.22365">
        <ele>142</ele>
        <time>2011-05-15T09:47:57Z</time>
      </trkpt>
      <trkpt lat="48.22301" lon="3.22365">
        <ele>142</ele>
        <time>2011-05-15T09:47:57Z</time>
      </trkpt>
      <trkpt lat="48.22301" lon="3.22365">
        <ele>142</ele>
        <time>2011-05-15T09:47:59Z</time>
      </trkpt>
      <trkpt lat="48.22306" lon="3.22361">
        <ele>142</ele>
        <time>2011-05-15T09:48:00Z</time>
      </trkpt>
      <trkpt lat="48.2231" lon="3.22359">
        <ele>143</ele>
        <time>2011-05-15T09:48:02Z</time>
      </trkpt>
      <trkpt lat="48.22316" lon="3.22356">
        <ele>143</ele>
        <time>2011-05-15T09:48:04Z</time>
      </trkpt>
      <trkpt lat="48.2232" lon="3.22354">
        <ele>143</ele>
        <time>2011-05-15T09:48:06Z</time>
      </trkpt>
      <trkpt lat="48.22325" lon="3.22352">
        <ele>143</ele>
        <time>2011-05-15T09:48:08Z</time>
      </trkpt>
      <trkpt lat="48.22332" lon="3.2235">
        <ele>143</ele>
        <time>2011-05-15T09:48:11Z</time>
      </trkpt>
      <trkpt lat="48.22338" lon="3.2235">
        <ele>143</ele>
        <time>2011-05-15T09:48:13Z</time>
      </trkpt>
      <trkpt lat="48.22344" lon="3.2235">
        <ele>144</ele>
        <time>2011-05-15T09:48:15Z</time>
      </trkpt>
      <trkpt lat="48.22349" lon="3.22348">
        <ele>144</ele>
        <time>2011-05-15T09:48:17Z</time>
      </trkpt>
      <trkpt lat="48.22354" lon="3.22348">
        <ele>144</ele>
        <time>2011-05-15T09:48:19Z</time>
      </trkpt>
      <trkpt lat="48.2236" lon="3.22348">
        <ele>144</ele>
        <time>2011-05-15T09:48:21Z</time>
      </trkpt>
      <trkpt lat="48.22366" lon="3.22346">
        <ele>144</ele>
        <time>2011-05-15T09:48:23Z</time>
      </trkpt>
      <trkpt lat="48.22372" lon="3.22344">
        <ele>145</ele>
        <time>2011-05-15T09:48:25Z</time>
      </trkpt>
      <trkpt lat="48.22378" lon="3.22344">
        <ele>145</ele>
        <time>2011-05-15T09:48:27Z</time>
      </trkpt>
      <trkpt lat="48.22383" lon="3.22344">
        <ele>145</ele>
        <time>2011-05-15T09:48:29Z</time>
      </trkpt>
      <trkpt lat="48.2239" lon="3.22341">
        <ele>145</ele>
        <time>2011-05-15T09:48:32Z</time>
      </trkpt>
      <trkpt lat="48.22395" lon="3.22341">
        <ele>146</ele>
        <time>2011-05-15T09:48:34Z</time>
      </trkpt>
      <trkpt lat="48.22402" lon="3.22341">
        <ele>146</ele>
        <time>2011-05-15T09:48:37Z</time>
      </trkpt>
      <trkpt lat="48.22408" lon="3.22341">
        <ele>146</ele>
        <time>2011-05-15T09:48:40Z</time>
      </trkpt>
      <trkpt lat="48.22414" lon="3.22341">
        <ele>147</ele>
        <time>2011-05-15T09:48:43Z</time>
      </trkpt>
      <trkpt lat="48.22419" lon="3.22344">
        <ele>147</ele>
        <time>2011-05-15T09:48:46Z</time>
      </trkpt>
      <trkpt lat="48.22424" lon="3.22348">
        <ele>147</ele>
        <time>2011-05-15T09:48:49Z</time>
      </trkpt>
      <trkpt lat="48.22428" lon="3.22354">
        <ele>148</ele>
        <time>2011-05-15T09:48:52Z</time>
      </trkpt>
      <trkpt lat="48.22434" lon="3.22361">
        <ele>148</ele>
        <time>2011-05-15T09:48:55Z</time>
      </trkpt>
      <trkpt lat="48.22438" lon="3.22365">
        <ele>148</ele>
        <time>2011-05-15T09:48:58Z</time>
      </trkpt>
      <trkpt lat="48.22438" lon="3.22365">
        <ele>148</ele>
        <time>2011-05-15T09:48:58Z</time>
      </trkpt>
      <trkpt lat="48.22438" lon="3.22365">
        <ele>148</ele>
        <time>2011-05-15T09:49:00Z</time>
      </trkpt>
      <trkpt lat="48.22444" lon="3.22363">
        <ele>149</ele>
        <time>2011-05-15T09:49:01Z</time>
      </trkpt>
      <trkpt lat="48.22444" lon="3.22363">
        <ele>149</ele>
        <time>2011-05-15T09:49:01Z</time>
      </trkpt>
      <trkpt lat="48.22444" lon="3.22363">
        <ele>149</ele>
        <time>2011-05-15T09:49:03Z</time>
      </trkpt>
      <trkpt lat="48.2245" lon="3.22365">
        <ele>149</ele>
        <time>2011-05-15T09:49:04Z</time>
      </trkpt>
      <trkpt lat="48.2245" lon="3.22365">
        <ele>149</ele>
        <time>2011-05-15T09:49:04Z</time>
      </trkpt>
      <trkpt lat="48.2245" lon="3.22365">
        <ele>149</ele>
        <time>2011-05-15T09:49:06Z</time>
      </trkpt>
      <trkpt lat="48.22457" lon="3.22363">
        <ele>149</ele>
        <time>2011-05-15T09:49:07Z</time>
      </trkpt>
      <trkpt lat="48.22457" lon="3.22363">
        <ele>149</ele>
        <time>2011-05-15T09:49:07Z</time>
      </trkpt>
      <trkpt lat="48.22457" lon="3.22363">
        <ele>149</ele>
        <time>2011-05-15T09:49:08Z</time>
      </trkpt>
      <trkpt lat="48.22462" lon="3.22361">
        <ele>149</ele>
        <time>2011-05-15T09:49:09Z</time>
      </trkpt>
      <trkpt lat="48.22467" lon="3.22359">
        <ele>149</ele>
        <time>2011-05-15T09:49:11Z</time>
      </trkpt>
      <trkpt lat="48.22467" lon="3.22359">
        <ele>149</ele>
        <time>2011-05-15T09:49:11Z</time>
      </trkpt>
      <trkpt lat="48.22467" lon="3.22359">
        <ele>149</ele>
        <time>2011-05-15T09:49:12Z</time>
      </trkpt>
      <trkpt lat="48.22472" lon="3.22359">
        <ele>150</ele>
        <time>2011-05-15T09:49:13Z</time>
      </trkpt>
      <trkpt lat="48.22472" lon="3.22359">
        <ele>150</ele>
        <time>2011-05-15T09:49:13Z</time>
      </trkpt>
      <trkpt lat="48.22472" lon="3.22359">
        <ele>150</ele>
        <time>2011-05-15T09:49:14Z</time>
      </trkpt>
      <trkpt lat="48.22478" lon="3.22359">
        <ele>150</ele>
        <time>2011-05-15T09:49:16Z</time>
      </trkpt>
      <trkpt lat="48.22485" lon="3.22356">
        <ele>150</ele>
        <time>2011-05-15T09:49:21Z</time>
      </trkpt>
      <trkpt lat="48.2249" lon="3.22356">
        <ele>151</ele>
        <time>2011-05-15T09:49:24Z</time>
      </trkpt>
      <trkpt lat="48.22495" lon="3.22361">
        <ele>151</ele>
        <time>2011-05-15T09:49:27Z</time>
      </trkpt>
      <trkpt lat="48.22499" lon="3.22363">
        <ele>151</ele>
        <time>2011-05-15T09:49:29Z</time>
      </trkpt>
      <trkpt lat="48.22503" lon="3.22365">
        <ele>152</ele>
        <time>2011-05-15T09:49:32Z</time>
      </trkpt>
      <trkpt lat="48.22508" lon="3.22369">
        <ele>152</ele>
        <time>2011-05-15T09:49:35Z</time>
      </trkpt>
      <trkpt lat="48.22514" lon="3.22371">
        <ele>153</ele>
        <time>2011-05-15T09:49:39Z</time>
      </trkpt>
      <trkpt lat="48.2252" lon="3.22371">
        <ele>153</ele>
        <time>2011-05-15T09:49:42Z</time>
      </trkpt>
      <trkpt lat="48.22524" lon="3.22376">
        <ele>153</ele>
        <time>2011-05-15T09:49:45Z</time>
      </trkpt>
      <trkpt lat="48.22528" lon="3.2238">
        <ele>154</ele>
        <time>2011-05-15T09:49:49Z</time>
      </trkpt>
      <trkpt lat="48.22533" lon="3.22384">
        <ele>154</ele>
        <time>2011-05-15T09:49:52Z</time>
      </trkpt>
      <trkpt lat="48.22538" lon="3.22389">
        <ele>155</ele>
        <time>2011-05-15T09:49:55Z</time>
      </trkpt>
      <trkpt lat="48.22543" lon="3.22391">
        <ele>155</ele>
        <time>2011-05-15T09:49:58Z</time>
      </trkpt>
      <trkpt lat="48.22547" lon="3.22393">
        <ele>155</ele>
        <time>2011-05-15T09:50:01Z</time>
      </trkpt>
      <trkpt lat="48.22552" lon="3.22395">
        <ele>156</ele>
        <time>2011-05-15T09:50:06Z</time>
      </trkpt>
      <trkpt lat="48.22556" lon="3.22399">
        <ele>157</ele>
        <time>2011-05-15T09:50:11Z</time>
      </trkpt>
      <trkpt lat="48.2256" lon="3.22404">
        <ele>157</ele>
        <time>2011-05-15T09:50:15Z</time>
      </trkpt>
      <trkpt lat="48.22565" lon="3.22408">
        <ele>158</ele>
        <time>2011-05-15T09:50:19Z</time>
      </trkpt>
      <trkpt lat="48.22569" lon="3.22412">
        <ele>159</ele>
        <time>2011-05-15T09:50:23Z</time>
      </trkpt>
      <trkpt lat="48.22573" lon="3.22414">
        <ele>159</ele>
        <time>2011-05-15T09:50:26Z</time>
      </trkpt>
      <trkpt lat="48.22578" lon="3.22419">
        <ele>159</ele>
        <time>2011-05-15T09:50:30Z</time>
      </trkpt>
      <trkpt lat="48.22583" lon="3.22423">
        <ele>160</ele>
        <time>2011-05-15T09:50:33Z</time>
      </trkpt>
      <trkpt lat="48.22587" lon="3.22425">
        <ele>160</ele>
        <time>2011-05-15T09:50:36Z</time>
      </trkpt>
      <trkpt lat="48.22592" lon="3.22427">
        <ele>161</ele>
        <time>2011-05-15T09:50:39Z</time>
      </trkpt>
      <trkpt lat="48.22599" lon="3.22427">
        <ele>161</ele>
        <time>2011-05-15T09:50:43Z</time>
      </trkpt>
      <trkpt lat="48.22604" lon="3.22427">
        <ele>162</ele>
        <time>2011-05-15T09:50:47Z</time>
      </trkpt>
      <trkpt lat="48.2261" lon="3.22427">
        <ele>162</ele>
        <time>2011-05-15T09:50:50Z</time>
      </trkpt>
      <trkpt lat="48.22616" lon="3.22427">
        <ele>163</ele>
        <time>2011-05-15T09:50:53Z</time>
      </trkpt>
      <trkpt lat="48.22622" lon="3.22427">
        <ele>163</ele>
        <time>2011-05-15T09:50:56Z</time>
      </trkpt>
      <trkpt lat="48.22628" lon="3.22427">
        <ele>164</ele>
        <time>2011-05-15T09:50:58Z</time>
      </trkpt>
      <trkpt lat="48.22632" lon="3.22429">
        <ele>164</ele>
        <time>2011-05-15T09:51:00Z</time>
      </trkpt>
      <trkpt lat="48.22638" lon="3.22429">
        <ele>164</ele>
        <time>2011-05-15T09:51:02Z</time>
      </trkpt>
      <trkpt lat="48.22645" lon="3.22429">
        <ele>165</ele>
        <time>2011-05-15T09:51:05Z</time>
      </trkpt>
      <trkpt lat="48.2265" lon="3.22432">
        <ele>165</ele>
        <time>2011-05-15T09:51:07Z</time>
      </trkpt>
      <trkpt lat="48.22656" lon="3.22432">
        <ele>166</ele>
        <time>2011-05-15T09:51:09Z</time>
      </trkpt>
      <trkpt lat="48.22662" lon="3.22434">
        <ele>166</ele>
        <time>2011-05-15T09:51:12Z</time>
      </trkpt>
      <trkpt lat="48.22668" lon="3.22434">
        <ele>167</ele>
        <time>2011-05-15T09:51:14Z</time>
      </trkpt>
      <trkpt lat="48.22672" lon="3.22436">
        <ele>167</ele>
        <time>2011-05-15T09:51:16Z</time>
      </trkpt>
      <trkpt lat="48.22678" lon="3.22438">
        <ele>168</ele>
        <time>2011-05-15T09:51:19Z</time>
      </trkpt>
      <trkpt lat="48.22684" lon="3.2244">
        <ele>168</ele>
        <time>2011-05-15T09:51:22Z</time>
      </trkpt>
      <trkpt lat="48.22688" lon="3.22442">
        <ele>168</ele>
        <time>2011-05-15T09:51:24Z</time>
      </trkpt>
      <trkpt lat="48.22692" lon="3.22446">
        <ele>169</ele>
        <time>2011-05-15T09:51:26Z</time>
      </trkpt>
      <trkpt lat="48.22696" lon="3.22449">
        <ele>169</ele>
        <time>2011-05-15T09:51:28Z</time>
      </trkpt>
      <trkpt lat="48.22701" lon="3.22451">
        <ele>169</ele>
        <time>2011-05-15T09:51:30Z</time>
      </trkpt>
      <trkpt lat="48.22705" lon="3.22453">
        <ele>169</ele>
        <time>2011-05-15T09:51:32Z</time>
      </trkpt>
      <trkpt lat="48.22709" lon="3.22455">
        <ele>170</ele>
        <time>2011-05-15T09:51:34Z</time>
      </trkpt>
      <trkpt lat="48.22714" lon="3.22457">
        <ele>170</ele>
        <time>2011-05-15T09:51:36Z</time>
      </trkpt>
      <trkpt lat="48.22719" lon="3.22459">
        <ele>170</ele>
        <time>2011-05-15T09:51:39Z</time>
      </trkpt>
      <trkpt lat="48.22723" lon="3.22462">
        <ele>170</ele>
        <time>2011-05-15T09:51:41Z</time>
      </trkpt>
      <trkpt lat="48.22728" lon="3.22464">
        <ele>170</ele>
        <time>2011-05-15T09:51:43Z</time>
      </trkpt>
      <trkpt lat="48.22734" lon="3.22464">
        <ele>170</ele>
        <time>2011-05-15T09:51:46Z</time>
      </trkpt>
      <trkpt lat="48.22738" lon="3.22466">
        <ele>171</ele>
        <time>2011-05-15T09:51:48Z</time>
      </trkpt>
      <trkpt lat="48.22745" lon="3.22468">
        <ele>171</ele>
        <time>2011-05-15T09:51:51Z</time>
      </trkpt>
      <trkpt lat="48.2275" lon="3.2247">
        <ele>171</ele>
        <time>2011-05-15T09:51:54Z</time>
      </trkpt>
      <trkpt lat="48.22754" lon="3.22472">
        <ele>171</ele>
        <time>2011-05-15T09:51:56Z</time>
      </trkpt>
      <trkpt lat="48.22759" lon="3.22474">
        <ele>171</ele>
        <time>2011-05-15T09:51:59Z</time>
      </trkpt>
      <trkpt lat="48.22764" lon="3.22477">
        <ele>172</ele>
        <time>2011-05-15T09:52:03Z</time>
      </trkpt>
      <trkpt lat="48.22768" lon="3.22479">
        <ele>172</ele>
        <time>2011-05-15T09:52:07Z</time>
      </trkpt>
      <trkpt lat="48.22774" lon="3.22481">
        <ele>172</ele>
        <time>2011-05-15T09:52:12Z</time>
      </trkpt>
      <trkpt lat="48.22779" lon="3.22483">
        <ele>173</ele>
        <time>2011-05-15T09:52:17Z</time>
      </trkpt>
      <trkpt lat="48.22779" lon="3.22483">
        <ele>173</ele>
        <time>2011-05-15T09:52:17Z</time>
      </trkpt>
      <trkpt lat="48.22779" lon="3.22483">
        <ele>173</ele>
        <time>2011-05-15T09:52:21Z</time>
      </trkpt>
      <trkpt lat="48.22784" lon="3.22483">
        <ele>174</ele>
        <time>2011-05-15T09:52:33Z</time>
      </trkpt>
      <trkpt lat="48.22789" lon="3.22485">
        <ele>175</ele>
        <time>2011-05-15T09:52:38Z</time>
      </trkpt>
      <trkpt lat="48.22793" lon="3.22483">
        <ele>175</ele>
        <time>2011-05-15T09:52:52Z</time>
      </trkpt>
      <trkpt lat="48.22793" lon="3.22483">
        <ele>175</ele>
        <time>2011-05-15T09:52:52Z</time>
      </trkpt>
      <trkpt lat="48.22793" lon="3.22483">
        <ele>175</ele>
        <time>2011-05-15T09:52:53Z</time>
      </trkpt>
      <trkpt lat="48.22797" lon="3.22485">
        <ele>176</ele>
        <time>2011-05-15T09:52:59Z</time>
      </trkpt>
      <trkpt lat="48.22802" lon="3.22487">
        <ele>176</ele>
        <time>2011-05-15T09:53:04Z</time>
      </trkpt>
      <trkpt lat="48.22806" lon="3.2249">
        <ele>177</ele>
        <time>2011-05-15T09:53:10Z</time>
      </trkpt>
      <trkpt lat="48.2281" lon="3.22492">
        <ele>177</ele>
        <time>2011-05-15T09:53:15Z</time>
      </trkpt>
      <trkpt lat="48.22814" lon="3.22494">
        <ele>178</ele>
        <time>2011-05-15T09:53:20Z</time>
      </trkpt>
      <trkpt lat="48.2282" lon="3.22496">
        <ele>178</ele>
        <time>2011-05-15T09:53:26Z</time>
      </trkpt>
      <trkpt lat="48.22824" lon="3.22498">
        <ele>178</ele>
        <time>2011-05-15T09:53:30Z</time>
      </trkpt>
      <trkpt lat="48.2283" lon="3.22498">
        <ele>178</ele>
        <time>2011-05-15T09:53:34Z</time>
      </trkpt>
      <trkpt lat="48.22835" lon="3.22498">
        <ele>179</ele>
        <time>2011-05-15T09:53:39Z</time>
      </trkpt>
      <trkpt lat="48.2284" lon="3.22498">
        <ele>179</ele>
        <time>2011-05-15T09:53:53Z</time>
      </trkpt>
      <trkpt lat="48.22845" lon="3.225">
        <ele>179</ele>
        <time>2011-05-15T09:53:57Z</time>
      </trkpt>
      <trkpt lat="48.22849" lon="3.22502">
        <ele>180</ele>
        <time>2011-05-15T09:54:01Z</time>
      </trkpt>
      <trkpt lat="48.22853" lon="3.22504">
        <ele>180</ele>
        <time>2011-05-15T09:54:06Z</time>
      </trkpt>
      <trkpt lat="48.22857" lon="3.22507">
        <ele>180</ele>
        <time>2011-05-15T09:54:10Z</time>
      </trkpt>
      <trkpt lat="48.22862" lon="3.22509">
        <ele>180</ele>
        <time>2011-05-15T09:54:15Z</time>
      </trkpt>
      <trkpt lat="48.22862" lon="3.22509">
        <ele>180</ele>
        <time>2011-05-15T09:54:15Z</time>
      </trkpt>
      <trkpt lat="48.22862" lon="3.22509">
        <ele>180</ele>
        <time>2011-05-15T09:54:16Z</time>
      </trkpt>
      <trkpt lat="48.22866" lon="3.22511">
        <ele>181</ele>
        <time>2011-05-15T09:54:26Z</time>
      </trkpt>
      <trkpt lat="48.22871" lon="3.22511">
        <ele>181</ele>
        <time>2011-05-15T09:54:31Z</time>
      </trkpt>
      <trkpt lat="48.22876" lon="3.22513">
        <ele>181</ele>
        <time>2011-05-15T09:54:35Z</time>
      </trkpt>
      <trkpt lat="48.22881" lon="3.22515">
        <ele>181</ele>
        <time>2011-05-15T09:54:40Z</time>
      </trkpt>
      <trkpt lat="48.22885" lon="3.22517">
        <ele>181</ele>
        <time>2011-05-15T09:54:44Z</time>
      </trkpt>
      <trkpt lat="48.2289" lon="3.2252">
        <ele>182</ele>
        <time>2011-05-15T09:54:48Z</time>
      </trkpt>
      <trkpt lat="48.22894" lon="3.22522">
        <ele>182</ele>
        <time>2011-05-15T09:54:53Z</time>
      </trkpt>
      <trkpt lat="48.22898" lon="3.22524">
        <ele>182</ele>
        <time>2011-05-15T09:54:57Z</time>
      </trkpt>
      <trkpt lat="48.22902" lon="3.22528">
        <ele>182</ele>
        <time>2011-05-15T09:55:02Z</time>
      </trkpt>
      <trkpt lat="48.22906" lon="3.22534">
        <ele>183</ele>
        <time>2011-05-15T09:55:07Z</time>
      </trkpt>
      <trkpt lat="48.2291" lon="3.22541">
        <ele>183</ele>
        <time>2011-05-15T09:55:13Z</time>
      </trkpt>
      <trkpt lat="48.22913" lon="3.22547">
        <ele>184</ele>
        <time>2011-05-15T09:55:18Z</time>
      </trkpt>
      <trkpt lat="48.22918" lon="3.22552">
        <ele>184</ele>
        <time>2011-05-15T09:55:23Z</time>
      </trkpt>
      <trkpt lat="48.2292" lon="3.22558">
        <ele>184</ele>
        <time>2011-05-15T09:55:27Z</time>
      </trkpt>
      <trkpt lat="48.22924" lon="3.22562">
        <ele>185</ele>
        <time>2011-05-15T09:55:32Z</time>
      </trkpt>
      <trkpt lat="48.22928" lon="3.22567">
        <ele>185</ele>
        <time>2011-05-15T09:55:37Z</time>
      </trkpt>
      <trkpt lat="48.22933" lon="3.22571">
        <ele>186</ele>
        <time>2011-05-15T09:55:42Z</time>
      </trkpt>
      <trkpt lat="48.22933" lon="3.22571">
        <ele>186</ele>
        <time>2011-05-15T09:55:42Z</time>
      </trkpt>
      <trkpt lat="48.22933" lon="3.22571">
        <ele>186</ele>
        <time>2011-05-15T09:55:43Z</time>
      </trkpt>
      <trkpt lat="48.22937" lon="3.22573">
        <ele>186</ele>
        <time>2011-05-15T09:55:48Z</time>
      </trkpt>
      <trkpt lat="48.22941" lon="3.22575">
        <ele>187</ele>
        <time>2011-05-15T09:55:53Z</time>
      </trkpt>
      <trkpt lat="48.22946" lon="3.22575">
        <ele>188</ele>
        <time>2011-05-15T09:56:00Z</time>
      </trkpt>
      <trkpt lat="48.22951" lon="3.22577">
        <ele>189</ele>
        <time>2011-05-15T09:56:06Z</time>
      </trkpt>
      <trkpt lat="48.22956" lon="3.22577">
        <ele>190</ele>
        <time>2011-05-15T09:56:12Z</time>
      </trkpt>
      <trkpt lat="48.22956" lon="3.22577">
        <ele>190</ele>
        <time>2011-05-15T09:56:12Z</time>
      </trkpt>
      <trkpt lat="48.22956" lon="3.22577">
        <ele>190</ele>
        <time>2011-05-15T09:56:14Z</time>
      </trkpt>
      <trkpt lat="48.22962" lon="3.22577">
        <ele>191</ele>
        <time>2011-05-15T09:56:29Z</time>
      </trkpt>
      <trkpt lat="48.22967" lon="3.22577">
        <ele>192</ele>
        <time>2011-05-15T09:56:34Z</time>
      </trkpt>
      <trkpt lat="48.22972" lon="3.22577">
        <ele>193</ele>
        <time>2011-05-15T09:56:39Z</time>
      </trkpt>
      <trkpt lat="48.22979" lon="3.22577">
        <ele>194</ele>
        <time>2011-05-15T09:56:44Z</time>
      </trkpt>
      <trkpt lat="48.22984" lon="3.22577">
        <ele>195</ele>
        <time>2011-05-15T09:56:48Z</time>
      </trkpt>
      <trkpt lat="48.2299" lon="3.22577">
        <ele>195</ele>
        <time>2011-05-15T09:56:52Z</time>
      </trkpt>
      <trkpt lat="48.22997" lon="3.22577">
        <ele>196</ele>
        <time>2011-05-15T09:56:56Z</time>
      </trkpt>
      <trkpt lat="48.23001" lon="3.22575">
        <ele>196</ele>
        <time>2011-05-15T09:56:58Z</time>
      </trkpt>
      <trkpt lat="48.23007" lon="3.22575">
        <ele>197</ele>
        <time>2011-05-15T09:57:01Z</time>
      </trkpt>
      <trkpt lat="48.23012" lon="3.22573">
        <ele>197</ele>
        <time>2011-05-15T09:57:04Z</time>
      </trkpt>
      <trkpt lat="48.23017" lon="3.22573">
        <ele>197</ele>
        <time>2011-05-15T09:57:07Z</time>
      </trkpt>
      <trkpt lat="48.23022" lon="3.22571">
        <ele>198</ele>
        <time>2011-05-15T09:57:09Z</time>
      </trkpt>
      <trkpt lat="48.23026" lon="3.22573">
        <ele>198</ele>
        <time>2011-05-15T09:57:11Z</time>
      </trkpt>
      <trkpt lat="48.23032" lon="3.22573">
        <ele>198</ele>
        <time>2011-05-15T09:57:14Z</time>
      </trkpt>
      <trkpt lat="48.23039" lon="3.22573">
        <ele>199</ele>
        <time>2011-05-15T09:57:17Z</time>
      </trkpt>
      <trkpt lat="48.23044" lon="3.22573">
        <ele>199</ele>
        <time>2011-05-15T09:57:19Z</time>
      </trkpt>
      <trkpt lat="48.2305" lon="3.22573">
        <ele>199</ele>
        <time>2011-05-15T09:57:21Z</time>
      </trkpt>
      <trkpt lat="48.23058" lon="3.22575">
        <ele>201</ele>
        <time>2011-05-15T09:57:23Z</time>
      </trkpt>
      <trkpt lat="48.23067" lon="3.22575">
        <ele>203</ele>
        <time>2011-05-15T09:57:25Z</time>
      </trkpt>
      <trkpt lat="48.23073" lon="3.22577">
        <ele>206</ele>
        <time>2011-05-15T09:57:27Z</time>
      </trkpt>
      <trkpt lat="48.23073" lon="3.22577">
        <ele>206</ele>
        <time>2011-05-15T09:57:27Z</time>
      </trkpt>
      <trkpt lat="48.23073" lon="3.22577">
        <ele>206</ele>
        <time>2011-05-15T09:58:07Z</time>
      </trkpt>
      <trkpt lat="48.23078" lon="3.2258">
        <ele>207</ele>
        <time>2011-05-15T09:58:08Z</time>
      </trkpt>
      <trkpt lat="48.23078" lon="3.2259">
        <ele>207</ele>
        <time>2011-05-15T09:58:11Z</time>
      </trkpt>
      <trkpt lat="48.23078" lon="3.22599">
        <ele>208</ele>
        <time>2011-05-15T09:58:14Z</time>
      </trkpt>
      <trkpt lat="48.23076" lon="3.22605">
        <ele>208</ele>
        <time>2011-05-15T09:58:16Z</time>
      </trkpt>
      <trkpt lat="48.23074" lon="3.22612">
        <ele>209</ele>
        <time>2011-05-15T09:58:18Z</time>
      </trkpt>
      <trkpt lat="48.23071" lon="3.22618">
        <ele>209</ele>
        <time>2011-05-15T09:58:20Z</time>
      </trkpt>
      <trkpt lat="48.23068" lon="3.22627">
        <ele>209</ele>
        <time>2011-05-15T09:58:22Z</time>
      </trkpt>
      <trkpt lat="48.23064" lon="3.22635">
        <ele>209</ele>
        <time>2011-05-15T09:58:24Z</time>
      </trkpt>
      <trkpt lat="48.23062" lon="3.22642">
        <ele>211</ele>
        <time>2011-05-15T09:58:25Z</time>
      </trkpt>
      <trkpt lat="48.23059" lon="3.2265">
        <ele>211</ele>
        <time>2011-05-15T09:58:27Z</time>
      </trkpt>
      <trkpt lat="48.23057" lon="3.22657">
        <ele>212</ele>
        <time>2011-05-15T09:58:28Z</time>
      </trkpt>
      <trkpt lat="48.23054" lon="3.22668">
        <ele>214</ele>
        <time>2011-05-15T09:58:30Z</time>
      </trkpt>
      <trkpt lat="48.2305" lon="3.22678">
        <ele>215</ele>
        <time>2011-05-15T09:58:32Z</time>
      </trkpt>
      <trkpt lat="48.23045" lon="3.22689">
        <ele>216</ele>
        <time>2011-05-15T09:58:34Z</time>
      </trkpt>
      <trkpt lat="48.23043" lon="3.22695">
        <ele>216</ele>
        <time>2011-05-15T09:58:35Z</time>
      </trkpt>
      <trkpt lat="48.2304" lon="3.22708">
        <ele>216</ele>
        <time>2011-05-15T09:58:37Z</time>
      </trkpt>
      <trkpt lat="48.23038" lon="3.22715">
        <ele>215</ele>
        <time>2011-05-15T09:58:38Z</time>
      </trkpt>
      <trkpt lat="48.23036" lon="3.22723">
        <ele>215</ele>
        <time>2011-05-15T09:58:39Z</time>
      </trkpt>
      <trkpt lat="48.23033" lon="3.2273">
        <ele>215</ele>
        <time>2011-05-15T09:58:40Z</time>
      </trkpt>
      <trkpt lat="48.23031" lon="3.22738">
        <ele>215</ele>
        <time>2011-05-15T09:58:41Z</time>
      </trkpt>
      <trkpt lat="48.23029" lon="3.22745">
        <ele>215</ele>
        <time>2011-05-15T09:58:42Z</time>
      </trkpt>
      <trkpt lat="48.23027" lon="3.22753">
        <ele>215</ele>
        <time>2011-05-15T09:58:43Z</time>
      </trkpt>
      <trkpt lat="48.23024" lon="3.22762">
        <ele>215</ele>
        <time>2011-05-15T09:58:44Z</time>
      </trkpt>
      <trkpt lat="48.23022" lon="3.2277">
        <ele>215</ele>
        <time>2011-05-15T09:58:45Z</time>
      </trkpt>
      <trkpt lat="48.2302" lon="3.22779">
        <ele>215</ele>
        <time>2011-05-15T09:58:46Z</time>
      </trkpt>
      <trkpt lat="48.23017" lon="3.2279">
        <ele>215</ele>
        <time>2011-05-15T09:58:47Z</time>
      </trkpt>
      <trkpt lat="48.23016" lon="3.22798">
        <ele>215</ele>
        <time>2011-05-15T09:58:48Z</time>
      </trkpt>
      <trkpt lat="48.23014" lon="3.22809">
        <ele>215</ele>
        <time>2011-05-15T09:58:49Z</time>
      </trkpt>
      <trkpt lat="48.23012" lon="3.22818">
        <ele>215</ele>
        <time>2011-05-15T09:58:50Z</time>
      </trkpt>
      <trkpt lat="48.2301" lon="3.22828">
        <ele>215</ele>
        <time>2011-05-15T09:58:51Z</time>
      </trkpt>
      <trkpt lat="48.23011" lon="3.22839">
        <ele>215</ele>
        <time>2011-05-15T09:58:52Z</time>
      </trkpt>
      <trkpt lat="48.23012" lon="3.22848">
        <ele>215</ele>
        <time>2011-05-15T09:58:53Z</time>
      </trkpt>
      <trkpt lat="48.23014" lon="3.22858">
        <ele>215</ele>
        <time>2011-05-15T09:58:54Z</time>
      </trkpt>
      <trkpt lat="48.23015" lon="3.22867">
        <ele>215</ele>
        <time>2011-05-15T09:58:55Z</time>
      </trkpt>
      <trkpt lat="48.23017" lon="3.22874">
        <ele>215</ele>
        <time>2011-05-15T09:58:56Z</time>
      </trkpt>
      <trkpt lat="48.23022" lon="3.22882">
        <ele>215</ele>
        <time>2011-05-15T09:58:58Z</time>
      </trkpt>
      <trkpt lat="48.23027" lon="3.22893">
        <ele>214</ele>
        <time>2011-05-15T09:59:00Z</time>
      </trkpt>
      <trkpt lat="48.23031" lon="3.22901">
        <ele>213</ele>
        <time>2011-05-15T09:59:02Z</time>
      </trkpt>
      <trkpt lat="48.23036" lon="3.2291">
        <ele>213</ele>
        <time>2011-05-15T09:59:04Z</time>
      </trkpt>
      <trkpt lat="48.23041" lon="3.22921">
        <ele>213</ele>
        <time>2011-05-15T09:59:06Z</time>
      </trkpt>
      <trkpt lat="48.23047" lon="3.22932">
        <ele>213</ele>
        <time>2011-05-15T09:59:08Z</time>
      </trkpt>
      <trkpt lat="48.23052" lon="3.2294">
        <ele>213</ele>
        <time>2011-05-15T09:59:09Z</time>
      </trkpt>
      <trkpt lat="48.23056" lon="3.22946">
        <ele>213</ele>
        <time>2011-05-15T09:59:10Z</time>
      </trkpt>
      <trkpt lat="48.2306" lon="3.22953">
        <ele>213</ele>
        <time>2011-05-15T09:59:11Z</time>
      </trkpt>
      <trkpt lat="48.23064" lon="3.22959">
        <ele>213</ele>
        <time>2011-05-15T09:59:12Z</time>
      </trkpt>
      <trkpt lat="48.23069" lon="3.22968">
        <ele>212</ele>
        <time>2011-05-15T09:59:13Z</time>
      </trkpt>
      <trkpt lat="48.23074" lon="3.22974">
        <ele>212</ele>
        <time>2011-05-15T09:59:14Z</time>
      </trkpt>
      <trkpt lat="48.2308" lon="3.22983">
        <ele>212</ele>
        <time>2011-05-15T09:59:15Z</time>
      </trkpt>
      <trkpt lat="48.23084" lon="3.22989">
        <ele>212</ele>
        <time>2011-05-15T09:59:16Z</time>
      </trkpt>
      <trkpt lat="48.23088" lon="3.22996">
        <ele>212</ele>
        <time>2011-05-15T09:59:17Z</time>
      </trkpt>
      <trkpt lat="48.23092" lon="3.23004">
        <ele>212</ele>
        <time>2011-05-15T09:59:18Z</time>
      </trkpt>
      <trkpt lat="48.23097" lon="3.23011">
        <ele>212</ele>
        <time>2011-05-15T09:59:19Z</time>
      </trkpt>
      <trkpt lat="48.23101" lon="3.23017">
        <ele>212</ele>
        <time>2011-05-15T09:59:20Z</time>
      </trkpt>
      <trkpt lat="48.23105" lon="3.23022">
        <ele>212</ele>
        <time>2011-05-15T09:59:21Z</time>
      </trkpt>
      <trkpt lat="48.23108" lon="3.23028">
        <ele>212</ele>
        <time>2011-05-15T09:59:22Z</time>
      </trkpt>
      <trkpt lat="48.23113" lon="3.23032">
        <ele>212</ele>
        <time>2011-05-15T09:59:23Z</time>
      </trkpt>
      <trkpt lat="48.23117" lon="3.23037">
        <ele>212</ele>
        <time>2011-05-15T09:59:24Z</time>
      </trkpt>
      <trkpt lat="48.23121" lon="3.23043">
        <ele>212</ele>
        <time>2011-05-15T09:59:25Z</time>
      </trkpt>
      <trkpt lat="48.23126" lon="3.23047">
        <ele>211</ele>
        <time>2011-05-15T09:59:26Z</time>
      </trkpt>
      <trkpt lat="48.2313" lon="3.23054">
        <ele>210</ele>
        <time>2011-05-15T09:59:27Z</time>
      </trkpt>
      <trkpt lat="48.23134" lon="3.23058">
        <ele>210</ele>
        <time>2011-05-15T09:59:28Z</time>
      </trkpt>
      <trkpt lat="48.23141" lon="3.23064">
        <ele>210</ele>
        <time>2011-05-15T09:59:30Z</time>
      </trkpt>
      <trkpt lat="48.23147" lon="3.23073">
        <ele>210</ele>
        <time>2011-05-15T09:59:32Z</time>
      </trkpt>
      <trkpt lat="48.23154" lon="3.2308">
        <ele>210</ele>
        <time>2011-05-15T09:59:34Z</time>
      </trkpt>
      <trkpt lat="48.2316" lon="3.23086">
        <ele>210</ele>
        <time>2011-05-15T09:59:36Z</time>
      </trkpt>
      <trkpt lat="48.23166" lon="3.2309">
        <ele>210</ele>
        <time>2011-05-15T09:59:38Z</time>
      </trkpt>
      <trkpt lat="48.23173" lon="3.23095">
        <ele>210</ele>
        <time>2011-05-15T09:59:40Z</time>
      </trkpt>
      <trkpt lat="48.23179" lon="3.23101">
        <ele>210</ele>
        <time>2011-05-15T09:59:42Z</time>
      </trkpt>
      <trkpt lat="48.23186" lon="3.23107">
        <ele>210</ele>
        <time>2011-05-15T09:59:44Z</time>
      </trkpt>
      <trkpt lat="48.23193" lon="3.23112">
        <ele>211</ele>
        <time>2011-05-15T09:59:46Z</time>
      </trkpt>
      <trkpt lat="48.232" lon="3.23118">
        <ele>212</ele>
        <time>2011-05-15T09:59:48Z</time>
      </trkpt>
      <trkpt lat="48.23204" lon="3.2312">
        <ele>212</ele>
        <time>2011-05-15T09:59:49Z</time>
      </trkpt>
      <trkpt lat="48.23212" lon="3.23127">
        <ele>213</ele>
        <time>2011-05-15T09:59:51Z</time>
      </trkpt>
      <trkpt lat="48.23218" lon="3.23131">
        <ele>213</ele>
        <time>2011-05-15T09:59:53Z</time>
      </trkpt>
      <trkpt lat="48.23224" lon="3.23138">
        <ele>213</ele>
        <time>2011-05-15T09:59:55Z</time>
      </trkpt>
      <trkpt lat="48.23231" lon="3.23144">
        <ele>213</ele>
        <time>2011-05-15T09:59:57Z</time>
      </trkpt>
      <trkpt lat="48.23238" lon="3.23148">
        <ele>213</ele>
        <time>2011-05-15T09:59:59Z</time>
      </trkpt>
      <trkpt lat="48.23245" lon="3.23152">
        <ele>213</ele>
        <time>2011-05-15T10:00:01Z</time>
      </trkpt>
      <trkpt lat="48.23251" lon="3.23159">
        <ele>214</ele>
        <time>2011-05-15T10:00:03Z</time>
      </trkpt>
      <trkpt lat="48.23258" lon="3.23163">
        <ele>214</ele>
        <time>2011-05-15T10:00:05Z</time>
      </trkpt>
      <trkpt lat="48.23263" lon="3.23165">
        <ele>214</ele>
        <time>2011-05-15T10:00:07Z</time>
      </trkpt>
      <trkpt lat="48.23268" lon="3.2317">
        <ele>214</ele>
        <time>2011-05-15T10:00:09Z</time>
      </trkpt>
      <trkpt lat="48.23275" lon="3.23174">
        <ele>214</ele>
        <time>2011-05-15T10:00:11Z</time>
      </trkpt>
      <trkpt lat="48.23281" lon="3.23178">
        <ele>214</ele>
        <time>2011-05-15T10:00:13Z</time>
      </trkpt>
      <trkpt lat="48.23287" lon="3.23182">
        <ele>214</ele>
        <time>2011-05-15T10:00:15Z</time>
      </trkpt>
      <trkpt lat="48.23291" lon="3.23185">
        <ele>214</ele>
        <time>2011-05-15T10:00:16Z</time>
      </trkpt>
      <trkpt lat="48.23297" lon="3.23189">
        <ele>214</ele>
        <time>2011-05-15T10:00:18Z</time>
      </trkpt>
      <trkpt lat="48.23305" lon="3.23195">
        <ele>214</ele>
        <time>2011-05-15T10:00:20Z</time>
      </trkpt>
      <trkpt lat="48.23311" lon="3.232">
        <ele>214</ele>
        <time>2011-05-15T10:00:22Z</time>
      </trkpt>
      <trkpt lat="48.23318" lon="3.23204">
        <ele>214</ele>
        <time>2011-05-15T10:00:24Z</time>
      </trkpt>
      <trkpt lat="48.23324" lon="3.2321">
        <ele>215</ele>
        <time>2011-05-15T10:00:26Z</time>
      </trkpt>
      <trkpt lat="48.23331" lon="3.23215">
        <ele>215</ele>
        <time>2011-05-15T10:00:29Z</time>
      </trkpt>
      <trkpt lat="48.23341" lon="3.23223">
        <ele>215</ele>
        <time>2011-05-15T10:00:35Z</time>
      </trkpt>
      <trkpt lat="48.23341" lon="3.23223">
        <ele>215</ele>
        <time>2011-05-15T10:00:35Z</time>
      </trkpt>
      <trkpt lat="48.23341" lon="3.23223">
        <ele>215</ele>
        <time>2011-05-15T10:00:37Z</time>
      </trkpt>
      <trkpt lat="48.23349" lon="3.2323">
        <ele>215</ele>
        <time>2011-05-15T10:00:38Z</time>
      </trkpt>
      <trkpt lat="48.23354" lon="3.23234">
        <ele>215</ele>
        <time>2011-05-15T10:00:40Z</time>
      </trkpt>
      <trkpt lat="48.2336" lon="3.2324">
        <ele>215</ele>
        <time>2011-05-15T10:00:42Z</time>
      </trkpt>
      <trkpt lat="48.23365" lon="3.23245">
        <ele>215</ele>
        <time>2011-05-15T10:00:44Z</time>
      </trkpt>
      <trkpt lat="48.2337" lon="3.23251">
        <ele>215</ele>
        <time>2011-05-15T10:00:46Z</time>
      </trkpt>
      <trkpt lat="48.23375" lon="3.23258">
        <ele>215</ele>
        <time>2011-05-15T10:00:48Z</time>
      </trkpt>
      <trkpt lat="48.2338" lon="3.23264">
        <ele>215</ele>
        <time>2011-05-15T10:00:50Z</time>
      </trkpt>
      <trkpt lat="48.23384" lon="3.23268">
        <ele>215</ele>
        <time>2011-05-15T10:00:52Z</time>
      </trkpt>
      <trkpt lat="48.23388" lon="3.23275">
        <ele>215</ele>
        <time>2011-05-15T10:00:54Z</time>
      </trkpt>
      <trkpt lat="48.23393" lon="3.23281">
        <ele>216</ele>
        <time>2011-05-15T10:00:56Z</time>
      </trkpt>
      <trkpt lat="48.23397" lon="3.23288">
        <ele>216</ele>
        <time>2011-05-15T10:00:58Z</time>
      </trkpt>
      <trkpt lat="48.23402" lon="3.23294">
        <ele>216</ele>
        <time>2011-05-15T10:01:00Z</time>
      </trkpt>
      <trkpt lat="48.23408" lon="3.23303">
        <ele>216</ele>
        <time>2011-05-15T10:01:02Z</time>
      </trkpt>
      <trkpt lat="48.23412" lon="3.23311">
        <ele>216</ele>
        <time>2011-05-15T10:01:04Z</time>
      </trkpt>
      <trkpt lat="48.23415" lon="3.23322">
        <ele>216</ele>
        <time>2011-05-15T10:01:06Z</time>
      </trkpt>
      <trkpt lat="48.23419" lon="3.23333">
        <ele>216</ele>
        <time>2011-05-15T10:01:08Z</time>
      </trkpt>
      <trkpt lat="48.23422" lon="3.23344">
        <ele>216</ele>
        <time>2011-05-15T10:01:10Z</time>
      </trkpt>
      <trkpt lat="48.23424" lon="3.23354">
        <ele>217</ele>
        <time>2011-05-15T10:01:12Z</time>
      </trkpt>
      <trkpt lat="48.23426" lon="3.23365">
        <ele>217</ele>
        <time>2011-05-15T10:01:14Z</time>
      </trkpt>
      <trkpt lat="48.23428" lon="3.23374">
        <ele>217</ele>
        <time>2011-05-15T10:01:16Z</time>
      </trkpt>
      <trkpt lat="48.2343" lon="3.23384">
        <ele>218</ele>
        <time>2011-05-15T10:01:19Z</time>
      </trkpt>
      <trkpt lat="48.23434" lon="3.23391">
        <ele>218</ele>
        <time>2011-05-15T10:01:21Z</time>
      </trkpt>
      <trkpt lat="48.23436" lon="3.23397">
        <ele>218</ele>
        <time>2011-05-15T10:01:23Z</time>
      </trkpt>
      <trkpt lat="48.23438" lon="3.23406">
        <ele>218</ele>
        <time>2011-05-15T10:01:25Z</time>
      </trkpt>
      <trkpt lat="48.2344" lon="3.23414">
        <ele>219</ele>
        <time>2011-05-15T10:01:27Z</time>
      </trkpt>
      <trkpt lat="48.23442" lon="3.23423">
        <ele>219</ele>
        <time>2011-05-15T10:01:29Z</time>
      </trkpt>
      <trkpt lat="48.23444" lon="3.23431">
        <ele>219</ele>
        <time>2011-05-15T10:01:31Z</time>
      </trkpt>
      <trkpt lat="48.23446" lon="3.2344">
        <ele>219</ele>
        <time>2011-05-15T10:01:33Z</time>
      </trkpt>
      <trkpt lat="48.23449" lon="3.23451">
        <ele>220</ele>
        <time>2011-05-15T10:01:35Z</time>
      </trkpt>
      <trkpt lat="48.23449" lon="3.23464">
        <ele>220</ele>
        <time>2011-05-15T10:01:37Z</time>
      </trkpt>
      <trkpt lat="48.23448" lon="3.23476">
        <ele>223</ele>
        <time>2011-05-15T10:01:39Z</time>
      </trkpt>
      <trkpt lat="48.23448" lon="3.23489">
        <ele>225</ele>
        <time>2011-05-15T10:01:41Z</time>
      </trkpt>
      <trkpt lat="48.23448" lon="3.23502">
        <ele>225</ele>
        <time>2011-05-15T10:01:43Z</time>
      </trkpt>
      <trkpt lat="48.23448" lon="3.23515">
        <ele>225</ele>
        <time>2011-05-15T10:01:45Z</time>
      </trkpt>
      <trkpt lat="48.23449" lon="3.23526">
        <ele>226</ele>
        <time>2011-05-15T10:01:47Z</time>
      </trkpt>
      <trkpt lat="48.23448" lon="3.23539">
        <ele>227</ele>
        <time>2011-05-15T10:01:49Z</time>
      </trkpt>
      <trkpt lat="48.23446" lon="3.23552">
        <ele>228</ele>
        <time>2011-05-15T10:01:51Z</time>
      </trkpt>
      <trkpt lat="48.23448" lon="3.23562">
        <ele>228</ele>
        <time>2011-05-15T10:01:53Z</time>
      </trkpt>
      <trkpt lat="48.23449" lon="3.23569">
        <ele>228</ele>
        <time>2011-05-15T10:01:54Z</time>
      </trkpt>
      <trkpt lat="48.2345" lon="3.23582">
        <ele>229</ele>
        <time>2011-05-15T10:01:56Z</time>
      </trkpt>
      <trkpt lat="48.23452" lon="3.23592">
        <ele>229</ele>
        <time>2011-05-15T10:01:58Z</time>
      </trkpt>
      <trkpt lat="48.23453" lon="3.23603">
        <ele>229</ele>
        <time>2011-05-15T10:02:00Z</time>
      </trkpt>
      <trkpt lat="48.23453" lon="3.23614">
        <ele>228</ele>
        <time>2011-05-15T10:02:02Z</time>
      </trkpt>
      <trkpt lat="48.23454" lon="3.2362">
        <ele>228</ele>
        <time>2011-05-15T10:02:03Z</time>
      </trkpt>
      <trkpt lat="48.23455" lon="3.23631">
        <ele>228</ele>
        <time>2011-05-15T10:02:05Z</time>
      </trkpt>
      <trkpt lat="48.23457" lon="3.23637">
        <ele>228</ele>
        <time>2011-05-15T10:02:06Z</time>
      </trkpt>
      <trkpt lat="48.23458" lon="3.23644">
        <ele>228</ele>
        <time>2011-05-15T10:02:07Z</time>
      </trkpt>
      <trkpt lat="48.2346" lon="3.2365">
        <ele>228</ele>
        <time>2011-05-15T10:02:08Z</time>
      </trkpt>
      <trkpt lat="48.23463" lon="3.23657">
        <ele>228</ele>
        <time>2011-05-15T10:02:09Z</time>
      </trkpt>
      <trkpt lat="48.23467" lon="3.23668">
        <ele>229</ele>
        <time>2011-05-15T10:02:11Z</time>
      </trkpt>
      <trkpt lat="48.23469" lon="3.23674">
        <ele>228</ele>
        <time>2011-05-15T10:02:12Z</time>
      </trkpt>
      <trkpt lat="48.23471" lon="3.2368">
        <ele>228</ele>
        <time>2011-05-15T10:02:13Z</time>
      </trkpt>
      <trkpt lat="48.23473" lon="3.23687">
        <ele>228</ele>
        <time>2011-05-15T10:02:14Z</time>
      </trkpt>
      <trkpt lat="48.23475" lon="3.23693">
        <ele>228</ele>
        <time>2011-05-15T10:02:15Z</time>
      </trkpt>
      <trkpt lat="48.23478" lon="3.23702">
        <ele>228</ele>
        <time>2011-05-15T10:02:16Z</time>
      </trkpt>
      <trkpt lat="48.23481" lon="3.2371">
        <ele>228</ele>
        <time>2011-05-15T10:02:17Z</time>
      </trkpt>
      <trkpt lat="48.23483" lon="3.23717">
        <ele>227</ele>
        <time>2011-05-15T10:02:18Z</time>
      </trkpt>
      <trkpt lat="48.23485" lon="3.23725">
        <ele>227</ele>
        <time>2011-05-15T10:02:19Z</time>
      </trkpt>
      <trkpt lat="48.23488" lon="3.2374">
        <ele>227</ele>
        <time>2011-05-15T10:02:21Z</time>
      </trkpt>
      <trkpt lat="48.23489" lon="3.23749">
        <ele>226</ele>
        <time>2011-05-15T10:02:22Z</time>
      </trkpt>
      <trkpt lat="48.23492" lon="3.23758">
        <ele>226</ele>
        <time>2011-05-15T10:02:23Z</time>
      </trkpt>
      <trkpt lat="48.23493" lon="3.23766">
        <ele>226</ele>
        <time>2011-05-15T10:02:24Z</time>
      </trkpt>
      <trkpt lat="48.23495" lon="3.23781">
        <ele>225</ele>
        <time>2011-05-15T10:02:26Z</time>
      </trkpt>
      <trkpt lat="48.23496" lon="3.2379">
        <ele>225</ele>
        <time>2011-05-15T10:02:27Z</time>
      </trkpt>
      <trkpt lat="48.23497" lon="3.23803">
        <ele>225</ele>
        <time>2011-05-15T10:02:29Z</time>
      </trkpt>
      <trkpt lat="48.23499" lon="3.23818">
        <ele>225</ele>
        <time>2011-05-15T10:02:31Z</time>
      </trkpt>
      <trkpt lat="48.235" lon="3.23833">
        <ele>225</ele>
        <time>2011-05-15T10:02:33Z</time>
      </trkpt>
      <trkpt lat="48.23502" lon="3.23848">
        <ele>225</ele>
        <time>2011-05-15T10:02:35Z</time>
      </trkpt>
      <trkpt lat="48.23504" lon="3.23863">
        <ele>225</ele>
        <time>2011-05-15T10:02:37Z</time>
      </trkpt>
      <trkpt lat="48.23506" lon="3.23878">
        <ele>225</ele>
        <time>2011-05-15T10:02:39Z</time>
      </trkpt>
      <trkpt lat="48.23506" lon="3.23886">
        <ele>225</ele>
        <time>2011-05-15T10:02:40Z</time>
      </trkpt>
      <trkpt lat="48.23508" lon="3.23901">
        <ele>225</ele>
        <time>2011-05-15T10:02:42Z</time>
      </trkpt>
      <trkpt lat="48.23508" lon="3.2391">
        <ele>225</ele>
        <time>2011-05-15T10:02:43Z</time>
      </trkpt>
      <trkpt lat="48.23508" lon="3.23918">
        <ele>225</ele>
        <time>2011-05-15T10:02:44Z</time>
      </trkpt>
      <trkpt lat="48.23508" lon="3.23927">
        <ele>225</ele>
        <time>2011-05-15T10:02:45Z</time>
      </trkpt>
      <trkpt lat="48.23506" lon="3.23936">
        <ele>225</ele>
        <time>2011-05-15T10:02:46Z</time>
      </trkpt>
      <trkpt lat="48.23506" lon="3.23951">
        <ele>225</ele>
        <time>2011-05-15T10:02:48Z</time>
      </trkpt>
      <trkpt lat="48.23506" lon="3.23959">
        <ele>225</ele>
        <time>2011-05-15T10:02:49Z</time>
      </trkpt>
      <trkpt lat="48.23504" lon="3.23968">
        <ele>225</ele>
        <time>2011-05-15T10:02:50Z</time>
      </trkpt>
      <trkpt lat="48.23503" lon="3.23979">
        <ele>225</ele>
        <time>2011-05-15T10:02:51Z</time>
      </trkpt>
      <trkpt lat="48.23502" lon="3.23989">
        <ele>225</ele>
        <time>2011-05-15T10:02:52Z</time>
      </trkpt>
      <trkpt lat="48.235" lon="3.24">
        <ele>225</ele>
        <time>2011-05-15T10:02:53Z</time>
      </trkpt>
      <trkpt lat="48.23499" lon="3.24013">
        <ele>225</ele>
        <time>2011-05-15T10:02:54Z</time>
      </trkpt>
      <trkpt lat="48.23498" lon="3.24026">
        <ele>225</ele>
        <time>2011-05-15T10:02:55Z</time>
      </trkpt>
      <trkpt lat="48.23498" lon="3.24039">
        <ele>225</ele>
        <time>2011-05-15T10:02:56Z</time>
      </trkpt>
      <trkpt lat="48.23498" lon="3.24054">
        <ele>225</ele>
        <time>2011-05-15T10:02:57Z</time>
      </trkpt>
      <trkpt lat="48.23498" lon="3.24069">
        <ele>224</ele>
        <time>2011-05-15T10:02:58Z</time>
      </trkpt>
      <trkpt lat="48.23498" lon="3.24084">
        <ele>224</ele>
        <time>2011-05-15T10:02:59Z</time>
      </trkpt>
      <trkpt lat="48.23498" lon="3.24099">
        <ele>224</ele>
        <time>2011-05-15T10:03:00Z</time>
      </trkpt>
      <trkpt lat="48.23499" lon="3.24114">
        <ele>224</ele>
        <time>2011-05-15T10:03:01Z</time>
      </trkpt>
      <trkpt lat="48.23499" lon="3.24127">
        <ele>224</ele>
        <time>2011-05-15T10:03:02Z</time>
      </trkpt>
      <trkpt lat="48.23499" lon="3.2414">
        <ele>223</ele>
        <time>2011-05-15T10:03:03Z</time>
      </trkpt>
      <trkpt lat="48.235" lon="3.24152">
        <ele>223</ele>
        <time>2011-05-15T10:03:04Z</time>
      </trkpt>
      <trkpt lat="48.23502" lon="3.24165">
        <ele>223</ele>
        <time>2011-05-15T10:03:05Z</time>
      </trkpt>
      <trkpt lat="48.23503" lon="3.24176">
        <ele>223</ele>
        <time>2011-05-15T10:03:06Z</time>
      </trkpt>
      <trkpt lat="48.23506" lon="3.24187">
        <ele>222</ele>
        <time>2011-05-15T10:03:07Z</time>
      </trkpt>
      <trkpt lat="48.23506" lon="3.24198">
        <ele>222</ele>
        <time>2011-05-15T10:03:08Z</time>
      </trkpt>
      <trkpt lat="48.23509" lon="3.24208">
        <ele>222</ele>
        <time>2011-05-15T10:03:09Z</time>
      </trkpt>
      <trkpt lat="48.2351" lon="3.24219">
        <ele>222</ele>
        <time>2011-05-15T10:03:10Z</time>
      </trkpt>
      <trkpt lat="48.23512" lon="3.24228">
        <ele>221</ele>
        <time>2011-05-15T10:03:11Z</time>
      </trkpt>
      <trkpt lat="48.23514" lon="3.24236">
        <ele>221</ele>
        <time>2011-05-15T10:03:12Z</time>
      </trkpt>
      <trkpt lat="48.23515" lon="3.24245">
        <ele>221</ele>
        <time>2011-05-15T10:03:13Z</time>
      </trkpt>
      <trkpt lat="48.23517" lon="3.24253">
        <ele>221</ele>
        <time>2011-05-15T10:03:14Z</time>
      </trkpt>
      <trkpt lat="48.23519" lon="3.24264">
        <ele>221</ele>
        <time>2011-05-15T10:03:15Z</time>
      </trkpt>
      <trkpt lat="48.23522" lon="3.24275">
        <ele>221</ele>
        <time>2011-05-15T10:03:16Z</time>
      </trkpt>
      <trkpt lat="48.23523" lon="3.24286">
        <ele>221</ele>
        <time>2011-05-15T10:03:17Z</time>
      </trkpt>
      <trkpt lat="48.23525" lon="3.243">
        <ele>221</ele>
        <time>2011-05-15T10:03:18Z</time>
      </trkpt>
      <trkpt lat="48.23525" lon="3.24313">
        <ele>221</ele>
        <time>2011-05-15T10:03:19Z</time>
      </trkpt>
      <trkpt lat="48.23526" lon="3.24328">
        <ele>221</ele>
        <time>2011-05-15T10:03:20Z</time>
      </trkpt>
      <trkpt lat="48.23526" lon="3.24341">
        <ele>221</ele>
        <time>2011-05-15T10:03:21Z</time>
      </trkpt>
      <trkpt lat="48.23526" lon="3.24356">
        <ele>221</ele>
        <time>2011-05-15T10:03:22Z</time>
      </trkpt>
      <trkpt lat="48.23527" lon="3.24371">
        <ele>220</ele>
        <time>2011-05-15T10:03:23Z</time>
      </trkpt>
      <trkpt lat="48.23527" lon="3.24384">
        <ele>219</ele>
        <time>2011-05-15T10:03:24Z</time>
      </trkpt>
      <trkpt lat="48.2353" lon="3.24397">
        <ele>219</ele>
        <time>2011-05-15T10:03:25Z</time>
      </trkpt>
      <trkpt lat="48.23532" lon="3.24408">
        <ele>219</ele>
        <time>2011-05-15T10:03:26Z</time>
      </trkpt>
      <trkpt lat="48.23533" lon="3.24421">
        <ele>218</ele>
        <time>2011-05-15T10:03:27Z</time>
      </trkpt>
      <trkpt lat="48.23536" lon="3.24431">
        <ele>218</ele>
        <time>2011-05-15T10:03:28Z</time>
      </trkpt>
      <trkpt lat="48.23537" lon="3.24442">
        <ele>218</ele>
        <time>2011-05-15T10:03:29Z</time>
      </trkpt>
      <trkpt lat="48.23538" lon="3.24453">
        <ele>218</ele>
        <time>2011-05-15T10:03:30Z</time>
      </trkpt>
      <trkpt lat="48.23539" lon="3.24464">
        <ele>218</ele>
        <time>2011-05-15T10:03:31Z</time>
      </trkpt>
      <trkpt lat="48.23539" lon="3.24472">
        <ele>218</ele>
        <time>2011-05-15T10:03:32Z</time>
      </trkpt>
      <trkpt lat="48.2354" lon="3.24483">
        <ele>217</ele>
        <time>2011-05-15T10:03:33Z</time>
      </trkpt>
      <trkpt lat="48.23541" lon="3.24492">
        <ele>217</ele>
        <time>2011-05-15T10:03:34Z</time>
      </trkpt>
      <trkpt lat="48.23541" lon="3.245">
        <ele>217</ele>
        <time>2011-05-15T10:03:35Z</time>
      </trkpt>
      <trkpt lat="48.23542" lon="3.24509">
        <ele>217</ele>
        <time>2011-05-15T10:03:36Z</time>
      </trkpt>
      <trkpt lat="48.23543" lon="3.24517">
        <ele>217</ele>
        <time>2011-05-15T10:03:37Z</time>
      </trkpt>
      <trkpt lat="48.23544" lon="3.24526">
        <ele>217</ele>
        <time>2011-05-15T10:03:38Z</time>
      </trkpt>
      <trkpt lat="48.23547" lon="3.24539">
        <ele>215</ele>
        <time>2011-05-15T10:04:35Z</time>
      </trkpt>
      <trkpt lat="48.2355" lon="3.24545">
        <ele>214</ele>
        <time>2011-05-15T10:04:36Z</time>
      </trkpt>
      <trkpt lat="48.23555" lon="3.24556">
        <ele>214</ele>
        <time>2011-05-15T10:04:38Z</time>
      </trkpt>
      <trkpt lat="48.23557" lon="3.24567">
        <ele>213</ele>
        <time>2011-05-15T10:04:40Z</time>
      </trkpt>
      <trkpt lat="48.23558" lon="3.24577">
        <ele>212</ele>
        <time>2011-05-15T10:04:42Z</time>
      </trkpt>
      <trkpt lat="48.2356" lon="3.24584">
        <ele>212</ele>
        <time>2011-05-15T10:04:45Z</time>
      </trkpt>
      <trkpt lat="48.23562" lon="3.2459">
        <ele>211</ele>
        <time>2011-05-15T10:04:47Z</time>
      </trkpt>
      <trkpt lat="48.23566" lon="3.24599">
        <ele>211</ele>
        <time>2011-05-15T10:04:50Z</time>
      </trkpt>
      <trkpt lat="48.23569" lon="3.2461">
        <ele>210</ele>
        <time>2011-05-15T10:04:54Z</time>
      </trkpt>
      <trkpt lat="48.23569" lon="3.2461">
        <ele>210</ele>
        <time>2011-05-15T10:04:54Z</time>
      </trkpt>
      <trkpt lat="48.23569" lon="3.2461">
        <ele>210</ele>
        <time>2011-05-15T10:04:55Z</time>
      </trkpt>
      <trkpt lat="48.23571" lon="3.24616">
        <ele>210</ele>
        <time>2011-05-15T10:04:56Z</time>
      </trkpt>
      <trkpt lat="48.23574" lon="3.24622">
        <ele>209</ele>
        <time>2011-05-15T10:04:58Z</time>
      </trkpt>
      <trkpt lat="48.2358" lon="3.24629">
        <ele>209</ele>
        <time>2011-05-15T10:05:01Z</time>
      </trkpt>
      <trkpt lat="48.23587" lon="3.24635">
        <ele>208</ele>
        <time>2011-05-15T10:05:06Z</time>
      </trkpt>
      <trkpt lat="48.23587" lon="3.24635">
        <ele>208</ele>
        <time>2011-05-15T10:05:06Z</time>
      </trkpt>
      <trkpt lat="48.23587" lon="3.24635">
        <ele>208</ele>
        <time>2011-05-15T10:05:07Z</time>
      </trkpt>
      <trkpt lat="48.23591" lon="3.2464">
        <ele>208</ele>
        <time>2011-05-15T10:05:08Z</time>
      </trkpt>
      <trkpt lat="48.23591" lon="3.2464">
        <ele>208</ele>
        <time>2011-05-15T10:05:08Z</time>
      </trkpt>
      <trkpt lat="48.23591" lon="3.2464">
        <ele>208</ele>
        <time>2011-05-15T10:05:09Z</time>
      </trkpt>
      <trkpt lat="48.23594" lon="3.24646">
        <ele>208</ele>
        <time>2011-05-15T10:05:10Z</time>
      </trkpt>
      <trkpt lat="48.23598" lon="3.24652">
        <ele>208</ele>
        <time>2011-05-15T10:05:12Z</time>
      </trkpt>
      <trkpt lat="48.23601" lon="3.24659">
        <ele>208</ele>
        <time>2011-05-15T10:05:14Z</time>
      </trkpt>
      <trkpt lat="48.23601" lon="3.24659">
        <ele>208</ele>
        <time>2011-05-15T10:05:14Z</time>
      </trkpt>
      <trkpt lat="48.23601" lon="3.24659">
        <ele>208</ele>
        <time>2011-05-15T10:05:15Z</time>
      </trkpt>
      <trkpt lat="48.23604" lon="3.24665">
        <ele>207</ele>
        <time>2011-05-15T10:05:16Z</time>
      </trkpt>
      <trkpt lat="48.23604" lon="3.24665">
        <ele>207</ele>
        <time>2011-05-15T10:05:16Z</time>
      </trkpt>
      <trkpt lat="48.23604" lon="3.24665">
        <ele>207</ele>
        <time>2011-05-15T10:05:18Z</time>
      </trkpt>
      <trkpt lat="48.2361" lon="3.24674">
        <ele>207</ele>
        <time>2011-05-15T10:05:19Z</time>
      </trkpt>
      <trkpt lat="48.2361" lon="3.24674">
        <ele>207</ele>
        <time>2011-05-15T10:05:19Z</time>
      </trkpt>
      <trkpt lat="48.2361" lon="3.24674">
        <ele>207</ele>
        <time>2011-05-15T10:05:21Z</time>
      </trkpt>
      <trkpt lat="48.23615" lon="3.24682">
        <ele>207</ele>
        <time>2011-05-15T10:05:22Z</time>
      </trkpt>
      <trkpt lat="48.23615" lon="3.24682">
        <ele>207</ele>
        <time>2011-05-15T10:05:22Z</time>
      </trkpt>
      <trkpt lat="48.23615" lon="3.24682">
        <ele>207</ele>
        <time>2011-05-15T10:05:26Z</time>
      </trkpt>
      <trkpt lat="48.23619" lon="3.24695">
        <ele>207</ele>
        <time>2011-05-15T10:05:27Z</time>
      </trkpt>
      <trkpt lat="48.23622" lon="3.24704">
        <ele>206</ele>
        <time>2011-05-15T10:05:29Z</time>
      </trkpt>
      <trkpt lat="48.23628" lon="3.24715">
        <ele>206</ele>
        <time>2011-05-15T10:05:33Z</time>
      </trkpt>
      <trkpt lat="48.23635" lon="3.2473">
        <ele>205</ele>
        <time>2011-05-15T10:05:38Z</time>
      </trkpt>
      <trkpt lat="48.23638" lon="3.24738">
        <ele>204</ele>
        <time>2011-05-15T10:05:50Z</time>
      </trkpt>
      <trkpt lat="48.23642" lon="3.24751">
        <ele>203</ele>
        <time>2011-05-15T10:05:53Z</time>
      </trkpt>
      <trkpt lat="48.23643" lon="3.24766">
        <ele>203</ele>
        <time>2011-05-15T10:05:56Z</time>
      </trkpt>
      <trkpt lat="48.23644" lon="3.24775">
        <ele>201</ele>
        <time>2011-05-15T10:05:57Z</time>
      </trkpt>
      <trkpt lat="48.23646" lon="3.24783">
        <ele>199</ele>
        <time>2011-05-15T10:05:58Z</time>
      </trkpt>
      <trkpt lat="48.23649" lon="3.24792">
        <ele>198</ele>
        <time>2011-05-15T10:05:59Z</time>
      </trkpt>
      <trkpt lat="48.23652" lon="3.24803">
        <ele>197</ele>
        <time>2011-05-15T10:06:00Z</time>
      </trkpt>
      <trkpt lat="48.23655" lon="3.24811">
        <ele>196</ele>
        <time>2011-05-15T10:06:01Z</time>
      </trkpt>
      <trkpt lat="48.23657" lon="3.2482">
        <ele>195</ele>
        <time>2011-05-15T10:06:02Z</time>
      </trkpt>
      <trkpt lat="48.23658" lon="3.24828">
        <ele>194</ele>
        <time>2011-05-15T10:06:03Z</time>
      </trkpt>
      <trkpt lat="48.23655" lon="3.24843">
        <ele>193</ele>
        <time>2011-05-15T10:06:05Z</time>
      </trkpt>
      <trkpt lat="48.23647" lon="3.24854">
        <ele>192</ele>
        <time>2011-05-15T10:06:07Z</time>
      </trkpt>
      <trkpt lat="48.23643" lon="3.2486">
        <ele>191</ele>
        <time>2011-05-15T10:06:08Z</time>
      </trkpt>
      <trkpt lat="48.23638" lon="3.24867">
        <ele>191</ele>
        <time>2011-05-15T10:06:09Z</time>
      </trkpt>
      <trkpt lat="48.23633" lon="3.24873">
        <ele>191</ele>
        <time>2011-05-15T10:06:10Z</time>
      </trkpt>
      <trkpt lat="48.23628" lon="3.24882">
        <ele>190</ele>
        <time>2011-05-15T10:06:11Z</time>
      </trkpt>
      <trkpt lat="48.23621" lon="3.24888">
        <ele>190</ele>
        <time>2011-05-15T10:06:12Z</time>
      </trkpt>
      <trkpt lat="48.23616" lon="3.24897">
        <ele>190</ele>
        <time>2011-05-15T10:06:13Z</time>
      </trkpt>
      <trkpt lat="48.23611" lon="3.24903">
        <ele>190</ele>
        <time>2011-05-15T10:06:14Z</time>
      </trkpt>
      <trkpt lat="48.23606" lon="3.2491">
        <ele>189</ele>
        <time>2011-05-15T10:06:15Z</time>
      </trkpt>
      <trkpt lat="48.23602" lon="3.24916">
        <ele>189</ele>
        <time>2011-05-15T10:06:16Z</time>
      </trkpt>
      <trkpt lat="48.23597" lon="3.24923">
        <ele>189</ele>
        <time>2011-05-15T10:06:17Z</time>
      </trkpt>
      <trkpt lat="48.23593" lon="3.24929">
        <ele>189</ele>
        <time>2011-05-15T10:06:18Z</time>
      </trkpt>
      <trkpt lat="48.23589" lon="3.24934">
        <ele>188</ele>
        <time>2011-05-15T10:06:19Z</time>
      </trkpt>
      <trkpt lat="48.23587" lon="3.2494">
        <ele>188</ele>
        <time>2011-05-15T10:06:20Z</time>
      </trkpt>
      <trkpt lat="48.23578" lon="3.24944">
        <ele>187</ele>
        <time>2011-05-15T10:06:22Z</time>
      </trkpt>
      <trkpt lat="48.23569" lon="3.24942">
        <ele>186</ele>
        <time>2011-05-15T10:06:24Z</time>
      </trkpt>
      <trkpt lat="48.23563" lon="3.2494">
        <ele>186</ele>
        <time>2011-05-15T10:06:25Z</time>
      </trkpt>
      <trkpt lat="48.23554" lon="3.24938">
        <ele>185</ele>
        <time>2011-05-15T10:06:27Z</time>
      </trkpt>
      <trkpt lat="48.2355" lon="3.24936">
        <ele>184</ele>
        <time>2011-05-15T10:06:28Z</time>
      </trkpt>
      <trkpt lat="48.23544" lon="3.24936">
        <ele>183</ele>
        <time>2011-05-15T10:06:29Z</time>
      </trkpt>
      <trkpt lat="48.23538" lon="3.24934">
        <ele>183</ele>
        <time>2011-05-15T10:06:31Z</time>
      </trkpt>
      <trkpt lat="48.23531" lon="3.24934">
        <ele>182</ele>
        <time>2011-05-15T10:06:33Z</time>
      </trkpt>
      <trkpt lat="48.23527" lon="3.24927">
        <ele>182</ele>
        <time>2011-05-15T10:06:35Z</time>
      </trkpt>
      <trkpt lat="48.23527" lon="3.24927">
        <ele>182</ele>
        <time>2011-05-15T10:06:35Z</time>
      </trkpt>
      <trkpt lat="48.23527" lon="3.24927">
        <ele>182</ele>
        <time>2011-05-15T10:06:38Z</time>
      </trkpt>
      <trkpt lat="48.23523" lon="3.24921">
        <ele>181</ele>
        <time>2011-05-15T10:06:39Z</time>
      </trkpt>
      <trkpt lat="48.23523" lon="3.24921">
        <ele>181</ele>
        <time>2011-05-15T10:06:39Z</time>
      </trkpt>
      <trkpt lat="48.23523" lon="3.24921">
        <ele>181</ele>
        <time>2011-05-15T10:06:40Z</time>
      </trkpt>
      <trkpt lat="48.23518" lon="3.24916">
        <ele>181</ele>
        <time>2011-05-15T10:06:42Z</time>
      </trkpt>
      <trkpt lat="48.23513" lon="3.2491">
        <ele>180</ele>
        <time>2011-05-15T10:06:45Z</time>
      </trkpt>
      <trkpt lat="48.23509" lon="3.24906">
        <ele>180</ele>
        <time>2011-05-15T10:06:47Z</time>
      </trkpt>
      <trkpt lat="48.23506" lon="3.24899">
        <ele>179</ele>
        <time>2011-05-15T10:06:49Z</time>
      </trkpt>
      <trkpt lat="48.23501" lon="3.24895">
        <ele>179</ele>
        <time>2011-05-15T10:06:51Z</time>
      </trkpt>
      <trkpt lat="48.23497" lon="3.24888">
        <ele>178</ele>
        <time>2011-05-15T10:06:53Z</time>
      </trkpt>
      <trkpt lat="48.23492" lon="3.2488">
        <ele>178</ele>
        <time>2011-05-15T10:06:56Z</time>
      </trkpt>
      <trkpt lat="48.23486" lon="3.24873">
        <ele>177</ele>
        <time>2011-05-15T10:06:59Z</time>
      </trkpt>
      <trkpt lat="48.23482" lon="3.24867">
        <ele>177</ele>
        <time>2011-05-15T10:07:01Z</time>
      </trkpt>
      <trkpt lat="48.23479" lon="3.2486">
        <ele>176</ele>
        <time>2011-05-15T10:07:03Z</time>
      </trkpt>
      <trkpt lat="48.23475" lon="3.24854">
        <ele>176</ele>
        <time>2011-05-15T10:07:05Z</time>
      </trkpt>
      <trkpt lat="48.23471" lon="3.2485">
        <ele>175</ele>
        <time>2011-05-15T10:07:07Z</time>
      </trkpt>
      <trkpt lat="48.23468" lon="3.24843">
        <ele>175</ele>
        <time>2011-05-15T10:07:09Z</time>
      </trkpt>
      <trkpt lat="48.23464" lon="3.24837">
        <ele>175</ele>
        <time>2011-05-15T10:07:11Z</time>
      </trkpt>
      <trkpt lat="48.23459" lon="3.2483">
        <ele>174</ele>
        <time>2011-05-15T10:07:13Z</time>
      </trkpt>
      <trkpt lat="48.23455" lon="3.24824">
        <ele>174</ele>
        <time>2011-05-15T10:07:15Z</time>
      </trkpt>
      <trkpt lat="48.23451" lon="3.2482">
        <ele>174</ele>
        <time>2011-05-15T10:07:17Z</time>
      </trkpt>
      <trkpt lat="48.23446" lon="3.24813">
        <ele>174</ele>
        <time>2011-05-15T10:07:19Z</time>
      </trkpt>
      <trkpt lat="48.23441" lon="3.24807">
        <ele>173</ele>
        <time>2011-05-15T10:07:21Z</time>
      </trkpt>
      <trkpt lat="48.23437" lon="3.248">
        <ele>173</ele>
        <time>2011-05-15T10:07:23Z</time>
      </trkpt>
      <trkpt lat="48.23431" lon="3.24792">
        <ele>173</ele>
        <time>2011-05-15T10:07:25Z</time>
      </trkpt>
      <trkpt lat="48.23426" lon="3.24785">
        <ele>173</ele>
        <time>2011-05-15T10:07:27Z</time>
      </trkpt>
      <trkpt lat="48.23422" lon="3.24779">
        <ele>172</ele>
        <time>2011-05-15T10:07:29Z</time>
      </trkpt>
      <trkpt lat="48.23416" lon="3.24772">
        <ele>172</ele>
        <time>2011-05-15T10:07:31Z</time>
      </trkpt>
      <trkpt lat="48.23411" lon="3.24764">
        <ele>172</ele>
        <time>2011-05-15T10:07:33Z</time>
      </trkpt>
      <trkpt lat="48.23406" lon="3.24758">
        <ele>171</ele>
        <time>2011-05-15T10:07:35Z</time>
      </trkpt>
      <trkpt lat="48.23399" lon="3.24749">
        <ele>168</ele>
        <time>2011-05-15T10:07:37Z</time>
      </trkpt>
      <trkpt lat="48.23393" lon="3.24738">
        <ele>166</ele>
        <time>2011-05-15T10:07:39Z</time>
      </trkpt>
      <trkpt lat="48.23386" lon="3.2473">
        <ele>165</ele>
        <time>2011-05-15T10:07:41Z</time>
      </trkpt>
      <trkpt lat="48.23384" lon="3.24723">
        <ele>165</ele>
        <time>2011-05-15T10:07:42Z</time>
      </trkpt>
      <trkpt lat="48.2338" lon="3.24715">
        <ele>165</ele>
        <time>2011-05-15T10:07:44Z</time>
      </trkpt>
      <trkpt lat="48.23377" lon="3.24706">
        <ele>165</ele>
        <time>2011-05-15T10:07:46Z</time>
      </trkpt>
      <trkpt lat="48.23374" lon="3.247">
        <ele>165</ele>
        <time>2011-05-15T10:07:48Z</time>
      </trkpt>
      <trkpt lat="48.23371" lon="3.24691">
        <ele>165</ele>
        <time>2011-05-15T10:07:50Z</time>
      </trkpt>
      <trkpt lat="48.23367" lon="3.24685">
        <ele>165</ele>
        <time>2011-05-15T10:07:52Z</time>
      </trkpt>
      <trkpt lat="48.23365" lon="3.24678">
        <ele>164</ele>
        <time>2011-05-15T10:07:53Z</time>
      </trkpt>
      <trkpt lat="48.23358" lon="3.24667">
        <ele>163</ele>
        <time>2011-05-15T10:07:55Z</time>
      </trkpt>
      <trkpt lat="48.23352" lon="3.24665">
        <ele>163</ele>
        <time>2011-05-15T10:07:56Z</time>
      </trkpt>
      <trkpt lat="48.23346" lon="3.24665">
        <ele>163</ele>
        <time>2011-05-15T10:07:57Z</time>
      </trkpt>
      <trkpt lat="48.23339" lon="3.24667">
        <ele>162</ele>
        <time>2011-05-15T10:07:58Z</time>
      </trkpt>
      <trkpt lat="48.23331" lon="3.24667">
        <ele>162</ele>
        <time>2011-05-15T10:07:59Z</time>
      </trkpt>
      <trkpt lat="48.23322" lon="3.24665">
        <ele>162</ele>
        <time>2011-05-15T10:08:00Z</time>
      </trkpt>
      <trkpt lat="48.23314" lon="3.24661">
        <ele>162</ele>
        <time>2011-05-15T10:08:01Z</time>
      </trkpt>
      <trkpt lat="48.23305" lon="3.24657">
        <ele>162</ele>
        <time>2011-05-15T10:08:02Z</time>
      </trkpt>
      <trkpt lat="48.23296" lon="3.24652">
        <ele>162</ele>
        <time>2011-05-15T10:08:03Z</time>
      </trkpt>
      <trkpt lat="48.23287" lon="3.24642">
        <ele>163</ele>
        <time>2011-05-15T10:08:04Z</time>
      </trkpt>
      <trkpt lat="48.23277" lon="3.24633">
        <ele>163</ele>
        <time>2011-05-15T10:08:05Z</time>
      </trkpt>
      <trkpt lat="48.23268" lon="3.24622">
        <ele>163</ele>
        <time>2011-05-15T10:08:06Z</time>
      </trkpt>
      <trkpt lat="48.23258" lon="3.24612">
        <ele>162</ele>
        <time>2011-05-15T10:08:07Z</time>
      </trkpt>
      <trkpt lat="48.23248" lon="3.24599">
        <ele>162</ele>
        <time>2011-05-15T10:08:08Z</time>
      </trkpt>
      <trkpt lat="48.23238" lon="3.24584">
        <ele>162</ele>
        <time>2011-05-15T10:08:09Z</time>
      </trkpt>
      <trkpt lat="48.23229" lon="3.24571">
        <ele>161</ele>
        <time>2011-05-15T10:08:10Z</time>
      </trkpt>
      <trkpt lat="48.23219" lon="3.24556">
        <ele>160</ele>
        <time>2011-05-15T10:08:11Z</time>
      </trkpt>
      <trkpt lat="48.23209" lon="3.24543">
        <ele>160</ele>
        <time>2011-05-15T10:08:12Z</time>
      </trkpt>
      <trkpt lat="48.23199" lon="3.24528">
        <ele>159</ele>
        <time>2011-05-15T10:08:13Z</time>
      </trkpt>
      <trkpt lat="48.23188" lon="3.24517">
        <ele>158</ele>
        <time>2011-05-15T10:08:14Z</time>
      </trkpt>
      <trkpt lat="48.23178" lon="3.24504">
        <ele>157</ele>
        <time>2011-05-15T10:08:15Z</time>
      </trkpt>
      <trkpt lat="48.23169" lon="3.24494">
        <ele>157</ele>
        <time>2011-05-15T10:08:16Z</time>
      </trkpt>
      <trkpt lat="48.2316" lon="3.24485">
        <ele>156</ele>
        <time>2011-05-15T10:08:17Z</time>
      </trkpt>
      <trkpt lat="48.23152" lon="3.24479">
        <ele>156</ele>
        <time>2011-05-15T10:08:18Z</time>
      </trkpt>
      <trkpt lat="48.23145" lon="3.24472">
        <ele>155</ele>
        <time>2011-05-15T10:08:19Z</time>
      </trkpt>
      <trkpt lat="48.2314" lon="3.24466">
        <ele>155</ele>
        <time>2011-05-15T10:08:20Z</time>
      </trkpt>
      <trkpt lat="48.23133" lon="3.24459">
        <ele>155</ele>
        <time>2011-05-15T10:08:22Z</time>
      </trkpt>
      <trkpt lat="48.23135" lon="3.24468">
        <ele>154</ele>
        <time>2011-05-15T10:08:27Z</time>
      </trkpt>
      <trkpt lat="48.2314" lon="3.2447">
        <ele>154</ele>
        <time>2011-05-15T10:08:29Z</time>
      </trkpt>
      <trkpt lat="48.23145" lon="3.24476">
        <ele>154</ele>
        <time>2011-05-15T10:08:31Z</time>
      </trkpt>
      <trkpt lat="48.23151" lon="3.24479">
        <ele>154</ele>
        <time>2011-05-15T10:08:33Z</time>
      </trkpt>
      <trkpt lat="48.23157" lon="3.24485">
        <ele>154</ele>
        <time>2011-05-15T10:08:35Z</time>
      </trkpt>
      <trkpt lat="48.23163" lon="3.24492">
        <ele>153</ele>
        <time>2011-05-15T10:08:37Z</time>
      </trkpt>
      <trkpt lat="48.2317" lon="3.24498">
        <ele>153</ele>
        <time>2011-05-15T10:08:39Z</time>
      </trkpt>
      <trkpt lat="48.23174" lon="3.24506">
        <ele>152</ele>
        <time>2011-05-15T10:08:41Z</time>
      </trkpt>
      <trkpt lat="48.23175" lon="3.24519">
        <ele>150</ele>
        <time>2011-05-15T10:08:43Z</time>
      </trkpt>
      <trkpt lat="48.23174" lon="3.24532">
        <ele>149</ele>
        <time>2011-05-15T10:08:45Z</time>
      </trkpt>
      <trkpt lat="48.23172" lon="3.24539">
        <ele>148</ele>
        <time>2011-05-15T10:08:46Z</time>
      </trkpt>
      <trkpt lat="48.23169" lon="3.24545">
        <ele>148</ele>
        <time>2011-05-15T10:08:47Z</time>
      </trkpt>
      <trkpt lat="48.23166" lon="3.24552">
        <ele>148</ele>
        <time>2011-05-15T10:08:48Z</time>
      </trkpt>
      <trkpt lat="48.23164" lon="3.24558">
        <ele>148</ele>
        <time>2011-05-15T10:08:49Z</time>
      </trkpt>
      <trkpt lat="48.23161" lon="3.24564">
        <ele>148</ele>
        <time>2011-05-15T10:08:50Z</time>
      </trkpt>
      <trkpt lat="48.23159" lon="3.24571">
        <ele>148</ele>
        <time>2011-05-15T10:08:51Z</time>
      </trkpt>
      <trkpt lat="48.23152" lon="3.24582">
        <ele>148</ele>
        <time>2011-05-15T10:08:52Z</time>
      </trkpt>
      <trkpt lat="48.23149" lon="3.2459">
        <ele>148</ele>
        <time>2011-05-15T10:08:53Z</time>
      </trkpt>
      <trkpt lat="48.23146" lon="3.24597">
        <ele>148</ele>
        <time>2011-05-15T10:08:54Z</time>
      </trkpt>
      <trkpt lat="48.23142" lon="3.24603">
        <ele>148</ele>
        <time>2011-05-15T10:08:55Z</time>
      </trkpt>
      <trkpt lat="48.23138" lon="3.24612">
        <ele>148</ele>
        <time>2011-05-15T10:08:56Z</time>
      </trkpt>
      <trkpt lat="48.23133" lon="3.24618">
        <ele>147</ele>
        <time>2011-05-15T10:08:57Z</time>
      </trkpt>
      <trkpt lat="48.2313" lon="3.24624">
        <ele>147</ele>
        <time>2011-05-15T10:08:58Z</time>
      </trkpt>
      <trkpt lat="48.23126" lon="3.24633">
        <ele>147</ele>
        <time>2011-05-15T10:08:59Z</time>
      </trkpt>
      <trkpt lat="48.23121" lon="3.2464">
        <ele>147</ele>
        <time>2011-05-15T10:09:00Z</time>
      </trkpt>
      <trkpt lat="48.23117" lon="3.24646">
        <ele>147</ele>
        <time>2011-05-15T10:09:01Z</time>
      </trkpt>
      <trkpt lat="48.23113" lon="3.24652">
        <ele>146</ele>
        <time>2011-05-15T10:09:02Z</time>
      </trkpt>
      <trkpt lat="48.23108" lon="3.24657">
        <ele>146</ele>
        <time>2011-05-15T10:09:03Z</time>
      </trkpt>
      <trkpt lat="48.23104" lon="3.24663">
        <ele>146</ele>
        <time>2011-05-15T10:09:04Z</time>
      </trkpt>
      <trkpt lat="48.231" lon="3.24667">
        <ele>146</ele>
        <time>2011-05-15T10:09:05Z</time>
      </trkpt>
      <trkpt lat="48.23096" lon="3.24674">
        <ele>145</ele>
        <time>2011-05-15T10:09:06Z</time>
      </trkpt>
      <trkpt lat="48.2309" lon="3.24678">
        <ele>145</ele>
        <time>2011-05-15T10:09:07Z</time>
      </trkpt>
      <trkpt lat="48.23085" lon="3.24682">
        <ele>145</ele>
        <time>2011-05-15T10:09:08Z</time>
      </trkpt>
      <trkpt lat="48.2308" lon="3.24687">
        <ele>144</ele>
        <time>2011-05-15T10:09:09Z</time>
      </trkpt>
      <trkpt lat="48.23073" lon="3.24691">
        <ele>144</ele>
        <time>2011-05-15T10:09:10Z</time>
      </trkpt>
      <trkpt lat="48.23068" lon="3.24695">
        <ele>143</ele>
        <time>2011-05-15T10:09:11Z</time>
      </trkpt>
      <trkpt lat="48.23061" lon="3.247">
        <ele>143</ele>
        <time>2011-05-15T10:09:12Z</time>
      </trkpt>
      <trkpt lat="48.23056" lon="3.24704">
        <ele>142</ele>
        <time>2011-05-15T10:09:13Z</time>
      </trkpt>
      <trkpt lat="48.2305" lon="3.24708">
        <ele>142</ele>
        <time>2011-05-15T10:09:14Z</time>
      </trkpt>
      <trkpt lat="48.23044" lon="3.24712">
        <ele>142</ele>
        <time>2011-05-15T10:09:15Z</time>
      </trkpt>
      <trkpt lat="48.23038" lon="3.24717">
        <ele>141</ele>
        <time>2011-05-15T10:09:16Z</time>
      </trkpt>
      <trkpt lat="48.23032" lon="3.24721">
        <ele>141</ele>
        <time>2011-05-15T10:09:17Z</time>
      </trkpt>
      <trkpt lat="48.23027" lon="3.24725">
        <ele>141</ele>
        <time>2011-05-15T10:09:18Z</time>
      </trkpt>
      <trkpt lat="48.23022" lon="3.24728">
        <ele>141</ele>
        <time>2011-05-15T10:09:19Z</time>
      </trkpt>
      <trkpt lat="48.23016" lon="3.24732">
        <ele>140</ele>
        <time>2011-05-15T10:09:20Z</time>
      </trkpt>
      <trkpt lat="48.23012" lon="3.24736">
        <ele>140</ele>
        <time>2011-05-15T10:09:21Z</time>
      </trkpt>
      <trkpt lat="48.23007" lon="3.24738">
        <ele>139</ele>
        <time>2011-05-15T10:09:22Z</time>
      </trkpt>
      <trkpt lat="48.23002" lon="3.24742">
        <ele>139</ele>
        <time>2011-05-15T10:09:23Z</time>
      </trkpt>
      <trkpt lat="48.22996" lon="3.24747">
        <ele>139</ele>
        <time>2011-05-15T10:09:25Z</time>
      </trkpt>
      <trkpt lat="48.22992" lon="3.24749">
        <ele>139</ele>
        <time>2011-05-15T10:09:27Z</time>
      </trkpt>
      <trkpt lat="48.22987" lon="3.24753">
        <ele>138</ele>
        <time>2011-05-15T10:09:30Z</time>
      </trkpt>
      <trkpt lat="48.22983" lon="3.24758">
        <ele>138</ele>
        <time>2011-05-15T10:09:32Z</time>
      </trkpt>
      <trkpt lat="48.22979" lon="3.24762">
        <ele>138</ele>
        <time>2011-05-15T10:09:34Z</time>
      </trkpt>
      <trkpt lat="48.22979" lon="3.24772">
        <ele>138</ele>
        <time>2011-05-15T10:09:36Z</time>
      </trkpt>
      <trkpt lat="48.22981" lon="3.24779">
        <ele>138</ele>
        <time>2011-05-15T10:09:38Z</time>
      </trkpt>
      <trkpt lat="48.22983" lon="3.24788">
        <ele>138</ele>
        <time>2011-05-15T10:09:40Z</time>
      </trkpt>
      <trkpt lat="48.22985" lon="3.24794">
        <ele>138</ele>
        <time>2011-05-15T10:09:42Z</time>
      </trkpt>
      <trkpt lat="48.22987" lon="3.24803">
        <ele>137</ele>
        <time>2011-05-15T10:09:44Z</time>
      </trkpt>
      <trkpt lat="48.2299" lon="3.24809">
        <ele>137</ele>
        <time>2011-05-15T10:09:46Z</time>
      </trkpt>
      <trkpt lat="48.22995" lon="3.24818">
        <ele>137</ele>
        <time>2011-05-15T10:09:48Z</time>
      </trkpt>
      <trkpt lat="48.22998" lon="3.24826">
        <ele>137</ele>
        <time>2011-05-15T10:09:50Z</time>
      </trkpt>
      <trkpt lat="48.23001" lon="3.24835">
        <ele>137</ele>
        <time>2011-05-15T10:09:52Z</time>
      </trkpt>
      <trkpt lat="48.23006" lon="3.24843">
        <ele>136</ele>
        <time>2011-05-15T10:09:54Z</time>
      </trkpt>
      <trkpt lat="48.23009" lon="3.24852">
        <ele>136</ele>
        <time>2011-05-15T10:09:56Z</time>
      </trkpt>
      <trkpt lat="48.23012" lon="3.24858">
        <ele>136</ele>
        <time>2011-05-15T10:09:57Z</time>
      </trkpt>
      <trkpt lat="48.23017" lon="3.24867">
        <ele>135</ele>
        <time>2011-05-15T10:09:59Z</time>
      </trkpt>
      <trkpt lat="48.23025" lon="3.24876">
        <ele>134</ele>
        <time>2011-05-15T10:10:01Z</time>
      </trkpt>
      <trkpt lat="48.23031" lon="3.24884">
        <ele>133</ele>
        <time>2011-05-15T10:10:03Z</time>
      </trkpt>
      <trkpt lat="48.23036" lon="3.24893">
        <ele>133</ele>
        <time>2011-05-15T10:10:05Z</time>
      </trkpt>
      <trkpt lat="48.23031" lon="3.24906">
        <ele>132</ele>
        <time>2011-05-15T10:10:07Z</time>
      </trkpt>
      <trkpt lat="48.23024" lon="3.24914">
        <ele>132</ele>
        <time>2011-05-15T10:10:09Z</time>
      </trkpt>
      <trkpt lat="48.2302" lon="3.24921">
        <ele>131</ele>
        <time>2011-05-15T10:10:10Z</time>
      </trkpt>
      <trkpt lat="48.23016" lon="3.24925">
        <ele>131</ele>
        <time>2011-05-15T10:10:11Z</time>
      </trkpt>
      <trkpt lat="48.23012" lon="3.24931">
        <ele>131</ele>
        <time>2011-05-15T10:10:12Z</time>
      </trkpt>
      <trkpt lat="48.23008" lon="3.24936">
        <ele>131</ele>
        <time>2011-05-15T10:10:13Z</time>
      </trkpt>
      <trkpt lat="48.23003" lon="3.24942">
        <ele>131</ele>
        <time>2011-05-15T10:10:14Z</time>
      </trkpt>
      <trkpt lat="48.22996" lon="3.24951">
        <ele>130</ele>
        <time>2011-05-15T10:10:16Z</time>
      </trkpt>
      <trkpt lat="48.22992" lon="3.24957">
        <ele>130</ele>
        <time>2011-05-15T10:10:17Z</time>
      </trkpt>
      <trkpt lat="48.22987" lon="3.24961">
        <ele>130</ele>
        <time>2011-05-15T10:10:18Z</time>
      </trkpt>
      <trkpt lat="48.22981" lon="3.24968">
        <ele>131</ele>
        <time>2011-05-15T10:10:20Z</time>
      </trkpt>
      <trkpt lat="48.22976" lon="3.24972">
        <ele>131</ele>
        <time>2011-05-15T10:10:21Z</time>
      </trkpt>
      <trkpt lat="48.22972" lon="3.24976">
        <ele>131</ele>
        <time>2011-05-15T10:10:22Z</time>
      </trkpt>
      <trkpt lat="48.22965" lon="3.24985">
        <ele>131</ele>
        <time>2011-05-15T10:10:24Z</time>
      </trkpt>
      <trkpt lat="48.2296" lon="3.24989">
        <ele>131</ele>
        <time>2011-05-15T10:10:25Z</time>
      </trkpt>
      <trkpt lat="48.22952" lon="3.24996">
        <ele>131</ele>
        <time>2011-05-15T10:10:27Z</time>
      </trkpt>
      <trkpt lat="48.22944" lon="3.25002">
        <ele>131</ele>
        <time>2011-05-15T10:10:29Z</time>
      </trkpt>
      <trkpt lat="48.2294" lon="3.25006">
        <ele>131</ele>
        <time>2011-05-15T10:10:30Z</time>
      </trkpt>
      <trkpt lat="48.22936" lon="3.25011">
        <ele>131</ele>
        <time>2011-05-15T10:10:31Z</time>
      </trkpt>
      <trkpt lat="48.22932" lon="3.25013">
        <ele>131</ele>
        <time>2011-05-15T10:10:32Z</time>
      </trkpt>
      <trkpt lat="48.22927" lon="3.25017">
        <ele>132</ele>
        <time>2011-05-15T10:10:33Z</time>
      </trkpt>
      <trkpt lat="48.2292" lon="3.25024">
        <ele>132</ele>
        <time>2011-05-15T10:10:35Z</time>
      </trkpt>
      <trkpt lat="48.22915" lon="3.25026">
        <ele>132</ele>
        <time>2011-05-15T10:10:36Z</time>
      </trkpt>
      <trkpt lat="48.22911" lon="3.2503">
        <ele>132</ele>
        <time>2011-05-15T10:10:37Z</time>
      </trkpt>
      <trkpt lat="48.22907" lon="3.25032">
        <ele>132</ele>
        <time>2011-05-15T10:10:38Z</time>
      </trkpt>
      <trkpt lat="48.22902" lon="3.25036">
        <ele>132</ele>
        <time>2011-05-15T10:10:39Z</time>
      </trkpt>
      <trkpt lat="48.22895" lon="3.25041">
        <ele>132</ele>
        <time>2011-05-15T10:10:41Z</time>
      </trkpt>
      <trkpt lat="48.22891" lon="3.25045">
        <ele>132</ele>
        <time>2011-05-15T10:10:42Z</time>
      </trkpt>
      <trkpt lat="48.22883" lon="3.25052">
        <ele>132</ele>
        <time>2011-05-15T10:10:44Z</time>
      </trkpt>
      <trkpt lat="48.22877" lon="3.2506">
        <ele>132</ele>
        <time>2011-05-15T10:10:46Z</time>
      </trkpt>
      <trkpt lat="48.2287" lon="3.25069">
        <ele>132</ele>
        <time>2011-05-15T10:10:48Z</time>
      </trkpt>
      <trkpt lat="48.22865" lon="3.25077">
        <ele>132</ele>
        <time>2011-05-15T10:10:50Z</time>
      </trkpt>
      <trkpt lat="48.22858" lon="3.25086">
        <ele>131</ele>
        <time>2011-05-15T10:10:52Z</time>
      </trkpt>
      <trkpt lat="48.22854" lon="3.2509">
        <ele>130</ele>
        <time>2011-05-15T10:10:53Z</time>
      </trkpt>
      <trkpt lat="48.22848" lon="3.25101">
        <ele>129</ele>
        <time>2011-05-15T10:10:55Z</time>
      </trkpt>
      <trkpt lat="48.22841" lon="3.25112">
        <ele>128</ele>
        <time>2011-05-15T10:10:57Z</time>
      </trkpt>
      <trkpt lat="48.22837" lon="3.25122">
        <ele>127</ele>
        <time>2011-05-15T10:10:59Z</time>
      </trkpt>
      <trkpt lat="48.22837" lon="3.25133">
        <ele>127</ele>
        <time>2011-05-15T10:11:01Z</time>
      </trkpt>
      <trkpt lat="48.22839" lon="3.25144">
        <ele>127</ele>
        <time>2011-05-15T10:11:03Z</time>
      </trkpt>
      <trkpt lat="48.22841" lon="3.25154">
        <ele>127</ele>
        <time>2011-05-15T10:11:05Z</time>
      </trkpt>
      <trkpt lat="48.22845" lon="3.25165">
        <ele>127</ele>
        <time>2011-05-15T10:11:07Z</time>
      </trkpt>
      <trkpt lat="48.22847" lon="3.25176">
        <ele>127</ele>
        <time>2011-05-15T10:11:09Z</time>
      </trkpt>
      <trkpt lat="48.2285" lon="3.25184">
        <ele>127</ele>
        <time>2011-05-15T10:11:11Z</time>
      </trkpt>
      <trkpt lat="48.22852" lon="3.25193">
        <ele>127</ele>
        <time>2011-05-15T10:11:13Z</time>
      </trkpt>
      <trkpt lat="48.22854" lon="3.252">
        <ele>127</ele>
        <time>2011-05-15T10:11:15Z</time>
      </trkpt>
      <trkpt lat="48.22856" lon="3.25208">
        <ele>127</ele>
        <time>2011-05-15T10:11:18Z</time>
      </trkpt>
      <trkpt lat="48.22856" lon="3.25208">
        <ele>127</ele>
        <time>2011-05-15T10:11:18Z</time>
      </trkpt>
      <trkpt lat="48.22856" lon="3.25208">
        <ele>125</ele>
        <time>2011-05-15T10:13:39Z</time>
      </trkpt>
      <trkpt lat="48.22854" lon="3.25202">
        <ele>125</ele>
        <time>2011-05-15T10:13:41Z</time>
      </trkpt>
      <trkpt lat="48.22852" lon="3.25193">
        <ele>125</ele>
        <time>2011-05-15T10:13:44Z</time>
      </trkpt>
      <trkpt lat="48.2285" lon="3.25187">
        <ele>125</ele>
        <time>2011-05-15T10:13:46Z</time>
      </trkpt>
      <trkpt lat="48.22848" lon="3.25178">
        <ele>124</ele>
        <time>2011-05-15T10:13:49Z</time>
      </trkpt>
      <trkpt lat="48.22846" lon="3.2517">
        <ele>124</ele>
        <time>2011-05-15T10:13:51Z</time>
      </trkpt>
      <trkpt lat="48.22844" lon="3.25159">
        <ele>124</ele>
        <time>2011-05-15T10:13:54Z</time>
      </trkpt>
      <trkpt lat="48.22841" lon="3.2515">
        <ele>124</ele>
        <time>2011-05-15T10:13:56Z</time>
      </trkpt>
      <trkpt lat="48.22839" lon="3.2514">
        <ele>124</ele>
        <time>2011-05-15T10:13:59Z</time>
      </trkpt>
      <trkpt lat="48.22837" lon="3.25133">
        <ele>124</ele>
        <time>2011-05-15T10:14:01Z</time>
      </trkpt>
      <trkpt lat="48.22833" lon="3.25129">
        <ele>124</ele>
        <time>2011-05-15T10:14:04Z</time>
      </trkpt>
      <trkpt lat="48.22827" lon="3.25127">
        <ele>124</ele>
        <time>2011-05-15T10:14:06Z</time>
      </trkpt>
      <trkpt lat="48.22822" lon="3.25129">
        <ele>123</ele>
        <time>2011-05-15T10:14:08Z</time>
      </trkpt>
      <trkpt lat="48.22816" lon="3.25133">
        <ele>123</ele>
        <time>2011-05-15T10:14:10Z</time>
      </trkpt>
      <trkpt lat="48.22809" lon="3.25135">
        <ele>123</ele>
        <time>2011-05-15T10:14:12Z</time>
      </trkpt>
      <trkpt lat="48.22803" lon="3.2514">
        <ele>123</ele>
        <time>2011-05-15T10:14:14Z</time>
      </trkpt>
      <trkpt lat="48.22796" lon="3.25144">
        <ele>123</ele>
        <time>2011-05-15T10:14:16Z</time>
      </trkpt>
      <trkpt lat="48.22789" lon="3.25146">
        <ele>123</ele>
        <time>2011-05-15T10:14:18Z</time>
      </trkpt>
      <trkpt lat="48.22782" lon="3.25148">
        <ele>123</ele>
        <time>2011-05-15T10:14:20Z</time>
      </trkpt>
      <trkpt lat="48.22776" lon="3.25152">
        <ele>123</ele>
        <time>2011-05-15T10:14:22Z</time>
      </trkpt>
      <trkpt lat="48.22767" lon="3.25154">
        <ele>122</ele>
        <time>2011-05-15T10:14:24Z</time>
      </trkpt>
      <trkpt lat="48.2276" lon="3.25157">
        <ele>122</ele>
        <time>2011-05-15T10:14:26Z</time>
      </trkpt>
      <trkpt lat="48.22751" lon="3.25161">
        <ele>122</ele>
        <time>2011-05-15T10:14:28Z</time>
      </trkpt>
      <trkpt lat="48.22743" lon="3.25163">
        <ele>122</ele>
        <time>2011-05-15T10:14:30Z</time>
      </trkpt>
      <trkpt lat="48.22738" lon="3.25165">
        <ele>122</ele>
        <time>2011-05-15T10:14:31Z</time>
      </trkpt>
      <trkpt lat="48.22734" lon="3.25167">
        <ele>122</ele>
        <time>2011-05-15T10:14:32Z</time>
      </trkpt>
      <trkpt lat="48.22726" lon="3.2517">
        <ele>122</ele>
        <time>2011-05-15T10:14:34Z</time>
      </trkpt>
      <trkpt lat="48.22721" lon="3.25172">
        <ele>123</ele>
        <time>2011-05-15T10:14:35Z</time>
      </trkpt>
      <trkpt lat="48.22713" lon="3.25176">
        <ele>123</ele>
        <time>2011-05-15T10:14:37Z</time>
      </trkpt>
      <trkpt lat="48.22704" lon="3.25178">
        <ele>123</ele>
        <time>2011-05-15T10:14:39Z</time>
      </trkpt>
      <trkpt lat="48.22695" lon="3.25182">
        <ele>123</ele>
        <time>2011-05-15T10:14:41Z</time>
      </trkpt>
      <trkpt lat="48.22686" lon="3.25187">
        <ele>123</ele>
        <time>2011-05-15T10:14:43Z</time>
      </trkpt>
      <trkpt lat="48.22677" lon="3.25191">
        <ele>122</ele>
        <time>2011-05-15T10:14:45Z</time>
      </trkpt>
      <trkpt lat="48.22672" lon="3.25193">
        <ele>122</ele>
        <time>2011-05-15T10:14:46Z</time>
      </trkpt>
      <trkpt lat="48.22663" lon="3.25195">
        <ele>122</ele>
        <time>2011-05-15T10:14:48Z</time>
      </trkpt>
      <trkpt lat="48.22658" lon="3.25197">
        <ele>122</ele>
        <time>2011-05-15T10:14:49Z</time>
      </trkpt>
      <trkpt lat="48.22654" lon="3.252">
        <ele>122</ele>
        <time>2011-05-15T10:14:50Z</time>
      </trkpt>
      <trkpt lat="48.22645" lon="3.25204">
        <ele>122</ele>
        <time>2011-05-15T10:14:52Z</time>
      </trkpt>
      <trkpt lat="48.2264" lon="3.25206">
        <ele>123</ele>
        <time>2011-05-15T10:14:53Z</time>
      </trkpt>
      <trkpt lat="48.22635" lon="3.25208">
        <ele>123</ele>
        <time>2011-05-15T10:14:54Z</time>
      </trkpt>
      <trkpt lat="48.2263" lon="3.2521">
        <ele>123</ele>
        <time>2011-05-15T10:14:55Z</time>
      </trkpt>
      <trkpt lat="48.2262" lon="3.25215">
        <ele>123</ele>
        <time>2011-05-15T10:14:57Z</time>
      </trkpt>
      <trkpt lat="48.22612" lon="3.25219">
        <ele>123</ele>
        <time>2011-05-15T10:14:59Z</time>
      </trkpt>
      <trkpt lat="48.22608" lon="3.25221">
        <ele>124</ele>
        <time>2011-05-15T10:15:00Z</time>
      </trkpt>
      <trkpt lat="48.22603" lon="3.25223">
        <ele>124</ele>
        <time>2011-05-15T10:15:01Z</time>
      </trkpt>
      <trkpt lat="48.22598" lon="3.25225">
        <ele>124</ele>
        <time>2011-05-15T10:15:02Z</time>
      </trkpt>
      <trkpt lat="48.2259" lon="3.2523">
        <ele>124</ele>
        <time>2011-05-15T10:15:04Z</time>
      </trkpt>
      <trkpt lat="48.22582" lon="3.25236">
        <ele>124</ele>
        <time>2011-05-15T10:15:06Z</time>
      </trkpt>
      <trkpt lat="48.22575" lon="3.25238">
        <ele>124</ele>
        <time>2011-05-15T10:15:08Z</time>
      </trkpt>
      <trkpt lat="48.2257" lon="3.25242">
        <ele>124</ele>
        <time>2011-05-15T10:15:10Z</time>
      </trkpt>
      <trkpt lat="48.22565" lon="3.25247">
        <ele>124</ele>
        <time>2011-05-15T10:15:12Z</time>
      </trkpt>
      <trkpt lat="48.22558" lon="3.25251">
        <ele>124</ele>
        <time>2011-05-15T10:15:14Z</time>
      </trkpt>
      <trkpt lat="48.22552" lon="3.25258">
        <ele>124</ele>
        <time>2011-05-15T10:15:16Z</time>
      </trkpt>
      <trkpt lat="48.22547" lon="3.2526">
        <ele>124</ele>
        <time>2011-05-15T10:15:17Z</time>
      </trkpt>
      <trkpt lat="48.2254" lon="3.25266">
        <ele>125</ele>
        <time>2011-05-15T10:15:19Z</time>
      </trkpt>
      <trkpt lat="48.22536" lon="3.25268">
        <ele>125</ele>
        <time>2011-05-15T10:15:20Z</time>
      </trkpt>
      <trkpt lat="48.22531" lon="3.25272">
        <ele>125</ele>
        <time>2011-05-15T10:15:21Z</time>
      </trkpt>
      <trkpt lat="48.22527" lon="3.25275">
        <ele>126</ele>
        <time>2011-05-15T10:15:22Z</time>
      </trkpt>
      <trkpt lat="48.2252" lon="3.25281">
        <ele>126</ele>
        <time>2011-05-15T10:15:24Z</time>
      </trkpt>
      <trkpt lat="48.22511" lon="3.25288">
        <ele>126</ele>
        <time>2011-05-15T10:15:26Z</time>
      </trkpt>
      <trkpt lat="48.22502" lon="3.25294">
        <ele>126</ele>
        <time>2011-05-15T10:15:28Z</time>
      </trkpt>
      <trkpt lat="48.22494" lon="3.25298">
        <ele>125</ele>
        <time>2011-05-15T10:15:30Z</time>
      </trkpt>
      <trkpt lat="48.22485" lon="3.25305">
        <ele>125</ele>
        <time>2011-05-15T10:15:32Z</time>
      </trkpt>
      <trkpt lat="48.22481" lon="3.25307">
        <ele>125</ele>
        <time>2011-05-15T10:15:33Z</time>
      </trkpt>
      <trkpt lat="48.22477" lon="3.25309">
        <ele>125</ele>
        <time>2011-05-15T10:15:34Z</time>
      </trkpt>
      <trkpt lat="48.22472" lon="3.25311">
        <ele>125</ele>
        <time>2011-05-15T10:15:35Z</time>
      </trkpt>
      <trkpt lat="48.22468" lon="3.25313">
        <ele>125</ele>
        <time>2011-05-15T10:15:36Z</time>
      </trkpt>
      <trkpt lat="48.22464" lon="3.25318">
        <ele>125</ele>
        <time>2011-05-15T10:15:37Z</time>
      </trkpt>
      <trkpt lat="48.22455" lon="3.25322">
        <ele>125</ele>
        <time>2011-05-15T10:15:39Z</time>
      </trkpt>
      <trkpt lat="48.22451" lon="3.25326">
        <ele>125</ele>
        <time>2011-05-15T10:15:40Z</time>
      </trkpt>
      <trkpt lat="48.22442" lon="3.2533">
        <ele>125</ele>
        <time>2011-05-15T10:15:42Z</time>
      </trkpt>
      <trkpt lat="48.22435" lon="3.25333">
        <ele>125</ele>
        <time>2011-05-15T10:15:44Z</time>
      </trkpt>
      <trkpt lat="48.22427" lon="3.25337">
        <ele>126</ele>
        <time>2011-05-15T10:15:46Z</time>
      </trkpt>
      <trkpt lat="48.22421" lon="3.25341">
        <ele>126</ele>
        <time>2011-05-15T10:15:48Z</time>
      </trkpt>
      <trkpt lat="48.22415" lon="3.25346">
        <ele>126</ele>
        <time>2011-05-15T10:15:50Z</time>
      </trkpt>
      <trkpt lat="48.22411" lon="3.2535">
        <ele>126</ele>
        <time>2011-05-15T10:16:53Z</time>
      </trkpt>
      <trkpt lat="48.22406" lon="3.25354">
        <ele>127</ele>
        <time>2011-05-15T10:16:57Z</time>
      </trkpt>
      <trkpt lat="48.224" lon="3.25358">
        <ele>127</ele>
        <time>2011-05-15T10:17:00Z</time>
      </trkpt>
      <trkpt lat="48.22394" lon="3.25363">
        <ele>127</ele>
        <time>2011-05-15T10:17:03Z</time>
      </trkpt>
      <trkpt lat="48.22386" lon="3.25365">
        <ele>127</ele>
        <time>2011-05-15T10:17:06Z</time>
      </trkpt>
      <trkpt lat="48.22381" lon="3.25367">
        <ele>127</ele>
        <time>2011-05-15T10:17:08Z</time>
      </trkpt>
      <trkpt lat="48.22376" lon="3.25369">
        <ele>127</ele>
        <time>2011-05-15T10:17:10Z</time>
      </trkpt>
      <trkpt lat="48.2237" lon="3.25371">
        <ele>127</ele>
        <time>2011-05-15T10:17:12Z</time>
      </trkpt>
      <trkpt lat="48.22364" lon="3.25373">
        <ele>127</ele>
        <time>2011-05-15T10:17:14Z</time>
      </trkpt>
      <trkpt lat="48.22359" lon="3.25376">
        <ele>127</ele>
        <time>2011-05-15T10:17:16Z</time>
      </trkpt>
      <trkpt lat="48.22353" lon="3.2538">
        <ele>127</ele>
        <time>2011-05-15T10:17:18Z</time>
      </trkpt>
      <trkpt lat="48.22348" lon="3.25382">
        <ele>127</ele>
        <time>2011-05-15T10:17:20Z</time>
      </trkpt>
      <trkpt lat="48.22341" lon="3.25386">
        <ele>127</ele>
        <time>2011-05-15T10:17:22Z</time>
      </trkpt>
      <trkpt lat="48.22336" lon="3.25388">
        <ele>127</ele>
        <time>2011-05-15T10:17:24Z</time>
      </trkpt>
      <trkpt lat="48.2233" lon="3.25393">
        <ele>127</ele>
        <time>2011-05-15T10:17:26Z</time>
      </trkpt>
      <trkpt lat="48.22324" lon="3.25395">
        <ele>127</ele>
        <time>2011-05-15T10:17:28Z</time>
      </trkpt>
      <trkpt lat="48.22318" lon="3.25399">
        <ele>127</ele>
        <time>2011-05-15T10:17:30Z</time>
      </trkpt>
      <trkpt lat="48.22311" lon="3.25403">
        <ele>127</ele>
        <time>2011-05-15T10:17:32Z</time>
      </trkpt>
      <trkpt lat="48.22306" lon="3.25406">
        <ele>127</ele>
        <time>2011-05-15T10:17:34Z</time>
      </trkpt>
      <trkpt lat="48.223" lon="3.2541">
        <ele>128</ele>
        <time>2011-05-15T10:17:36Z</time>
      </trkpt>
      <trkpt lat="48.22293" lon="3.25412">
        <ele>128</ele>
        <time>2011-05-15T10:17:38Z</time>
      </trkpt>
      <trkpt lat="48.22288" lon="3.25414">
        <ele>128</ele>
        <time>2011-05-15T10:17:40Z</time>
      </trkpt>
      <trkpt lat="48.22281" lon="3.25418">
        <ele>128</ele>
        <time>2011-05-15T10:17:42Z</time>
      </trkpt>
      <trkpt lat="48.22275" lon="3.25421">
        <ele>128</ele>
        <time>2011-05-15T10:17:44Z</time>
      </trkpt>
      <trkpt lat="48.2227" lon="3.25425">
        <ele>128</ele>
        <time>2011-05-15T10:17:46Z</time>
      </trkpt>
      <trkpt lat="48.22263" lon="3.25429">
        <ele>128</ele>
        <time>2011-05-15T10:17:48Z</time>
      </trkpt>
      <trkpt lat="48.22257" lon="3.25431">
        <ele>128</ele>
        <time>2011-05-15T10:17:50Z</time>
      </trkpt>
      <trkpt lat="48.22251" lon="3.25436">
        <ele>129</ele>
        <time>2011-05-15T10:17:52Z</time>
      </trkpt>
      <trkpt lat="48.22245" lon="3.2544">
        <ele>129</ele>
        <time>2011-05-15T10:17:54Z</time>
      </trkpt>
      <trkpt lat="48.22238" lon="3.25444">
        <ele>129</ele>
        <time>2011-05-15T10:17:56Z</time>
      </trkpt>
      <trkpt lat="48.22233" lon="3.25448">
        <ele>129</ele>
        <time>2011-05-15T10:17:58Z</time>
      </trkpt>
      <trkpt lat="48.22227" lon="3.25453">
        <ele>129</ele>
        <time>2011-05-15T10:18:00Z</time>
      </trkpt>
      <trkpt lat="48.22221" lon="3.25457">
        <ele>129</ele>
        <time>2011-05-15T10:18:02Z</time>
      </trkpt>
      <trkpt lat="48.22216" lon="3.25461">
        <ele>130</ele>
        <time>2011-05-15T10:18:04Z</time>
      </trkpt>
      <trkpt lat="48.22209" lon="3.25466">
        <ele>130</ele>
        <time>2011-05-15T10:18:06Z</time>
      </trkpt>
      <trkpt lat="48.22204" lon="3.2547">
        <ele>130</ele>
        <time>2011-05-15T10:18:08Z</time>
      </trkpt>
      <trkpt lat="48.22198" lon="3.25474">
        <ele>130</ele>
        <time>2011-05-15T10:18:10Z</time>
      </trkpt>
      <trkpt lat="48.22192" lon="3.25478">
        <ele>130</ele>
        <time>2011-05-15T10:18:12Z</time>
      </trkpt>
      <trkpt lat="48.22186" lon="3.25485">
        <ele>131</ele>
        <time>2011-05-15T10:18:14Z</time>
      </trkpt>
      <trkpt lat="48.2218" lon="3.25489">
        <ele>131</ele>
        <time>2011-05-15T10:18:16Z</time>
      </trkpt>
      <trkpt lat="48.22174" lon="3.25494">
        <ele>131</ele>
        <time>2011-05-15T10:18:18Z</time>
      </trkpt>
      <trkpt lat="48.22168" lon="3.255">
        <ele>131</ele>
        <time>2011-05-15T10:18:20Z</time>
      </trkpt>
      <trkpt lat="48.22161" lon="3.25504">
        <ele>131</ele>
        <time>2011-05-15T10:18:22Z</time>
      </trkpt>
      <trkpt lat="48.22155" lon="3.25508">
        <ele>132</ele>
        <time>2011-05-15T10:18:24Z</time>
      </trkpt>
      <trkpt lat="48.22148" lon="3.25513">
        <ele>132</ele>
        <time>2011-05-15T10:18:26Z</time>
      </trkpt>
      <trkpt lat="48.22143" lon="3.25517">
        <ele>132</ele>
        <time>2011-05-15T10:18:28Z</time>
      </trkpt>
      <trkpt lat="48.22136" lon="3.25521">
        <ele>132</ele>
        <time>2011-05-15T10:18:30Z</time>
      </trkpt>
      <trkpt lat="48.2213" lon="3.25528">
        <ele>132</ele>
        <time>2011-05-15T10:18:32Z</time>
      </trkpt>
      <trkpt lat="48.22124" lon="3.25532">
        <ele>133</ele>
        <time>2011-05-15T10:18:34Z</time>
      </trkpt>
      <trkpt lat="48.22117" lon="3.25536">
        <ele>133</ele>
        <time>2011-05-15T10:18:36Z</time>
      </trkpt>
      <trkpt lat="48.22112" lon="3.25541">
        <ele>133</ele>
        <time>2011-05-15T10:18:38Z</time>
      </trkpt>
      <trkpt lat="48.22106" lon="3.25547">
        <ele>133</ele>
        <time>2011-05-15T10:18:40Z</time>
      </trkpt>
      <trkpt lat="48.22101" lon="3.25552">
        <ele>134</ele>
        <time>2011-05-15T10:18:42Z</time>
      </trkpt>
      <trkpt lat="48.22096" lon="3.25554">
        <ele>134</ele>
        <time>2011-05-15T10:18:44Z</time>
      </trkpt>
      <trkpt lat="48.22089" lon="3.25558">
        <ele>135</ele>
        <time>2011-05-15T10:18:46Z</time>
      </trkpt>
      <trkpt lat="48.22083" lon="3.25562">
        <ele>136</ele>
        <time>2011-05-15T10:18:48Z</time>
      </trkpt>
      <trkpt lat="48.22076" lon="3.25564">
        <ele>136</ele>
        <time>2011-05-15T10:18:50Z</time>
      </trkpt>
      <trkpt lat="48.22071" lon="3.25566">
        <ele>137</ele>
        <time>2011-05-15T10:18:52Z</time>
      </trkpt>
      <trkpt lat="48.22065" lon="3.25566">
        <ele>137</ele>
        <time>2011-05-15T10:18:54Z</time>
      </trkpt>
      <trkpt lat="48.22058" lon="3.25569">
        <ele>138</ele>
        <time>2011-05-15T10:18:56Z</time>
      </trkpt>
      <trkpt lat="48.22052" lon="3.25569">
        <ele>138</ele>
        <time>2011-05-15T10:18:58Z</time>
      </trkpt>
      <trkpt lat="48.22046" lon="3.25571">
        <ele>139</ele>
        <time>2011-05-15T10:19:00Z</time>
      </trkpt>
      <trkpt lat="48.2204" lon="3.25573">
        <ele>139</ele>
        <time>2011-05-15T10:19:02Z</time>
      </trkpt>
      <trkpt lat="48.22034" lon="3.25575">
        <ele>139</ele>
        <time>2011-05-15T10:19:04Z</time>
      </trkpt>
      <trkpt lat="48.22027" lon="3.25579">
        <ele>140</ele>
        <time>2011-05-15T10:19:06Z</time>
      </trkpt>
      <trkpt lat="48.22018" lon="3.25582">
        <ele>141</ele>
        <time>2011-05-15T10:19:08Z</time>
      </trkpt>
      <trkpt lat="48.22014" lon="3.25584">
        <ele>143</ele>
        <time>2011-05-15T10:19:09Z</time>
      </trkpt>
      <trkpt lat="48.2201" lon="3.25586">
        <ele>144</ele>
        <time>2011-05-15T10:19:10Z</time>
      </trkpt>
      <trkpt lat="48.22006" lon="3.25588">
        <ele>144</ele>
        <time>2011-05-15T10:19:11Z</time>
      </trkpt>
      <trkpt lat="48.22001" lon="3.2559">
        <ele>145</ele>
        <time>2011-05-15T10:19:12Z</time>
      </trkpt>
      <trkpt lat="48.21994" lon="3.25594">
        <ele>146</ele>
        <time>2011-05-15T10:19:14Z</time>
      </trkpt>
      <trkpt lat="48.21987" lon="3.25596">
        <ele>146</ele>
        <time>2011-05-15T10:19:16Z</time>
      </trkpt>
      <trkpt lat="48.21982" lon="3.25599">
        <ele>146</ele>
        <time>2011-05-15T10:19:18Z</time>
      </trkpt>
      <trkpt lat="48.21973" lon="3.25596">
        <ele>145</ele>
        <time>2011-05-15T10:19:53Z</time>
      </trkpt>
      <trkpt lat="48.21968" lon="3.25599">
        <ele>145</ele>
        <time>2011-05-15T10:19:55Z</time>
      </trkpt>
      <trkpt lat="48.21965" lon="3.25607">
        <ele>144</ele>
        <time>2011-05-15T10:19:57Z</time>
      </trkpt>
      <trkpt lat="48.21963" lon="3.25614">
        <ele>144</ele>
        <time>2011-05-15T10:19:58Z</time>
      </trkpt>
      <trkpt lat="48.21957" lon="3.25624">
        <ele>143</ele>
        <time>2011-05-15T10:20:00Z</time>
      </trkpt>
      <trkpt lat="48.21952" lon="3.25635">
        <ele>142</ele>
        <time>2011-05-15T10:20:02Z</time>
      </trkpt>
      <trkpt lat="48.21948" lon="3.25644">
        <ele>142</ele>
        <time>2011-05-15T10:20:03Z</time>
      </trkpt>
      <trkpt lat="48.21944" lon="3.2565">
        <ele>142</ele>
        <time>2011-05-15T10:20:04Z</time>
      </trkpt>
      <trkpt lat="48.2194" lon="3.25657">
        <ele>142</ele>
        <time>2011-05-15T10:20:05Z</time>
      </trkpt>
      <trkpt lat="48.21937" lon="3.25665">
        <ele>142</ele>
        <time>2011-05-15T10:20:06Z</time>
      </trkpt>
      <trkpt lat="48.21933" lon="3.25672">
        <ele>142</ele>
        <time>2011-05-15T10:20:07Z</time>
      </trkpt>
      <trkpt lat="48.21928" lon="3.2568">
        <ele>141</ele>
        <time>2011-05-15T10:20:08Z</time>
      </trkpt>
      <trkpt lat="48.21924" lon="3.25687">
        <ele>141</ele>
        <time>2011-05-15T10:20:09Z</time>
      </trkpt>
      <trkpt lat="48.21919" lon="3.25695">
        <ele>141</ele>
        <time>2011-05-15T10:20:10Z</time>
      </trkpt>
      <trkpt lat="48.21914" lon="3.25704">
        <ele>141</ele>
        <time>2011-05-15T10:20:11Z</time>
      </trkpt>
      <trkpt lat="48.21909" lon="3.25712">
        <ele>141</ele>
        <time>2011-05-15T10:20:12Z</time>
      </trkpt>
      <trkpt lat="48.21905" lon="3.25721">
        <ele>141</ele>
        <time>2011-05-15T10:20:13Z</time>
      </trkpt>
      <trkpt lat="48.21899" lon="3.2573">
        <ele>141</ele>
        <time>2011-05-15T10:20:14Z</time>
      </trkpt>
      <trkpt lat="48.21894" lon="3.25738">
        <ele>141</ele>
        <time>2011-05-15T10:20:15Z</time>
      </trkpt>
      <trkpt lat="48.21889" lon="3.25747">
        <ele>141</ele>
        <time>2011-05-15T10:20:16Z</time>
      </trkpt>
      <trkpt lat="48.21883" lon="3.25755">
        <ele>141</ele>
        <time>2011-05-15T10:20:17Z</time>
      </trkpt>
      <trkpt lat="48.21878" lon="3.25766">
        <ele>141</ele>
        <time>2011-05-15T10:20:18Z</time>
      </trkpt>
      <trkpt lat="48.21872" lon="3.25775">
        <ele>141</ele>
        <time>2011-05-15T10:20:19Z</time>
      </trkpt>
      <trkpt lat="48.21867" lon="3.25785">
        <ele>141</ele>
        <time>2011-05-15T10:20:20Z</time>
      </trkpt>
      <trkpt lat="48.21863" lon="3.25794">
        <ele>141</ele>
        <time>2011-05-15T10:20:21Z</time>
      </trkpt>
      <trkpt lat="48.21858" lon="3.25805">
        <ele>141</ele>
        <time>2011-05-15T10:20:22Z</time>
      </trkpt>
      <trkpt lat="48.21852" lon="3.25815">
        <ele>141</ele>
        <time>2011-05-15T10:20:23Z</time>
      </trkpt>
      <trkpt lat="48.21847" lon="3.25824">
        <ele>141</ele>
        <time>2011-05-15T10:20:24Z</time>
      </trkpt>
      <trkpt lat="48.21842" lon="3.25835">
        <ele>141</ele>
        <time>2011-05-15T10:20:25Z</time>
      </trkpt>
      <trkpt lat="48.21837" lon="3.25845">
        <ele>141</ele>
        <time>2011-05-15T10:20:26Z</time>
      </trkpt>
      <trkpt lat="48.21833" lon="3.25858">
        <ele>141</ele>
        <time>2011-05-15T10:20:27Z</time>
      </trkpt>
      <trkpt lat="48.21829" lon="3.25869">
        <ele>141</ele>
        <time>2011-05-15T10:20:28Z</time>
      </trkpt>
      <trkpt lat="48.21823" lon="3.2588">
        <ele>141</ele>
        <time>2011-05-15T10:20:29Z</time>
      </trkpt>
      <trkpt lat="48.21818" lon="3.25893">
        <ele>141</ele>
        <time>2011-05-15T10:20:30Z</time>
      </trkpt>
      <trkpt lat="48.21812" lon="3.25903">
        <ele>141</ele>
        <time>2011-05-15T10:20:31Z</time>
      </trkpt>
      <trkpt lat="48.21807" lon="3.25914">
        <ele>141</ele>
        <time>2011-05-15T10:20:32Z</time>
      </trkpt>
      <trkpt lat="48.21801" lon="3.25925">
        <ele>140</ele>
        <time>2011-05-15T10:20:33Z</time>
      </trkpt>
      <trkpt lat="48.21795" lon="3.25936">
        <ele>140</ele>
        <time>2011-05-15T10:20:34Z</time>
      </trkpt>
      <trkpt lat="48.2179" lon="3.25946">
        <ele>140</ele>
        <time>2011-05-15T10:20:35Z</time>
      </trkpt>
      <trkpt lat="48.21784" lon="3.25957">
        <ele>140</ele>
        <time>2011-05-15T10:20:36Z</time>
      </trkpt>
      <trkpt lat="48.21778" lon="3.25968">
        <ele>140</ele>
        <time>2011-05-15T10:20:37Z</time>
      </trkpt>
      <trkpt lat="48.21773" lon="3.25978">
        <ele>140</ele>
        <time>2011-05-15T10:20:38Z</time>
      </trkpt>
      <trkpt lat="48.21766" lon="3.25989">
        <ele>140</ele>
        <time>2011-05-15T10:20:39Z</time>
      </trkpt>
      <trkpt lat="48.2176" lon="3.26002">
        <ele>140</ele>
        <time>2011-05-15T10:20:40Z</time>
      </trkpt>
      <trkpt lat="48.21754" lon="3.26013">
        <ele>140</ele>
        <time>2011-05-15T10:20:41Z</time>
      </trkpt>
      <trkpt lat="48.21748" lon="3.26024">
        <ele>140</ele>
        <time>2011-05-15T10:20:42Z</time>
      </trkpt>
      <trkpt lat="48.21743" lon="3.26036">
        <ele>140</ele>
        <time>2011-05-15T10:20:43Z</time>
      </trkpt>
      <trkpt lat="48.21736" lon="3.26047">
        <ele>139</ele>
        <time>2011-05-15T10:20:44Z</time>
      </trkpt>
      <trkpt lat="48.2173" lon="3.26058">
        <ele>139</ele>
        <time>2011-05-15T10:20:45Z</time>
      </trkpt>
      <trkpt lat="48.21723" lon="3.26071">
        <ele>139</ele>
        <time>2011-05-15T10:20:46Z</time>
      </trkpt>
      <trkpt lat="48.21717" lon="3.26082">
        <ele>139</ele>
        <time>2011-05-15T10:20:47Z</time>
      </trkpt>
      <trkpt lat="48.2171" lon="3.26092">
        <ele>140</ele>
        <time>2011-05-15T10:20:48Z</time>
      </trkpt>
      <trkpt lat="48.21704" lon="3.26103">
        <ele>140</ele>
        <time>2011-05-15T10:20:49Z</time>
      </trkpt>
      <trkpt lat="48.21698" lon="3.26114">
        <ele>141</ele>
        <time>2011-05-15T10:20:50Z</time>
      </trkpt>
      <trkpt lat="48.21691" lon="3.26124">
        <ele>142</ele>
        <time>2011-05-15T10:20:51Z</time>
      </trkpt>
      <trkpt lat="48.21686" lon="3.26135">
        <ele>142</ele>
        <time>2011-05-15T10:20:52Z</time>
      </trkpt>
      <trkpt lat="48.2168" lon="3.26148">
        <ele>142</ele>
        <time>2011-05-15T10:20:53Z</time>
      </trkpt>
      <trkpt lat="48.21675" lon="3.26159">
        <ele>142</ele>
        <time>2011-05-15T10:20:54Z</time>
      </trkpt>
      <trkpt lat="48.2167" lon="3.26169">
        <ele>142</ele>
        <time>2011-05-15T10:20:55Z</time>
      </trkpt>
      <trkpt lat="48.21664" lon="3.2618">
        <ele>142</ele>
        <time>2011-05-15T10:20:56Z</time>
      </trkpt>
      <trkpt lat="48.21659" lon="3.26193">
        <ele>142</ele>
        <time>2011-05-15T10:20:57Z</time>
      </trkpt>
      <trkpt lat="48.21653" lon="3.26204">
        <ele>142</ele>
        <time>2011-05-15T10:20:58Z</time>
      </trkpt>
      <trkpt lat="48.21646" lon="3.26217">
        <ele>142</ele>
        <time>2011-05-15T10:20:59Z</time>
      </trkpt>
      <trkpt lat="48.21641" lon="3.26227">
        <ele>141</ele>
        <time>2011-05-15T10:21:00Z</time>
      </trkpt>
      <trkpt lat="48.21634" lon="3.2624">
        <ele>141</ele>
        <time>2011-05-15T10:21:01Z</time>
      </trkpt>
      <trkpt lat="48.21629" lon="3.26251">
        <ele>141</ele>
        <time>2011-05-15T10:21:02Z</time>
      </trkpt>
      <trkpt lat="48.21624" lon="3.26262">
        <ele>140</ele>
        <time>2011-05-15T10:21:03Z</time>
      </trkpt>
      <trkpt lat="48.21617" lon="3.26272">
        <ele>140</ele>
        <time>2011-05-15T10:21:04Z</time>
      </trkpt>
      <trkpt lat="48.2161" lon="3.26281">
        <ele>140</ele>
        <time>2011-05-15T10:21:05Z</time>
      </trkpt>
      <trkpt lat="48.21603" lon="3.26292">
        <ele>139</ele>
        <time>2011-05-15T10:21:06Z</time>
      </trkpt>
      <trkpt lat="48.21596" lon="3.26298">
        <ele>139</ele>
        <time>2011-05-15T10:21:07Z</time>
      </trkpt>
      <trkpt lat="48.21588" lon="3.26307">
        <ele>139</ele>
        <time>2011-05-15T10:21:08Z</time>
      </trkpt>
      <trkpt lat="48.21581" lon="3.26313">
        <ele>139</ele>
        <time>2011-05-15T10:21:09Z</time>
      </trkpt>
      <trkpt lat="48.21573" lon="3.2632">
        <ele>139</ele>
        <time>2011-05-15T10:21:10Z</time>
      </trkpt>
      <trkpt lat="48.21567" lon="3.26326">
        <ele>139</ele>
        <time>2011-05-15T10:21:11Z</time>
      </trkpt>
      <trkpt lat="48.2156" lon="3.2633">
        <ele>139</ele>
        <time>2011-05-15T10:21:12Z</time>
      </trkpt>
      <trkpt lat="48.21554" lon="3.26335">
        <ele>139</ele>
        <time>2011-05-15T10:21:13Z</time>
      </trkpt>
      <trkpt lat="48.21548" lon="3.26337">
        <ele>138</ele>
        <time>2011-05-15T10:21:14Z</time>
      </trkpt>
      <trkpt lat="48.21542" lon="3.26339">
        <ele>138</ele>
        <time>2011-05-15T10:21:15Z</time>
      </trkpt>
      <trkpt lat="48.21537" lon="3.26341">
        <ele>138</ele>
        <time>2011-05-15T10:21:16Z</time>
      </trkpt>
      <trkpt lat="48.21534" lon="3.26335">
        <ele>136</ele>
        <time>2011-05-15T10:21:17Z</time>
      </trkpt>
      <trkpt lat="48.21528" lon="3.26324">
        <ele>134</ele>
        <time>2011-05-15T10:21:19Z</time>
      </trkpt>
      <trkpt lat="48.21525" lon="3.26318">
        <ele>132</ele>
        <time>2011-05-15T10:21:20Z</time>
      </trkpt>
      <trkpt lat="48.2152" lon="3.26307">
        <ele>130</ele>
        <time>2011-05-15T10:21:22Z</time>
      </trkpt>
      <trkpt lat="48.21514" lon="3.26298">
        <ele>127</ele>
        <time>2011-05-15T10:21:24Z</time>
      </trkpt>
      <trkpt lat="48.21512" lon="3.26292">
        <ele>126</ele>
        <time>2011-05-15T10:21:25Z</time>
      </trkpt>
      <trkpt lat="48.21509" lon="3.26285">
        <ele>126</ele>
        <time>2011-05-15T10:21:26Z</time>
      </trkpt>
      <trkpt lat="48.21506" lon="3.26279">
        <ele>125</ele>
        <time>2011-05-15T10:21:27Z</time>
      </trkpt>
      <trkpt lat="48.21501" lon="3.26272">
        <ele>125</ele>
        <time>2011-05-15T10:21:28Z</time>
      </trkpt>
      <trkpt lat="48.21496" lon="3.26268">
        <ele>125</ele>
        <time>2011-05-15T10:21:29Z</time>
      </trkpt>
      <trkpt lat="48.21492" lon="3.26262">
        <ele>124</ele>
        <time>2011-05-15T10:21:30Z</time>
      </trkpt>
      <trkpt lat="48.21486" lon="3.26255">
        <ele>123</ele>
        <time>2011-05-15T10:21:31Z</time>
      </trkpt>
      <trkpt lat="48.21482" lon="3.26249">
        <ele>123</ele>
        <time>2011-05-15T10:21:32Z</time>
      </trkpt>
      <trkpt lat="48.21478" lon="3.26242">
        <ele>123</ele>
        <time>2011-05-15T10:21:33Z</time>
      </trkpt>
      <trkpt lat="48.21472" lon="3.26238">
        <ele>123</ele>
        <time>2011-05-15T10:21:34Z</time>
      </trkpt>
      <trkpt lat="48.21468" lon="3.26232">
        <ele>123</ele>
        <time>2011-05-15T10:21:35Z</time>
      </trkpt>
      <trkpt lat="48.21463" lon="3.26227">
        <ele>122</ele>
        <time>2011-05-15T10:21:36Z</time>
      </trkpt>
      <trkpt lat="48.21458" lon="3.26223">
        <ele>122</ele>
        <time>2011-05-15T10:21:37Z</time>
      </trkpt>
      <trkpt lat="48.21453" lon="3.26219">
        <ele>122</ele>
        <time>2011-05-15T10:21:38Z</time>
      </trkpt>
      <trkpt lat="48.21448" lon="3.26214">
        <ele>122</ele>
        <time>2011-05-15T10:21:39Z</time>
      </trkpt>
      <trkpt lat="48.21439" lon="3.2621">
        <ele>121</ele>
        <time>2011-05-15T10:21:41Z</time>
      </trkpt>
      <trkpt lat="48.21429" lon="3.26206">
        <ele>120</ele>
        <time>2011-05-15T10:21:43Z</time>
      </trkpt>
      <trkpt lat="48.21421" lon="3.26202">
        <ele>121</ele>
        <time>2011-05-15T10:21:45Z</time>
      </trkpt>
      <trkpt lat="48.21416" lon="3.262">
        <ele>122</ele>
        <time>2011-05-15T10:21:46Z</time>
      </trkpt>
      <trkpt lat="48.21411" lon="3.26195">
        <ele>123</ele>
        <time>2011-05-15T10:21:47Z</time>
      </trkpt>
      <trkpt lat="48.21406" lon="3.26193">
        <ele>123</ele>
        <time>2011-05-15T10:21:48Z</time>
      </trkpt>
      <trkpt lat="48.21396" lon="3.26189">
        <ele>124</ele>
        <time>2011-05-15T10:21:50Z</time>
      </trkpt>
      <trkpt lat="48.21391" lon="3.26187">
        <ele>124</ele>
        <time>2011-05-15T10:21:51Z</time>
      </trkpt>
      <trkpt lat="48.21381" lon="3.2618">
        <ele>124</ele>
        <time>2011-05-15T10:21:53Z</time>
      </trkpt>
      <trkpt lat="48.21377" lon="3.26178">
        <ele>123</ele>
        <time>2011-05-15T10:21:54Z</time>
      </trkpt>
      <trkpt lat="48.21368" lon="3.26174">
        <ele>123</ele>
        <time>2011-05-15T10:21:56Z</time>
      </trkpt>
      <trkpt lat="48.21364" lon="3.26169">
        <ele>122</ele>
        <time>2011-05-15T10:21:57Z</time>
      </trkpt>
      <trkpt lat="48.21355" lon="3.26165">
        <ele>122</ele>
        <time>2011-05-15T10:21:59Z</time>
      </trkpt>
      <trkpt lat="48.21347" lon="3.26163">
        <ele>121</ele>
        <time>2011-05-15T10:22:01Z</time>
      </trkpt>
      <trkpt lat="48.21339" lon="3.26159">
        <ele>121</ele>
        <time>2011-05-15T10:22:03Z</time>
      </trkpt>
      <trkpt lat="48.21335" lon="3.26154">
        <ele>121</ele>
        <time>2011-05-15T10:22:04Z</time>
      </trkpt>
      <trkpt lat="48.21328" lon="3.2615">
        <ele>121</ele>
        <time>2011-05-15T10:22:06Z</time>
      </trkpt>
      <trkpt lat="48.2132" lon="3.26146">
        <ele>121</ele>
        <time>2011-05-15T10:22:08Z</time>
      </trkpt>
      <trkpt lat="48.21312" lon="3.26139">
        <ele>121</ele>
        <time>2011-05-15T10:22:10Z</time>
      </trkpt>
      <trkpt lat="48.21306" lon="3.26135">
        <ele>121</ele>
        <time>2011-05-15T10:22:12Z</time>
      </trkpt>
      <trkpt lat="48.21301" lon="3.26131">
        <ele>121</ele>
        <time>2011-05-15T10:22:14Z</time>
      </trkpt>
      <trkpt lat="48.21294" lon="3.26124">
        <ele>121</ele>
        <time>2011-05-15T10:22:16Z</time>
      </trkpt>
      <trkpt lat="48.21289" lon="3.26116">
        <ele>121</ele>
        <time>2011-05-15T10:22:18Z</time>
      </trkpt>
      <trkpt lat="48.21282" lon="3.26107">
        <ele>122</ele>
        <time>2011-05-15T10:22:20Z</time>
      </trkpt>
      <trkpt lat="48.21277" lon="3.26101">
        <ele>122</ele>
        <time>2011-05-15T10:22:22Z</time>
      </trkpt>
      <trkpt lat="48.21272" lon="3.26094">
        <ele>122</ele>
        <time>2011-05-15T10:22:24Z</time>
      </trkpt>
      <trkpt lat="48.21266" lon="3.26088">
        <ele>122</ele>
        <time>2011-05-15T10:22:26Z</time>
      </trkpt>
      <trkpt lat="48.21261" lon="3.26084">
        <ele>122</ele>
        <time>2011-05-15T10:22:28Z</time>
      </trkpt>
      <trkpt lat="48.21257" lon="3.26077">
        <ele>122</ele>
        <time>2011-05-15T10:22:30Z</time>
      </trkpt>
      <trkpt lat="48.21251" lon="3.26071">
        <ele>122</ele>
        <time>2011-05-15T10:22:32Z</time>
      </trkpt>
      <trkpt lat="48.21246" lon="3.26064">
        <ele>123</ele>
        <time>2011-05-15T10:22:34Z</time>
      </trkpt>
      <trkpt lat="48.21241" lon="3.26058">
        <ele>123</ele>
        <time>2011-05-15T10:22:36Z</time>
      </trkpt>
      <trkpt lat="48.21236" lon="3.26049">
        <ele>123</ele>
        <time>2011-05-15T10:22:38Z</time>
      </trkpt>
      <trkpt lat="48.21231" lon="3.26043">
        <ele>123</ele>
        <time>2011-05-15T10:22:40Z</time>
      </trkpt>
      <trkpt lat="48.21226" lon="3.26036">
        <ele>123</ele>
        <time>2011-05-15T10:22:42Z</time>
      </trkpt>
      <trkpt lat="48.2122" lon="3.26028">
        <ele>123</ele>
        <time>2011-05-15T10:22:44Z</time>
      </trkpt>
      <trkpt lat="48.21215" lon="3.26019">
        <ele>123</ele>
        <time>2011-05-15T10:22:46Z</time>
      </trkpt>
      <trkpt lat="48.2121" lon="3.26011">
        <ele>123</ele>
        <time>2011-05-15T10:22:48Z</time>
      </trkpt>
      <trkpt lat="48.21204" lon="3.26">
        <ele>124</ele>
        <time>2011-05-15T10:22:50Z</time>
      </trkpt>
      <trkpt lat="48.21199" lon="3.25991">
        <ele>124</ele>
        <time>2011-05-15T10:22:52Z</time>
      </trkpt>
      <trkpt lat="48.21193" lon="3.25983">
        <ele>124</ele>
        <time>2011-05-15T10:22:54Z</time>
      </trkpt>
      <trkpt lat="48.21187" lon="3.25974">
        <ele>124</ele>
        <time>2011-05-15T10:22:56Z</time>
      </trkpt>
      <trkpt lat="48.21182" lon="3.25966">
        <ele>123</ele>
        <time>2011-05-15T10:22:58Z</time>
      </trkpt>
      <trkpt lat="48.2118" lon="3.25959">
        <ele>123</ele>
        <time>2011-05-15T10:22:59Z</time>
      </trkpt>
      <trkpt lat="48.21174" lon="3.25951">
        <ele>123</ele>
        <time>2011-05-15T10:23:01Z</time>
      </trkpt>
      <trkpt lat="48.21169" lon="3.25942">
        <ele>123</ele>
        <time>2011-05-15T10:23:03Z</time>
      </trkpt>
      <trkpt lat="48.21167" lon="3.25936">
        <ele>123</ele>
        <time>2011-05-15T10:23:04Z</time>
      </trkpt>
      <trkpt lat="48.21161" lon="3.25925">
        <ele>123</ele>
        <time>2011-05-15T10:23:06Z</time>
      </trkpt>
      <trkpt lat="48.21157" lon="3.25914">
        <ele>123</ele>
        <time>2011-05-15T10:23:08Z</time>
      </trkpt>
      <trkpt lat="48.21154" lon="3.25903">
        <ele>124</ele>
        <time>2011-05-15T10:23:10Z</time>
      </trkpt>
      <trkpt lat="48.21152" lon="3.25897">
        <ele>124</ele>
        <time>2011-05-15T10:23:11Z</time>
      </trkpt>
      <trkpt lat="48.21147" lon="3.25886">
        <ele>124</ele>
        <time>2011-05-15T10:23:13Z</time>
      </trkpt>
      <trkpt lat="48.21144" lon="3.25876">
        <ele>124</ele>
        <time>2011-05-15T10:23:15Z</time>
      </trkpt>
      <trkpt lat="48.2114" lon="3.25865">
        <ele>124</ele>
        <time>2011-05-15T10:23:17Z</time>
      </trkpt>
      <trkpt lat="48.21138" lon="3.25858">
        <ele>124</ele>
        <time>2011-05-15T10:23:18Z</time>
      </trkpt>
      <trkpt lat="48.21134" lon="3.25848">
        <ele>124</ele>
        <time>2011-05-15T10:23:20Z</time>
      </trkpt>
      <trkpt lat="48.2113" lon="3.25839">
        <ele>125</ele>
        <time>2011-05-15T10:23:22Z</time>
      </trkpt>
      <trkpt lat="48.21128" lon="3.25828">
        <ele>125</ele>
        <time>2011-05-15T10:23:24Z</time>
      </trkpt>
      <trkpt lat="48.21125" lon="3.25818">
        <ele>125</ele>
        <time>2011-05-15T10:23:26Z</time>
      </trkpt>
      <trkpt lat="48.21123" lon="3.25805">
        <ele>125</ele>
        <time>2011-05-15T10:23:28Z</time>
      </trkpt>
      <trkpt lat="48.2112" lon="3.25798">
        <ele>125</ele>
        <time>2011-05-15T10:23:29Z</time>
      </trkpt>
      <trkpt lat="48.21118" lon="3.25785">
        <ele>125</ele>
        <time>2011-05-15T10:23:31Z</time>
      </trkpt>
      <trkpt lat="48.21116" lon="3.25777">
        <ele>125</ele>
        <time>2011-05-15T10:23:32Z</time>
      </trkpt>
      <trkpt lat="48.21114" lon="3.25768">
        <ele>125</ele>
        <time>2011-05-15T10:23:33Z</time>
      </trkpt>
      <trkpt lat="48.21112" lon="3.25762">
        <ele>125</ele>
        <time>2011-05-15T10:23:34Z</time>
      </trkpt>
      <trkpt lat="48.21111" lon="3.25753">
        <ele>125</ele>
        <time>2011-05-15T10:23:35Z</time>
      </trkpt>
      <trkpt lat="48.21109" lon="3.25745">
        <ele>126</ele>
        <time>2011-05-15T10:23:36Z</time>
      </trkpt>
      <trkpt lat="48.21106" lon="3.25736">
        <ele>126</ele>
        <time>2011-05-15T10:23:37Z</time>
      </trkpt>
      <trkpt lat="48.21104" lon="3.25727">
        <ele>126</ele>
        <time>2011-05-15T10:23:38Z</time>
      </trkpt>
      <trkpt lat="48.21102" lon="3.25719">
        <ele>126</ele>
        <time>2011-05-15T10:23:39Z</time>
      </trkpt>
      <trkpt lat="48.21099" lon="3.25704">
        <ele>126</ele>
        <time>2011-05-15T10:23:41Z</time>
      </trkpt>
      <trkpt lat="48.21097" lon="3.25697">
        <ele>126</ele>
        <time>2011-05-15T10:23:42Z</time>
      </trkpt>
      <trkpt lat="48.21094" lon="3.25691">
        <ele>126</ele>
        <time>2011-05-15T10:23:43Z</time>
      </trkpt>
      <trkpt lat="48.2109" lon="3.25684">
        <ele>126</ele>
        <time>2011-05-15T10:23:44Z</time>
      </trkpt>
      <trkpt lat="48.21086" lon="3.25678">
        <ele>126</ele>
        <time>2011-05-15T10:23:45Z</time>
      </trkpt>
      <trkpt lat="48.21082" lon="3.25674">
        <ele>126</ele>
        <time>2011-05-15T10:23:46Z</time>
      </trkpt>
      <trkpt lat="48.21078" lon="3.2567">
        <ele>126</ele>
        <time>2011-05-15T10:23:47Z</time>
      </trkpt>
      <trkpt lat="48.21073" lon="3.25665">
        <ele>127</ele>
        <time>2011-05-15T10:23:48Z</time>
      </trkpt>
      <trkpt lat="48.21069" lon="3.25659">
        <ele>127</ele>
        <time>2011-05-15T10:23:49Z</time>
      </trkpt>
      <trkpt lat="48.21065" lon="3.25654">
        <ele>127</ele>
        <time>2011-05-15T10:23:50Z</time>
      </trkpt>
      <trkpt lat="48.21057" lon="3.25646">
        <ele>127</ele>
        <time>2011-05-15T10:23:52Z</time>
      </trkpt>
      <trkpt lat="48.2105" lon="3.25637">
        <ele>127</ele>
        <time>2011-05-15T10:23:54Z</time>
      </trkpt>
      <trkpt lat="48.21045" lon="3.25633">
        <ele>127</ele>
        <time>2011-05-15T10:23:55Z</time>
      </trkpt>
      <trkpt lat="48.21041" lon="3.25629">
        <ele>127</ele>
        <time>2011-05-15T10:23:56Z</time>
      </trkpt>
      <trkpt lat="48.21037" lon="3.25624">
        <ele>127</ele>
        <time>2011-05-15T10:23:57Z</time>
      </trkpt>
      <trkpt lat="48.21032" lon="3.2562">
        <ele>127</ele>
        <time>2011-05-15T10:23:58Z</time>
      </trkpt>
      <trkpt lat="48.21024" lon="3.25614">
        <ele>126</ele>
        <time>2011-05-15T10:24:00Z</time>
      </trkpt>
      <trkpt lat="48.21018" lon="3.25612">
        <ele>126</ele>
        <time>2011-05-15T10:24:01Z</time>
      </trkpt>
      <trkpt lat="48.2101" lon="3.25607">
        <ele>126</ele>
        <time>2011-05-15T10:24:03Z</time>
      </trkpt>
      <trkpt lat="48.21" lon="3.25603">
        <ele>126</ele>
        <time>2011-05-15T10:24:05Z</time>
      </trkpt>
      <trkpt lat="48.20992" lon="3.25599">
        <ele>126</ele>
        <time>2011-05-15T10:24:07Z</time>
      </trkpt>
      <trkpt lat="48.20986" lon="3.25596">
        <ele>126</ele>
        <time>2011-05-15T10:24:08Z</time>
      </trkpt>
      <trkpt lat="48.20981" lon="3.25594">
        <ele>126</ele>
        <time>2011-05-15T10:24:09Z</time>
      </trkpt>
      <trkpt lat="48.20972" lon="3.2559">
        <ele>126</ele>
        <time>2011-05-15T10:24:11Z</time>
      </trkpt>
      <trkpt lat="48.20967" lon="3.25586">
        <ele>126</ele>
        <time>2011-05-15T10:24:12Z</time>
      </trkpt>
      <trkpt lat="48.20963" lon="3.25582">
        <ele>126</ele>
        <time>2011-05-15T10:24:13Z</time>
      </trkpt>
      <trkpt lat="48.20957" lon="3.25579">
        <ele>127</ele>
        <time>2011-05-15T10:24:14Z</time>
      </trkpt>
      <trkpt lat="48.20952" lon="3.25573">
        <ele>127</ele>
        <time>2011-05-15T10:24:15Z</time>
      </trkpt>
      <trkpt lat="48.20947" lon="3.25569">
        <ele>127</ele>
        <time>2011-05-15T10:24:16Z</time>
      </trkpt>
      <trkpt lat="48.20942" lon="3.25564">
        <ele>127</ele>
        <time>2011-05-15T10:24:17Z</time>
      </trkpt>
      <trkpt lat="48.20937" lon="3.25558">
        <ele>127</ele>
        <time>2011-05-15T10:24:18Z</time>
      </trkpt>
      <trkpt lat="48.20931" lon="3.25554">
        <ele>127</ele>
        <time>2011-05-15T10:24:19Z</time>
      </trkpt>
      <trkpt lat="48.20925" lon="3.25549">
        <ele>127</ele>
        <time>2011-05-15T10:24:20Z</time>
      </trkpt>
      <trkpt lat="48.2092" lon="3.25543">
        <ele>127</ele>
        <time>2011-05-15T10:24:21Z</time>
      </trkpt>
      <trkpt lat="48.20913" lon="3.25536">
        <ele>127</ele>
        <time>2011-05-15T10:24:22Z</time>
      </trkpt>
      <trkpt lat="48.20908" lon="3.25532">
        <ele>127</ele>
        <time>2011-05-15T10:24:23Z</time>
      </trkpt>
      <trkpt lat="48.20902" lon="3.25528">
        <ele>127</ele>
        <time>2011-05-15T10:24:24Z</time>
      </trkpt>
      <trkpt lat="48.20896" lon="3.25524">
        <ele>127</ele>
        <time>2011-05-15T10:24:25Z</time>
      </trkpt>
      <trkpt lat="48.20891" lon="3.25519">
        <ele>127</ele>
        <time>2011-05-15T10:24:26Z</time>
      </trkpt>
      <trkpt lat="48.20886" lon="3.25517">
        <ele>127</ele>
        <time>2011-05-15T10:24:27Z</time>
      </trkpt>
      <trkpt lat="48.2088" lon="3.25513">
        <ele>127</ele>
        <time>2011-05-15T10:24:28Z</time>
      </trkpt>
      <trkpt lat="48.20875" lon="3.25511">
        <ele>127</ele>
        <time>2011-05-15T10:24:29Z</time>
      </trkpt>
      <trkpt lat="48.20869" lon="3.25508">
        <ele>127</ele>
        <time>2011-05-15T10:24:30Z</time>
      </trkpt>
      <trkpt lat="48.20861" lon="3.25504">
        <ele>127</ele>
        <time>2011-05-15T10:24:32Z</time>
      </trkpt>
      <trkpt lat="48.20855" lon="3.25502">
        <ele>127</ele>
        <time>2011-05-15T10:24:33Z</time>
      </trkpt>
      <trkpt lat="48.20847" lon="3.255">
        <ele>127</ele>
        <time>2011-05-15T10:24:35Z</time>
      </trkpt>
      <trkpt lat="48.20839" lon="3.25496">
        <ele>127</ele>
        <time>2011-05-15T10:24:37Z</time>
      </trkpt>
      <trkpt lat="48.20832" lon="3.25494">
        <ele>127</ele>
        <time>2011-05-15T10:24:39Z</time>
      </trkpt>
      <trkpt lat="48.20825" lon="3.25491">
        <ele>127</ele>
        <time>2011-05-15T10:24:41Z</time>
      </trkpt>
      <trkpt lat="48.20819" lon="3.25487">
        <ele>127</ele>
        <time>2011-05-15T10:24:43Z</time>
      </trkpt>
      <trkpt lat="48.20812" lon="3.25485">
        <ele>127</ele>
        <time>2011-05-15T10:24:45Z</time>
      </trkpt>
      <trkpt lat="48.20806" lon="3.25481">
        <ele>127</ele>
        <time>2011-05-15T10:24:47Z</time>
      </trkpt>
      <trkpt lat="48.208" lon="3.25478">
        <ele>127</ele>
        <time>2011-05-15T10:24:49Z</time>
      </trkpt>
      <trkpt lat="48.20793" lon="3.25476">
        <ele>127</ele>
        <time>2011-05-15T10:24:51Z</time>
      </trkpt>
      <trkpt lat="48.20787" lon="3.25472">
        <ele>127</ele>
        <time>2011-05-15T10:24:53Z</time>
      </trkpt>
      <trkpt lat="48.2078" lon="3.2547">
        <ele>127</ele>
        <time>2011-05-15T10:24:55Z</time>
      </trkpt>
      <trkpt lat="48.20773" lon="3.25468">
        <ele>126</ele>
        <time>2011-05-15T10:24:57Z</time>
      </trkpt>
      <trkpt lat="48.20765" lon="3.25464">
        <ele>126</ele>
        <time>2011-05-15T10:24:59Z</time>
      </trkpt>
      <trkpt lat="48.20759" lon="3.25461">
        <ele>127</ele>
        <time>2011-05-15T10:25:01Z</time>
      </trkpt>
      <trkpt lat="48.20751" lon="3.25459">
        <ele>127</ele>
        <time>2011-05-15T10:25:03Z</time>
      </trkpt>
      <trkpt lat="48.20744" lon="3.25457">
        <ele>127</ele>
        <time>2011-05-15T10:25:05Z</time>
      </trkpt>
      <trkpt lat="48.20737" lon="3.25453">
        <ele>127</ele>
        <time>2011-05-15T10:25:07Z</time>
      </trkpt>
      <trkpt lat="48.2073" lon="3.25448">
        <ele>127</ele>
        <time>2011-05-15T10:25:09Z</time>
      </trkpt>
      <trkpt lat="48.20724" lon="3.25444">
        <ele>127</ele>
        <time>2011-05-15T10:25:11Z</time>
      </trkpt>
      <trkpt lat="48.20717" lon="3.2544">
        <ele>127</ele>
        <time>2011-05-15T10:25:13Z</time>
      </trkpt>
      <trkpt lat="48.2071" lon="3.25436">
        <ele>128</ele>
        <time>2011-05-15T10:25:15Z</time>
      </trkpt>
      <trkpt lat="48.20702" lon="3.25429">
        <ele>129</ele>
        <time>2011-05-15T10:25:17Z</time>
      </trkpt>
      <trkpt lat="48.20694" lon="3.25425">
        <ele>129</ele>
        <time>2011-05-15T10:25:19Z</time>
      </trkpt>
      <trkpt lat="48.20689" lon="3.25421">
        <ele>129</ele>
        <time>2011-05-15T10:25:21Z</time>
      </trkpt>
      <trkpt lat="48.20684" lon="3.25416">
        <ele>129</ele>
        <time>2011-05-15T10:25:23Z</time>
      </trkpt>
      <trkpt lat="48.20677" lon="3.25412">
        <ele>130</ele>
        <time>2011-05-15T10:25:26Z</time>
      </trkpt>
      <trkpt lat="48.20677" lon="3.25412">
        <ele>130</ele>
        <time>2011-05-15T10:25:26Z</time>
      </trkpt>
      <trkpt lat="48.20677" lon="3.25412">
        <ele>130</ele>
        <time>2011-05-15T10:25:27Z</time>
      </trkpt>
      <trkpt lat="48.20672" lon="3.2541">
        <ele>130</ele>
        <time>2011-05-15T10:25:29Z</time>
      </trkpt>
      <trkpt lat="48.20672" lon="3.2541">
        <ele>130</ele>
        <time>2011-05-15T10:25:29Z</time>
      </trkpt>
      <trkpt lat="48.20672" lon="3.2541">
        <ele>130</ele>
        <time>2011-05-15T10:25:31Z</time>
      </trkpt>
      <trkpt lat="48.20673" lon="3.25421">
        <ele>130</ele>
        <time>2011-05-15T10:25:33Z</time>
      </trkpt>
      <trkpt lat="48.20677" lon="3.25423">
        <ele>130</ele>
        <time>2011-05-15T10:25:35Z</time>
      </trkpt>
      <trkpt lat="48.20677" lon="3.25423">
        <ele>130</ele>
        <time>2011-05-15T10:25:35Z</time>
      </trkpt>
      <trkpt lat="48.20677" lon="3.25423">
        <ele>130</ele>
        <time>2011-05-15T10:25:37Z</time>
      </trkpt>
      <trkpt lat="48.2068" lon="3.25416">
        <ele>130</ele>
        <time>2011-05-15T10:25:38Z</time>
      </trkpt>
      <trkpt lat="48.20675" lon="3.25412">
        <ele>130</ele>
        <time>2011-05-15T10:25:39Z</time>
      </trkpt>
      <trkpt lat="48.2067" lon="3.2541">
        <ele>131</ele>
        <time>2011-05-15T10:25:40Z</time>
      </trkpt>
      <trkpt lat="48.20661" lon="3.25406">
        <ele>132</ele>
        <time>2011-05-15T10:25:42Z</time>
      </trkpt>
      <trkpt lat="48.20657" lon="3.25403">
        <ele>132</ele>
        <time>2011-05-15T10:25:43Z</time>
      </trkpt>
      <trkpt lat="48.20653" lon="3.25401">
        <ele>132</ele>
        <time>2011-05-15T10:25:44Z</time>
      </trkpt>
      <trkpt lat="48.20648" lon="3.25399">
        <ele>133</ele>
        <time>2011-05-15T10:25:45Z</time>
      </trkpt>
      <trkpt lat="48.2064" lon="3.25393">
        <ele>133</ele>
        <time>2011-05-15T10:25:47Z</time>
      </trkpt>
      <trkpt lat="48.20631" lon="3.2539">
        <ele>133</ele>
        <time>2011-05-15T10:25:49Z</time>
      </trkpt>
      <trkpt lat="48.20623" lon="3.25386">
        <ele>134</ele>
        <time>2011-05-15T10:25:51Z</time>
      </trkpt>
      <trkpt lat="48.20617" lon="3.25384">
        <ele>134</ele>
        <time>2011-05-15T10:25:52Z</time>
      </trkpt>
      <trkpt lat="48.20613" lon="3.25382">
        <ele>134</ele>
        <time>2011-05-15T10:25:53Z</time>
      </trkpt>
      <trkpt lat="48.20609" lon="3.25378">
        <ele>134</ele>
        <time>2011-05-15T10:25:54Z</time>
      </trkpt>
      <trkpt lat="48.20604" lon="3.25373">
        <ele>134</ele>
        <time>2011-05-15T10:25:55Z</time>
      </trkpt>
      <trkpt lat="48.206" lon="3.25369">
        <ele>134</ele>
        <time>2011-05-15T10:25:56Z</time>
      </trkpt>
      <trkpt lat="48.2059" lon="3.25363">
        <ele>135</ele>
        <time>2011-05-15T10:25:58Z</time>
      </trkpt>
      <trkpt lat="48.20582" lon="3.25358">
        <ele>135</ele>
        <time>2011-05-15T10:26:00Z</time>
      </trkpt>
      <trkpt lat="48.20578" lon="3.25354">
        <ele>135</ele>
        <time>2011-05-15T10:26:01Z</time>
      </trkpt>
      <trkpt lat="48.20569" lon="3.2535">
        <ele>135</ele>
        <time>2011-05-15T10:26:03Z</time>
      </trkpt>
      <trkpt lat="48.2056" lon="3.25346">
        <ele>135</ele>
        <time>2011-05-15T10:26:05Z</time>
      </trkpt>
      <trkpt lat="48.20552" lon="3.25341">
        <ele>135</ele>
        <time>2011-05-15T10:26:07Z</time>
      </trkpt>
      <trkpt lat="48.20544" lon="3.25337">
        <ele>135</ele>
        <time>2011-05-15T10:26:09Z</time>
      </trkpt>
      <trkpt lat="48.20537" lon="3.25333">
        <ele>135</ele>
        <time>2011-05-15T10:26:11Z</time>
      </trkpt>
      <trkpt lat="48.20529" lon="3.25328">
        <ele>135</ele>
        <time>2011-05-15T10:26:13Z</time>
      </trkpt>
      <trkpt lat="48.20522" lon="3.2533">
        <ele>135</ele>
        <time>2011-05-15T10:26:15Z</time>
      </trkpt>
      <trkpt lat="48.20521" lon="3.25339">
        <ele>135</ele>
        <time>2011-05-15T10:26:17Z</time>
      </trkpt>
      <trkpt lat="48.20524" lon="3.25346">
        <ele>135</ele>
        <time>2011-05-15T10:26:19Z</time>
      </trkpt>
      <trkpt lat="48.20528" lon="3.2535">
        <ele>135</ele>
        <time>2011-05-15T10:26:21Z</time>
      </trkpt>
      <trkpt lat="48.20532" lon="3.25356">
        <ele>135</ele>
        <time>2011-05-15T10:26:23Z</time>
      </trkpt>
      <trkpt lat="48.20537" lon="3.25363">
        <ele>135</ele>
        <time>2011-05-15T10:26:25Z</time>
      </trkpt>
      <trkpt lat="48.2054" lon="3.25371">
        <ele>135</ele>
        <time>2011-05-15T10:26:27Z</time>
      </trkpt>
      <trkpt lat="48.20545" lon="3.25378">
        <ele>135</ele>
        <time>2011-05-15T10:26:29Z</time>
      </trkpt>
      <trkpt lat="48.2055" lon="3.25382">
        <ele>135</ele>
        <time>2011-05-15T10:26:31Z</time>
      </trkpt>
      <trkpt lat="48.20555" lon="3.25388">
        <ele>135</ele>
        <time>2011-05-15T10:26:33Z</time>
      </trkpt>
      <trkpt lat="48.2056" lon="3.25395">
        <ele>135</ele>
        <time>2011-05-15T10:26:35Z</time>
      </trkpt>
      <trkpt lat="48.20567" lon="3.25401">
        <ele>135</ele>
        <time>2011-05-15T10:26:39Z</time>
      </trkpt>
      <trkpt lat="48.20567" lon="3.25401">
        <ele>135</ele>
        <time>2011-05-15T10:26:39Z</time>
      </trkpt>
      <trkpt lat="48.20567" lon="3.25401">
        <ele>135</ele>
        <time>2011-05-15T10:26:41Z</time>
      </trkpt>
      <trkpt lat="48.20571" lon="3.25408">
        <ele>135</ele>
        <time>2011-05-15T10:26:42Z</time>
      </trkpt>
      <trkpt lat="48.20571" lon="3.25408">
        <ele>135</ele>
        <time>2011-05-15T10:26:42Z</time>
      </trkpt>
      <trkpt lat="48.20571" lon="3.25408">
        <ele>135</ele>
        <time>2011-05-15T10:26:45Z</time>
      </trkpt>
      <trkpt lat="48.20576" lon="3.25416">
        <ele>135</ele>
        <time>2011-05-15T10:26:46Z</time>
      </trkpt>
      <trkpt lat="48.20576" lon="3.25416">
        <ele>135</ele>
        <time>2011-05-15T10:26:46Z</time>
      </trkpt>
      <trkpt lat="48.20576" lon="3.25416">
        <ele>135</ele>
        <time>2011-05-15T10:26:47Z</time>
      </trkpt>
      <trkpt lat="48.20581" lon="3.25423">
        <ele>135</ele>
        <time>2011-05-15T10:26:48Z</time>
      </trkpt>
      <trkpt lat="48.20581" lon="3.25423">
        <ele>135</ele>
        <time>2011-05-15T10:26:48Z</time>
      </trkpt>
      <trkpt lat="48.20581" lon="3.25423">
        <ele>135</ele>
        <time>2011-05-15T10:26:49Z</time>
      </trkpt>
      <trkpt lat="48.20592" lon="3.25436">
        <ele>135</ele>
        <time>2011-05-15T10:26:54Z</time>
      </trkpt>
      <trkpt lat="48.20596" lon="3.2544">
        <ele>136</ele>
        <time>2011-05-15T10:26:56Z</time>
      </trkpt>
      <trkpt lat="48.20599" lon="3.25446">
        <ele>136</ele>
        <time>2011-05-15T10:26:58Z</time>
      </trkpt>
      <trkpt lat="48.20604" lon="3.25453">
        <ele>136</ele>
        <time>2011-05-15T10:27:00Z</time>
      </trkpt>
      <trkpt lat="48.20609" lon="3.25459">
        <ele>136</ele>
        <time>2011-05-15T10:27:02Z</time>
      </trkpt>
      <trkpt lat="48.20614" lon="3.25466">
        <ele>136</ele>
        <time>2011-05-15T10:27:04Z</time>
      </trkpt>
      <trkpt lat="48.20618" lon="3.25472">
        <ele>136</ele>
        <time>2011-05-15T10:27:06Z</time>
      </trkpt>
      <trkpt lat="48.20623" lon="3.25476">
        <ele>136</ele>
        <time>2011-05-15T10:27:08Z</time>
      </trkpt>
      <trkpt lat="48.20627" lon="3.25483">
        <ele>136</ele>
        <time>2011-05-15T10:27:10Z</time>
      </trkpt>
      <trkpt lat="48.20631" lon="3.25487">
        <ele>136</ele>
        <time>2011-05-15T10:27:12Z</time>
      </trkpt>
      <trkpt lat="48.20636" lon="3.25494">
        <ele>136</ele>
        <time>2011-05-15T10:27:14Z</time>
      </trkpt>
      <trkpt lat="48.2064" lon="3.25498">
        <ele>136</ele>
        <time>2011-05-15T10:27:16Z</time>
      </trkpt>
      <trkpt lat="48.20645" lon="3.25502">
        <ele>136</ele>
        <time>2011-05-15T10:27:18Z</time>
      </trkpt>
      <trkpt lat="48.2065" lon="3.25506">
        <ele>136</ele>
        <time>2011-05-15T10:27:20Z</time>
      </trkpt>
      <trkpt lat="48.20654" lon="3.25513">
        <ele>136</ele>
        <time>2011-05-15T10:27:22Z</time>
      </trkpt>
      <trkpt lat="48.20659" lon="3.25517">
        <ele>136</ele>
        <time>2011-05-15T10:27:24Z</time>
      </trkpt>
      <trkpt lat="48.20663" lon="3.25521">
        <ele>137</ele>
        <time>2011-05-15T10:27:26Z</time>
      </trkpt>
      <trkpt lat="48.20668" lon="3.25526">
        <ele>137</ele>
        <time>2011-05-15T10:27:28Z</time>
      </trkpt>
      <trkpt lat="48.20673" lon="3.2553">
        <ele>137</ele>
        <time>2011-05-15T10:27:30Z</time>
      </trkpt>
      <trkpt lat="48.20678" lon="3.25536">
        <ele>137</ele>
        <time>2011-05-15T10:27:32Z</time>
      </trkpt>
      <trkpt lat="48.20685" lon="3.25541">
        <ele>137</ele>
        <time>2011-05-15T10:27:34Z</time>
      </trkpt>
      <trkpt lat="48.2069" lon="3.25547">
        <ele>137</ele>
        <time>2011-05-15T10:27:36Z</time>
      </trkpt>
      <trkpt lat="48.20696" lon="3.25554">
        <ele>137</ele>
        <time>2011-05-15T10:27:38Z</time>
      </trkpt>
      <trkpt lat="48.20701" lon="3.25558">
        <ele>138</ele>
        <time>2011-05-15T10:27:40Z</time>
      </trkpt>
      <trkpt lat="48.20706" lon="3.25564">
        <ele>138</ele>
        <time>2011-05-15T10:27:42Z</time>
      </trkpt>
      <trkpt lat="48.20712" lon="3.25569">
        <ele>138</ele>
        <time>2011-05-15T10:27:44Z</time>
      </trkpt>
      <trkpt lat="48.20718" lon="3.25575">
        <ele>138</ele>
        <time>2011-05-15T10:27:46Z</time>
      </trkpt>
      <trkpt lat="48.20725" lon="3.25579">
        <ele>138</ele>
        <time>2011-05-15T10:27:48Z</time>
      </trkpt>
      <trkpt lat="48.2073" lon="3.25584">
        <ele>139</ele>
        <time>2011-05-15T10:27:50Z</time>
      </trkpt>
      <trkpt lat="48.20736" lon="3.25586">
        <ele>139</ele>
        <time>2011-05-15T10:27:52Z</time>
      </trkpt>
      <trkpt lat="48.20744" lon="3.2559">
        <ele>139</ele>
        <time>2011-05-15T10:27:54Z</time>
      </trkpt>
      <trkpt lat="48.2075" lon="3.25594">
        <ele>139</ele>
        <time>2011-05-15T10:27:56Z</time>
      </trkpt>
      <trkpt lat="48.20757" lon="3.25596">
        <ele>140</ele>
        <time>2011-05-15T10:27:58Z</time>
      </trkpt>
      <trkpt lat="48.20761" lon="3.25599">
        <ele>140</ele>
        <time>2011-05-15T10:27:59Z</time>
      </trkpt>
      <trkpt lat="48.20768" lon="3.25601">
        <ele>140</ele>
        <time>2011-05-15T10:28:01Z</time>
      </trkpt>
      <trkpt lat="48.20772" lon="3.25603">
        <ele>140</ele>
        <time>2011-05-15T10:28:02Z</time>
      </trkpt>
      <trkpt lat="48.20778" lon="3.25607">
        <ele>141</ele>
        <time>2011-05-15T10:28:04Z</time>
      </trkpt>
      <trkpt lat="48.20785" lon="3.25609">
        <ele>141</ele>
        <time>2011-05-15T10:28:06Z</time>
      </trkpt>
      <trkpt lat="48.20791" lon="3.25614">
        <ele>141</ele>
        <time>2011-05-15T10:28:08Z</time>
      </trkpt>
      <trkpt lat="48.20796" lon="3.25618">
        <ele>141</ele>
        <time>2011-05-15T10:28:10Z</time>
      </trkpt>
      <trkpt lat="48.20802" lon="3.2562">
        <ele>142</ele>
        <time>2011-05-15T10:28:12Z</time>
      </trkpt>
      <trkpt lat="48.20806" lon="3.25622">
        <ele>142</ele>
        <time>2011-05-15T10:28:14Z</time>
      </trkpt>
      <trkpt lat="48.2081" lon="3.25624">
        <ele>142</ele>
        <time>2011-05-15T10:28:16Z</time>
      </trkpt>
      <trkpt lat="48.20817" lon="3.25627">
        <ele>142</ele>
        <time>2011-05-15T10:28:18Z</time>
      </trkpt>
      <trkpt lat="48.20824" lon="3.25633">
        <ele>144</ele>
        <time>2011-05-15T10:28:20Z</time>
      </trkpt>
      <trkpt lat="48.20832" lon="3.25637">
        <ele>146</ele>
        <time>2011-05-15T10:28:22Z</time>
      </trkpt>
      <trkpt lat="48.20836" lon="3.25639">
        <ele>146</ele>
        <time>2011-05-15T10:28:23Z</time>
      </trkpt>
      <trkpt lat="48.2084" lon="3.25642">
        <ele>147</ele>
        <time>2011-05-15T10:28:24Z</time>
      </trkpt>
      <trkpt lat="48.20848" lon="3.25648">
        <ele>147</ele>
        <time>2011-05-15T10:28:26Z</time>
      </trkpt>
      <trkpt lat="48.20852" lon="3.2565">
        <ele>148</ele>
        <time>2011-05-15T10:28:27Z</time>
      </trkpt>
      <trkpt lat="48.20856" lon="3.25652">
        <ele>148</ele>
        <time>2011-05-15T10:28:28Z</time>
      </trkpt>
      <trkpt lat="48.20861" lon="3.25654">
        <ele>148</ele>
        <time>2011-05-15T10:28:29Z</time>
      </trkpt>
      <trkpt lat="48.20865" lon="3.25659">
        <ele>148</ele>
        <time>2011-05-15T10:28:30Z</time>
      </trkpt>
      <trkpt lat="48.20869" lon="3.25661">
        <ele>148</ele>
        <time>2011-05-15T10:28:31Z</time>
      </trkpt>
      <trkpt lat="48.20874" lon="3.25663">
        <ele>148</ele>
        <time>2011-05-15T10:28:32Z</time>
      </trkpt>
      <trkpt lat="48.20879" lon="3.25665">
        <ele>148</ele>
        <time>2011-05-15T10:28:33Z</time>
      </trkpt>
      <trkpt lat="48.20883" lon="3.2567">
        <ele>148</ele>
        <time>2011-05-15T10:28:34Z</time>
      </trkpt>
      <trkpt lat="48.20888" lon="3.25672">
        <ele>148</ele>
        <time>2011-05-15T10:28:35Z</time>
      </trkpt>
      <trkpt lat="48.20892" lon="3.25676">
        <ele>148</ele>
        <time>2011-05-15T10:28:36Z</time>
      </trkpt>
      <trkpt lat="48.20899" lon="3.25682">
        <ele>149</ele>
        <time>2011-05-15T10:28:38Z</time>
      </trkpt>
      <trkpt lat="48.20906" lon="3.25691">
        <ele>149</ele>
        <time>2011-05-15T10:28:40Z</time>
      </trkpt>
      <trkpt lat="48.20912" lon="3.257">
        <ele>150</ele>
        <time>2011-05-15T10:28:42Z</time>
      </trkpt>
      <trkpt lat="48.20916" lon="3.25706">
        <ele>150</ele>
        <time>2011-05-15T10:28:43Z</time>
      </trkpt>
      <trkpt lat="48.2092" lon="3.25714">
        <ele>150</ele>
        <time>2011-05-15T10:28:45Z</time>
      </trkpt>
      <trkpt lat="48.20925" lon="3.25723">
        <ele>151</ele>
        <time>2011-05-15T10:28:47Z</time>
      </trkpt>
      <trkpt lat="48.20931" lon="3.25732">
        <ele>151</ele>
        <time>2011-05-15T10:28:49Z</time>
      </trkpt>
      <trkpt lat="48.20935" lon="3.25742">
        <ele>151</ele>
        <time>2011-05-15T10:28:51Z</time>
      </trkpt>
      <trkpt lat="48.20939" lon="3.25751">
        <ele>152</ele>
        <time>2011-05-15T10:28:53Z</time>
      </trkpt>
      <trkpt lat="48.20941" lon="3.25758">
        <ele>152</ele>
        <time>2011-05-15T10:28:54Z</time>
      </trkpt>
      <trkpt lat="48.20946" lon="3.25766">
        <ele>152</ele>
        <time>2011-05-15T10:28:56Z</time>
      </trkpt>
      <trkpt lat="48.2095" lon="3.25775">
        <ele>152</ele>
        <time>2011-05-15T10:28:58Z</time>
      </trkpt>
      <trkpt lat="48.20955" lon="3.25783">
        <ele>153</ele>
        <time>2011-05-15T10:29:00Z</time>
      </trkpt>
      <trkpt lat="48.20961" lon="3.2579">
        <ele>153</ele>
        <time>2011-05-15T10:29:02Z</time>
      </trkpt>
      <trkpt lat="48.20965" lon="3.25798">
        <ele>153</ele>
        <time>2011-05-15T10:29:04Z</time>
      </trkpt>
      <trkpt lat="48.2097" lon="3.25807">
        <ele>153</ele>
        <time>2011-05-15T10:29:06Z</time>
      </trkpt>
      <trkpt lat="48.20974" lon="3.25815">
        <ele>153</ele>
        <time>2011-05-15T10:29:08Z</time>
      </trkpt>
      <trkpt lat="48.20979" lon="3.25822">
        <ele>153</ele>
        <time>2011-05-15T10:29:10Z</time>
      </trkpt>
      <trkpt lat="48.20984" lon="3.2583">
        <ele>153</ele>
        <time>2011-05-15T10:29:12Z</time>
      </trkpt>
      <trkpt lat="48.20987" lon="3.25839">
        <ele>153</ele>
        <time>2011-05-15T10:29:14Z</time>
      </trkpt>
      <trkpt lat="48.20992" lon="3.2585">
        <ele>153</ele>
        <time>2011-05-15T10:29:16Z</time>
      </trkpt>
      <trkpt lat="48.20996" lon="3.25858">
        <ele>153</ele>
        <time>2011-05-15T10:29:18Z</time>
      </trkpt>
      <trkpt lat="48.20999" lon="3.25867">
        <ele>153</ele>
        <time>2011-05-15T10:29:20Z</time>
      </trkpt>
      <trkpt lat="48.21001" lon="3.25873">
        <ele>153</ele>
        <time>2011-05-15T10:29:21Z</time>
      </trkpt>
      <trkpt lat="48.21005" lon="3.25884">
        <ele>154</ele>
        <time>2011-05-15T10:29:23Z</time>
      </trkpt>
      <trkpt lat="48.21008" lon="3.25895">
        <ele>155</ele>
        <time>2011-05-15T10:29:25Z</time>
      </trkpt>
      <trkpt lat="48.21011" lon="3.25906">
        <ele>155</ele>
        <time>2011-05-15T10:29:27Z</time>
      </trkpt>
      <trkpt lat="48.21014" lon="3.25914">
        <ele>156</ele>
        <time>2011-05-15T10:29:29Z</time>
      </trkpt>
      <trkpt lat="48.21018" lon="3.25923">
        <ele>156</ele>
        <time>2011-05-15T10:29:31Z</time>
      </trkpt>
      <trkpt lat="48.21022" lon="3.25933">
        <ele>157</ele>
        <time>2011-05-15T10:29:33Z</time>
      </trkpt>
      <trkpt lat="48.21024" lon="3.2594">
        <ele>157</ele>
        <time>2011-05-15T10:29:34Z</time>
      </trkpt>
      <trkpt lat="48.21027" lon="3.25951">
        <ele>157</ele>
        <time>2011-05-15T10:29:36Z</time>
      </trkpt>
      <trkpt lat="48.2103" lon="3.25961">
        <ele>158</ele>
        <time>2011-05-15T10:29:38Z</time>
      </trkpt>
      <trkpt lat="48.21034" lon="3.2597">
        <ele>158</ele>
        <time>2011-05-15T10:29:40Z</time>
      </trkpt>
      <trkpt lat="48.21036" lon="3.25976">
        <ele>158</ele>
        <time>2011-05-15T10:29:41Z</time>
      </trkpt>
      <trkpt lat="48.21038" lon="3.25985">
        <ele>158</ele>
        <time>2011-05-15T10:29:43Z</time>
      </trkpt>
      <trkpt lat="48.2104" lon="3.25991">
        <ele>158</ele>
        <time>2011-05-15T10:29:44Z</time>
      </trkpt>
      <trkpt lat="48.21043" lon="3.26">
        <ele>158</ele>
        <time>2011-05-15T10:29:46Z</time>
      </trkpt>
      <trkpt lat="48.21045" lon="3.26011">
        <ele>158</ele>
        <time>2011-05-15T10:29:48Z</time>
      </trkpt>
      <trkpt lat="48.21048" lon="3.26017">
        <ele>158</ele>
        <time>2011-05-15T10:29:49Z</time>
      </trkpt>
      <trkpt lat="48.21051" lon="3.26026">
        <ele>159</ele>
        <time>2011-05-15T10:29:51Z</time>
      </trkpt>
      <trkpt lat="48.21054" lon="3.26038">
        <ele>159</ele>
        <time>2011-05-15T10:30:43Z</time>
      </trkpt>
      <trkpt lat="48.21057" lon="3.26047">
        <ele>159</ele>
        <time>2011-05-15T10:30:45Z</time>
      </trkpt>
      <trkpt lat="48.21061" lon="3.26058">
        <ele>160</ele>
        <time>2011-05-15T10:30:47Z</time>
      </trkpt>
      <trkpt lat="48.21064" lon="3.26064">
        <ele>160</ele>
        <time>2011-05-15T10:30:48Z</time>
      </trkpt>
      <trkpt lat="48.21067" lon="3.26071">
        <ele>160</ele>
        <time>2011-05-15T10:30:49Z</time>
      </trkpt>
      <trkpt lat="48.2107" lon="3.26077">
        <ele>160</ele>
        <time>2011-05-15T10:30:50Z</time>
      </trkpt>
      <trkpt lat="48.21073" lon="3.26084">
        <ele>160</ele>
        <time>2011-05-15T10:30:51Z</time>
      </trkpt>
      <trkpt lat="48.21078" lon="3.2609">
        <ele>161</ele>
        <time>2011-05-15T10:30:52Z</time>
      </trkpt>
      <trkpt lat="48.21081" lon="3.26099">
        <ele>161</ele>
        <time>2011-05-15T10:30:53Z</time>
      </trkpt>
      <trkpt lat="48.21086" lon="3.26105">
        <ele>161</ele>
        <time>2011-05-15T10:30:54Z</time>
      </trkpt>
      <trkpt lat="48.2109" lon="3.26116">
        <ele>161</ele>
        <time>2011-05-15T10:30:55Z</time>
      </trkpt>
      <trkpt lat="48.21095" lon="3.26126">
        <ele>161</ele>
        <time>2011-05-15T10:30:56Z</time>
      </trkpt>
      <trkpt lat="48.21098" lon="3.26137">
        <ele>161</ele>
        <time>2011-05-15T10:30:57Z</time>
      </trkpt>
      <trkpt lat="48.21101" lon="3.26148">
        <ele>161</ele>
        <time>2011-05-15T10:30:58Z</time>
      </trkpt>
      <trkpt lat="48.21102" lon="3.26159">
        <ele>161</ele>
        <time>2011-05-15T10:30:59Z</time>
      </trkpt>
      <trkpt lat="48.21103" lon="3.26169">
        <ele>161</ele>
        <time>2011-05-15T10:31:00Z</time>
      </trkpt>
      <trkpt lat="48.21104" lon="3.2618">
        <ele>161</ele>
        <time>2011-05-15T10:31:01Z</time>
      </trkpt>
      <trkpt lat="48.21104" lon="3.26191">
        <ele>161</ele>
        <time>2011-05-15T10:31:02Z</time>
      </trkpt>
      <trkpt lat="48.21104" lon="3.262">
        <ele>161</ele>
        <time>2011-05-15T10:31:03Z</time>
      </trkpt>
      <trkpt lat="48.21103" lon="3.26214">
        <ele>161</ele>
        <time>2011-05-15T10:31:05Z</time>
      </trkpt>
      <trkpt lat="48.21103" lon="3.26225">
        <ele>161</ele>
        <time>2011-05-15T10:31:07Z</time>
      </trkpt>
      <trkpt lat="48.21102" lon="3.26238">
        <ele>161</ele>
        <time>2011-05-15T10:31:09Z</time>
      </trkpt>
      <trkpt lat="48.21101" lon="3.26251">
        <ele>161</ele>
        <time>2011-05-15T10:31:11Z</time>
      </trkpt>
      <trkpt lat="48.211" lon="3.26262">
        <ele>161</ele>
        <time>2011-05-15T10:31:12Z</time>
      </trkpt>
      <trkpt lat="48.21098" lon="3.26277">
        <ele>161</ele>
        <time>2011-05-15T10:31:14Z</time>
      </trkpt>
      <trkpt lat="48.21097" lon="3.26285">
        <ele>161</ele>
        <time>2011-05-15T10:31:15Z</time>
      </trkpt>
      <trkpt lat="48.21096" lon="3.26294">
        <ele>162</ele>
        <time>2011-05-15T10:31:16Z</time>
      </trkpt>
      <trkpt lat="48.21094" lon="3.263">
        <ele>162</ele>
        <time>2011-05-15T10:31:17Z</time>
      </trkpt>
      <trkpt lat="48.21092" lon="3.26313">
        <ele>163</ele>
        <time>2011-05-15T10:31:19Z</time>
      </trkpt>
      <trkpt lat="48.21089" lon="3.26324">
        <ele>164</ele>
        <time>2011-05-15T10:31:21Z</time>
      </trkpt>
      <trkpt lat="48.21086" lon="3.26332">
        <ele>164</ele>
        <time>2011-05-15T10:31:23Z</time>
      </trkpt>
      <trkpt lat="48.21082" lon="3.26341">
        <ele>164</ele>
        <time>2011-05-15T10:31:27Z</time>
      </trkpt>
      <trkpt lat="48.21078" lon="3.26348">
        <ele>164</ele>
        <time>2011-05-15T10:31:30Z</time>
      </trkpt>
      <trkpt lat="48.21073" lon="3.26354">
        <ele>164</ele>
        <time>2011-05-15T10:31:33Z</time>
      </trkpt>
      <trkpt lat="48.2107" lon="3.2636">
        <ele>164</ele>
        <time>2011-05-15T10:31:36Z</time>
      </trkpt>
      <trkpt lat="48.21065" lon="3.26367">
        <ele>164</ele>
        <time>2011-05-15T10:31:39Z</time>
      </trkpt>
      <trkpt lat="48.2106" lon="3.26369">
        <ele>164</ele>
        <time>2011-05-15T10:31:41Z</time>
      </trkpt>
      <trkpt lat="48.21054" lon="3.26371">
        <ele>164</ele>
        <time>2011-05-15T10:31:43Z</time>
      </trkpt>
      <trkpt lat="48.21049" lon="3.26373">
        <ele>164</ele>
        <time>2011-05-15T10:31:45Z</time>
      </trkpt>
      <trkpt lat="48.21043" lon="3.26371">
        <ele>164</ele>
        <time>2011-05-15T10:31:48Z</time>
      </trkpt>
      <trkpt lat="48.21038" lon="3.26369">
        <ele>164</ele>
        <time>2011-05-15T10:31:51Z</time>
      </trkpt>
      <trkpt lat="48.21031" lon="3.26365">
        <ele>164</ele>
        <time>2011-05-15T10:31:54Z</time>
      </trkpt>
      <trkpt lat="48.21026" lon="3.26365">
        <ele>164</ele>
        <time>2011-05-15T10:31:56Z</time>
      </trkpt>
      <trkpt lat="48.2102" lon="3.26365">
        <ele>164</ele>
        <time>2011-05-15T10:31:58Z</time>
      </trkpt>
      <trkpt lat="48.21014" lon="3.26363">
        <ele>164</ele>
        <time>2011-05-15T10:32:00Z</time>
      </trkpt>
      <trkpt lat="48.21009" lon="3.26358">
        <ele>164</ele>
        <time>2011-05-15T10:32:02Z</time>
      </trkpt>
      <trkpt lat="48.20999" lon="3.26356">
        <ele>164</ele>
        <time>2011-05-15T10:32:04Z</time>
      </trkpt>
      <trkpt lat="48.20994" lon="3.26354">
        <ele>165</ele>
        <time>2011-05-15T10:32:05Z</time>
      </trkpt>
      <trkpt lat="48.20988" lon="3.26352">
        <ele>165</ele>
        <time>2011-05-15T10:32:06Z</time>
      </trkpt>
      <trkpt lat="48.20983" lon="3.2635">
        <ele>165</ele>
        <time>2011-05-15T10:32:07Z</time>
      </trkpt>
      <trkpt lat="48.20977" lon="3.26348">
        <ele>165</ele>
        <time>2011-05-15T10:32:08Z</time>
      </trkpt>
      <trkpt lat="48.20971" lon="3.26345">
        <ele>165</ele>
        <time>2011-05-15T10:32:09Z</time>
      </trkpt>
      <trkpt lat="48.20965" lon="3.26343">
        <ele>165</ele>
        <time>2011-05-15T10:32:10Z</time>
      </trkpt>
      <trkpt lat="48.2096" lon="3.26341">
        <ele>165</ele>
        <time>2011-05-15T10:32:11Z</time>
      </trkpt>
      <trkpt lat="48.20953" lon="3.26339">
        <ele>165</ele>
        <time>2011-05-15T10:32:12Z</time>
      </trkpt>
      <trkpt lat="48.20947" lon="3.26339">
        <ele>165</ele>
        <time>2011-05-15T10:32:13Z</time>
      </trkpt>
      <trkpt lat="48.20941" lon="3.26337">
        <ele>165</ele>
        <time>2011-05-15T10:32:14Z</time>
      </trkpt>
      <trkpt lat="48.20935" lon="3.26337">
        <ele>165</ele>
        <time>2011-05-15T10:32:15Z</time>
      </trkpt>
      <trkpt lat="48.2093" lon="3.26337">
        <ele>164</ele>
        <time>2011-05-15T10:32:16Z</time>
      </trkpt>
      <trkpt lat="48.20924" lon="3.26339">
        <ele>164</ele>
        <time>2011-05-15T10:32:17Z</time>
      </trkpt>
      <trkpt lat="48.20918" lon="3.26339">
        <ele>164</ele>
        <time>2011-05-15T10:32:18Z</time>
      </trkpt>
      <trkpt lat="48.20912" lon="3.26341">
        <ele>164</ele>
        <time>2011-05-15T10:32:19Z</time>
      </trkpt>
      <trkpt lat="48.20907" lon="3.26341">
        <ele>164</ele>
        <time>2011-05-15T10:32:20Z</time>
      </trkpt>
      <trkpt lat="48.20897" lon="3.26343">
        <ele>164</ele>
        <time>2011-05-15T10:32:22Z</time>
      </trkpt>
      <trkpt lat="48.20893" lon="3.26345">
        <ele>164</ele>
        <time>2011-05-15T10:32:23Z</time>
      </trkpt>
      <trkpt lat="48.20888" lon="3.26348">
        <ele>164</ele>
        <time>2011-05-15T10:32:24Z</time>
      </trkpt>
      <trkpt lat="48.20883" lon="3.26352">
        <ele>164</ele>
        <time>2011-05-15T10:32:25Z</time>
      </trkpt>
      <trkpt lat="48.20875" lon="3.26356">
        <ele>164</ele>
        <time>2011-05-15T10:32:27Z</time>
      </trkpt>
      <trkpt lat="48.20869" lon="3.2636">
        <ele>164</ele>
        <time>2011-05-15T10:32:28Z</time>
      </trkpt>
      <trkpt lat="48.20865" lon="3.26365">
        <ele>164</ele>
        <time>2011-05-15T10:32:29Z</time>
      </trkpt>
      <trkpt lat="48.2086" lon="3.26367">
        <ele>164</ele>
        <time>2011-05-15T10:32:30Z</time>
      </trkpt>
      <trkpt lat="48.20853" lon="3.26371">
        <ele>165</ele>
        <time>2011-05-15T10:32:31Z</time>
      </trkpt>
      <trkpt lat="48.20848" lon="3.26375">
        <ele>165</ele>
        <time>2011-05-15T10:32:32Z</time>
      </trkpt>
      <trkpt lat="48.20843" lon="3.26378">
        <ele>165</ele>
        <time>2011-05-15T10:32:33Z</time>
      </trkpt>
      <trkpt lat="48.20836" lon="3.2638">
        <ele>165</ele>
        <time>2011-05-15T10:32:34Z</time>
      </trkpt>
      <trkpt lat="48.20831" lon="3.26382">
        <ele>165</ele>
        <time>2011-05-15T10:32:35Z</time>
      </trkpt>
      <trkpt lat="48.20824" lon="3.26382">
        <ele>165</ele>
        <time>2011-05-15T10:32:36Z</time>
      </trkpt>
      <trkpt lat="48.20818" lon="3.26382">
        <ele>164</ele>
        <time>2011-05-15T10:32:37Z</time>
      </trkpt>
      <trkpt lat="48.20812" lon="3.26382">
        <ele>164</ele>
        <time>2011-05-15T10:32:38Z</time>
      </trkpt>
      <trkpt lat="48.20806" lon="3.26382">
        <ele>164</ele>
        <time>2011-05-15T10:32:39Z</time>
      </trkpt>
      <trkpt lat="48.208" lon="3.26382">
        <ele>164</ele>
        <time>2011-05-15T10:32:40Z</time>
      </trkpt>
      <trkpt lat="48.20793" lon="3.26382">
        <ele>163</ele>
        <time>2011-05-15T10:32:41Z</time>
      </trkpt>
      <trkpt lat="48.20788" lon="3.26384">
        <ele>163</ele>
        <time>2011-05-15T10:32:42Z</time>
      </trkpt>
      <trkpt lat="48.20781" lon="3.26386">
        <ele>163</ele>
        <time>2011-05-15T10:32:43Z</time>
      </trkpt>
      <trkpt lat="48.20775" lon="3.26386">
        <ele>163</ele>
        <time>2011-05-15T10:32:44Z</time>
      </trkpt>
      <trkpt lat="48.20768" lon="3.26388">
        <ele>163</ele>
        <time>2011-05-15T10:32:45Z</time>
      </trkpt>
      <trkpt lat="48.20762" lon="3.2639">
        <ele>163</ele>
        <time>2011-05-15T10:32:46Z</time>
      </trkpt>
      <trkpt lat="48.20756" lon="3.26393">
        <ele>162</ele>
        <time>2011-05-15T10:32:47Z</time>
      </trkpt>
      <trkpt lat="48.20749" lon="3.26395">
        <ele>162</ele>
        <time>2011-05-15T10:32:48Z</time>
      </trkpt>
      <trkpt lat="48.20744" lon="3.26397">
        <ele>162</ele>
        <time>2011-05-15T10:32:49Z</time>
      </trkpt>
      <trkpt lat="48.20737" lon="3.26399">
        <ele>162</ele>
        <time>2011-05-15T10:32:50Z</time>
      </trkpt>
      <trkpt lat="48.2073" lon="3.26401">
        <ele>163</ele>
        <time>2011-05-15T10:32:51Z</time>
      </trkpt>
      <trkpt lat="48.20724" lon="3.26403">
        <ele>163</ele>
        <time>2011-05-15T10:32:52Z</time>
      </trkpt>
      <trkpt lat="48.20717" lon="3.26406">
        <ele>163</ele>
        <time>2011-05-15T10:32:53Z</time>
      </trkpt>
      <trkpt lat="48.2071" lon="3.2641">
        <ele>163</ele>
        <time>2011-05-15T10:32:54Z</time>
      </trkpt>
      <trkpt lat="48.20703" lon="3.26412">
        <ele>163</ele>
        <time>2011-05-15T10:32:55Z</time>
      </trkpt>
      <trkpt lat="48.20696" lon="3.26418">
        <ele>163</ele>
        <time>2011-05-15T10:32:56Z</time>
      </trkpt>
      <trkpt lat="48.20689" lon="3.26425">
        <ele>163</ele>
        <time>2011-05-15T10:32:57Z</time>
      </trkpt>
      <trkpt lat="48.20682" lon="3.26429">
        <ele>164</ele>
        <time>2011-05-15T10:32:58Z</time>
      </trkpt>
      <trkpt lat="48.20674" lon="3.26433">
        <ele>164</ele>
        <time>2011-05-15T10:32:59Z</time>
      </trkpt>
      <trkpt lat="48.20667" lon="3.2644">
        <ele>164</ele>
        <time>2011-05-15T10:33:00Z</time>
      </trkpt>
      <trkpt lat="48.20659" lon="3.26444">
        <ele>164</ele>
        <time>2011-05-15T10:33:01Z</time>
      </trkpt>
      <trkpt lat="48.2065" lon="3.26448">
        <ele>164</ele>
        <time>2011-05-15T10:33:02Z</time>
      </trkpt>
      <trkpt lat="48.20642" lon="3.2645">
        <ele>164</ele>
        <time>2011-05-15T10:33:03Z</time>
      </trkpt>
      <trkpt lat="48.20634" lon="3.26455">
        <ele>164</ele>
        <time>2011-05-15T10:33:04Z</time>
      </trkpt>
      <trkpt lat="48.20627" lon="3.26457">
        <ele>164</ele>
        <time>2011-05-15T10:33:05Z</time>
      </trkpt>
      <trkpt lat="48.20619" lon="3.26461">
        <ele>164</ele>
        <time>2011-05-15T10:33:06Z</time>
      </trkpt>
      <trkpt lat="48.20613" lon="3.26463">
        <ele>164</ele>
        <time>2011-05-15T10:33:07Z</time>
      </trkpt>
      <trkpt lat="48.20608" lon="3.26468">
        <ele>164</ele>
        <time>2011-05-15T10:33:08Z</time>
      </trkpt>
      <trkpt lat="48.20601" lon="3.2647">
        <ele>164</ele>
        <time>2011-05-15T10:33:09Z</time>
      </trkpt>
      <trkpt lat="48.20594" lon="3.2647">
        <ele>163</ele>
        <time>2011-05-15T10:33:10Z</time>
      </trkpt>
      <trkpt lat="48.20587" lon="3.26472">
        <ele>163</ele>
        <time>2011-05-15T10:33:11Z</time>
      </trkpt>
      <trkpt lat="48.20581" lon="3.26474">
        <ele>162</ele>
        <time>2011-05-15T10:33:12Z</time>
      </trkpt>
      <trkpt lat="48.20572" lon="3.26474">
        <ele>162</ele>
        <time>2011-05-15T10:33:14Z</time>
      </trkpt>
      <trkpt lat="48.20567" lon="3.26476">
        <ele>162</ele>
        <time>2011-05-15T10:33:16Z</time>
      </trkpt>
      <trkpt lat="48.20559" lon="3.26476">
        <ele>158</ele>
        <time>2011-05-15T10:33:37Z</time>
      </trkpt>
      <trkpt lat="48.20551" lon="3.26478">
        <ele>156</ele>
        <time>2011-05-15T10:33:40Z</time>
      </trkpt>
      <trkpt lat="48.20544" lon="3.26476">
        <ele>153</ele>
        <time>2011-05-15T10:33:43Z</time>
      </trkpt>
      <trkpt lat="48.20538" lon="3.26472">
        <ele>151</ele>
        <time>2011-05-15T10:33:46Z</time>
      </trkpt>
      <trkpt lat="48.20532" lon="3.26468">
        <ele>149</ele>
        <time>2011-05-15T10:33:48Z</time>
      </trkpt>
      <trkpt lat="48.20527" lon="3.26466">
        <ele>148</ele>
        <time>2011-05-15T10:33:50Z</time>
      </trkpt>
      <trkpt lat="48.2052" lon="3.26461">
        <ele>146</ele>
        <time>2011-05-15T10:33:53Z</time>
      </trkpt>
      <trkpt lat="48.20513" lon="3.26457">
        <ele>145</ele>
        <time>2011-05-15T10:33:55Z</time>
      </trkpt>
      <trkpt lat="48.20506" lon="3.26453">
        <ele>134</ele>
        <time>2011-05-15T10:33:57Z</time>
      </trkpt>
      <trkpt lat="48.20497" lon="3.26448">
        <ele>128</ele>
        <time>2011-05-15T10:33:59Z</time>
      </trkpt>
      <trkpt lat="48.20488" lon="3.26444">
        <ele>123</ele>
        <time>2011-05-15T10:34:01Z</time>
      </trkpt>
      <trkpt lat="48.20479" lon="3.2644">
        <ele>121</ele>
        <time>2011-05-15T10:34:03Z</time>
      </trkpt>
      <trkpt lat="48.20475" lon="3.26436">
        <ele>120</ele>
        <time>2011-05-15T10:34:04Z</time>
      </trkpt>
      <trkpt lat="48.20469" lon="3.26433">
        <ele>119</ele>
        <time>2011-05-15T10:34:05Z</time>
      </trkpt>
      <trkpt lat="48.2046" lon="3.26429">
        <ele>118</ele>
        <time>2011-05-15T10:34:07Z</time>
      </trkpt>
      <trkpt lat="48.20455" lon="3.26427">
        <ele>117</ele>
        <time>2011-05-15T10:34:08Z</time>
      </trkpt>
      <trkpt lat="48.20447" lon="3.26425">
        <ele>117</ele>
        <time>2011-05-15T10:34:10Z</time>
      </trkpt>
      <trkpt lat="48.20439" lon="3.26423">
        <ele>116</ele>
        <time>2011-05-15T10:34:12Z</time>
      </trkpt>
      <trkpt lat="48.20432" lon="3.26423">
        <ele>116</ele>
        <time>2011-05-15T10:34:14Z</time>
      </trkpt>
      <trkpt lat="48.20424" lon="3.2642">
        <ele>116</ele>
        <time>2011-05-15T10:34:16Z</time>
      </trkpt>
      <trkpt lat="48.20417" lon="3.2642">
        <ele>116</ele>
        <time>2011-05-15T10:34:18Z</time>
      </trkpt>
      <trkpt lat="48.2041" lon="3.2642">
        <ele>116</ele>
        <time>2011-05-15T10:34:20Z</time>
      </trkpt>
      <trkpt lat="48.20405" lon="3.2642">
        <ele>116</ele>
        <time>2011-05-15T10:34:22Z</time>
      </trkpt>
      <trkpt lat="48.20398" lon="3.26425">
        <ele>116</ele>
        <time>2011-05-15T10:34:25Z</time>
      </trkpt>
      <trkpt lat="48.20397" lon="3.26433">
        <ele>117</ele>
        <time>2011-05-15T10:34:27Z</time>
      </trkpt>
      <trkpt lat="48.20403" lon="3.26442">
        <ele>117</ele>
        <time>2011-05-15T10:34:29Z</time>
      </trkpt>
      <trkpt lat="48.2041" lon="3.26444">
        <ele>117</ele>
        <time>2011-05-15T10:34:31Z</time>
      </trkpt>
      <trkpt lat="48.20418" lon="3.26446">
        <ele>117</ele>
        <time>2011-05-15T10:34:33Z</time>
      </trkpt>
      <trkpt lat="48.20422" lon="3.26448">
        <ele>116</ele>
        <time>2011-05-15T10:34:34Z</time>
      </trkpt>
      <trkpt lat="48.2043" lon="3.2645">
        <ele>116</ele>
        <time>2011-05-15T10:34:36Z</time>
      </trkpt>
      <trkpt lat="48.20434" lon="3.26453">
        <ele>116</ele>
        <time>2011-05-15T10:34:37Z</time>
      </trkpt>
      <trkpt lat="48.20441" lon="3.26455">
        <ele>116</ele>
        <time>2011-05-15T10:34:39Z</time>
      </trkpt>
      <trkpt lat="48.20449" lon="3.26457">
        <ele>116</ele>
        <time>2011-05-15T10:34:41Z</time>
      </trkpt>
      <trkpt lat="48.20455" lon="3.26459">
        <ele>116</ele>
        <time>2011-05-15T10:34:43Z</time>
      </trkpt>
      <trkpt lat="48.20462" lon="3.26461">
        <ele>116</ele>
        <time>2011-05-15T10:34:45Z</time>
      </trkpt>
      <trkpt lat="48.20468" lon="3.26466">
        <ele>116</ele>
        <time>2011-05-15T10:34:47Z</time>
      </trkpt>
      <trkpt lat="48.20475" lon="3.26468">
        <ele>116</ele>
        <time>2011-05-15T10:34:49Z</time>
      </trkpt>
      <trkpt lat="48.20479" lon="3.2647">
        <ele>116</ele>
        <time>2011-05-15T10:34:50Z</time>
      </trkpt>
      <trkpt lat="48.20485" lon="3.26474">
        <ele>116</ele>
        <time>2011-05-15T10:34:52Z</time>
      </trkpt>
      <trkpt lat="48.20492" lon="3.26478">
        <ele>116</ele>
        <time>2011-05-15T10:34:54Z</time>
      </trkpt>
      <trkpt lat="48.20499" lon="3.26485">
        <ele>117</ele>
        <time>2011-05-15T10:34:56Z</time>
      </trkpt>
      <trkpt lat="48.20506" lon="3.26491">
        <ele>117</ele>
        <time>2011-05-15T10:34:58Z</time>
      </trkpt>
      <trkpt lat="48.20512" lon="3.26498">
        <ele>117</ele>
        <time>2011-05-15T10:35:00Z</time>
      </trkpt>
      <trkpt lat="48.20519" lon="3.26504">
        <ele>117</ele>
        <time>2011-05-15T10:35:02Z</time>
      </trkpt>
      <trkpt lat="48.20525" lon="3.26511">
        <ele>117</ele>
        <time>2011-05-15T10:35:04Z</time>
      </trkpt>
      <trkpt lat="48.20531" lon="3.26517">
        <ele>118</ele>
        <time>2011-05-15T10:35:06Z</time>
      </trkpt>
      <trkpt lat="48.20539" lon="3.26524">
        <ele>117</ele>
        <time>2011-05-15T10:35:08Z</time>
      </trkpt>
      <trkpt lat="48.20545" lon="3.2653">
        <ele>117</ele>
        <time>2011-05-15T10:35:10Z</time>
      </trkpt>
      <trkpt lat="48.2055" lon="3.26534">
        <ele>117</ele>
        <time>2011-05-15T10:35:11Z</time>
      </trkpt>
      <trkpt lat="48.20556" lon="3.26543">
        <ele>117</ele>
        <time>2011-05-15T10:35:13Z</time>
      </trkpt>
      <trkpt lat="48.20563" lon="3.26549">
        <ele>117</ele>
        <time>2011-05-15T10:35:15Z</time>
      </trkpt>
      <trkpt lat="48.20569" lon="3.26558">
        <ele>118</ele>
        <time>2011-05-15T10:35:17Z</time>
      </trkpt>
      <trkpt lat="48.20575" lon="3.26564">
        <ele>119</ele>
        <time>2011-05-15T10:35:19Z</time>
      </trkpt>
      <trkpt lat="48.20582" lon="3.26573">
        <ele>120</ele>
        <time>2011-05-15T10:35:21Z</time>
      </trkpt>
      <trkpt lat="48.20588" lon="3.26584">
        <ele>120</ele>
        <time>2011-05-15T10:35:23Z</time>
      </trkpt>
      <trkpt lat="48.20594" lon="3.26592">
        <ele>120</ele>
        <time>2011-05-15T10:35:25Z</time>
      </trkpt>
      <trkpt lat="48.20597" lon="3.26599">
        <ele>120</ele>
        <time>2011-05-15T10:35:26Z</time>
      </trkpt>
      <trkpt lat="48.20603" lon="3.26609">
        <ele>120</ele>
        <time>2011-05-15T10:35:28Z</time>
      </trkpt>
      <trkpt lat="48.20606" lon="3.26616">
        <ele>120</ele>
        <time>2011-05-15T10:35:29Z</time>
      </trkpt>
      <trkpt lat="48.20612" lon="3.26626">
        <ele>120</ele>
        <time>2011-05-15T10:35:31Z</time>
      </trkpt>
      <trkpt lat="48.20615" lon="3.26633">
        <ele>120</ele>
        <time>2011-05-15T10:35:32Z</time>
      </trkpt>
      <trkpt lat="48.20617" lon="3.26639">
        <ele>120</ele>
        <time>2011-05-15T10:35:33Z</time>
      </trkpt>
      <trkpt lat="48.2062" lon="3.26646">
        <ele>121</ele>
        <time>2011-05-15T10:35:34Z</time>
      </trkpt>
      <trkpt lat="48.20623" lon="3.26654">
        <ele>121</ele>
        <time>2011-05-15T10:35:35Z</time>
      </trkpt>
      <trkpt lat="48.20626" lon="3.26661">
        <ele>121</ele>
        <time>2011-05-15T10:35:36Z</time>
      </trkpt>
      <trkpt lat="48.20629" lon="3.26667">
        <ele>121</ele>
        <time>2011-05-15T10:35:37Z</time>
      </trkpt>
      <trkpt lat="48.20631" lon="3.26676">
        <ele>121</ele>
        <time>2011-05-15T10:35:38Z</time>
      </trkpt>
      <trkpt lat="48.20634" lon="3.26682">
        <ele>121</ele>
        <time>2011-05-15T10:35:39Z</time>
      </trkpt>
      <trkpt lat="48.20637" lon="3.26691">
        <ele>121</ele>
        <time>2011-05-15T10:35:40Z</time>
      </trkpt>
      <trkpt lat="48.20639" lon="3.26699">
        <ele>121</ele>
        <time>2011-05-15T10:35:41Z</time>
      </trkpt>
      <trkpt lat="48.20641" lon="3.26708">
        <ele>121</ele>
        <time>2011-05-15T10:35:42Z</time>
      </trkpt>
      <trkpt lat="48.20643" lon="3.26717">
        <ele>121</ele>
        <time>2011-05-15T10:35:43Z</time>
      </trkpt>
      <trkpt lat="48.20645" lon="3.26725">
        <ele>121</ele>
        <time>2011-05-15T10:35:44Z</time>
      </trkpt>
      <trkpt lat="48.20647" lon="3.26734">
        <ele>121</ele>
        <time>2011-05-15T10:35:45Z</time>
      </trkpt>
      <trkpt lat="48.20648" lon="3.26742">
        <ele>121</ele>
        <time>2011-05-15T10:35:46Z</time>
      </trkpt>
      <trkpt lat="48.2065" lon="3.26751">
        <ele>121</ele>
        <time>2011-05-15T10:35:47Z</time>
      </trkpt>
      <trkpt lat="48.20653" lon="3.2676">
        <ele>121</ele>
        <time>2011-05-15T10:35:48Z</time>
      </trkpt>
      <trkpt lat="48.20655" lon="3.26768">
        <ele>121</ele>
        <time>2011-05-15T10:35:49Z</time>
      </trkpt>
      <trkpt lat="48.20656" lon="3.26777">
        <ele>120</ele>
        <time>2011-05-15T10:35:50Z</time>
      </trkpt>
      <trkpt lat="48.20657" lon="3.26787">
        <ele>120</ele>
        <time>2011-05-15T10:35:51Z</time>
      </trkpt>
      <trkpt lat="48.20659" lon="3.26796">
        <ele>120</ele>
        <time>2011-05-15T10:35:52Z</time>
      </trkpt>
      <trkpt lat="48.2066" lon="3.26805">
        <ele>120</ele>
        <time>2011-05-15T10:35:53Z</time>
      </trkpt>
      <trkpt lat="48.20662" lon="3.26815">
        <ele>120</ele>
        <time>2011-05-15T10:35:54Z</time>
      </trkpt>
      <trkpt lat="48.20663" lon="3.26824">
        <ele>120</ele>
        <time>2011-05-15T10:35:55Z</time>
      </trkpt>
      <trkpt lat="48.20664" lon="3.26835">
        <ele>120</ele>
        <time>2011-05-15T10:35:56Z</time>
      </trkpt>
      <trkpt lat="48.20667" lon="3.26843">
        <ele>120</ele>
        <time>2011-05-15T10:35:57Z</time>
      </trkpt>
      <trkpt lat="48.20669" lon="3.26852">
        <ele>120</ele>
        <time>2011-05-15T10:35:58Z</time>
      </trkpt>
      <trkpt lat="48.2067" lon="3.26862">
        <ele>119</ele>
        <time>2011-05-15T10:35:59Z</time>
      </trkpt>
      <trkpt lat="48.20672" lon="3.26871">
        <ele>119</ele>
        <time>2011-05-15T10:36:00Z</time>
      </trkpt>
      <trkpt lat="48.20674" lon="3.2688">
        <ele>119</ele>
        <time>2011-05-15T10:36:01Z</time>
      </trkpt>
      <trkpt lat="48.20676" lon="3.26888">
        <ele>119</ele>
        <time>2011-05-15T10:36:02Z</time>
      </trkpt>
      <trkpt lat="48.20678" lon="3.26899">
        <ele>119</ele>
        <time>2011-05-15T10:36:03Z</time>
      </trkpt>
      <trkpt lat="48.20681" lon="3.26908">
        <ele>119</ele>
        <time>2011-05-15T10:36:04Z</time>
      </trkpt>
      <trkpt lat="48.20683" lon="3.26918">
        <ele>119</ele>
        <time>2011-05-15T10:36:05Z</time>
      </trkpt>
      <trkpt lat="48.20685" lon="3.26929">
        <ele>119</ele>
        <time>2011-05-15T10:36:06Z</time>
      </trkpt>
      <trkpt lat="48.20687" lon="3.2694">
        <ele>118</ele>
        <time>2011-05-15T10:36:07Z</time>
      </trkpt>
      <trkpt lat="48.20688" lon="3.26948">
        <ele>118</ele>
        <time>2011-05-15T10:36:08Z</time>
      </trkpt>
      <trkpt lat="48.2069" lon="3.26959">
        <ele>117</ele>
        <time>2011-05-15T10:36:09Z</time>
      </trkpt>
      <trkpt lat="48.20691" lon="3.2697">
        <ele>117</ele>
        <time>2011-05-15T10:36:10Z</time>
      </trkpt>
      <trkpt lat="48.20693" lon="3.2698">
        <ele>116</ele>
        <time>2011-05-15T10:36:11Z</time>
      </trkpt>
      <trkpt lat="48.20694" lon="3.26991">
        <ele>116</ele>
        <time>2011-05-15T10:36:12Z</time>
      </trkpt>
      <trkpt lat="48.20696" lon="3.27002">
        <ele>116</ele>
        <time>2011-05-15T10:36:13Z</time>
      </trkpt>
      <trkpt lat="48.20693" lon="3.27013">
        <ele>115</ele>
        <time>2011-05-15T10:36:14Z</time>
      </trkpt>
      <trkpt lat="48.20691" lon="3.27024">
        <ele>115</ele>
        <time>2011-05-15T10:36:15Z</time>
      </trkpt>
      <trkpt lat="48.20687" lon="3.2703">
        <ele>114</ele>
        <time>2011-05-15T10:36:16Z</time>
      </trkpt>
      <trkpt lat="48.20684" lon="3.27038">
        <ele>114</ele>
        <time>2011-05-15T10:36:17Z</time>
      </trkpt>
      <trkpt lat="48.20677" lon="3.27043">
        <ele>114</ele>
        <time>2011-05-15T10:36:18Z</time>
      </trkpt>
      <trkpt lat="48.20672" lon="3.27047">
        <ele>114</ele>
        <time>2011-05-15T10:36:19Z</time>
      </trkpt>
      <trkpt lat="48.20667" lon="3.27051">
        <ele>114</ele>
        <time>2011-05-15T10:36:20Z</time>
      </trkpt>
      <trkpt lat="48.2066" lon="3.27056">
        <ele>114</ele>
        <time>2011-05-15T10:36:21Z</time>
      </trkpt>
      <trkpt lat="48.20654" lon="3.27058">
        <ele>115</ele>
        <time>2011-05-15T10:36:22Z</time>
      </trkpt>
      <trkpt lat="48.20648" lon="3.2706">
        <ele>115</ele>
        <time>2011-05-15T10:36:23Z</time>
      </trkpt>
      <trkpt lat="48.20643" lon="3.27064">
        <ele>115</ele>
        <time>2011-05-15T10:36:24Z</time>
      </trkpt>
      <trkpt lat="48.20637" lon="3.27066">
        <ele>115</ele>
        <time>2011-05-15T10:36:25Z</time>
      </trkpt>
      <trkpt lat="48.20631" lon="3.27068">
        <ele>116</ele>
        <time>2011-05-15T10:36:26Z</time>
      </trkpt>
      <trkpt lat="48.20626" lon="3.27071">
        <ele>116</ele>
        <time>2011-05-15T10:36:27Z</time>
      </trkpt>
      <trkpt lat="48.2062" lon="3.27075">
        <ele>116</ele>
        <time>2011-05-15T10:36:28Z</time>
      </trkpt>
      <trkpt lat="48.20611" lon="3.27079">
        <ele>116</ele>
        <time>2011-05-15T10:36:30Z</time>
      </trkpt>
      <trkpt lat="48.20606" lon="3.27081">
        <ele>116</ele>
        <time>2011-05-15T10:36:31Z</time>
      </trkpt>
      <trkpt lat="48.20601" lon="3.27084">
        <ele>116</ele>
        <time>2011-05-15T10:36:32Z</time>
      </trkpt>
      <trkpt lat="48.20596" lon="3.27086">
        <ele>116</ele>
        <time>2011-05-15T10:36:33Z</time>
      </trkpt>
      <trkpt lat="48.2059" lon="3.2709">
        <ele>116</ele>
        <time>2011-05-15T10:36:34Z</time>
      </trkpt>
      <trkpt lat="48.20585" lon="3.27092">
        <ele>116</ele>
        <time>2011-05-15T10:36:35Z</time>
      </trkpt>
      <trkpt lat="48.2058" lon="3.27094">
        <ele>117</ele>
        <time>2011-05-15T10:36:36Z</time>
      </trkpt>
      <trkpt lat="48.20574" lon="3.27096">
        <ele>117</ele>
        <time>2011-05-15T10:36:37Z</time>
      </trkpt>
      <trkpt lat="48.2057" lon="3.27099">
        <ele>117</ele>
        <time>2011-05-15T10:36:38Z</time>
      </trkpt>
      <trkpt lat="48.20565" lon="3.27101">
        <ele>117</ele>
        <time>2011-05-15T10:36:39Z</time>
      </trkpt>
      <trkpt lat="48.20559" lon="3.27103">
        <ele>117</ele>
        <time>2011-05-15T10:36:40Z</time>
      </trkpt>
      <trkpt lat="48.20554" lon="3.27105">
        <ele>117</ele>
        <time>2011-05-15T10:36:41Z</time>
      </trkpt>
      <trkpt lat="48.20549" lon="3.27109">
        <ele>117</ele>
        <time>2011-05-15T10:36:42Z</time>
      </trkpt>
      <trkpt lat="48.20543" lon="3.27111">
        <ele>117</ele>
        <time>2011-05-15T10:36:43Z</time>
      </trkpt>
      <trkpt lat="48.20534" lon="3.27116">
        <ele>117</ele>
        <time>2011-05-15T10:36:45Z</time>
      </trkpt>
      <trkpt lat="48.20528" lon="3.27118">
        <ele>117</ele>
        <time>2011-05-15T10:36:46Z</time>
      </trkpt>
      <trkpt lat="48.20523" lon="3.27122">
        <ele>117</ele>
        <time>2011-05-15T10:36:47Z</time>
      </trkpt>
      <trkpt lat="48.20518" lon="3.27124">
        <ele>117</ele>
        <time>2011-05-15T10:36:48Z</time>
      </trkpt>
      <trkpt lat="48.20512" lon="3.27126">
        <ele>117</ele>
        <time>2011-05-15T10:36:49Z</time>
      </trkpt>
      <trkpt lat="48.20507" lon="3.27129">
        <ele>117</ele>
        <time>2011-05-15T10:36:50Z</time>
      </trkpt>
      <trkpt lat="48.20501" lon="3.27133">
        <ele>117</ele>
        <time>2011-05-15T10:36:51Z</time>
      </trkpt>
      <trkpt lat="48.20496" lon="3.27135">
        <ele>117</ele>
        <time>2011-05-15T10:36:52Z</time>
      </trkpt>
      <trkpt lat="48.20486" lon="3.27139">
        <ele>117</ele>
        <time>2011-05-15T10:36:54Z</time>
      </trkpt>
      <trkpt lat="48.20481" lon="3.27142">
        <ele>117</ele>
        <time>2011-05-15T10:36:55Z</time>
      </trkpt>
      <trkpt lat="48.20476" lon="3.27144">
        <ele>117</ele>
        <time>2011-05-15T10:36:56Z</time>
      </trkpt>
      <trkpt lat="48.2047" lon="3.27146">
        <ele>117</ele>
        <time>2011-05-15T10:36:57Z</time>
      </trkpt>
      <trkpt lat="48.20465" lon="3.2715">
        <ele>117</ele>
        <time>2011-05-15T10:36:58Z</time>
      </trkpt>
      <trkpt lat="48.20455" lon="3.27154">
        <ele>117</ele>
        <time>2011-05-15T10:37:00Z</time>
      </trkpt>
      <trkpt lat="48.2045" lon="3.27156">
        <ele>118</ele>
        <time>2011-05-15T10:37:01Z</time>
      </trkpt>
      <trkpt lat="48.20444" lon="3.27159">
        <ele>118</ele>
        <time>2011-05-15T10:37:02Z</time>
      </trkpt>
      <trkpt lat="48.20435" lon="3.27165">
        <ele>118</ele>
        <time>2011-05-15T10:37:04Z</time>
      </trkpt>
      <trkpt lat="48.20428" lon="3.27176">
        <ele>118</ele>
        <time>2011-05-15T10:37:06Z</time>
      </trkpt>
      <trkpt lat="48.20426" lon="3.27184">
        <ele>117</ele>
        <time>2011-05-15T10:37:07Z</time>
      </trkpt>
      <trkpt lat="48.20426" lon="3.27199">
        <ele>117</ele>
        <time>2011-05-15T10:37:09Z</time>
      </trkpt>
      <trkpt lat="48.20426" lon="3.27208">
        <ele>117</ele>
        <time>2011-05-15T10:37:10Z</time>
      </trkpt>
      <trkpt lat="48.20428" lon="3.27214">
        <ele>117</ele>
        <time>2011-05-15T10:37:11Z</time>
      </trkpt>
      <trkpt lat="48.2043" lon="3.27223">
        <ele>116</ele>
        <time>2011-05-15T10:37:12Z</time>
      </trkpt>
      <trkpt lat="48.20432" lon="3.27232">
        <ele>116</ele>
        <time>2011-05-15T10:37:13Z</time>
      </trkpt>
      <trkpt lat="48.20433" lon="3.2724">
        <ele>116</ele>
        <time>2011-05-15T10:37:14Z</time>
      </trkpt>
      <trkpt lat="48.20435" lon="3.27247">
        <ele>116</ele>
        <time>2011-05-15T10:37:15Z</time>
      </trkpt>
      <trkpt lat="48.20436" lon="3.27255">
        <ele>115</ele>
        <time>2011-05-15T10:37:16Z</time>
      </trkpt>
      <trkpt lat="48.20438" lon="3.27262">
        <ele>115</ele>
        <time>2011-05-15T10:37:17Z</time>
      </trkpt>
      <trkpt lat="48.20439" lon="3.2727">
        <ele>115</ele>
        <time>2011-05-15T10:37:18Z</time>
      </trkpt>
      <trkpt lat="48.20441" lon="3.27277">
        <ele>115</ele>
        <time>2011-05-15T10:37:19Z</time>
      </trkpt>
      <trkpt lat="48.20444" lon="3.27292">
        <ele>115</ele>
        <time>2011-05-15T10:37:21Z</time>
      </trkpt>
      <trkpt lat="48.20447" lon="3.27305">
        <ele>115</ele>
        <time>2011-05-15T10:37:23Z</time>
      </trkpt>
      <trkpt lat="48.20449" lon="3.27311">
        <ele>115</ele>
        <time>2011-05-15T10:37:24Z</time>
      </trkpt>
      <trkpt lat="48.2045" lon="3.2732">
        <ele>115</ele>
        <time>2011-05-15T10:37:25Z</time>
      </trkpt>
      <trkpt lat="48.20452" lon="3.27326">
        <ele>115</ele>
        <time>2011-05-15T10:37:26Z</time>
      </trkpt>
      <trkpt lat="48.20453" lon="3.27332">
        <ele>115</ele>
        <time>2011-05-15T10:37:27Z</time>
      </trkpt>
      <trkpt lat="48.20455" lon="3.27341">
        <ele>115</ele>
        <time>2011-05-15T10:37:28Z</time>
      </trkpt>
      <trkpt lat="48.20457" lon="3.27348">
        <ele>115</ele>
        <time>2011-05-15T10:37:29Z</time>
      </trkpt>
      <trkpt lat="48.2046" lon="3.27356">
        <ele>115</ele>
        <time>2011-05-15T10:37:30Z</time>
      </trkpt>
      <trkpt lat="48.20462" lon="3.27365">
        <ele>115</ele>
        <time>2011-05-15T10:37:31Z</time>
      </trkpt>
      <trkpt lat="48.20463" lon="3.27371">
        <ele>114</ele>
        <time>2011-05-15T10:37:32Z</time>
      </trkpt>
      <trkpt lat="48.20465" lon="3.2738">
        <ele>114</ele>
        <time>2011-05-15T10:37:33Z</time>
      </trkpt>
      <trkpt lat="48.20466" lon="3.27388">
        <ele>114</ele>
        <time>2011-05-15T10:37:34Z</time>
      </trkpt>
      <trkpt lat="48.20467" lon="3.27397">
        <ele>114</ele>
        <time>2011-05-15T10:37:35Z</time>
      </trkpt>
      <trkpt lat="48.20469" lon="3.27403">
        <ele>114</ele>
        <time>2011-05-15T10:37:36Z</time>
      </trkpt>
      <trkpt lat="48.2047" lon="3.27412">
        <ele>114</ele>
        <time>2011-05-15T10:37:37Z</time>
      </trkpt>
      <trkpt lat="48.20472" lon="3.2742">
        <ele>114</ele>
        <time>2011-05-15T10:37:38Z</time>
      </trkpt>
      <trkpt lat="48.20474" lon="3.27429">
        <ele>115</ele>
        <time>2011-05-15T10:37:39Z</time>
      </trkpt>
      <trkpt lat="48.20475" lon="3.27438">
        <ele>115</ele>
        <time>2011-05-15T10:37:40Z</time>
      </trkpt>
      <trkpt lat="48.20476" lon="3.27446">
        <ele>115</ele>
        <time>2011-05-15T10:37:41Z</time>
      </trkpt>
      <trkpt lat="48.20478" lon="3.27455">
        <ele>115</ele>
        <time>2011-05-15T10:37:42Z</time>
      </trkpt>
      <trkpt lat="48.20479" lon="3.27463">
        <ele>115</ele>
        <time>2011-05-15T10:37:43Z</time>
      </trkpt>
      <trkpt lat="48.2048" lon="3.27472">
        <ele>115</ele>
        <time>2011-05-15T10:37:44Z</time>
      </trkpt>
      <trkpt lat="48.20481" lon="3.2748">
        <ele>115</ele>
        <time>2011-05-15T10:37:45Z</time>
      </trkpt>
      <trkpt lat="48.20482" lon="3.27489">
        <ele>115</ele>
        <time>2011-05-15T10:37:46Z</time>
      </trkpt>
      <trkpt lat="48.20483" lon="3.27498">
        <ele>115</ele>
        <time>2011-05-15T10:37:47Z</time>
      </trkpt>
      <trkpt lat="48.20484" lon="3.27506">
        <ele>115</ele>
        <time>2011-05-15T10:37:48Z</time>
      </trkpt>
      <trkpt lat="48.20486" lon="3.27513">
        <ele>115</ele>
        <time>2011-05-15T10:37:49Z</time>
      </trkpt>
      <trkpt lat="48.20487" lon="3.27521">
        <ele>116</ele>
        <time>2011-05-15T10:37:50Z</time>
      </trkpt>
      <trkpt lat="48.20488" lon="3.2753">
        <ele>116</ele>
        <time>2011-05-15T10:37:51Z</time>
      </trkpt>
      <trkpt lat="48.2049" lon="3.27541">
        <ele>116</ele>
        <time>2011-05-15T10:37:52Z</time>
      </trkpt>
      <trkpt lat="48.2049" lon="3.27549">
        <ele>116</ele>
        <time>2011-05-15T10:37:53Z</time>
      </trkpt>
      <trkpt lat="48.20492" lon="3.27558">
        <ele>116</ele>
        <time>2011-05-15T10:37:54Z</time>
      </trkpt>
      <trkpt lat="48.20493" lon="3.27566">
        <ele>116</ele>
        <time>2011-05-15T10:37:55Z</time>
      </trkpt>
      <trkpt lat="48.20494" lon="3.27577">
        <ele>116</ele>
        <time>2011-05-15T10:37:56Z</time>
      </trkpt>
      <trkpt lat="48.20495" lon="3.27586">
        <ele>116</ele>
        <time>2011-05-15T10:37:57Z</time>
      </trkpt>
      <trkpt lat="48.20496" lon="3.27594">
        <ele>116</ele>
        <time>2011-05-15T10:37:58Z</time>
      </trkpt>
      <trkpt lat="48.20496" lon="3.27603">
        <ele>116</ele>
        <time>2011-05-15T10:37:59Z</time>
      </trkpt>
      <trkpt lat="48.20498" lon="3.27611">
        <ele>115</ele>
        <time>2011-05-15T10:38:00Z</time>
      </trkpt>
      <trkpt lat="48.20499" lon="3.27622">
        <ele>115</ele>
        <time>2011-05-15T10:38:01Z</time>
      </trkpt>
      <trkpt lat="48.205" lon="3.27631">
        <ele>115</ele>
        <time>2011-05-15T10:38:02Z</time>
      </trkpt>
      <trkpt lat="48.20501" lon="3.27641">
        <ele>115</ele>
        <time>2011-05-15T10:38:03Z</time>
      </trkpt>
      <trkpt lat="48.20502" lon="3.2765">
        <ele>115</ele>
        <time>2011-05-15T10:38:04Z</time>
      </trkpt>
      <trkpt lat="48.20504" lon="3.27659">
        <ele>115</ele>
        <time>2011-05-15T10:38:05Z</time>
      </trkpt>
      <trkpt lat="48.20505" lon="3.27667">
        <ele>115</ele>
        <time>2011-05-15T10:38:06Z</time>
      </trkpt>
      <trkpt lat="48.20506" lon="3.27678">
        <ele>115</ele>
        <time>2011-05-15T10:38:07Z</time>
      </trkpt>
      <trkpt lat="48.20507" lon="3.27686">
        <ele>115</ele>
        <time>2011-05-15T10:38:08Z</time>
      </trkpt>
      <trkpt lat="48.20509" lon="3.27695">
        <ele>115</ele>
        <time>2011-05-15T10:38:09Z</time>
      </trkpt>
      <trkpt lat="48.2051" lon="3.27704">
        <ele>115</ele>
        <time>2011-05-15T10:38:10Z</time>
      </trkpt>
      <trkpt lat="48.20512" lon="3.27712">
        <ele>115</ele>
        <time>2011-05-15T10:38:11Z</time>
      </trkpt>
      <trkpt lat="48.20513" lon="3.27719">
        <ele>115</ele>
        <time>2011-05-15T10:38:12Z</time>
      </trkpt>
      <trkpt lat="48.20515" lon="3.27727">
        <ele>115</ele>
        <time>2011-05-15T10:38:13Z</time>
      </trkpt>
      <trkpt lat="48.20516" lon="3.27736">
        <ele>115</ele>
        <time>2011-05-15T10:38:14Z</time>
      </trkpt>
      <trkpt lat="48.20515" lon="3.27744">
        <ele>115</ele>
        <time>2011-05-15T10:38:15Z</time>
      </trkpt>
      <trkpt lat="48.20512" lon="3.27751">
        <ele>115</ele>
        <time>2011-05-15T10:38:16Z</time>
      </trkpt>
      <trkpt lat="48.2051" lon="3.27757">
        <ele>114</ele>
        <time>2011-05-15T10:38:17Z</time>
      </trkpt>
      <trkpt lat="48.20507" lon="3.27766">
        <ele>114</ele>
        <time>2011-05-15T10:38:18Z</time>
      </trkpt>
      <trkpt lat="48.20504" lon="3.27772">
        <ele>114</ele>
        <time>2011-05-15T10:38:19Z</time>
      </trkpt>
      <trkpt lat="48.20496" lon="3.27783">
        <ele>115</ele>
        <time>2011-05-15T10:38:21Z</time>
      </trkpt>
      <trkpt lat="48.20491" lon="3.27785">
        <ele>115</ele>
        <time>2011-05-15T10:38:22Z</time>
      </trkpt>
      <trkpt lat="48.20483" lon="3.27792">
        <ele>115</ele>
        <time>2011-05-15T10:38:24Z</time>
      </trkpt>
      <trkpt lat="48.20479" lon="3.27796">
        <ele>115</ele>
        <time>2011-05-15T10:38:25Z</time>
      </trkpt>
      <trkpt lat="48.20471" lon="3.27802">
        <ele>115</ele>
        <time>2011-05-15T10:38:27Z</time>
      </trkpt>
      <trkpt lat="48.20467" lon="3.27807">
        <ele>115</ele>
        <time>2011-05-15T10:38:28Z</time>
      </trkpt>
      <trkpt lat="48.2046" lon="3.27813">
        <ele>116</ele>
        <time>2011-05-15T10:38:30Z</time>
      </trkpt>
      <trkpt lat="48.20455" lon="3.27817">
        <ele>116</ele>
        <time>2011-05-15T10:38:31Z</time>
      </trkpt>
      <trkpt lat="48.20451" lon="3.27822">
        <ele>117</ele>
        <time>2011-05-15T10:38:32Z</time>
      </trkpt>
      <trkpt lat="48.20444" lon="3.2783">
        <ele>117</ele>
        <time>2011-05-15T10:38:34Z</time>
      </trkpt>
      <trkpt lat="48.20436" lon="3.27839">
        <ele>117</ele>
        <time>2011-05-15T10:38:36Z</time>
      </trkpt>
      <trkpt lat="48.20428" lon="3.27847">
        <ele>116</ele>
        <time>2011-05-15T10:38:38Z</time>
      </trkpt>
      <trkpt lat="48.20422" lon="3.27856">
        <ele>116</ele>
        <time>2011-05-15T10:38:40Z</time>
      </trkpt>
      <trkpt lat="48.20418" lon="3.27862">
        <ele>117</ele>
        <time>2011-05-15T10:38:41Z</time>
      </trkpt>
      <trkpt lat="48.20413" lon="3.27867">
        <ele>117</ele>
        <time>2011-05-15T10:38:42Z</time>
      </trkpt>
      <trkpt lat="48.20406" lon="3.27875">
        <ele>118</ele>
        <time>2011-05-15T10:38:44Z</time>
      </trkpt>
      <trkpt lat="48.20402" lon="3.27882">
        <ele>118</ele>
        <time>2011-05-15T10:38:45Z</time>
      </trkpt>
      <trkpt lat="48.20397" lon="3.27886">
        <ele>118</ele>
        <time>2011-05-15T10:38:46Z</time>
      </trkpt>
      <trkpt lat="48.20393" lon="3.2789">
        <ele>118</ele>
        <time>2011-05-15T10:38:47Z</time>
      </trkpt>
      <trkpt lat="48.20389" lon="3.27897">
        <ele>118</ele>
        <time>2011-05-15T10:38:48Z</time>
      </trkpt>
      <trkpt lat="48.20384" lon="3.27901">
        <ele>118</ele>
        <time>2011-05-15T10:38:49Z</time>
      </trkpt>
      <trkpt lat="48.2038" lon="3.27905">
        <ele>118</ele>
        <time>2011-05-15T10:38:50Z</time>
      </trkpt>
      <trkpt lat="48.20376" lon="3.2791">
        <ele>118</ele>
        <time>2011-05-15T10:38:51Z</time>
      </trkpt>
      <trkpt lat="48.20372" lon="3.27914">
        <ele>118</ele>
        <time>2011-05-15T10:38:52Z</time>
      </trkpt>
      <trkpt lat="48.20367" lon="3.2792">
        <ele>118</ele>
        <time>2011-05-15T10:38:53Z</time>
      </trkpt>
      <trkpt lat="48.2036" lon="3.27929">
        <ele>119</ele>
        <time>2011-05-15T10:38:55Z</time>
      </trkpt>
      <trkpt lat="48.20356" lon="3.27933">
        <ele>119</ele>
        <time>2011-05-15T10:38:56Z</time>
      </trkpt>
      <trkpt lat="48.2035" lon="3.27938">
        <ele>119</ele>
        <time>2011-05-15T10:38:57Z</time>
      </trkpt>
      <trkpt lat="48.20346" lon="3.27944">
        <ele>119</ele>
        <time>2011-05-15T10:38:58Z</time>
      </trkpt>
      <trkpt lat="48.20342" lon="3.27948">
        <ele>119</ele>
        <time>2011-05-15T10:38:59Z</time>
      </trkpt>
      <trkpt lat="48.20337" lon="3.27953">
        <ele>119</ele>
        <time>2011-05-15T10:39:00Z</time>
      </trkpt>
      <trkpt lat="48.20332" lon="3.27959">
        <ele>119</ele>
        <time>2011-05-15T10:39:01Z</time>
      </trkpt>
      <trkpt lat="48.20328" lon="3.27963">
        <ele>119</ele>
        <time>2011-05-15T10:39:02Z</time>
      </trkpt>
      <trkpt lat="48.20323" lon="3.27968">
        <ele>119</ele>
        <time>2011-05-15T10:39:03Z</time>
      </trkpt>
      <trkpt lat="48.20319" lon="3.27972">
        <ele>119</ele>
        <time>2011-05-15T10:39:04Z</time>
      </trkpt>
      <trkpt lat="48.20312" lon="3.27978">
        <ele>119</ele>
        <time>2011-05-15T10:39:06Z</time>
      </trkpt>
      <trkpt lat="48.20307" lon="3.27983">
        <ele>119</ele>
        <time>2011-05-15T10:39:07Z</time>
      </trkpt>
      <trkpt lat="48.20303" lon="3.27987">
        <ele>119</ele>
        <time>2011-05-15T10:39:08Z</time>
      </trkpt>
      <trkpt lat="48.203" lon="3.27993">
        <ele>119</ele>
        <time>2011-05-15T10:39:09Z</time>
      </trkpt>
      <trkpt lat="48.20293" lon="3.28004">
        <ele>120</ele>
        <time>2011-05-15T10:39:11Z</time>
      </trkpt>
      <trkpt lat="48.20287" lon="3.28013">
        <ele>120</ele>
        <time>2011-05-15T10:39:13Z</time>
      </trkpt>
      <trkpt lat="48.2028" lon="3.28021">
        <ele>120</ele>
        <time>2011-05-15T10:39:15Z</time>
      </trkpt>
      <trkpt lat="48.20276" lon="3.2803">
        <ele>120</ele>
        <time>2011-05-15T10:39:17Z</time>
      </trkpt>
      <trkpt lat="48.20272" lon="3.28034">
        <ele>120</ele>
        <time>2011-05-15T10:39:19Z</time>
      </trkpt>
      <trkpt lat="48.20268" lon="3.28038">
        <ele>120</ele>
        <time>2011-05-15T10:39:21Z</time>
      </trkpt>
      <trkpt lat="48.20264" lon="3.28045">
        <ele>120</ele>
        <time>2011-05-15T10:39:33Z</time>
      </trkpt>
      <trkpt lat="48.20264" lon="3.28045">
        <ele>120</ele>
        <time>2011-05-15T10:39:33Z</time>
      </trkpt>
      <trkpt lat="48.20264" lon="3.28045">
        <ele>120</ele>
        <time>2011-05-15T10:39:34Z</time>
      </trkpt>
      <trkpt lat="48.2026" lon="3.28051">
        <ele>120</ele>
        <time>2011-05-15T10:39:38Z</time>
      </trkpt>
      <trkpt lat="48.2026" lon="3.28051">
        <ele>120</ele>
        <time>2011-05-15T10:39:38Z</time>
      </trkpt>
      <trkpt lat="48.2026" lon="3.28051">
        <ele>120</ele>
        <time>2011-05-15T10:40:11Z</time>
      </trkpt>
      <trkpt lat="48.20258" lon="3.28058">
        <ele>119</ele>
        <time>2011-05-15T10:40:12Z</time>
      </trkpt>
      <trkpt lat="48.20258" lon="3.28058">
        <ele>119</ele>
        <time>2011-05-15T10:40:12Z</time>
      </trkpt>
      <trkpt lat="48.20258" lon="3.28058">
        <ele>119</ele>
        <time>2011-05-15T10:40:16Z</time>
      </trkpt>
      <trkpt lat="48.20264" lon="3.2806">
        <ele>118</ele>
        <time>2011-05-15T10:41:16Z</time>
      </trkpt>
      <trkpt lat="48.2027" lon="3.28056">
        <ele>118</ele>
        <time>2011-05-15T10:41:21Z</time>
      </trkpt>
      <trkpt lat="48.2027" lon="3.28056">
        <ele>118</ele>
        <time>2011-05-15T10:41:21Z</time>
      </trkpt>
      <trkpt lat="48.2027" lon="3.28056">
        <ele>118</ele>
        <time>2011-05-15T10:41:29Z</time>
      </trkpt>
      <trkpt lat="48.20276" lon="3.28051">
        <ele>117</ele>
        <time>2011-05-15T10:41:30Z</time>
      </trkpt>
      <trkpt lat="48.20276" lon="3.28051">
        <ele>117</ele>
        <time>2011-05-15T10:41:30Z</time>
      </trkpt>
    </trkseg>
  </trk>
</gpx>